<?xml version="1.0" encoding="UTF-8" standalone="no" ?>
<gpx xmlns="http://www.topografix.com/GPX/1/1" xmlns:xsi="http://www.w3.org/2001/XMLSchema-instance" xsi:schemaLocation="http://www.topografix.com/GPX/1/1 http://www.topografix.com/GPX/1/1/gpx.xsd" version="1.1" creator="VisuGPX - https://www.visugpx.com">
  <metadata>
    <name>LGT : Plourac'h</name>
    <desc><![CDATA[Une variante raccourcie du circuit "Hent an Lanniou" proposé par la Communauté de Communes de Callac sur la commune de Plourac'h. Dans un décor vallonné, vous partirez du hameau de Restambic puis passerez dans le magnifique décor des landes de Saint-Maudez, escaladerez le Rocher de Kerguz en empruntant de jolis sentiers sauvages, des chemins de campagne agréables. Une balade d'environ 11 km]]></desc>
  </metadata>
  <trk>
    <name><![CDATA[LGT : Plourac'h_1]]></name>
    <trkseg>
      <trkpt lat="48.42388" lon="-3.55728">
        <ele>207</ele>
        <time>2015-03-22T09:10:28.1Z</time>
      </trkpt>
      <trkpt lat="48.42388" lon="-3.55727">
        <ele>208</ele>
        <time>2015-03-22T09:10:30.1Z</time>
      </trkpt>
      <trkpt lat="48.42387" lon="-3.55726">
        <ele>208</ele>
        <time>2015-03-22T09:10:32.1Z</time>
      </trkpt>
      <trkpt lat="48.42384" lon="-3.55723">
        <ele>207</ele>
        <time>2015-03-22T09:10:35.1Z</time>
      </trkpt>
      <trkpt lat="48.42383" lon="-3.55721">
        <ele>207</ele>
        <time>2015-03-22T09:10:37.1Z</time>
      </trkpt>
      <trkpt lat="48.42381" lon="-3.5572">
        <ele>207</ele>
        <time>2015-03-22T09:10:39.1Z</time>
      </trkpt>
      <trkpt lat="48.42378" lon="-3.55717">
        <ele>207</ele>
        <time>2015-03-22T09:10:42.1Z</time>
      </trkpt>
      <trkpt lat="48.42376" lon="-3.55713">
        <ele>207</ele>
        <time>2015-03-22T09:10:45.1Z</time>
      </trkpt>
      <trkpt lat="48.42374" lon="-3.55712">
        <ele>207</ele>
        <time>2015-03-22T09:10:47.1Z</time>
      </trkpt>
      <trkpt lat="48.42372" lon="-3.55709">
        <ele>207</ele>
        <time>2015-03-22T09:10:50.1Z</time>
      </trkpt>
      <trkpt lat="48.42369" lon="-3.55705">
        <ele>207</ele>
        <time>2015-03-22T09:10:53.1Z</time>
      </trkpt>
      <trkpt lat="48.42368" lon="-3.55703">
        <ele>207</ele>
        <time>2015-03-22T09:10:56.1Z</time>
      </trkpt>
      <trkpt lat="48.42366" lon="-3.557">
        <ele>207</ele>
        <time>2015-03-22T09:10:58.1Z</time>
      </trkpt>
      <trkpt lat="48.42365" lon="-3.55698">
        <ele>207</ele>
        <time>2015-03-22T09:11:00.1Z</time>
      </trkpt>
      <trkpt lat="48.42363" lon="-3.55695">
        <ele>207</ele>
        <time>2015-03-22T09:11:03.1Z</time>
      </trkpt>
      <trkpt lat="48.42361" lon="-3.55693">
        <ele>207</ele>
        <time>2015-03-22T09:11:05.1Z</time>
      </trkpt>
      <trkpt lat="48.4236" lon="-3.55691">
        <ele>207</ele>
        <time>2015-03-22T09:11:07.1Z</time>
      </trkpt>
      <trkpt lat="48.42358" lon="-3.55687">
        <ele>208</ele>
        <time>2015-03-22T09:11:10.1Z</time>
      </trkpt>
      <trkpt lat="48.42357" lon="-3.55685">
        <ele>208</ele>
        <time>2015-03-22T09:11:12.1Z</time>
      </trkpt>
      <trkpt lat="48.42355" lon="-3.55683">
        <ele>207</ele>
        <time>2015-03-22T09:11:14.1Z</time>
      </trkpt>
      <trkpt lat="48.42353" lon="-3.55681">
        <ele>207</ele>
        <time>2015-03-22T09:11:17.1Z</time>
      </trkpt>
      <trkpt lat="48.4235" lon="-3.55681">
        <ele>207</ele>
        <time>2015-03-22T09:11:19.1Z</time>
      </trkpt>
      <trkpt lat="48.42347" lon="-3.55681">
        <ele>207</ele>
        <time>2015-03-22T09:11:22.1Z</time>
      </trkpt>
      <trkpt lat="48.42344" lon="-3.55682">
        <ele>207</ele>
        <time>2015-03-22T09:11:25.1Z</time>
      </trkpt>
      <trkpt lat="48.42341" lon="-3.55684">
        <ele>207</ele>
        <time>2015-03-22T09:11:28.1Z</time>
      </trkpt>
      <trkpt lat="48.42337" lon="-3.55686">
        <ele>207</ele>
        <time>2015-03-22T09:11:31.1Z</time>
      </trkpt>
      <trkpt lat="48.42335" lon="-3.55687">
        <ele>207</ele>
        <time>2015-03-22T09:11:33.1Z</time>
      </trkpt>
      <trkpt lat="48.42333" lon="-3.55689">
        <ele>207</ele>
        <time>2015-03-22T09:11:35.1Z</time>
      </trkpt>
      <trkpt lat="48.4233" lon="-3.55692">
        <ele>207</ele>
        <time>2015-03-22T09:11:38.1Z</time>
      </trkpt>
      <trkpt lat="48.42327" lon="-3.55693">
        <ele>206</ele>
        <time>2015-03-22T09:11:41.1Z</time>
      </trkpt>
      <trkpt lat="48.42325" lon="-3.55694">
        <ele>206</ele>
        <time>2015-03-22T09:11:43.1Z</time>
      </trkpt>
      <trkpt lat="48.42322" lon="-3.55697">
        <ele>206</ele>
        <time>2015-03-22T09:11:46.1Z</time>
      </trkpt>
      <trkpt lat="48.42321" lon="-3.557">
        <ele>206</ele>
        <time>2015-03-22T09:11:48.1Z</time>
      </trkpt>
      <trkpt lat="48.42319" lon="-3.55702">
        <ele>206</ele>
        <time>2015-03-22T09:11:50.1Z</time>
      </trkpt>
      <trkpt lat="48.42316" lon="-3.55706">
        <ele>205</ele>
        <time>2015-03-22T09:11:53.1Z</time>
      </trkpt>
      <trkpt lat="48.42313" lon="-3.5571">
        <ele>205</ele>
        <time>2015-03-22T09:11:56.1Z</time>
      </trkpt>
      <trkpt lat="48.42311" lon="-3.55712">
        <ele>205</ele>
        <time>2015-03-22T09:11:58.1Z</time>
      </trkpt>
      <trkpt lat="48.42308" lon="-3.55716">
        <ele>205</ele>
        <time>2015-03-22T09:12:01.1Z</time>
      </trkpt>
      <trkpt lat="48.42305" lon="-3.55719">
        <ele>205</ele>
        <time>2015-03-22T09:12:04.1Z</time>
      </trkpt>
      <trkpt lat="48.42303" lon="-3.55721">
        <ele>205</ele>
        <time>2015-03-22T09:12:06.1Z</time>
      </trkpt>
      <trkpt lat="48.42301" lon="-3.55724">
        <ele>204</ele>
        <time>2015-03-22T09:12:08.1Z</time>
      </trkpt>
      <trkpt lat="48.42298" lon="-3.55725">
        <ele>204</ele>
        <time>2015-03-22T09:12:11.1Z</time>
      </trkpt>
      <trkpt lat="48.42295" lon="-3.55728">
        <ele>204</ele>
        <time>2015-03-22T09:12:14.1Z</time>
      </trkpt>
      <trkpt lat="48.42292" lon="-3.55732">
        <ele>203</ele>
        <time>2015-03-22T09:12:17.1Z</time>
      </trkpt>
      <trkpt lat="48.42289" lon="-3.55735">
        <ele>203</ele>
        <time>2015-03-22T09:12:20.1Z</time>
      </trkpt>
      <trkpt lat="48.42287" lon="-3.55738">
        <ele>204</ele>
        <time>2015-03-22T09:12:22.1Z</time>
      </trkpt>
      <trkpt lat="48.42286" lon="-3.5574">
        <ele>204</ele>
        <time>2015-03-22T09:12:24.1Z</time>
      </trkpt>
      <trkpt lat="48.42283" lon="-3.55744">
        <ele>204</ele>
        <time>2015-03-22T09:12:27.1Z</time>
      </trkpt>
      <trkpt lat="48.42281" lon="-3.55749">
        <ele>204</ele>
        <time>2015-03-22T09:12:30.1Z</time>
      </trkpt>
      <trkpt lat="48.42278" lon="-3.55753">
        <ele>204</ele>
        <time>2015-03-22T09:12:33.1Z</time>
      </trkpt>
      <trkpt lat="48.42277" lon="-3.55756">
        <ele>203</ele>
        <time>2015-03-22T09:12:35.1Z</time>
      </trkpt>
      <trkpt lat="48.42275" lon="-3.55759">
        <ele>204</ele>
        <time>2015-03-22T09:12:37.1Z</time>
      </trkpt>
      <trkpt lat="48.42273" lon="-3.55763">
        <ele>203</ele>
        <time>2015-03-22T09:12:40.1Z</time>
      </trkpt>
      <trkpt lat="48.42271" lon="-3.55766">
        <ele>203</ele>
        <time>2015-03-22T09:12:42.1Z</time>
      </trkpt>
      <trkpt lat="48.42268" lon="-3.5577">
        <ele>202</ele>
        <time>2015-03-22T09:12:45.1Z</time>
      </trkpt>
      <trkpt lat="48.42267" lon="-3.55772">
        <ele>202</ele>
        <time>2015-03-22T09:12:47.1Z</time>
      </trkpt>
      <trkpt lat="48.42264" lon="-3.55776">
        <ele>202</ele>
        <time>2015-03-22T09:12:50.1Z</time>
      </trkpt>
      <trkpt lat="48.42261" lon="-3.5578">
        <ele>202</ele>
        <time>2015-03-22T09:12:53.1Z</time>
      </trkpt>
      <trkpt lat="48.42259" lon="-3.55783">
        <ele>202</ele>
        <time>2015-03-22T09:12:55.1Z</time>
      </trkpt>
      <trkpt lat="48.42256" lon="-3.55787">
        <ele>202</ele>
        <time>2015-03-22T09:12:58.1Z</time>
      </trkpt>
      <trkpt lat="48.42253" lon="-3.55791">
        <ele>202</ele>
        <time>2015-03-22T09:13:01.1Z</time>
      </trkpt>
      <trkpt lat="48.42251" lon="-3.55793">
        <ele>202</ele>
        <time>2015-03-22T09:13:03.1Z</time>
      </trkpt>
      <trkpt lat="48.42247" lon="-3.55798">
        <ele>201</ele>
        <time>2015-03-22T09:13:06.1Z</time>
      </trkpt>
      <trkpt lat="48.42244" lon="-3.55803">
        <ele>201</ele>
        <time>2015-03-22T09:13:08.1Z</time>
      </trkpt>
      <trkpt lat="48.42239" lon="-3.55811">
        <ele>201</ele>
        <time>2015-03-22T09:13:11.1Z</time>
      </trkpt>
      <trkpt lat="48.42235" lon="-3.55816">
        <ele>201</ele>
        <time>2015-03-22T09:13:13.1Z</time>
      </trkpt>
      <trkpt lat="48.42229" lon="-3.55824">
        <ele>201</ele>
        <time>2015-03-22T09:13:16.1Z</time>
      </trkpt>
      <trkpt lat="48.42224" lon="-3.55831">
        <ele>200</ele>
        <time>2015-03-22T09:13:19.1Z</time>
      </trkpt>
      <trkpt lat="48.42222" lon="-3.55833">
        <ele>200</ele>
        <time>2015-03-22T09:13:22.1Z</time>
      </trkpt>
      <trkpt lat="48.4222" lon="-3.55837">
        <ele>200</ele>
        <time>2015-03-22T09:13:25.1Z</time>
      </trkpt>
      <trkpt lat="48.4222" lon="-3.55839">
        <ele>200</ele>
        <time>2015-03-22T09:13:27.1Z</time>
      </trkpt>
      <trkpt lat="48.42217" lon="-3.55839">
        <ele>199</ele>
        <time>2015-03-22T09:13:29.1Z</time>
      </trkpt>
      <trkpt lat="48.42213" lon="-3.55838">
        <ele>199</ele>
        <time>2015-03-22T09:13:32.1Z</time>
      </trkpt>
      <trkpt lat="48.42209" lon="-3.55839">
        <ele>199</ele>
        <time>2015-03-22T09:13:35.1Z</time>
      </trkpt>
      <trkpt lat="48.42206" lon="-3.55841">
        <ele>199</ele>
        <time>2015-03-22T09:13:38.1Z</time>
      </trkpt>
      <trkpt lat="48.42202" lon="-3.55845">
        <ele>198</ele>
        <time>2015-03-22T09:13:41.1Z</time>
      </trkpt>
      <trkpt lat="48.42198" lon="-3.55848">
        <ele>198</ele>
        <time>2015-03-22T09:13:44.1Z</time>
      </trkpt>
      <trkpt lat="48.42195" lon="-3.5585">
        <ele>198</ele>
        <time>2015-03-22T09:13:46.1Z</time>
      </trkpt>
      <trkpt lat="48.42191" lon="-3.55855">
        <ele>198</ele>
        <time>2015-03-22T09:13:49.1Z</time>
      </trkpt>
      <trkpt lat="48.42189" lon="-3.55857">
        <ele>198</ele>
        <time>2015-03-22T09:13:51.1Z</time>
      </trkpt>
      <trkpt lat="48.42186" lon="-3.55861">
        <ele>197</ele>
        <time>2015-03-22T09:13:54.1Z</time>
      </trkpt>
      <trkpt lat="48.42183" lon="-3.55865">
        <ele>197</ele>
        <time>2015-03-22T09:13:57.1Z</time>
      </trkpt>
      <trkpt lat="48.4218" lon="-3.55871">
        <ele>196</ele>
        <time>2015-03-22T09:14:00.1Z</time>
      </trkpt>
      <trkpt lat="48.42178" lon="-3.55874">
        <ele>196</ele>
        <time>2015-03-22T09:14:03.1Z</time>
      </trkpt>
      <trkpt lat="48.42176" lon="-3.55876">
        <ele>196</ele>
        <time>2015-03-22T09:14:05.1Z</time>
      </trkpt>
      <trkpt lat="48.42176" lon="-3.55878">
        <ele>196</ele>
        <time>2015-03-22T09:14:07.1Z</time>
      </trkpt>
      <trkpt lat="48.42176" lon="-3.55879">
        <ele>196</ele>
        <time>2015-03-22T09:14:10.1Z</time>
      </trkpt>
      <trkpt lat="48.42176" lon="-3.55879">
        <ele>195</ele>
        <time>2015-03-22T09:14:13.1Z</time>
      </trkpt>
      <trkpt lat="48.42176" lon="-3.5588">
        <ele>195</ele>
        <time>2015-03-22T09:14:15.1Z</time>
      </trkpt>
      <trkpt lat="48.42177" lon="-3.55884">
        <ele>196</ele>
        <time>2015-03-22T09:14:18.1Z</time>
      </trkpt>
      <trkpt lat="48.42177" lon="-3.55888">
        <ele>196</ele>
        <time>2015-03-22T09:14:20.1Z</time>
      </trkpt>
      <trkpt lat="48.42177" lon="-3.55892">
        <ele>196</ele>
        <time>2015-03-22T09:14:23.1Z</time>
      </trkpt>
      <trkpt lat="48.42175" lon="-3.55894">
        <ele>196</ele>
        <time>2015-03-22T09:14:25.1Z</time>
      </trkpt>
      <trkpt lat="48.42172" lon="-3.55896">
        <ele>196</ele>
        <time>2015-03-22T09:14:28.1Z</time>
      </trkpt>
      <trkpt lat="48.4217" lon="-3.55899">
        <ele>196</ele>
        <time>2015-03-22T09:14:30.1Z</time>
      </trkpt>
      <trkpt lat="48.42169" lon="-3.55901">
        <ele>196</ele>
        <time>2015-03-22T09:14:32.1Z</time>
      </trkpt>
      <trkpt lat="48.42166" lon="-3.55904">
        <ele>195</ele>
        <time>2015-03-22T09:14:35.1Z</time>
      </trkpt>
      <trkpt lat="48.42164" lon="-3.55907">
        <ele>195</ele>
        <time>2015-03-22T09:14:37.1Z</time>
      </trkpt>
      <trkpt lat="48.4216" lon="-3.5591">
        <ele>195</ele>
        <time>2015-03-22T09:14:40.1Z</time>
      </trkpt>
      <trkpt lat="48.42157" lon="-3.55914">
        <ele>195</ele>
        <time>2015-03-22T09:14:43.1Z</time>
      </trkpt>
      <trkpt lat="48.42155" lon="-3.55916">
        <ele>195</ele>
        <time>2015-03-22T09:14:45.1Z</time>
      </trkpt>
      <trkpt lat="48.42151" lon="-3.5592">
        <ele>195</ele>
        <time>2015-03-22T09:14:48.1Z</time>
      </trkpt>
      <trkpt lat="48.42149" lon="-3.55923">
        <ele>195</ele>
        <time>2015-03-22T09:14:50.1Z</time>
      </trkpt>
      <trkpt lat="48.42146" lon="-3.55926">
        <ele>195</ele>
        <time>2015-03-22T09:14:53.1Z</time>
      </trkpt>
      <trkpt lat="48.42143" lon="-3.55929">
        <ele>195</ele>
        <time>2015-03-22T09:14:55.1Z</time>
      </trkpt>
      <trkpt lat="48.4214" lon="-3.55932">
        <ele>195</ele>
        <time>2015-03-22T09:14:58.1Z</time>
      </trkpt>
      <trkpt lat="48.42137" lon="-3.55937">
        <ele>194</ele>
        <time>2015-03-22T09:15:01.1Z</time>
      </trkpt>
      <trkpt lat="48.42134" lon="-3.55941">
        <ele>194</ele>
        <time>2015-03-22T09:15:04.1Z</time>
      </trkpt>
      <trkpt lat="48.42131" lon="-3.55946">
        <ele>193</ele>
        <time>2015-03-22T09:15:07.1Z</time>
      </trkpt>
      <trkpt lat="48.42128" lon="-3.5595">
        <ele>193</ele>
        <time>2015-03-22T09:15:10.1Z</time>
      </trkpt>
      <trkpt lat="48.42127" lon="-3.55953">
        <ele>193</ele>
        <time>2015-03-22T09:15:12.1Z</time>
      </trkpt>
      <trkpt lat="48.42124" lon="-3.55958">
        <ele>193</ele>
        <time>2015-03-22T09:15:15.1Z</time>
      </trkpt>
      <trkpt lat="48.42122" lon="-3.55962">
        <ele>193</ele>
        <time>2015-03-22T09:15:18.1Z</time>
      </trkpt>
      <trkpt lat="48.42119" lon="-3.55966">
        <ele>193</ele>
        <time>2015-03-22T09:15:21.1Z</time>
      </trkpt>
      <trkpt lat="48.42118" lon="-3.55969">
        <ele>193</ele>
        <time>2015-03-22T09:15:23.1Z</time>
      </trkpt>
      <trkpt lat="48.42116" lon="-3.55973">
        <ele>193</ele>
        <time>2015-03-22T09:15:25.1Z</time>
      </trkpt>
      <trkpt lat="48.42114" lon="-3.55977">
        <ele>193</ele>
        <time>2015-03-22T09:15:28.1Z</time>
      </trkpt>
      <trkpt lat="48.42112" lon="-3.5598">
        <ele>193</ele>
        <time>2015-03-22T09:15:30.1Z</time>
      </trkpt>
      <trkpt lat="48.4211" lon="-3.55984">
        <ele>193</ele>
        <time>2015-03-22T09:15:33.1Z</time>
      </trkpt>
      <trkpt lat="48.42108" lon="-3.55989">
        <ele>193</ele>
        <time>2015-03-22T09:15:36.1Z</time>
      </trkpt>
      <trkpt lat="48.42106" lon="-3.55992">
        <ele>193</ele>
        <time>2015-03-22T09:15:38.1Z</time>
      </trkpt>
      <trkpt lat="48.42105" lon="-3.55994">
        <ele>193</ele>
        <time>2015-03-22T09:15:40.1Z</time>
      </trkpt>
      <trkpt lat="48.42102" lon="-3.55998">
        <ele>192</ele>
        <time>2015-03-22T09:15:43.1Z</time>
      </trkpt>
      <trkpt lat="48.42099" lon="-3.56002">
        <ele>192</ele>
        <time>2015-03-22T09:15:46.1Z</time>
      </trkpt>
      <trkpt lat="48.42098" lon="-3.56005">
        <ele>192</ele>
        <time>2015-03-22T09:15:48.1Z</time>
      </trkpt>
      <trkpt lat="48.42095" lon="-3.56009">
        <ele>192</ele>
        <time>2015-03-22T09:15:51.1Z</time>
      </trkpt>
      <trkpt lat="48.42093" lon="-3.56011">
        <ele>192</ele>
        <time>2015-03-22T09:15:53.1Z</time>
      </trkpt>
      <trkpt lat="48.42091" lon="-3.56013">
        <ele>192</ele>
        <time>2015-03-22T09:15:56.1Z</time>
      </trkpt>
      <trkpt lat="48.42089" lon="-3.56015">
        <ele>192</ele>
        <time>2015-03-22T09:15:58.1Z</time>
      </trkpt>
      <trkpt lat="48.42087" lon="-3.56019">
        <ele>192</ele>
        <time>2015-03-22T09:16:01.1Z</time>
      </trkpt>
      <trkpt lat="48.42086" lon="-3.56022">
        <ele>192</ele>
        <time>2015-03-22T09:16:03.1Z</time>
      </trkpt>
      <trkpt lat="48.42083" lon="-3.56026">
        <ele>192</ele>
        <time>2015-03-22T09:16:06.1Z</time>
      </trkpt>
      <trkpt lat="48.4208" lon="-3.5603">
        <ele>192</ele>
        <time>2015-03-22T09:16:09.1Z</time>
      </trkpt>
      <trkpt lat="48.42078" lon="-3.56033">
        <ele>191</ele>
        <time>2015-03-22T09:16:11.1Z</time>
      </trkpt>
      <trkpt lat="48.42076" lon="-3.56037">
        <ele>191</ele>
        <time>2015-03-22T09:16:14.1Z</time>
      </trkpt>
      <trkpt lat="48.42074" lon="-3.5604">
        <ele>191</ele>
        <time>2015-03-22T09:16:16.1Z</time>
      </trkpt>
      <trkpt lat="48.42071" lon="-3.56044">
        <ele>191</ele>
        <time>2015-03-22T09:16:19.1Z</time>
      </trkpt>
      <trkpt lat="48.42068" lon="-3.56047">
        <ele>191</ele>
        <time>2015-03-22T09:16:22.1Z</time>
      </trkpt>
      <trkpt lat="48.42065" lon="-3.56051">
        <ele>191</ele>
        <time>2015-03-22T09:16:25.1Z</time>
      </trkpt>
      <trkpt lat="48.42063" lon="-3.56053">
        <ele>191</ele>
        <time>2015-03-22T09:16:27.1Z</time>
      </trkpt>
      <trkpt lat="48.4206" lon="-3.56056">
        <ele>191</ele>
        <time>2015-03-22T09:16:30.1Z</time>
      </trkpt>
      <trkpt lat="48.42059" lon="-3.56059">
        <ele>190</ele>
        <time>2015-03-22T09:16:32.1Z</time>
      </trkpt>
      <trkpt lat="48.42057" lon="-3.56061">
        <ele>190</ele>
        <time>2015-03-22T09:16:34.1Z</time>
      </trkpt>
      <trkpt lat="48.42054" lon="-3.56064">
        <ele>190</ele>
        <time>2015-03-22T09:16:37.1Z</time>
      </trkpt>
      <trkpt lat="48.4205" lon="-3.56068">
        <ele>190</ele>
        <time>2015-03-22T09:16:40.1Z</time>
      </trkpt>
      <trkpt lat="48.42048" lon="-3.56071">
        <ele>190</ele>
        <time>2015-03-22T09:16:42.1Z</time>
      </trkpt>
      <trkpt lat="48.42045" lon="-3.56075">
        <ele>190</ele>
        <time>2015-03-22T09:16:45.1Z</time>
      </trkpt>
      <trkpt lat="48.42044" lon="-3.56077">
        <ele>190</ele>
        <time>2015-03-22T09:16:47.1Z</time>
      </trkpt>
      <trkpt lat="48.42041" lon="-3.56081">
        <ele>190</ele>
        <time>2015-03-22T09:16:50.1Z</time>
      </trkpt>
      <trkpt lat="48.42039" lon="-3.56083">
        <ele>189</ele>
        <time>2015-03-22T09:16:52.1Z</time>
      </trkpt>
      <trkpt lat="48.42036" lon="-3.56086">
        <ele>189</ele>
        <time>2015-03-22T09:16:55.1Z</time>
      </trkpt>
      <trkpt lat="48.42034" lon="-3.56088">
        <ele>189</ele>
        <time>2015-03-22T09:16:57.1Z</time>
      </trkpt>
      <trkpt lat="48.42031" lon="-3.56091">
        <ele>189</ele>
        <time>2015-03-22T09:17:00.1Z</time>
      </trkpt>
      <trkpt lat="48.42028" lon="-3.56095">
        <ele>189</ele>
        <time>2015-03-22T09:17:03.1Z</time>
      </trkpt>
      <trkpt lat="48.42027" lon="-3.56097">
        <ele>189</ele>
        <time>2015-03-22T09:17:05.1Z</time>
      </trkpt>
      <trkpt lat="48.42024" lon="-3.561">
        <ele>189</ele>
        <time>2015-03-22T09:17:08.1Z</time>
      </trkpt>
      <trkpt lat="48.42021" lon="-3.56104">
        <ele>189</ele>
        <time>2015-03-22T09:17:11.1Z</time>
      </trkpt>
      <trkpt lat="48.42019" lon="-3.56107">
        <ele>188</ele>
        <time>2015-03-22T09:17:14.1Z</time>
      </trkpt>
      <trkpt lat="48.42016" lon="-3.5611">
        <ele>188</ele>
        <time>2015-03-22T09:17:17.1Z</time>
      </trkpt>
      <trkpt lat="48.42013" lon="-3.56114">
        <ele>188</ele>
        <time>2015-03-22T09:17:20.1Z</time>
      </trkpt>
      <trkpt lat="48.42011" lon="-3.56116">
        <ele>188</ele>
        <time>2015-03-22T09:17:22.1Z</time>
      </trkpt>
      <trkpt lat="48.42009" lon="-3.5612">
        <ele>188</ele>
        <time>2015-03-22T09:17:25.1Z</time>
      </trkpt>
      <trkpt lat="48.42007" lon="-3.56122">
        <ele>187</ele>
        <time>2015-03-22T09:17:27.1Z</time>
      </trkpt>
      <trkpt lat="48.42005" lon="-3.56124">
        <ele>187</ele>
        <time>2015-03-22T09:17:29.1Z</time>
      </trkpt>
      <trkpt lat="48.42002" lon="-3.56127">
        <ele>187</ele>
        <time>2015-03-22T09:17:32.1Z</time>
      </trkpt>
      <trkpt lat="48.41999" lon="-3.56131">
        <ele>187</ele>
        <time>2015-03-22T09:17:35.1Z</time>
      </trkpt>
      <trkpt lat="48.41997" lon="-3.56133">
        <ele>187</ele>
        <time>2015-03-22T09:17:37.1Z</time>
      </trkpt>
      <trkpt lat="48.41994" lon="-3.56136">
        <ele>187</ele>
        <time>2015-03-22T09:17:40.1Z</time>
      </trkpt>
      <trkpt lat="48.41991" lon="-3.5614">
        <ele>187</ele>
        <time>2015-03-22T09:17:43.1Z</time>
      </trkpt>
      <trkpt lat="48.41988" lon="-3.56144">
        <ele>186</ele>
        <time>2015-03-22T09:17:46.1Z</time>
      </trkpt>
      <trkpt lat="48.41985" lon="-3.56147">
        <ele>186</ele>
        <time>2015-03-22T09:17:49.1Z</time>
      </trkpt>
      <trkpt lat="48.41983" lon="-3.5615">
        <ele>186</ele>
        <time>2015-03-22T09:17:51.1Z</time>
      </trkpt>
      <trkpt lat="48.41981" lon="-3.56152">
        <ele>186</ele>
        <time>2015-03-22T09:17:53.1Z</time>
      </trkpt>
      <trkpt lat="48.41978" lon="-3.56155">
        <ele>186</ele>
        <time>2015-03-22T09:17:56.1Z</time>
      </trkpt>
      <trkpt lat="48.41976" lon="-3.56157">
        <ele>186</ele>
        <time>2015-03-22T09:17:59.1Z</time>
      </trkpt>
      <trkpt lat="48.41972" lon="-3.56161">
        <ele>186</ele>
        <time>2015-03-22T09:18:02.1Z</time>
      </trkpt>
      <trkpt lat="48.41969" lon="-3.56164">
        <ele>186</ele>
        <time>2015-03-22T09:18:05.1Z</time>
      </trkpt>
      <trkpt lat="48.41967" lon="-3.56166">
        <ele>186</ele>
        <time>2015-03-22T09:18:07.1Z</time>
      </trkpt>
      <trkpt lat="48.41965" lon="-3.56168">
        <ele>186</ele>
        <time>2015-03-22T09:18:09.1Z</time>
      </trkpt>
      <trkpt lat="48.41962" lon="-3.56171">
        <ele>186</ele>
        <time>2015-03-22T09:18:12.1Z</time>
      </trkpt>
      <trkpt lat="48.41958" lon="-3.56174">
        <ele>186</ele>
        <time>2015-03-22T09:18:15.1Z</time>
      </trkpt>
      <trkpt lat="48.41956" lon="-3.56176">
        <ele>186</ele>
        <time>2015-03-22T09:18:17.1Z</time>
      </trkpt>
      <trkpt lat="48.41953" lon="-3.56178">
        <ele>186</ele>
        <time>2015-03-22T09:18:20.1Z</time>
      </trkpt>
      <trkpt lat="48.41951" lon="-3.56179">
        <ele>186</ele>
        <time>2015-03-22T09:18:22.1Z</time>
      </trkpt>
      <trkpt lat="48.41949" lon="-3.56181">
        <ele>186</ele>
        <time>2015-03-22T09:18:24.1Z</time>
      </trkpt>
      <trkpt lat="48.41946" lon="-3.56182">
        <ele>185</ele>
        <time>2015-03-22T09:18:27.1Z</time>
      </trkpt>
      <trkpt lat="48.41944" lon="-3.56183">
        <ele>186</ele>
        <time>2015-03-22T09:18:29.1Z</time>
      </trkpt>
      <trkpt lat="48.41942" lon="-3.56184">
        <ele>186</ele>
        <time>2015-03-22T09:18:31.1Z</time>
      </trkpt>
      <trkpt lat="48.41938" lon="-3.56185">
        <ele>186</ele>
        <time>2015-03-22T09:18:34.1Z</time>
      </trkpt>
      <trkpt lat="48.41935" lon="-3.56187">
        <ele>185</ele>
        <time>2015-03-22T09:18:37.1Z</time>
      </trkpt>
      <trkpt lat="48.41931" lon="-3.56189">
        <ele>185</ele>
        <time>2015-03-22T09:18:40.1Z</time>
      </trkpt>
      <trkpt lat="48.41927" lon="-3.5619">
        <ele>185</ele>
        <time>2015-03-22T09:18:43.1Z</time>
      </trkpt>
      <trkpt lat="48.41923" lon="-3.56192">
        <ele>185</ele>
        <time>2015-03-22T09:18:46.1Z</time>
      </trkpt>
      <trkpt lat="48.41921" lon="-3.56193">
        <ele>185</ele>
        <time>2015-03-22T09:18:48.1Z</time>
      </trkpt>
      <trkpt lat="48.41919" lon="-3.56195">
        <ele>185</ele>
        <time>2015-03-22T09:18:50.1Z</time>
      </trkpt>
      <trkpt lat="48.41916" lon="-3.56196">
        <ele>185</ele>
        <time>2015-03-22T09:18:53.1Z</time>
      </trkpt>
      <trkpt lat="48.41914" lon="-3.56198">
        <ele>185</ele>
        <time>2015-03-22T09:18:55.1Z</time>
      </trkpt>
      <trkpt lat="48.41911" lon="-3.56199">
        <ele>185</ele>
        <time>2015-03-22T09:18:58.1Z</time>
      </trkpt>
      <trkpt lat="48.41909" lon="-3.562">
        <ele>185</ele>
        <time>2015-03-22T09:19:00.1Z</time>
      </trkpt>
      <trkpt lat="48.41905" lon="-3.56201">
        <ele>185</ele>
        <time>2015-03-22T09:19:03.1Z</time>
      </trkpt>
      <trkpt lat="48.41901" lon="-3.56203">
        <ele>185</ele>
        <time>2015-03-22T09:19:06.1Z</time>
      </trkpt>
      <trkpt lat="48.41899" lon="-3.56205">
        <ele>185</ele>
        <time>2015-03-22T09:19:08.1Z</time>
      </trkpt>
      <trkpt lat="48.41897" lon="-3.56206">
        <ele>185</ele>
        <time>2015-03-22T09:19:10.1Z</time>
      </trkpt>
      <trkpt lat="48.41893" lon="-3.56207">
        <ele>184</ele>
        <time>2015-03-22T09:19:13.1Z</time>
      </trkpt>
      <trkpt lat="48.4189" lon="-3.56208">
        <ele>184</ele>
        <time>2015-03-22T09:19:15.1Z</time>
      </trkpt>
      <trkpt lat="48.41888" lon="-3.56208">
        <ele>184</ele>
        <time>2015-03-22T09:19:17.1Z</time>
      </trkpt>
      <trkpt lat="48.41886" lon="-3.56209">
        <ele>184</ele>
        <time>2015-03-22T09:19:19.1Z</time>
      </trkpt>
      <trkpt lat="48.41883" lon="-3.5621">
        <ele>184</ele>
        <time>2015-03-22T09:19:22.1Z</time>
      </trkpt>
      <trkpt lat="48.4188" lon="-3.56212">
        <ele>184</ele>
        <time>2015-03-22T09:19:25.1Z</time>
      </trkpt>
      <trkpt lat="48.41876" lon="-3.56216">
        <ele>184</ele>
        <time>2015-03-22T09:19:28.1Z</time>
      </trkpt>
      <trkpt lat="48.41874" lon="-3.56218">
        <ele>184</ele>
        <time>2015-03-22T09:19:30.1Z</time>
      </trkpt>
      <trkpt lat="48.41872" lon="-3.56223">
        <ele>184</ele>
        <time>2015-03-22T09:19:33.1Z</time>
      </trkpt>
      <trkpt lat="48.4187" lon="-3.56227">
        <ele>184</ele>
        <time>2015-03-22T09:19:36.1Z</time>
      </trkpt>
      <trkpt lat="48.4187" lon="-3.5623">
        <ele>184</ele>
        <time>2015-03-22T09:19:38.1Z</time>
      </trkpt>
      <trkpt lat="48.4187" lon="-3.56236">
        <ele>184</ele>
        <time>2015-03-22T09:19:41.1Z</time>
      </trkpt>
      <trkpt lat="48.4187" lon="-3.56239">
        <ele>184</ele>
        <time>2015-03-22T09:19:43.1Z</time>
      </trkpt>
      <trkpt lat="48.41871" lon="-3.56244">
        <ele>184</ele>
        <time>2015-03-22T09:19:46.1Z</time>
      </trkpt>
      <trkpt lat="48.41872" lon="-3.56248">
        <ele>184</ele>
        <time>2015-03-22T09:19:48.1Z</time>
      </trkpt>
      <trkpt lat="48.41873" lon="-3.56253">
        <ele>184</ele>
        <time>2015-03-22T09:19:51.1Z</time>
      </trkpt>
      <trkpt lat="48.41874" lon="-3.56258">
        <ele>184</ele>
        <time>2015-03-22T09:19:54.1Z</time>
      </trkpt>
      <trkpt lat="48.41874" lon="-3.56263">
        <ele>184</ele>
        <time>2015-03-22T09:19:57.1Z</time>
      </trkpt>
      <trkpt lat="48.41874" lon="-3.56266">
        <ele>184</ele>
        <time>2015-03-22T09:19:59.1Z</time>
      </trkpt>
      <trkpt lat="48.41874" lon="-3.5627">
        <ele>184</ele>
        <time>2015-03-22T09:20:01.1Z</time>
      </trkpt>
      <trkpt lat="48.41874" lon="-3.56276">
        <ele>184</ele>
        <time>2015-03-22T09:20:04.1Z</time>
      </trkpt>
      <trkpt lat="48.41874" lon="-3.56281">
        <ele>184</ele>
        <time>2015-03-22T09:20:07.1Z</time>
      </trkpt>
      <trkpt lat="48.41874" lon="-3.56285">
        <ele>183</ele>
        <time>2015-03-22T09:20:09.1Z</time>
      </trkpt>
      <trkpt lat="48.41873" lon="-3.5629">
        <ele>183</ele>
        <time>2015-03-22T09:20:12.1Z</time>
      </trkpt>
      <trkpt lat="48.41873" lon="-3.56294">
        <ele>183</ele>
        <time>2015-03-22T09:20:14.1Z</time>
      </trkpt>
      <trkpt lat="48.41872" lon="-3.56299">
        <ele>183</ele>
        <time>2015-03-22T09:20:17.1Z</time>
      </trkpt>
      <trkpt lat="48.41872" lon="-3.56304">
        <ele>183</ele>
        <time>2015-03-22T09:20:20.1Z</time>
      </trkpt>
      <trkpt lat="48.41871" lon="-3.56309">
        <ele>182</ele>
        <time>2015-03-22T09:20:23.1Z</time>
      </trkpt>
      <trkpt lat="48.4187" lon="-3.56312">
        <ele>182</ele>
        <time>2015-03-22T09:20:25.1Z</time>
      </trkpt>
      <trkpt lat="48.41869" lon="-3.56316">
        <ele>182</ele>
        <time>2015-03-22T09:20:27.1Z</time>
      </trkpt>
      <trkpt lat="48.41868" lon="-3.56322">
        <ele>181</ele>
        <time>2015-03-22T09:20:30.1Z</time>
      </trkpt>
      <trkpt lat="48.41867" lon="-3.56325">
        <ele>181</ele>
        <time>2015-03-22T09:20:32.1Z</time>
      </trkpt>
      <trkpt lat="48.41866" lon="-3.56331">
        <ele>181</ele>
        <time>2015-03-22T09:20:35.1Z</time>
      </trkpt>
      <trkpt lat="48.41864" lon="-3.56337">
        <ele>181</ele>
        <time>2015-03-22T09:20:38.1Z</time>
      </trkpt>
      <trkpt lat="48.41863" lon="-3.5634">
        <ele>181</ele>
        <time>2015-03-22T09:20:40.1Z</time>
      </trkpt>
      <trkpt lat="48.41862" lon="-3.56344">
        <ele>181</ele>
        <time>2015-03-22T09:20:42.1Z</time>
      </trkpt>
      <trkpt lat="48.41861" lon="-3.56349">
        <ele>181</ele>
        <time>2015-03-22T09:20:45.1Z</time>
      </trkpt>
      <trkpt lat="48.41859" lon="-3.56352">
        <ele>181</ele>
        <time>2015-03-22T09:20:47.1Z</time>
      </trkpt>
      <trkpt lat="48.41858" lon="-3.56358">
        <ele>181</ele>
        <time>2015-03-22T09:20:50.1Z</time>
      </trkpt>
      <trkpt lat="48.41856" lon="-3.56363">
        <ele>181</ele>
        <time>2015-03-22T09:20:53.1Z</time>
      </trkpt>
      <trkpt lat="48.41854" lon="-3.56366">
        <ele>182</ele>
        <time>2015-03-22T09:20:55.1Z</time>
      </trkpt>
      <trkpt lat="48.41852" lon="-3.56371">
        <ele>182</ele>
        <time>2015-03-22T09:20:58.1Z</time>
      </trkpt>
      <trkpt lat="48.4185" lon="-3.56375">
        <ele>182</ele>
        <time>2015-03-22T09:21:01.1Z</time>
      </trkpt>
      <trkpt lat="48.41848" lon="-3.56378">
        <ele>182</ele>
        <time>2015-03-22T09:21:03.1Z</time>
      </trkpt>
      <trkpt lat="48.41845" lon="-3.56382">
        <ele>181</ele>
        <time>2015-03-22T09:21:06.1Z</time>
      </trkpt>
      <trkpt lat="48.41843" lon="-3.56387">
        <ele>181</ele>
        <time>2015-03-22T09:21:09.1Z</time>
      </trkpt>
      <trkpt lat="48.4184" lon="-3.5639">
        <ele>181</ele>
        <time>2015-03-22T09:21:12.1Z</time>
      </trkpt>
      <trkpt lat="48.41838" lon="-3.56392">
        <ele>181</ele>
        <time>2015-03-22T09:21:14.1Z</time>
      </trkpt>
      <trkpt lat="48.41835" lon="-3.56396">
        <ele>181</ele>
        <time>2015-03-22T09:21:17.1Z</time>
      </trkpt>
      <trkpt lat="48.41834" lon="-3.56399">
        <ele>181</ele>
        <time>2015-03-22T09:21:19.1Z</time>
      </trkpt>
      <trkpt lat="48.41831" lon="-3.56402">
        <ele>181</ele>
        <time>2015-03-22T09:21:22.1Z</time>
      </trkpt>
      <trkpt lat="48.41827" lon="-3.56405">
        <ele>181</ele>
        <time>2015-03-22T09:21:25.1Z</time>
      </trkpt>
      <trkpt lat="48.41825" lon="-3.56408">
        <ele>181</ele>
        <time>2015-03-22T09:21:27.1Z</time>
      </trkpt>
      <trkpt lat="48.41823" lon="-3.5641">
        <ele>181</ele>
        <time>2015-03-22T09:21:29.1Z</time>
      </trkpt>
      <trkpt lat="48.4182" lon="-3.56413">
        <ele>181</ele>
        <time>2015-03-22T09:21:32.1Z</time>
      </trkpt>
      <trkpt lat="48.41818" lon="-3.56415">
        <ele>180</ele>
        <time>2015-03-22T09:21:34.1Z</time>
      </trkpt>
      <trkpt lat="48.41816" lon="-3.56418">
        <ele>180</ele>
        <time>2015-03-22T09:21:36.1Z</time>
      </trkpt>
      <trkpt lat="48.41813" lon="-3.56421">
        <ele>180</ele>
        <time>2015-03-22T09:21:39.1Z</time>
      </trkpt>
      <trkpt lat="48.4181" lon="-3.56423">
        <ele>180</ele>
        <time>2015-03-22T09:21:41.1Z</time>
      </trkpt>
      <trkpt lat="48.41807" lon="-3.56427">
        <ele>181</ele>
        <time>2015-03-22T09:21:44.1Z</time>
      </trkpt>
      <trkpt lat="48.41804" lon="-3.5643">
        <ele>181</ele>
        <time>2015-03-22T09:21:47.1Z</time>
      </trkpt>
      <trkpt lat="48.41802" lon="-3.56432">
        <ele>180</ele>
        <time>2015-03-22T09:21:49.1Z</time>
      </trkpt>
      <trkpt lat="48.41799" lon="-3.56435">
        <ele>180</ele>
        <time>2015-03-22T09:21:52.1Z</time>
      </trkpt>
      <trkpt lat="48.41796" lon="-3.56438">
        <ele>180</ele>
        <time>2015-03-22T09:21:55.1Z</time>
      </trkpt>
      <trkpt lat="48.41794" lon="-3.5644">
        <ele>180</ele>
        <time>2015-03-22T09:21:57.1Z</time>
      </trkpt>
      <trkpt lat="48.41792" lon="-3.56442">
        <ele>180</ele>
        <time>2015-03-22T09:21:59.1Z</time>
      </trkpt>
      <trkpt lat="48.41788" lon="-3.56446">
        <ele>180</ele>
        <time>2015-03-22T09:22:02.1Z</time>
      </trkpt>
      <trkpt lat="48.41785" lon="-3.56448">
        <ele>180</ele>
        <time>2015-03-22T09:22:04.1Z</time>
      </trkpt>
      <trkpt lat="48.41782" lon="-3.56452">
        <ele>180</ele>
        <time>2015-03-22T09:22:07.1Z</time>
      </trkpt>
      <trkpt lat="48.41778" lon="-3.56454">
        <ele>180</ele>
        <time>2015-03-22T09:22:10.1Z</time>
      </trkpt>
      <trkpt lat="48.41775" lon="-3.56455">
        <ele>180</ele>
        <time>2015-03-22T09:22:12.1Z</time>
      </trkpt>
      <trkpt lat="48.41772" lon="-3.56456">
        <ele>180</ele>
        <time>2015-03-22T09:22:14.1Z</time>
      </trkpt>
      <trkpt lat="48.41768" lon="-3.56457">
        <ele>180</ele>
        <time>2015-03-22T09:22:17.1Z</time>
      </trkpt>
      <trkpt lat="48.41764" lon="-3.56459">
        <ele>180</ele>
        <time>2015-03-22T09:22:20.1Z</time>
      </trkpt>
      <trkpt lat="48.4176" lon="-3.5646">
        <ele>180</ele>
        <time>2015-03-22T09:22:23.1Z</time>
      </trkpt>
      <trkpt lat="48.41757" lon="-3.5646">
        <ele>180</ele>
        <time>2015-03-22T09:22:25.1Z</time>
      </trkpt>
      <trkpt lat="48.41754" lon="-3.56461">
        <ele>180</ele>
        <time>2015-03-22T09:22:27.1Z</time>
      </trkpt>
      <trkpt lat="48.4175" lon="-3.56461">
        <ele>180</ele>
        <time>2015-03-22T09:22:30.1Z</time>
      </trkpt>
      <trkpt lat="48.41747" lon="-3.5646">
        <ele>180</ele>
        <time>2015-03-22T09:22:32.1Z</time>
      </trkpt>
      <trkpt lat="48.41743" lon="-3.56461">
        <ele>180</ele>
        <time>2015-03-22T09:22:35.1Z</time>
      </trkpt>
      <trkpt lat="48.4174" lon="-3.56461">
        <ele>180</ele>
        <time>2015-03-22T09:22:37.1Z</time>
      </trkpt>
      <trkpt lat="48.41737" lon="-3.56461">
        <ele>180</ele>
        <time>2015-03-22T09:22:39.1Z</time>
      </trkpt>
      <trkpt lat="48.41734" lon="-3.56462">
        <ele>180</ele>
        <time>2015-03-22T09:22:41.1Z</time>
      </trkpt>
      <trkpt lat="48.4173" lon="-3.56462">
        <ele>180</ele>
        <time>2015-03-22T09:22:44.1Z</time>
      </trkpt>
      <trkpt lat="48.41728" lon="-3.56462">
        <ele>180</ele>
        <time>2015-03-22T09:22:46.1Z</time>
      </trkpt>
      <trkpt lat="48.41724" lon="-3.56462">
        <ele>180</ele>
        <time>2015-03-22T09:22:49.1Z</time>
      </trkpt>
      <trkpt lat="48.41719" lon="-3.56461">
        <ele>179</ele>
        <time>2015-03-22T09:22:52.1Z</time>
      </trkpt>
      <trkpt lat="48.41715" lon="-3.56461">
        <ele>179</ele>
        <time>2015-03-22T09:22:55.1Z</time>
      </trkpt>
      <trkpt lat="48.41711" lon="-3.56461">
        <ele>179</ele>
        <time>2015-03-22T09:22:58.1Z</time>
      </trkpt>
      <trkpt lat="48.41707" lon="-3.56461">
        <ele>179</ele>
        <time>2015-03-22T09:23:01.1Z</time>
      </trkpt>
      <trkpt lat="48.41703" lon="-3.56461">
        <ele>179</ele>
        <time>2015-03-22T09:23:04.1Z</time>
      </trkpt>
      <trkpt lat="48.41701" lon="-3.56462">
        <ele>179</ele>
        <time>2015-03-22T09:23:06.1Z</time>
      </trkpt>
      <trkpt lat="48.41697" lon="-3.56465">
        <ele>179</ele>
        <time>2015-03-22T09:23:09.1Z</time>
      </trkpt>
      <trkpt lat="48.41695" lon="-3.56467">
        <ele>179</ele>
        <time>2015-03-22T09:23:11.1Z</time>
      </trkpt>
      <trkpt lat="48.41693" lon="-3.56471">
        <ele>179</ele>
        <time>2015-03-22T09:23:13.1Z</time>
      </trkpt>
      <trkpt lat="48.41692" lon="-3.56474">
        <ele>178</ele>
        <time>2015-03-22T09:23:15.1Z</time>
      </trkpt>
      <trkpt lat="48.41691" lon="-3.56479">
        <ele>178</ele>
        <time>2015-03-22T09:23:17.1Z</time>
      </trkpt>
      <trkpt lat="48.4169" lon="-3.56485">
        <ele>178</ele>
        <time>2015-03-22T09:23:20.1Z</time>
      </trkpt>
      <trkpt lat="48.4169" lon="-3.56489">
        <ele>178</ele>
        <time>2015-03-22T09:23:22.1Z</time>
      </trkpt>
      <trkpt lat="48.4169" lon="-3.56494">
        <ele>178</ele>
        <time>2015-03-22T09:23:24.1Z</time>
      </trkpt>
      <trkpt lat="48.41689" lon="-3.56498">
        <ele>178</ele>
        <time>2015-03-22T09:23:26.1Z</time>
      </trkpt>
      <trkpt lat="48.41688" lon="-3.56504">
        <ele>178</ele>
        <time>2015-03-22T09:23:29.1Z</time>
      </trkpt>
      <trkpt lat="48.41688" lon="-3.56509">
        <ele>178</ele>
        <time>2015-03-22T09:23:32.1Z</time>
      </trkpt>
      <trkpt lat="48.41688" lon="-3.56515">
        <ele>179</ele>
        <time>2015-03-22T09:23:35.1Z</time>
      </trkpt>
      <trkpt lat="48.41688" lon="-3.5652">
        <ele>179</ele>
        <time>2015-03-22T09:23:38.1Z</time>
      </trkpt>
      <trkpt lat="48.41688" lon="-3.56526">
        <ele>179</ele>
        <time>2015-03-22T09:23:41.1Z</time>
      </trkpt>
      <trkpt lat="48.41687" lon="-3.56529">
        <ele>179</ele>
        <time>2015-03-22T09:23:43.1Z</time>
      </trkpt>
      <trkpt lat="48.41687" lon="-3.56533">
        <ele>180</ele>
        <time>2015-03-22T09:23:45.1Z</time>
      </trkpt>
      <trkpt lat="48.41687" lon="-3.56536">
        <ele>179</ele>
        <time>2015-03-22T09:23:47.1Z</time>
      </trkpt>
      <trkpt lat="48.41687" lon="-3.56542">
        <ele>179</ele>
        <time>2015-03-22T09:23:50.1Z</time>
      </trkpt>
      <trkpt lat="48.41686" lon="-3.56546">
        <ele>179</ele>
        <time>2015-03-22T09:23:52.1Z</time>
      </trkpt>
      <trkpt lat="48.41686" lon="-3.56552">
        <ele>179</ele>
        <time>2015-03-22T09:23:55.1Z</time>
      </trkpt>
      <trkpt lat="48.41685" lon="-3.56555">
        <ele>180</ele>
        <time>2015-03-22T09:23:57.1Z</time>
      </trkpt>
      <trkpt lat="48.41685" lon="-3.56559">
        <ele>180</ele>
        <time>2015-03-22T09:23:59.1Z</time>
      </trkpt>
      <trkpt lat="48.41684" lon="-3.56563">
        <ele>180</ele>
        <time>2015-03-22T09:24:01.1Z</time>
      </trkpt>
      <trkpt lat="48.41684" lon="-3.56568">
        <ele>180</ele>
        <time>2015-03-22T09:24:04.1Z</time>
      </trkpt>
      <trkpt lat="48.41684" lon="-3.56574">
        <ele>180</ele>
        <time>2015-03-22T09:24:07.1Z</time>
      </trkpt>
      <trkpt lat="48.41683" lon="-3.56578">
        <ele>180</ele>
        <time>2015-03-22T09:24:10.1Z</time>
      </trkpt>
      <trkpt lat="48.41682" lon="-3.56584">
        <ele>180</ele>
        <time>2015-03-22T09:24:13.1Z</time>
      </trkpt>
      <trkpt lat="48.41682" lon="-3.56588">
        <ele>180</ele>
        <time>2015-03-22T09:24:15.1Z</time>
      </trkpt>
      <trkpt lat="48.4168" lon="-3.56593">
        <ele>180</ele>
        <time>2015-03-22T09:24:18.1Z</time>
      </trkpt>
      <trkpt lat="48.4168" lon="-3.56597">
        <ele>180</ele>
        <time>2015-03-22T09:24:20.1Z</time>
      </trkpt>
      <trkpt lat="48.41679" lon="-3.56602">
        <ele>181</ele>
        <time>2015-03-22T09:24:23.1Z</time>
      </trkpt>
      <trkpt lat="48.41678" lon="-3.56606">
        <ele>181</ele>
        <time>2015-03-22T09:24:25.1Z</time>
      </trkpt>
      <trkpt lat="48.41677" lon="-3.5661">
        <ele>182</ele>
        <time>2015-03-22T09:24:28.1Z</time>
      </trkpt>
      <trkpt lat="48.41676" lon="-3.56615">
        <ele>182</ele>
        <time>2015-03-22T09:24:31.1Z</time>
      </trkpt>
      <trkpt lat="48.41675" lon="-3.56619">
        <ele>182</ele>
        <time>2015-03-22T09:24:33.1Z</time>
      </trkpt>
      <trkpt lat="48.41674" lon="-3.56624">
        <ele>182</ele>
        <time>2015-03-22T09:24:36.1Z</time>
      </trkpt>
      <trkpt lat="48.41673" lon="-3.5663">
        <ele>181</ele>
        <time>2015-03-22T09:24:39.1Z</time>
      </trkpt>
      <trkpt lat="48.41672" lon="-3.56633">
        <ele>181</ele>
        <time>2015-03-22T09:24:41.1Z</time>
      </trkpt>
      <trkpt lat="48.41671" lon="-3.56639">
        <ele>181</ele>
        <time>2015-03-22T09:24:44.1Z</time>
      </trkpt>
      <trkpt lat="48.4167" lon="-3.56644">
        <ele>181</ele>
        <time>2015-03-22T09:24:47.1Z</time>
      </trkpt>
      <trkpt lat="48.41669" lon="-3.56648">
        <ele>182</ele>
        <time>2015-03-22T09:24:49.1Z</time>
      </trkpt>
      <trkpt lat="48.41668" lon="-3.56653">
        <ele>183</ele>
        <time>2015-03-22T09:24:52.1Z</time>
      </trkpt>
      <trkpt lat="48.41668" lon="-3.56659">
        <ele>183</ele>
        <time>2015-03-22T09:24:55.1Z</time>
      </trkpt>
      <trkpt lat="48.41667" lon="-3.56664">
        <ele>183</ele>
        <time>2015-03-22T09:24:58.1Z</time>
      </trkpt>
      <trkpt lat="48.41667" lon="-3.56668">
        <ele>183</ele>
        <time>2015-03-22T09:25:00.1Z</time>
      </trkpt>
      <trkpt lat="48.41666" lon="-3.56673">
        <ele>183</ele>
        <time>2015-03-22T09:25:03.1Z</time>
      </trkpt>
      <trkpt lat="48.41665" lon="-3.56679">
        <ele>183</ele>
        <time>2015-03-22T09:25:06.1Z</time>
      </trkpt>
      <trkpt lat="48.41665" lon="-3.56683">
        <ele>182</ele>
        <time>2015-03-22T09:25:08.1Z</time>
      </trkpt>
      <trkpt lat="48.41664" lon="-3.56688">
        <ele>183</ele>
        <time>2015-03-22T09:25:11.1Z</time>
      </trkpt>
      <trkpt lat="48.41663" lon="-3.56694">
        <ele>183</ele>
        <time>2015-03-22T09:25:14.1Z</time>
      </trkpt>
      <trkpt lat="48.41663" lon="-3.56697">
        <ele>183</ele>
        <time>2015-03-22T09:25:16.1Z</time>
      </trkpt>
      <trkpt lat="48.41662" lon="-3.56702">
        <ele>183</ele>
        <time>2015-03-22T09:25:19.1Z</time>
      </trkpt>
      <trkpt lat="48.41661" lon="-3.56708">
        <ele>183</ele>
        <time>2015-03-22T09:25:22.1Z</time>
      </trkpt>
      <trkpt lat="48.41661" lon="-3.56714">
        <ele>184</ele>
        <time>2015-03-22T09:25:25.1Z</time>
      </trkpt>
      <trkpt lat="48.4166" lon="-3.56717">
        <ele>184</ele>
        <time>2015-03-22T09:25:27.1Z</time>
      </trkpt>
      <trkpt lat="48.41659" lon="-3.56723">
        <ele>184</ele>
        <time>2015-03-22T09:25:30.1Z</time>
      </trkpt>
      <trkpt lat="48.41658" lon="-3.56729">
        <ele>184</ele>
        <time>2015-03-22T09:25:33.1Z</time>
      </trkpt>
      <trkpt lat="48.41657" lon="-3.56732">
        <ele>184</ele>
        <time>2015-03-22T09:25:35.1Z</time>
      </trkpt>
      <trkpt lat="48.41656" lon="-3.56737">
        <ele>184</ele>
        <time>2015-03-22T09:25:38.1Z</time>
      </trkpt>
      <trkpt lat="48.41655" lon="-3.56741">
        <ele>184</ele>
        <time>2015-03-22T09:25:40.1Z</time>
      </trkpt>
      <trkpt lat="48.41653" lon="-3.56746">
        <ele>184</ele>
        <time>2015-03-22T09:25:43.1Z</time>
      </trkpt>
      <trkpt lat="48.41651" lon="-3.56749">
        <ele>184</ele>
        <time>2015-03-22T09:25:45.1Z</time>
      </trkpt>
      <trkpt lat="48.4165" lon="-3.56752">
        <ele>185</ele>
        <time>2015-03-22T09:25:47.1Z</time>
      </trkpt>
      <trkpt lat="48.41648" lon="-3.56754">
        <ele>185</ele>
        <time>2015-03-22T09:25:49.1Z</time>
      </trkpt>
      <trkpt lat="48.41645" lon="-3.56756">
        <ele>185</ele>
        <time>2015-03-22T09:25:52.1Z</time>
      </trkpt>
      <trkpt lat="48.41643" lon="-3.56757">
        <ele>184</ele>
        <time>2015-03-22T09:25:54.1Z</time>
      </trkpt>
      <trkpt lat="48.4164" lon="-3.56757">
        <ele>184</ele>
        <time>2015-03-22T09:25:56.1Z</time>
      </trkpt>
      <trkpt lat="48.41638" lon="-3.56757">
        <ele>184</ele>
        <time>2015-03-22T09:25:58.1Z</time>
      </trkpt>
      <trkpt lat="48.41634" lon="-3.56757">
        <ele>184</ele>
        <time>2015-03-22T09:26:01.1Z</time>
      </trkpt>
      <trkpt lat="48.41631" lon="-3.56757">
        <ele>184</ele>
        <time>2015-03-22T09:26:04.1Z</time>
      </trkpt>
      <trkpt lat="48.41627" lon="-3.56756">
        <ele>184</ele>
        <time>2015-03-22T09:26:07.1Z</time>
      </trkpt>
      <trkpt lat="48.41624" lon="-3.56756">
        <ele>184</ele>
        <time>2015-03-22T09:26:09.1Z</time>
      </trkpt>
      <trkpt lat="48.41621" lon="-3.56755">
        <ele>183</ele>
        <time>2015-03-22T09:26:12.1Z</time>
      </trkpt>
      <trkpt lat="48.41617" lon="-3.56754">
        <ele>183</ele>
        <time>2015-03-22T09:26:15.1Z</time>
      </trkpt>
      <trkpt lat="48.41614" lon="-3.56752">
        <ele>183</ele>
        <time>2015-03-22T09:26:18.1Z</time>
      </trkpt>
      <trkpt lat="48.4161" lon="-3.56751">
        <ele>182</ele>
        <time>2015-03-22T09:26:21.1Z</time>
      </trkpt>
      <trkpt lat="48.41607" lon="-3.5675">
        <ele>182</ele>
        <time>2015-03-22T09:26:24.1Z</time>
      </trkpt>
      <trkpt lat="48.41604" lon="-3.56749">
        <ele>182</ele>
        <time>2015-03-22T09:26:26.1Z</time>
      </trkpt>
      <trkpt lat="48.41602" lon="-3.56749">
        <ele>183</ele>
        <time>2015-03-22T09:26:28.1Z</time>
      </trkpt>
      <trkpt lat="48.41599" lon="-3.56748">
        <ele>183</ele>
        <time>2015-03-22T09:26:31.1Z</time>
      </trkpt>
      <trkpt lat="48.41596" lon="-3.56747">
        <ele>183</ele>
        <time>2015-03-22T09:26:33.1Z</time>
      </trkpt>
      <trkpt lat="48.41592" lon="-3.56745">
        <ele>182</ele>
        <time>2015-03-22T09:26:36.1Z</time>
      </trkpt>
      <trkpt lat="48.4159" lon="-3.56745">
        <ele>182</ele>
        <time>2015-03-22T09:26:38.1Z</time>
      </trkpt>
      <trkpt lat="48.41587" lon="-3.56743">
        <ele>182</ele>
        <time>2015-03-22T09:26:41.1Z</time>
      </trkpt>
      <trkpt lat="48.41583" lon="-3.56742">
        <ele>183</ele>
        <time>2015-03-22T09:26:44.1Z</time>
      </trkpt>
      <trkpt lat="48.41579" lon="-3.5674">
        <ele>183</ele>
        <time>2015-03-22T09:26:47.1Z</time>
      </trkpt>
      <trkpt lat="48.41576" lon="-3.5674">
        <ele>183</ele>
        <time>2015-03-22T09:26:50.1Z</time>
      </trkpt>
      <trkpt lat="48.41573" lon="-3.56739">
        <ele>183</ele>
        <time>2015-03-22T09:26:52.1Z</time>
      </trkpt>
      <trkpt lat="48.41571" lon="-3.56739">
        <ele>183</ele>
        <time>2015-03-22T09:26:54.1Z</time>
      </trkpt>
      <trkpt lat="48.41567" lon="-3.56738">
        <ele>183</ele>
        <time>2015-03-22T09:26:57.1Z</time>
      </trkpt>
      <trkpt lat="48.41565" lon="-3.56737">
        <ele>183</ele>
        <time>2015-03-22T09:26:59.1Z</time>
      </trkpt>
      <trkpt lat="48.41563" lon="-3.56737">
        <ele>183</ele>
        <time>2015-03-22T09:27:01.1Z</time>
      </trkpt>
      <trkpt lat="48.41559" lon="-3.56737">
        <ele>183</ele>
        <time>2015-03-22T09:27:04.1Z</time>
      </trkpt>
      <trkpt lat="48.41557" lon="-3.56736">
        <ele>182</ele>
        <time>2015-03-22T09:27:06.1Z</time>
      </trkpt>
      <trkpt lat="48.41553" lon="-3.56736">
        <ele>182</ele>
        <time>2015-03-22T09:27:09.1Z</time>
      </trkpt>
      <trkpt lat="48.4155" lon="-3.56737">
        <ele>182</ele>
        <time>2015-03-22T09:27:12.1Z</time>
      </trkpt>
      <trkpt lat="48.41545" lon="-3.56737">
        <ele>183</ele>
        <time>2015-03-22T09:27:15.1Z</time>
      </trkpt>
      <trkpt lat="48.41542" lon="-3.56737">
        <ele>183</ele>
        <time>2015-03-22T09:27:18.1Z</time>
      </trkpt>
      <trkpt lat="48.41539" lon="-3.56737">
        <ele>183</ele>
        <time>2015-03-22T09:27:20.1Z</time>
      </trkpt>
      <trkpt lat="48.41536" lon="-3.56737">
        <ele>184</ele>
        <time>2015-03-22T09:27:23.1Z</time>
      </trkpt>
      <trkpt lat="48.41534" lon="-3.56738">
        <ele>184</ele>
        <time>2015-03-22T09:27:25.1Z</time>
      </trkpt>
      <trkpt lat="48.4153" lon="-3.56738">
        <ele>185</ele>
        <time>2015-03-22T09:27:28.1Z</time>
      </trkpt>
      <trkpt lat="48.41526" lon="-3.56739">
        <ele>185</ele>
        <time>2015-03-22T09:27:31.1Z</time>
      </trkpt>
      <trkpt lat="48.41524" lon="-3.56739">
        <ele>184</ele>
        <time>2015-03-22T09:27:33.1Z</time>
      </trkpt>
      <trkpt lat="48.4152" lon="-3.56739">
        <ele>183</ele>
        <time>2015-03-22T09:27:36.1Z</time>
      </trkpt>
      <trkpt lat="48.41516" lon="-3.56737">
        <ele>182</ele>
        <time>2015-03-22T09:27:39.1Z</time>
      </trkpt>
      <trkpt lat="48.41513" lon="-3.56737">
        <ele>183</ele>
        <time>2015-03-22T09:27:41.1Z</time>
      </trkpt>
      <trkpt lat="48.41509" lon="-3.56736">
        <ele>183</ele>
        <time>2015-03-22T09:27:44.1Z</time>
      </trkpt>
      <trkpt lat="48.41506" lon="-3.56737">
        <ele>184</ele>
        <time>2015-03-22T09:27:47.1Z</time>
      </trkpt>
      <trkpt lat="48.41502" lon="-3.56737">
        <ele>184</ele>
        <time>2015-03-22T09:27:50.1Z</time>
      </trkpt>
      <trkpt lat="48.415" lon="-3.56738">
        <ele>184</ele>
        <time>2015-03-22T09:27:52.1Z</time>
      </trkpt>
      <trkpt lat="48.41498" lon="-3.56739">
        <ele>184</ele>
        <time>2015-03-22T09:27:54.1Z</time>
      </trkpt>
      <trkpt lat="48.41496" lon="-3.56739">
        <ele>184</ele>
        <time>2015-03-22T09:27:56.1Z</time>
      </trkpt>
      <trkpt lat="48.41492" lon="-3.5674">
        <ele>184</ele>
        <time>2015-03-22T09:27:59.1Z</time>
      </trkpt>
      <trkpt lat="48.41489" lon="-3.5674">
        <ele>185</ele>
        <time>2015-03-22T09:28:01.1Z</time>
      </trkpt>
      <trkpt lat="48.41486" lon="-3.56741">
        <ele>185</ele>
        <time>2015-03-22T09:28:04.1Z</time>
      </trkpt>
      <trkpt lat="48.41483" lon="-3.56741">
        <ele>185</ele>
        <time>2015-03-22T09:28:06.1Z</time>
      </trkpt>
      <trkpt lat="48.41481" lon="-3.56742">
        <ele>185</ele>
        <time>2015-03-22T09:28:08.1Z</time>
      </trkpt>
      <trkpt lat="48.41477" lon="-3.56743">
        <ele>185</ele>
        <time>2015-03-22T09:28:11.1Z</time>
      </trkpt>
      <trkpt lat="48.41475" lon="-3.56744">
        <ele>185</ele>
        <time>2015-03-22T09:28:13.1Z</time>
      </trkpt>
      <trkpt lat="48.41471" lon="-3.56746">
        <ele>185</ele>
        <time>2015-03-22T09:28:16.1Z</time>
      </trkpt>
      <trkpt lat="48.41468" lon="-3.56747">
        <ele>185</ele>
        <time>2015-03-22T09:28:19.1Z</time>
      </trkpt>
      <trkpt lat="48.41465" lon="-3.56748">
        <ele>185</ele>
        <time>2015-03-22T09:28:22.1Z</time>
      </trkpt>
      <trkpt lat="48.41462" lon="-3.56749">
        <ele>185</ele>
        <time>2015-03-22T09:28:25.1Z</time>
      </trkpt>
      <trkpt lat="48.41459" lon="-3.56751">
        <ele>184</ele>
        <time>2015-03-22T09:28:27.1Z</time>
      </trkpt>
      <trkpt lat="48.41456" lon="-3.56753">
        <ele>185</ele>
        <time>2015-03-22T09:28:30.1Z</time>
      </trkpt>
      <trkpt lat="48.41453" lon="-3.56756">
        <ele>185</ele>
        <time>2015-03-22T09:28:33.1Z</time>
      </trkpt>
      <trkpt lat="48.4145" lon="-3.56759">
        <ele>185</ele>
        <time>2015-03-22T09:28:36.1Z</time>
      </trkpt>
      <trkpt lat="48.41447" lon="-3.56762">
        <ele>185</ele>
        <time>2015-03-22T09:28:39.1Z</time>
      </trkpt>
      <trkpt lat="48.41446" lon="-3.56764">
        <ele>184</ele>
        <time>2015-03-22T09:28:41.1Z</time>
      </trkpt>
      <trkpt lat="48.41444" lon="-3.56766">
        <ele>184</ele>
        <time>2015-03-22T09:28:43.1Z</time>
      </trkpt>
      <trkpt lat="48.41441" lon="-3.56768">
        <ele>184</ele>
        <time>2015-03-22T09:28:46.1Z</time>
      </trkpt>
      <trkpt lat="48.41439" lon="-3.5677">
        <ele>184</ele>
        <time>2015-03-22T09:28:48.1Z</time>
      </trkpt>
      <trkpt lat="48.41437" lon="-3.56772">
        <ele>185</ele>
        <time>2015-03-22T09:28:50.1Z</time>
      </trkpt>
      <trkpt lat="48.41434" lon="-3.56774">
        <ele>185</ele>
        <time>2015-03-22T09:28:53.1Z</time>
      </trkpt>
      <trkpt lat="48.41433" lon="-3.56776">
        <ele>185</ele>
        <time>2015-03-22T09:28:55.1Z</time>
      </trkpt>
      <trkpt lat="48.4143" lon="-3.56778">
        <ele>185</ele>
        <time>2015-03-22T09:28:58.1Z</time>
      </trkpt>
      <trkpt lat="48.41428" lon="-3.5678">
        <ele>185</ele>
        <time>2015-03-22T09:29:00.1Z</time>
      </trkpt>
      <trkpt lat="48.41425" lon="-3.56782">
        <ele>185</ele>
        <time>2015-03-22T09:29:03.1Z</time>
      </trkpt>
      <trkpt lat="48.41422" lon="-3.56783">
        <ele>185</ele>
        <time>2015-03-22T09:29:06.1Z</time>
      </trkpt>
      <trkpt lat="48.4142" lon="-3.56784">
        <ele>185</ele>
        <time>2015-03-22T09:29:08.1Z</time>
      </trkpt>
      <trkpt lat="48.41418" lon="-3.56786">
        <ele>185</ele>
        <time>2015-03-22T09:29:10.1Z</time>
      </trkpt>
      <trkpt lat="48.41415" lon="-3.56787">
        <ele>185</ele>
        <time>2015-03-22T09:29:13.1Z</time>
      </trkpt>
      <trkpt lat="48.41413" lon="-3.56788">
        <ele>185</ele>
        <time>2015-03-22T09:29:15.1Z</time>
      </trkpt>
      <trkpt lat="48.4141" lon="-3.56789">
        <ele>185</ele>
        <time>2015-03-22T09:29:17.1Z</time>
      </trkpt>
      <trkpt lat="48.41407" lon="-3.5679">
        <ele>185</ele>
        <time>2015-03-22T09:29:20.1Z</time>
      </trkpt>
      <trkpt lat="48.41405" lon="-3.56792">
        <ele>185</ele>
        <time>2015-03-22T09:29:22.1Z</time>
      </trkpt>
      <trkpt lat="48.41402" lon="-3.56794">
        <ele>185</ele>
        <time>2015-03-22T09:29:25.1Z</time>
      </trkpt>
      <trkpt lat="48.414" lon="-3.56794">
        <ele>185</ele>
        <time>2015-03-22T09:29:27.1Z</time>
      </trkpt>
      <trkpt lat="48.41396" lon="-3.56795">
        <ele>185</ele>
        <time>2015-03-22T09:29:30.1Z</time>
      </trkpt>
      <trkpt lat="48.41392" lon="-3.56796">
        <ele>185</ele>
        <time>2015-03-22T09:29:33.1Z</time>
      </trkpt>
      <trkpt lat="48.41389" lon="-3.56796">
        <ele>184</ele>
        <time>2015-03-22T09:29:35.1Z</time>
      </trkpt>
      <trkpt lat="48.41385" lon="-3.56796">
        <ele>185</ele>
        <time>2015-03-22T09:29:38.1Z</time>
      </trkpt>
      <trkpt lat="48.41381" lon="-3.56796">
        <ele>184</ele>
        <time>2015-03-22T09:29:41.1Z</time>
      </trkpt>
      <trkpt lat="48.41378" lon="-3.56797">
        <ele>185</ele>
        <time>2015-03-22T09:29:44.1Z</time>
      </trkpt>
      <trkpt lat="48.41374" lon="-3.56797">
        <ele>185</ele>
        <time>2015-03-22T09:29:47.1Z</time>
      </trkpt>
      <trkpt lat="48.41371" lon="-3.56797">
        <ele>185</ele>
        <time>2015-03-22T09:29:49.1Z</time>
      </trkpt>
      <trkpt lat="48.41368" lon="-3.56798">
        <ele>185</ele>
        <time>2015-03-22T09:29:52.1Z</time>
      </trkpt>
      <trkpt lat="48.41366" lon="-3.56798">
        <ele>185</ele>
        <time>2015-03-22T09:29:54.1Z</time>
      </trkpt>
      <trkpt lat="48.41362" lon="-3.56798">
        <ele>185</ele>
        <time>2015-03-22T09:29:57.1Z</time>
      </trkpt>
      <trkpt lat="48.41359" lon="-3.56799">
        <ele>185</ele>
        <time>2015-03-22T09:30:00.1Z</time>
      </trkpt>
      <trkpt lat="48.41356" lon="-3.56799">
        <ele>185</ele>
        <time>2015-03-22T09:30:02.1Z</time>
      </trkpt>
      <trkpt lat="48.41352" lon="-3.568">
        <ele>184</ele>
        <time>2015-03-22T09:30:05.1Z</time>
      </trkpt>
      <trkpt lat="48.41349" lon="-3.568">
        <ele>185</ele>
        <time>2015-03-22T09:30:08.1Z</time>
      </trkpt>
      <trkpt lat="48.41345" lon="-3.56801">
        <ele>185</ele>
        <time>2015-03-22T09:30:11.1Z</time>
      </trkpt>
      <trkpt lat="48.41341" lon="-3.56802">
        <ele>185</ele>
        <time>2015-03-22T09:30:14.1Z</time>
      </trkpt>
      <trkpt lat="48.41338" lon="-3.56802">
        <ele>185</ele>
        <time>2015-03-22T09:30:17.1Z</time>
      </trkpt>
      <trkpt lat="48.41334" lon="-3.56803">
        <ele>185</ele>
        <time>2015-03-22T09:30:20.1Z</time>
      </trkpt>
      <trkpt lat="48.41331" lon="-3.56803">
        <ele>185</ele>
        <time>2015-03-22T09:30:22.1Z</time>
      </trkpt>
      <trkpt lat="48.41329" lon="-3.56804">
        <ele>185</ele>
        <time>2015-03-22T09:30:24.1Z</time>
      </trkpt>
      <trkpt lat="48.41325" lon="-3.56804">
        <ele>185</ele>
        <time>2015-03-22T09:30:27.1Z</time>
      </trkpt>
      <trkpt lat="48.41323" lon="-3.56805">
        <ele>185</ele>
        <time>2015-03-22T09:30:29.1Z</time>
      </trkpt>
      <trkpt lat="48.41319" lon="-3.56806">
        <ele>185</ele>
        <time>2015-03-22T09:30:32.1Z</time>
      </trkpt>
      <trkpt lat="48.41317" lon="-3.56806">
        <ele>185</ele>
        <time>2015-03-22T09:30:34.1Z</time>
      </trkpt>
      <trkpt lat="48.41313" lon="-3.56807">
        <ele>184</ele>
        <time>2015-03-22T09:30:37.1Z</time>
      </trkpt>
      <trkpt lat="48.41309" lon="-3.56808">
        <ele>184</ele>
        <time>2015-03-22T09:30:40.1Z</time>
      </trkpt>
      <trkpt lat="48.41306" lon="-3.56809">
        <ele>184</ele>
        <time>2015-03-22T09:30:43.1Z</time>
      </trkpt>
      <trkpt lat="48.41302" lon="-3.5681">
        <ele>184</ele>
        <time>2015-03-22T09:30:46.1Z</time>
      </trkpt>
      <trkpt lat="48.41299" lon="-3.56811">
        <ele>184</ele>
        <time>2015-03-22T09:30:48.1Z</time>
      </trkpt>
      <trkpt lat="48.41296" lon="-3.56812">
        <ele>184</ele>
        <time>2015-03-22T09:30:51.1Z</time>
      </trkpt>
      <trkpt lat="48.41292" lon="-3.56813">
        <ele>184</ele>
        <time>2015-03-22T09:30:54.1Z</time>
      </trkpt>
      <trkpt lat="48.4129" lon="-3.56814">
        <ele>184</ele>
        <time>2015-03-22T09:30:56.1Z</time>
      </trkpt>
      <trkpt lat="48.41286" lon="-3.56815">
        <ele>183</ele>
        <time>2015-03-22T09:30:59.1Z</time>
      </trkpt>
      <trkpt lat="48.41284" lon="-3.56816">
        <ele>183</ele>
        <time>2015-03-22T09:31:01.1Z</time>
      </trkpt>
      <trkpt lat="48.4128" lon="-3.56819">
        <ele>183</ele>
        <time>2015-03-22T09:31:04.1Z</time>
      </trkpt>
      <trkpt lat="48.41277" lon="-3.56821">
        <ele>183</ele>
        <time>2015-03-22T09:31:07.1Z</time>
      </trkpt>
      <trkpt lat="48.41274" lon="-3.56822">
        <ele>183</ele>
        <time>2015-03-22T09:31:09.1Z</time>
      </trkpt>
      <trkpt lat="48.41271" lon="-3.56824">
        <ele>183</ele>
        <time>2015-03-22T09:31:12.1Z</time>
      </trkpt>
      <trkpt lat="48.41267" lon="-3.56826">
        <ele>183</ele>
        <time>2015-03-22T09:31:15.1Z</time>
      </trkpt>
      <trkpt lat="48.41265" lon="-3.56827">
        <ele>183</ele>
        <time>2015-03-22T09:31:17.1Z</time>
      </trkpt>
      <trkpt lat="48.41262" lon="-3.5683">
        <ele>182</ele>
        <time>2015-03-22T09:31:20.1Z</time>
      </trkpt>
      <trkpt lat="48.4126" lon="-3.56831">
        <ele>183</ele>
        <time>2015-03-22T09:31:22.1Z</time>
      </trkpt>
      <trkpt lat="48.41256" lon="-3.56832">
        <ele>183</ele>
        <time>2015-03-22T09:31:25.1Z</time>
      </trkpt>
      <trkpt lat="48.41252" lon="-3.56834">
        <ele>183</ele>
        <time>2015-03-22T09:31:28.1Z</time>
      </trkpt>
      <trkpt lat="48.4125" lon="-3.56836">
        <ele>183</ele>
        <time>2015-03-22T09:31:30.1Z</time>
      </trkpt>
      <trkpt lat="48.41246" lon="-3.56838">
        <ele>183</ele>
        <time>2015-03-22T09:31:33.1Z</time>
      </trkpt>
      <trkpt lat="48.41243" lon="-3.5684">
        <ele>182</ele>
        <time>2015-03-22T09:31:36.1Z</time>
      </trkpt>
      <trkpt lat="48.4124" lon="-3.56841">
        <ele>182</ele>
        <time>2015-03-22T09:31:38.1Z</time>
      </trkpt>
      <trkpt lat="48.41238" lon="-3.56843">
        <ele>182</ele>
        <time>2015-03-22T09:31:40.1Z</time>
      </trkpt>
      <trkpt lat="48.41235" lon="-3.56845">
        <ele>183</ele>
        <time>2015-03-22T09:31:43.1Z</time>
      </trkpt>
      <trkpt lat="48.41231" lon="-3.56847">
        <ele>183</ele>
        <time>2015-03-22T09:31:46.1Z</time>
      </trkpt>
      <trkpt lat="48.41229" lon="-3.56849">
        <ele>183</ele>
        <time>2015-03-22T09:31:48.1Z</time>
      </trkpt>
      <trkpt lat="48.41227" lon="-3.5685">
        <ele>183</ele>
        <time>2015-03-22T09:31:50.1Z</time>
      </trkpt>
      <trkpt lat="48.41224" lon="-3.56851">
        <ele>183</ele>
        <time>2015-03-22T09:31:53.1Z</time>
      </trkpt>
      <trkpt lat="48.41222" lon="-3.56851">
        <ele>183</ele>
        <time>2015-03-22T09:31:55.1Z</time>
      </trkpt>
      <trkpt lat="48.41219" lon="-3.56852">
        <ele>183</ele>
        <time>2015-03-22T09:31:57.1Z</time>
      </trkpt>
      <trkpt lat="48.41216" lon="-3.56853">
        <ele>183</ele>
        <time>2015-03-22T09:32:00.1Z</time>
      </trkpt>
      <trkpt lat="48.41214" lon="-3.56854">
        <ele>183</ele>
        <time>2015-03-22T09:32:02.1Z</time>
      </trkpt>
      <trkpt lat="48.41211" lon="-3.56855">
        <ele>183</ele>
        <time>2015-03-22T09:32:05.1Z</time>
      </trkpt>
      <trkpt lat="48.41208" lon="-3.56856">
        <ele>183</ele>
        <time>2015-03-22T09:32:07.1Z</time>
      </trkpt>
      <trkpt lat="48.41205" lon="-3.56856">
        <ele>183</ele>
        <time>2015-03-22T09:32:10.1Z</time>
      </trkpt>
      <trkpt lat="48.41202" lon="-3.56858">
        <ele>183</ele>
        <time>2015-03-22T09:32:13.1Z</time>
      </trkpt>
      <trkpt lat="48.412" lon="-3.56859">
        <ele>183</ele>
        <time>2015-03-22T09:32:15.1Z</time>
      </trkpt>
      <trkpt lat="48.41196" lon="-3.5686">
        <ele>183</ele>
        <time>2015-03-22T09:32:18.1Z</time>
      </trkpt>
      <trkpt lat="48.41193" lon="-3.56861">
        <ele>183</ele>
        <time>2015-03-22T09:32:21.1Z</time>
      </trkpt>
      <trkpt lat="48.41191" lon="-3.56862">
        <ele>183</ele>
        <time>2015-03-22T09:32:23.1Z</time>
      </trkpt>
      <trkpt lat="48.41188" lon="-3.56863">
        <ele>183</ele>
        <time>2015-03-22T09:32:26.1Z</time>
      </trkpt>
      <trkpt lat="48.41185" lon="-3.56864">
        <ele>184</ele>
        <time>2015-03-22T09:32:29.1Z</time>
      </trkpt>
      <trkpt lat="48.41182" lon="-3.56865">
        <ele>184</ele>
        <time>2015-03-22T09:32:31.1Z</time>
      </trkpt>
      <trkpt lat="48.41179" lon="-3.56866">
        <ele>183</ele>
        <time>2015-03-22T09:32:34.1Z</time>
      </trkpt>
      <trkpt lat="48.41175" lon="-3.56867">
        <ele>183</ele>
        <time>2015-03-22T09:32:37.1Z</time>
      </trkpt>
      <trkpt lat="48.41172" lon="-3.56867">
        <ele>183</ele>
        <time>2015-03-22T09:32:40.1Z</time>
      </trkpt>
      <trkpt lat="48.41168" lon="-3.56869">
        <ele>184</ele>
        <time>2015-03-22T09:32:43.1Z</time>
      </trkpt>
      <trkpt lat="48.41166" lon="-3.5687">
        <ele>184</ele>
        <time>2015-03-22T09:32:45.1Z</time>
      </trkpt>
      <trkpt lat="48.41163" lon="-3.56871">
        <ele>184</ele>
        <time>2015-03-22T09:32:48.1Z</time>
      </trkpt>
      <trkpt lat="48.41159" lon="-3.56871">
        <ele>184</ele>
        <time>2015-03-22T09:32:51.1Z</time>
      </trkpt>
      <trkpt lat="48.41156" lon="-3.56872">
        <ele>184</ele>
        <time>2015-03-22T09:32:53.1Z</time>
      </trkpt>
      <trkpt lat="48.41152" lon="-3.56873">
        <ele>184</ele>
        <time>2015-03-22T09:32:56.1Z</time>
      </trkpt>
      <trkpt lat="48.4115" lon="-3.56872">
        <ele>184</ele>
        <time>2015-03-22T09:32:58.1Z</time>
      </trkpt>
      <trkpt lat="48.41148" lon="-3.56872">
        <ele>184</ele>
        <time>2015-03-22T09:33:00.1Z</time>
      </trkpt>
      <trkpt lat="48.41145" lon="-3.56875">
        <ele>184</ele>
        <time>2015-03-22T09:33:03.1Z</time>
      </trkpt>
      <trkpt lat="48.41143" lon="-3.56879">
        <ele>184</ele>
        <time>2015-03-22T09:33:06.1Z</time>
      </trkpt>
      <trkpt lat="48.41143" lon="-3.56881">
        <ele>184</ele>
        <time>2015-03-22T09:33:08.1Z</time>
      </trkpt>
      <trkpt lat="48.41143" lon="-3.56883">
        <ele>184</ele>
        <time>2015-03-22T09:33:11.1Z</time>
      </trkpt>
      <trkpt lat="48.41144" lon="-3.56886">
        <ele>184</ele>
        <time>2015-03-22T09:33:14.1Z</time>
      </trkpt>
      <trkpt lat="48.41145" lon="-3.56889">
        <ele>184</ele>
        <time>2015-03-22T09:33:16.1Z</time>
      </trkpt>
      <trkpt lat="48.41145" lon="-3.56893">
        <ele>184</ele>
        <time>2015-03-22T09:33:19.1Z</time>
      </trkpt>
      <trkpt lat="48.41146" lon="-3.56896">
        <ele>184</ele>
        <time>2015-03-22T09:33:21.1Z</time>
      </trkpt>
      <trkpt lat="48.41147" lon="-3.56899">
        <ele>184</ele>
        <time>2015-03-22T09:33:23.1Z</time>
      </trkpt>
      <trkpt lat="48.41148" lon="-3.56904">
        <ele>185</ele>
        <time>2015-03-22T09:33:26.1Z</time>
      </trkpt>
      <trkpt lat="48.41149" lon="-3.56907">
        <ele>185</ele>
        <time>2015-03-22T09:33:29.1Z</time>
      </trkpt>
      <trkpt lat="48.41149" lon="-3.56912">
        <ele>185</ele>
        <time>2015-03-22T09:33:32.1Z</time>
      </trkpt>
      <trkpt lat="48.41151" lon="-3.56917">
        <ele>185</ele>
        <time>2015-03-22T09:33:35.1Z</time>
      </trkpt>
      <trkpt lat="48.41151" lon="-3.56923">
        <ele>185</ele>
        <time>2015-03-22T09:33:38.1Z</time>
      </trkpt>
      <trkpt lat="48.41152" lon="-3.56926">
        <ele>185</ele>
        <time>2015-03-22T09:33:40.1Z</time>
      </trkpt>
      <trkpt lat="48.41154" lon="-3.5693">
        <ele>185</ele>
        <time>2015-03-22T09:33:43.1Z</time>
      </trkpt>
      <trkpt lat="48.41154" lon="-3.56933">
        <ele>186</ele>
        <time>2015-03-22T09:33:45.1Z</time>
      </trkpt>
      <trkpt lat="48.41156" lon="-3.56938">
        <ele>186</ele>
        <time>2015-03-22T09:33:48.1Z</time>
      </trkpt>
      <trkpt lat="48.41158" lon="-3.56943">
        <ele>186</ele>
        <time>2015-03-22T09:33:51.1Z</time>
      </trkpt>
      <trkpt lat="48.41159" lon="-3.56946">
        <ele>186</ele>
        <time>2015-03-22T09:33:53.1Z</time>
      </trkpt>
      <trkpt lat="48.4116" lon="-3.56951">
        <ele>187</ele>
        <time>2015-03-22T09:33:56.1Z</time>
      </trkpt>
      <trkpt lat="48.41161" lon="-3.56954">
        <ele>187</ele>
        <time>2015-03-22T09:33:58.1Z</time>
      </trkpt>
      <trkpt lat="48.41161" lon="-3.56957">
        <ele>187</ele>
        <time>2015-03-22T09:34:01.1Z</time>
      </trkpt>
      <trkpt lat="48.41161" lon="-3.56959">
        <ele>187</ele>
        <time>2015-03-22T09:34:04.1Z</time>
      </trkpt>
      <trkpt lat="48.41162" lon="-3.56962">
        <ele>187</ele>
        <time>2015-03-22T09:34:06.1Z</time>
      </trkpt>
      <trkpt lat="48.41163" lon="-3.56966">
        <ele>188</ele>
        <time>2015-03-22T09:34:09.1Z</time>
      </trkpt>
      <trkpt lat="48.41164" lon="-3.5697">
        <ele>188</ele>
        <time>2015-03-22T09:34:11.1Z</time>
      </trkpt>
      <trkpt lat="48.41165" lon="-3.56974">
        <ele>188</ele>
        <time>2015-03-22T09:34:14.1Z</time>
      </trkpt>
      <trkpt lat="48.41166" lon="-3.56979">
        <ele>189</ele>
        <time>2015-03-22T09:34:17.1Z</time>
      </trkpt>
      <trkpt lat="48.41167" lon="-3.56981">
        <ele>189</ele>
        <time>2015-03-22T09:34:19.1Z</time>
      </trkpt>
      <trkpt lat="48.41168" lon="-3.56985">
        <ele>189</ele>
        <time>2015-03-22T09:34:22.1Z</time>
      </trkpt>
      <trkpt lat="48.41169" lon="-3.5699">
        <ele>189</ele>
        <time>2015-03-22T09:34:25.1Z</time>
      </trkpt>
      <trkpt lat="48.41169" lon="-3.56993">
        <ele>189</ele>
        <time>2015-03-22T09:34:27.1Z</time>
      </trkpt>
      <trkpt lat="48.4117" lon="-3.56996">
        <ele>189</ele>
        <time>2015-03-22T09:34:29.1Z</time>
      </trkpt>
      <trkpt lat="48.41171" lon="-3.57">
        <ele>189</ele>
        <time>2015-03-22T09:34:32.1Z</time>
      </trkpt>
      <trkpt lat="48.41172" lon="-3.57002">
        <ele>190</ele>
        <time>2015-03-22T09:34:34.1Z</time>
      </trkpt>
      <trkpt lat="48.41172" lon="-3.57006">
        <ele>190</ele>
        <time>2015-03-22T09:34:37.1Z</time>
      </trkpt>
      <trkpt lat="48.41172" lon="-3.57011">
        <ele>190</ele>
        <time>2015-03-22T09:34:40.1Z</time>
      </trkpt>
      <trkpt lat="48.41173" lon="-3.57014">
        <ele>190</ele>
        <time>2015-03-22T09:34:42.1Z</time>
      </trkpt>
      <trkpt lat="48.41174" lon="-3.57018">
        <ele>190</ele>
        <time>2015-03-22T09:34:45.1Z</time>
      </trkpt>
      <trkpt lat="48.41175" lon="-3.57023">
        <ele>190</ele>
        <time>2015-03-22T09:34:48.1Z</time>
      </trkpt>
      <trkpt lat="48.41176" lon="-3.57027">
        <ele>191</ele>
        <time>2015-03-22T09:34:51.1Z</time>
      </trkpt>
      <trkpt lat="48.41177" lon="-3.5703">
        <ele>191</ele>
        <time>2015-03-22T09:34:53.1Z</time>
      </trkpt>
      <trkpt lat="48.41178" lon="-3.57035">
        <ele>191</ele>
        <time>2015-03-22T09:34:56.1Z</time>
      </trkpt>
      <trkpt lat="48.41179" lon="-3.57038">
        <ele>191</ele>
        <time>2015-03-22T09:34:58.1Z</time>
      </trkpt>
      <trkpt lat="48.41179" lon="-3.57042">
        <ele>191</ele>
        <time>2015-03-22T09:35:01.1Z</time>
      </trkpt>
      <trkpt lat="48.4118" lon="-3.57045">
        <ele>192</ele>
        <time>2015-03-22T09:35:03.1Z</time>
      </trkpt>
      <trkpt lat="48.41181" lon="-3.5705">
        <ele>192</ele>
        <time>2015-03-22T09:35:06.1Z</time>
      </trkpt>
      <trkpt lat="48.41181" lon="-3.57055">
        <ele>193</ele>
        <time>2015-03-22T09:35:09.1Z</time>
      </trkpt>
      <trkpt lat="48.41182" lon="-3.5706">
        <ele>193</ele>
        <time>2015-03-22T09:35:12.1Z</time>
      </trkpt>
      <trkpt lat="48.41182" lon="-3.57063">
        <ele>193</ele>
        <time>2015-03-22T09:35:14.1Z</time>
      </trkpt>
      <trkpt lat="48.41183" lon="-3.57068">
        <ele>193</ele>
        <time>2015-03-22T09:35:17.1Z</time>
      </trkpt>
      <trkpt lat="48.41183" lon="-3.57072">
        <ele>193</ele>
        <time>2015-03-22T09:35:19.1Z</time>
      </trkpt>
      <trkpt lat="48.41184" lon="-3.57077">
        <ele>193</ele>
        <time>2015-03-22T09:35:22.1Z</time>
      </trkpt>
      <trkpt lat="48.41185" lon="-3.5708">
        <ele>194</ele>
        <time>2015-03-22T09:35:24.1Z</time>
      </trkpt>
      <trkpt lat="48.41185" lon="-3.57084">
        <ele>194</ele>
        <time>2015-03-22T09:35:27.1Z</time>
      </trkpt>
      <trkpt lat="48.41186" lon="-3.57088">
        <ele>195</ele>
        <time>2015-03-22T09:35:29.1Z</time>
      </trkpt>
      <trkpt lat="48.41187" lon="-3.57094">
        <ele>195</ele>
        <time>2015-03-22T09:35:32.1Z</time>
      </trkpt>
      <trkpt lat="48.41188" lon="-3.57097">
        <ele>196</ele>
        <time>2015-03-22T09:35:34.1Z</time>
      </trkpt>
      <trkpt lat="48.41188" lon="-3.57102">
        <ele>196</ele>
        <time>2015-03-22T09:35:37.1Z</time>
      </trkpt>
      <trkpt lat="48.41189" lon="-3.57106">
        <ele>196</ele>
        <time>2015-03-22T09:35:39.1Z</time>
      </trkpt>
      <trkpt lat="48.4119" lon="-3.57111">
        <ele>196</ele>
        <time>2015-03-22T09:35:42.1Z</time>
      </trkpt>
      <trkpt lat="48.41191" lon="-3.57114">
        <ele>196</ele>
        <time>2015-03-22T09:35:44.1Z</time>
      </trkpt>
      <trkpt lat="48.41192" lon="-3.57117">
        <ele>196</ele>
        <time>2015-03-22T09:35:46.1Z</time>
      </trkpt>
      <trkpt lat="48.41193" lon="-3.57121">
        <ele>197</ele>
        <time>2015-03-22T09:35:49.1Z</time>
      </trkpt>
      <trkpt lat="48.41194" lon="-3.57125">
        <ele>197</ele>
        <time>2015-03-22T09:35:52.1Z</time>
      </trkpt>
      <trkpt lat="48.41195" lon="-3.5713">
        <ele>198</ele>
        <time>2015-03-22T09:35:55.1Z</time>
      </trkpt>
      <trkpt lat="48.41195" lon="-3.57133">
        <ele>198</ele>
        <time>2015-03-22T09:35:57.1Z</time>
      </trkpt>
      <trkpt lat="48.41196" lon="-3.57138">
        <ele>198</ele>
        <time>2015-03-22T09:36:00.1Z</time>
      </trkpt>
      <trkpt lat="48.41198" lon="-3.57142">
        <ele>199</ele>
        <time>2015-03-22T09:36:03.1Z</time>
      </trkpt>
      <trkpt lat="48.41199" lon="-3.57147">
        <ele>199</ele>
        <time>2015-03-22T09:36:06.1Z</time>
      </trkpt>
      <trkpt lat="48.412" lon="-3.57152">
        <ele>199</ele>
        <time>2015-03-22T09:36:09.1Z</time>
      </trkpt>
      <trkpt lat="48.41201" lon="-3.57155">
        <ele>200</ele>
        <time>2015-03-22T09:36:11.1Z</time>
      </trkpt>
      <trkpt lat="48.41202" lon="-3.57158">
        <ele>200</ele>
        <time>2015-03-22T09:36:13.1Z</time>
      </trkpt>
      <trkpt lat="48.41203" lon="-3.57161">
        <ele>200</ele>
        <time>2015-03-22T09:36:15.1Z</time>
      </trkpt>
      <trkpt lat="48.41204" lon="-3.57166">
        <ele>200</ele>
        <time>2015-03-22T09:36:18.1Z</time>
      </trkpt>
      <trkpt lat="48.41206" lon="-3.5717">
        <ele>201</ele>
        <time>2015-03-22T09:36:21.1Z</time>
      </trkpt>
      <trkpt lat="48.41207" lon="-3.57175">
        <ele>201</ele>
        <time>2015-03-22T09:36:24.1Z</time>
      </trkpt>
      <trkpt lat="48.41208" lon="-3.57178">
        <ele>202</ele>
        <time>2015-03-22T09:36:26.1Z</time>
      </trkpt>
      <trkpt lat="48.41209" lon="-3.57182">
        <ele>202</ele>
        <time>2015-03-22T09:36:28.1Z</time>
      </trkpt>
      <trkpt lat="48.4121" lon="-3.57186">
        <ele>202</ele>
        <time>2015-03-22T09:36:31.1Z</time>
      </trkpt>
      <trkpt lat="48.41211" lon="-3.57191">
        <ele>202</ele>
        <time>2015-03-22T09:36:34.1Z</time>
      </trkpt>
      <trkpt lat="48.41212" lon="-3.57195">
        <ele>202</ele>
        <time>2015-03-22T09:36:37.1Z</time>
      </trkpt>
      <trkpt lat="48.41214" lon="-3.572">
        <ele>203</ele>
        <time>2015-03-22T09:36:40.1Z</time>
      </trkpt>
      <trkpt lat="48.41215" lon="-3.57203">
        <ele>203</ele>
        <time>2015-03-22T09:36:42.1Z</time>
      </trkpt>
      <trkpt lat="48.41216" lon="-3.57207">
        <ele>203</ele>
        <time>2015-03-22T09:36:45.1Z</time>
      </trkpt>
      <trkpt lat="48.41217" lon="-3.57211">
        <ele>204</ele>
        <time>2015-03-22T09:36:48.1Z</time>
      </trkpt>
      <trkpt lat="48.41219" lon="-3.57214">
        <ele>204</ele>
        <time>2015-03-22T09:36:50.1Z</time>
      </trkpt>
      <trkpt lat="48.4122" lon="-3.57218">
        <ele>204</ele>
        <time>2015-03-22T09:36:53.1Z</time>
      </trkpt>
      <trkpt lat="48.41221" lon="-3.57221">
        <ele>204</ele>
        <time>2015-03-22T09:36:55.1Z</time>
      </trkpt>
      <trkpt lat="48.41222" lon="-3.57225">
        <ele>205</ele>
        <time>2015-03-22T09:36:58.1Z</time>
      </trkpt>
      <trkpt lat="48.41223" lon="-3.5723">
        <ele>205</ele>
        <time>2015-03-22T09:37:01.1Z</time>
      </trkpt>
      <trkpt lat="48.41224" lon="-3.57234">
        <ele>205</ele>
        <time>2015-03-22T09:37:04.1Z</time>
      </trkpt>
      <trkpt lat="48.41225" lon="-3.57237">
        <ele>206</ele>
        <time>2015-03-22T09:37:06.1Z</time>
      </trkpt>
      <trkpt lat="48.41227" lon="-3.57242">
        <ele>206</ele>
        <time>2015-03-22T09:37:09.1Z</time>
      </trkpt>
      <trkpt lat="48.41227" lon="-3.57245">
        <ele>206</ele>
        <time>2015-03-22T09:37:11.1Z</time>
      </trkpt>
      <trkpt lat="48.41228" lon="-3.57248">
        <ele>207</ele>
        <time>2015-03-22T09:37:13.1Z</time>
      </trkpt>
      <trkpt lat="48.41228" lon="-3.57253">
        <ele>207</ele>
        <time>2015-03-22T09:37:16.1Z</time>
      </trkpt>
      <trkpt lat="48.41229" lon="-3.57256">
        <ele>207</ele>
        <time>2015-03-22T09:37:18.1Z</time>
      </trkpt>
      <trkpt lat="48.4123" lon="-3.57261">
        <ele>207</ele>
        <time>2015-03-22T09:37:21.1Z</time>
      </trkpt>
      <trkpt lat="48.41232" lon="-3.57266">
        <ele>208</ele>
        <time>2015-03-22T09:37:24.1Z</time>
      </trkpt>
      <trkpt lat="48.41232" lon="-3.57269">
        <ele>208</ele>
        <time>2015-03-22T09:37:26.1Z</time>
      </trkpt>
      <trkpt lat="48.41233" lon="-3.57273">
        <ele>208</ele>
        <time>2015-03-22T09:37:29.1Z</time>
      </trkpt>
      <trkpt lat="48.41234" lon="-3.57277">
        <ele>209</ele>
        <time>2015-03-22T09:37:32.1Z</time>
      </trkpt>
      <trkpt lat="48.41234" lon="-3.57282">
        <ele>209</ele>
        <time>2015-03-22T09:37:35.1Z</time>
      </trkpt>
      <trkpt lat="48.41234" lon="-3.57286">
        <ele>210</ele>
        <time>2015-03-22T09:37:37.1Z</time>
      </trkpt>
      <trkpt lat="48.41235" lon="-3.57289">
        <ele>210</ele>
        <time>2015-03-22T09:37:39.1Z</time>
      </trkpt>
      <trkpt lat="48.41236" lon="-3.57292">
        <ele>210</ele>
        <time>2015-03-22T09:37:41.1Z</time>
      </trkpt>
      <trkpt lat="48.41237" lon="-3.57296">
        <ele>210</ele>
        <time>2015-03-22T09:37:44.1Z</time>
      </trkpt>
      <trkpt lat="48.41238" lon="-3.57299">
        <ele>210</ele>
        <time>2015-03-22T09:37:46.1Z</time>
      </trkpt>
      <trkpt lat="48.41239" lon="-3.57304">
        <ele>211</ele>
        <time>2015-03-22T09:37:49.1Z</time>
      </trkpt>
      <trkpt lat="48.4124" lon="-3.57308">
        <ele>211</ele>
        <time>2015-03-22T09:37:52.1Z</time>
      </trkpt>
      <trkpt lat="48.41241" lon="-3.57311">
        <ele>211</ele>
        <time>2015-03-22T09:37:55.1Z</time>
      </trkpt>
      <trkpt lat="48.4124" lon="-3.57315">
        <ele>211</ele>
        <time>2015-03-22T09:37:58.1Z</time>
      </trkpt>
      <trkpt lat="48.4124" lon="-3.5732">
        <ele>211</ele>
        <time>2015-03-22T09:38:01.1Z</time>
      </trkpt>
      <trkpt lat="48.4124" lon="-3.57327">
        <ele>212</ele>
        <time>2015-03-22T09:38:04.1Z</time>
      </trkpt>
      <trkpt lat="48.4124" lon="-3.57332">
        <ele>212</ele>
        <time>2015-03-22T09:38:07.1Z</time>
      </trkpt>
      <trkpt lat="48.41241" lon="-3.57337">
        <ele>212</ele>
        <time>2015-03-22T09:38:10.1Z</time>
      </trkpt>
      <trkpt lat="48.41241" lon="-3.57341">
        <ele>212</ele>
        <time>2015-03-22T09:38:12.1Z</time>
      </trkpt>
      <trkpt lat="48.41241" lon="-3.57345">
        <ele>213</ele>
        <time>2015-03-22T09:38:14.1Z</time>
      </trkpt>
      <trkpt lat="48.4124" lon="-3.5735">
        <ele>213</ele>
        <time>2015-03-22T09:38:17.1Z</time>
      </trkpt>
      <trkpt lat="48.4124" lon="-3.57354">
        <ele>214</ele>
        <time>2015-03-22T09:38:19.1Z</time>
      </trkpt>
      <trkpt lat="48.4124" lon="-3.57358">
        <ele>214</ele>
        <time>2015-03-22T09:38:21.1Z</time>
      </trkpt>
      <trkpt lat="48.41239" lon="-3.57364">
        <ele>214</ele>
        <time>2015-03-22T09:38:24.1Z</time>
      </trkpt>
      <trkpt lat="48.41238" lon="-3.57369">
        <ele>214</ele>
        <time>2015-03-22T09:38:27.1Z</time>
      </trkpt>
      <trkpt lat="48.41238" lon="-3.57373">
        <ele>214</ele>
        <time>2015-03-22T09:38:29.1Z</time>
      </trkpt>
      <trkpt lat="48.41236" lon="-3.57379">
        <ele>215</ele>
        <time>2015-03-22T09:38:32.1Z</time>
      </trkpt>
      <trkpt lat="48.41235" lon="-3.57384">
        <ele>215</ele>
        <time>2015-03-22T09:38:35.1Z</time>
      </trkpt>
      <trkpt lat="48.41234" lon="-3.57389">
        <ele>215</ele>
        <time>2015-03-22T09:38:38.1Z</time>
      </trkpt>
      <trkpt lat="48.41233" lon="-3.57392">
        <ele>215</ele>
        <time>2015-03-22T09:38:40.1Z</time>
      </trkpt>
      <trkpt lat="48.41232" lon="-3.57397">
        <ele>216</ele>
        <time>2015-03-22T09:38:43.1Z</time>
      </trkpt>
      <trkpt lat="48.4123" lon="-3.574">
        <ele>216</ele>
        <time>2015-03-22T09:38:45.1Z</time>
      </trkpt>
      <trkpt lat="48.41229" lon="-3.57402">
        <ele>215</ele>
        <time>2015-03-22T09:38:47.1Z</time>
      </trkpt>
      <trkpt lat="48.41227" lon="-3.57405">
        <ele>215</ele>
        <time>2015-03-22T09:38:49.1Z</time>
      </trkpt>
      <trkpt lat="48.41226" lon="-3.57408">
        <ele>215</ele>
        <time>2015-03-22T09:38:52.1Z</time>
      </trkpt>
      <trkpt lat="48.41224" lon="-3.57411">
        <ele>216</ele>
        <time>2015-03-22T09:38:54.1Z</time>
      </trkpt>
      <trkpt lat="48.41222" lon="-3.57415">
        <ele>216</ele>
        <time>2015-03-22T09:38:57.1Z</time>
      </trkpt>
      <trkpt lat="48.41221" lon="-3.57418">
        <ele>216</ele>
        <time>2015-03-22T09:38:59.1Z</time>
      </trkpt>
      <trkpt lat="48.4122" lon="-3.5742">
        <ele>216</ele>
        <time>2015-03-22T09:39:01.1Z</time>
      </trkpt>
      <trkpt lat="48.41218" lon="-3.57424">
        <ele>216</ele>
        <time>2015-03-22T09:39:04.1Z</time>
      </trkpt>
      <trkpt lat="48.41216" lon="-3.57428">
        <ele>216</ele>
        <time>2015-03-22T09:39:07.1Z</time>
      </trkpt>
      <trkpt lat="48.41214" lon="-3.57432">
        <ele>216</ele>
        <time>2015-03-22T09:39:10.1Z</time>
      </trkpt>
      <trkpt lat="48.41214" lon="-3.57435">
        <ele>216</ele>
        <time>2015-03-22T09:39:12.1Z</time>
      </trkpt>
      <trkpt lat="48.41213" lon="-3.5744">
        <ele>216</ele>
        <time>2015-03-22T09:39:15.1Z</time>
      </trkpt>
      <trkpt lat="48.41213" lon="-3.57443">
        <ele>216</ele>
        <time>2015-03-22T09:39:17.1Z</time>
      </trkpt>
      <trkpt lat="48.41213" lon="-3.57447">
        <ele>216</ele>
        <time>2015-03-22T09:39:19.1Z</time>
      </trkpt>
      <trkpt lat="48.41213" lon="-3.5745">
        <ele>216</ele>
        <time>2015-03-22T09:39:22.1Z</time>
      </trkpt>
      <trkpt lat="48.41213" lon="-3.57451">
        <ele>217</ele>
        <time>2015-03-22T09:39:24.1Z</time>
      </trkpt>
      <trkpt lat="48.41213" lon="-3.57451">
        <ele>217</ele>
        <time>2015-03-22T09:39:27.1Z</time>
      </trkpt>
      <trkpt lat="48.41213" lon="-3.57452">
        <ele>217</ele>
        <time>2015-03-22T09:39:30.1Z</time>
      </trkpt>
      <trkpt lat="48.41213" lon="-3.57452">
        <ele>217</ele>
        <time>2015-03-22T09:39:32.1Z</time>
      </trkpt>
      <trkpt lat="48.41212" lon="-3.57454">
        <ele>216</ele>
        <time>2015-03-22T09:39:35.1Z</time>
      </trkpt>
      <trkpt lat="48.41212" lon="-3.57455">
        <ele>217</ele>
        <time>2015-03-22T09:39:37.1Z</time>
      </trkpt>
      <trkpt lat="48.41212" lon="-3.57456">
        <ele>217</ele>
        <time>2015-03-22T09:39:40.1Z</time>
      </trkpt>
      <trkpt lat="48.41212" lon="-3.57457">
        <ele>217</ele>
        <time>2015-03-22T09:39:42.1Z</time>
      </trkpt>
      <trkpt lat="48.41213" lon="-3.57458">
        <ele>217</ele>
        <time>2015-03-22T09:39:44.1Z</time>
      </trkpt>
      <trkpt lat="48.41214" lon="-3.57459">
        <ele>217</ele>
        <time>2015-03-22T09:39:46.1Z</time>
      </trkpt>
      <trkpt lat="48.41214" lon="-3.57459">
        <ele>217</ele>
        <time>2015-03-22T09:39:50.1Z</time>
      </trkpt>
      <trkpt lat="48.41215" lon="-3.57459">
        <ele>217</ele>
        <time>2015-03-22T09:39:52.1Z</time>
      </trkpt>
      <trkpt lat="48.41215" lon="-3.57459">
        <ele>217</ele>
        <time>2015-03-22T09:39:55.1Z</time>
      </trkpt>
      <trkpt lat="48.41215" lon="-3.57459">
        <ele>216</ele>
        <time>2015-03-22T09:39:57.1Z</time>
      </trkpt>
      <trkpt lat="48.41216" lon="-3.5746">
        <ele>216</ele>
        <time>2015-03-22T09:40:00.1Z</time>
      </trkpt>
      <trkpt lat="48.41217" lon="-3.57461">
        <ele>217</ele>
        <time>2015-03-22T09:40:02.1Z</time>
      </trkpt>
      <trkpt lat="48.41217" lon="-3.57462">
        <ele>217</ele>
        <time>2015-03-22T09:40:05.1Z</time>
      </trkpt>
      <trkpt lat="48.41218" lon="-3.57463">
        <ele>217</ele>
        <time>2015-03-22T09:40:08.1Z</time>
      </trkpt>
      <trkpt lat="48.41218" lon="-3.57463">
        <ele>217</ele>
        <time>2015-03-22T09:40:10.1Z</time>
      </trkpt>
      <trkpt lat="48.41218" lon="-3.57463">
        <ele>217</ele>
        <time>2015-03-22T09:40:13.1Z</time>
      </trkpt>
      <trkpt lat="48.41217" lon="-3.57462">
        <ele>217</ele>
        <time>2015-03-22T09:40:15.1Z</time>
      </trkpt>
      <trkpt lat="48.41217" lon="-3.57462">
        <ele>217</ele>
        <time>2015-03-22T09:40:17.1Z</time>
      </trkpt>
      <trkpt lat="48.41218" lon="-3.57462">
        <ele>217</ele>
        <time>2015-03-22T09:40:20.1Z</time>
      </trkpt>
      <trkpt lat="48.41219" lon="-3.57462">
        <ele>217</ele>
        <time>2015-03-22T09:40:23.1Z</time>
      </trkpt>
      <trkpt lat="48.41221" lon="-3.57462">
        <ele>217</ele>
        <time>2015-03-22T09:40:25.1Z</time>
      </trkpt>
      <trkpt lat="48.41224" lon="-3.57463">
        <ele>217</ele>
        <time>2015-03-22T09:40:28.1Z</time>
      </trkpt>
      <trkpt lat="48.41227" lon="-3.57464">
        <ele>217</ele>
        <time>2015-03-22T09:40:31.1Z</time>
      </trkpt>
      <trkpt lat="48.4123" lon="-3.57465">
        <ele>217</ele>
        <time>2015-03-22T09:40:33.1Z</time>
      </trkpt>
      <trkpt lat="48.41232" lon="-3.57465">
        <ele>217</ele>
        <time>2015-03-22T09:40:35.1Z</time>
      </trkpt>
      <trkpt lat="48.41235" lon="-3.57465">
        <ele>217</ele>
        <time>2015-03-22T09:40:38.1Z</time>
      </trkpt>
      <trkpt lat="48.41238" lon="-3.57464">
        <ele>217</ele>
        <time>2015-03-22T09:40:41.1Z</time>
      </trkpt>
      <trkpt lat="48.41239" lon="-3.57464">
        <ele>217</ele>
        <time>2015-03-22T09:40:43.1Z</time>
      </trkpt>
      <trkpt lat="48.41241" lon="-3.57464">
        <ele>217</ele>
        <time>2015-03-22T09:40:46.1Z</time>
      </trkpt>
      <trkpt lat="48.41245" lon="-3.57463">
        <ele>217</ele>
        <time>2015-03-22T09:40:49.1Z</time>
      </trkpt>
      <trkpt lat="48.41246" lon="-3.57463">
        <ele>217</ele>
        <time>2015-03-22T09:40:51.1Z</time>
      </trkpt>
      <trkpt lat="48.41247" lon="-3.57464">
        <ele>217</ele>
        <time>2015-03-22T09:40:53.1Z</time>
      </trkpt>
      <trkpt lat="48.41247" lon="-3.57463">
        <ele>217</ele>
        <time>2015-03-22T09:40:56.1Z</time>
      </trkpt>
      <trkpt lat="48.41247" lon="-3.57463">
        <ele>217</ele>
        <time>2015-03-22T09:40:58.1Z</time>
      </trkpt>
      <trkpt lat="48.41248" lon="-3.57462">
        <ele>217</ele>
        <time>2015-03-22T09:41:01.1Z</time>
      </trkpt>
      <trkpt lat="48.41251" lon="-3.5746">
        <ele>218</ele>
        <time>2015-03-22T09:41:04.1Z</time>
      </trkpt>
      <trkpt lat="48.41254" lon="-3.57461">
        <ele>218</ele>
        <time>2015-03-22T09:41:06.1Z</time>
      </trkpt>
      <trkpt lat="48.41256" lon="-3.5746">
        <ele>218</ele>
        <time>2015-03-22T09:41:09.1Z</time>
      </trkpt>
      <trkpt lat="48.41257" lon="-3.5746">
        <ele>217</ele>
        <time>2015-03-22T09:41:11.1Z</time>
      </trkpt>
      <trkpt lat="48.41261" lon="-3.57461">
        <ele>218</ele>
        <time>2015-03-22T09:41:14.1Z</time>
      </trkpt>
      <trkpt lat="48.41265" lon="-3.57461">
        <ele>217</ele>
        <time>2015-03-22T09:41:17.1Z</time>
      </trkpt>
      <trkpt lat="48.41267" lon="-3.57462">
        <ele>218</ele>
        <time>2015-03-22T09:41:19.1Z</time>
      </trkpt>
      <trkpt lat="48.4127" lon="-3.57463">
        <ele>218</ele>
        <time>2015-03-22T09:41:22.1Z</time>
      </trkpt>
      <trkpt lat="48.41272" lon="-3.57464">
        <ele>217</ele>
        <time>2015-03-22T09:41:24.1Z</time>
      </trkpt>
      <trkpt lat="48.41276" lon="-3.57466">
        <ele>216</ele>
        <time>2015-03-22T09:41:27.1Z</time>
      </trkpt>
      <trkpt lat="48.41278" lon="-3.57467">
        <ele>216</ele>
        <time>2015-03-22T09:41:29.1Z</time>
      </trkpt>
      <trkpt lat="48.41281" lon="-3.5747">
        <ele>216</ele>
        <time>2015-03-22T09:41:32.1Z</time>
      </trkpt>
      <trkpt lat="48.41283" lon="-3.57471">
        <ele>216</ele>
        <time>2015-03-22T09:41:34.1Z</time>
      </trkpt>
      <trkpt lat="48.41285" lon="-3.57474">
        <ele>215</ele>
        <time>2015-03-22T09:41:36.1Z</time>
      </trkpt>
      <trkpt lat="48.41288" lon="-3.57478">
        <ele>215</ele>
        <time>2015-03-22T09:41:39.1Z</time>
      </trkpt>
      <trkpt lat="48.41289" lon="-3.5748">
        <ele>214</ele>
        <time>2015-03-22T09:41:41.1Z</time>
      </trkpt>
      <trkpt lat="48.41291" lon="-3.57484">
        <ele>214</ele>
        <time>2015-03-22T09:41:44.1Z</time>
      </trkpt>
      <trkpt lat="48.41293" lon="-3.57488">
        <ele>213</ele>
        <time>2015-03-22T09:41:47.1Z</time>
      </trkpt>
      <trkpt lat="48.41295" lon="-3.57491">
        <ele>213</ele>
        <time>2015-03-22T09:41:49.1Z</time>
      </trkpt>
      <trkpt lat="48.41297" lon="-3.57496">
        <ele>213</ele>
        <time>2015-03-22T09:41:52.1Z</time>
      </trkpt>
      <trkpt lat="48.41298" lon="-3.57499">
        <ele>213</ele>
        <time>2015-03-22T09:41:54.1Z</time>
      </trkpt>
      <trkpt lat="48.413" lon="-3.57503">
        <ele>212</ele>
        <time>2015-03-22T09:41:57.1Z</time>
      </trkpt>
      <trkpt lat="48.41301" lon="-3.57506">
        <ele>212</ele>
        <time>2015-03-22T09:41:59.1Z</time>
      </trkpt>
      <trkpt lat="48.41302" lon="-3.57508">
        <ele>211</ele>
        <time>2015-03-22T09:42:01.1Z</time>
      </trkpt>
      <trkpt lat="48.41304" lon="-3.57513">
        <ele>210</ele>
        <time>2015-03-22T09:42:04.1Z</time>
      </trkpt>
      <trkpt lat="48.41304" lon="-3.57516">
        <ele>210</ele>
        <time>2015-03-22T09:42:06.1Z</time>
      </trkpt>
      <trkpt lat="48.41306" lon="-3.57521">
        <ele>210</ele>
        <time>2015-03-22T09:42:09.1Z</time>
      </trkpt>
      <trkpt lat="48.41306" lon="-3.57524">
        <ele>210</ele>
        <time>2015-03-22T09:42:11.1Z</time>
      </trkpt>
      <trkpt lat="48.41307" lon="-3.57529">
        <ele>210</ele>
        <time>2015-03-22T09:42:14.1Z</time>
      </trkpt>
      <trkpt lat="48.41308" lon="-3.57533">
        <ele>209</ele>
        <time>2015-03-22T09:42:16.1Z</time>
      </trkpt>
      <trkpt lat="48.41309" lon="-3.57536">
        <ele>209</ele>
        <time>2015-03-22T09:42:18.1Z</time>
      </trkpt>
      <trkpt lat="48.41309" lon="-3.5754">
        <ele>208</ele>
        <time>2015-03-22T09:42:20.1Z</time>
      </trkpt>
      <trkpt lat="48.41309" lon="-3.57545">
        <ele>208</ele>
        <time>2015-03-22T09:42:23.1Z</time>
      </trkpt>
      <trkpt lat="48.4131" lon="-3.57548">
        <ele>207</ele>
        <time>2015-03-22T09:42:25.1Z</time>
      </trkpt>
      <trkpt lat="48.4131" lon="-3.57551">
        <ele>207</ele>
        <time>2015-03-22T09:42:27.1Z</time>
      </trkpt>
      <trkpt lat="48.41309" lon="-3.57554">
        <ele>207</ele>
        <time>2015-03-22T09:42:29.1Z</time>
      </trkpt>
      <trkpt lat="48.4131" lon="-3.57561">
        <ele>207</ele>
        <time>2015-03-22T09:42:32.1Z</time>
      </trkpt>
      <trkpt lat="48.4131" lon="-3.57564">
        <ele>207</ele>
        <time>2015-03-22T09:42:34.1Z</time>
      </trkpt>
      <trkpt lat="48.4131" lon="-3.57569">
        <ele>207</ele>
        <time>2015-03-22T09:42:37.1Z</time>
      </trkpt>
      <trkpt lat="48.4131" lon="-3.57572">
        <ele>207</ele>
        <time>2015-03-22T09:42:39.1Z</time>
      </trkpt>
      <trkpt lat="48.4131" lon="-3.57577">
        <ele>206</ele>
        <time>2015-03-22T09:42:42.1Z</time>
      </trkpt>
      <trkpt lat="48.41309" lon="-3.57583">
        <ele>206</ele>
        <time>2015-03-22T09:42:45.1Z</time>
      </trkpt>
      <trkpt lat="48.41308" lon="-3.57587">
        <ele>206</ele>
        <time>2015-03-22T09:42:47.1Z</time>
      </trkpt>
      <trkpt lat="48.41308" lon="-3.5759">
        <ele>205</ele>
        <time>2015-03-22T09:42:49.1Z</time>
      </trkpt>
      <trkpt lat="48.41307" lon="-3.57595">
        <ele>205</ele>
        <time>2015-03-22T09:42:52.1Z</time>
      </trkpt>
      <trkpt lat="48.41307" lon="-3.57601">
        <ele>205</ele>
        <time>2015-03-22T09:42:55.1Z</time>
      </trkpt>
      <trkpt lat="48.41306" lon="-3.57606">
        <ele>205</ele>
        <time>2015-03-22T09:42:58.1Z</time>
      </trkpt>
      <trkpt lat="48.41305" lon="-3.5761">
        <ele>205</ele>
        <time>2015-03-22T09:43:00.1Z</time>
      </trkpt>
      <trkpt lat="48.41304" lon="-3.57615">
        <ele>205</ele>
        <time>2015-03-22T09:43:03.1Z</time>
      </trkpt>
      <trkpt lat="48.41304" lon="-3.57621">
        <ele>204</ele>
        <time>2015-03-22T09:43:06.1Z</time>
      </trkpt>
      <trkpt lat="48.41304" lon="-3.57624">
        <ele>204</ele>
        <time>2015-03-22T09:43:08.1Z</time>
      </trkpt>
      <trkpt lat="48.41303" lon="-3.57629">
        <ele>203</ele>
        <time>2015-03-22T09:43:11.1Z</time>
      </trkpt>
      <trkpt lat="48.41303" lon="-3.57633">
        <ele>203</ele>
        <time>2015-03-22T09:43:13.1Z</time>
      </trkpt>
      <trkpt lat="48.41304" lon="-3.57636">
        <ele>203</ele>
        <time>2015-03-22T09:43:15.1Z</time>
      </trkpt>
      <trkpt lat="48.41305" lon="-3.57642">
        <ele>203</ele>
        <time>2015-03-22T09:43:18.1Z</time>
      </trkpt>
      <trkpt lat="48.41306" lon="-3.57649">
        <ele>202</ele>
        <time>2015-03-22T09:43:22.1Z</time>
      </trkpt>
      <trkpt lat="48.41308" lon="-3.57652">
        <ele>202</ele>
        <time>2015-03-22T09:43:25.1Z</time>
      </trkpt>
      <trkpt lat="48.41309" lon="-3.57658">
        <ele>201</ele>
        <time>2015-03-22T09:43:28.1Z</time>
      </trkpt>
      <trkpt lat="48.4131" lon="-3.57661">
        <ele>201</ele>
        <time>2015-03-22T09:43:30.1Z</time>
      </trkpt>
      <trkpt lat="48.41312" lon="-3.57663">
        <ele>201</ele>
        <time>2015-03-22T09:43:32.1Z</time>
      </trkpt>
      <trkpt lat="48.41314" lon="-3.57668">
        <ele>200</ele>
        <time>2015-03-22T09:43:35.1Z</time>
      </trkpt>
      <trkpt lat="48.41316" lon="-3.57671">
        <ele>200</ele>
        <time>2015-03-22T09:43:37.1Z</time>
      </trkpt>
      <trkpt lat="48.41319" lon="-3.57675">
        <ele>200</ele>
        <time>2015-03-22T09:43:40.1Z</time>
      </trkpt>
      <trkpt lat="48.4132" lon="-3.57677">
        <ele>200</ele>
        <time>2015-03-22T09:43:42.1Z</time>
      </trkpt>
      <trkpt lat="48.41322" lon="-3.5768">
        <ele>200</ele>
        <time>2015-03-22T09:43:45.1Z</time>
      </trkpt>
      <trkpt lat="48.41324" lon="-3.57683">
        <ele>200</ele>
        <time>2015-03-22T09:43:48.1Z</time>
      </trkpt>
      <trkpt lat="48.41325" lon="-3.57685">
        <ele>200</ele>
        <time>2015-03-22T09:43:50.1Z</time>
      </trkpt>
      <trkpt lat="48.41328" lon="-3.57689">
        <ele>199</ele>
        <time>2015-03-22T09:43:53.1Z</time>
      </trkpt>
      <trkpt lat="48.4133" lon="-3.57691">
        <ele>199</ele>
        <time>2015-03-22T09:43:55.1Z</time>
      </trkpt>
      <trkpt lat="48.41334" lon="-3.57694">
        <ele>199</ele>
        <time>2015-03-22T09:43:58.1Z</time>
      </trkpt>
      <trkpt lat="48.41336" lon="-3.57697">
        <ele>198</ele>
        <time>2015-03-22T09:44:01.1Z</time>
      </trkpt>
      <trkpt lat="48.41338" lon="-3.577">
        <ele>198</ele>
        <time>2015-03-22T09:44:04.1Z</time>
      </trkpt>
      <trkpt lat="48.4134" lon="-3.57702">
        <ele>198</ele>
        <time>2015-03-22T09:44:06.1Z</time>
      </trkpt>
      <trkpt lat="48.41342" lon="-3.57705">
        <ele>198</ele>
        <time>2015-03-22T09:44:08.1Z</time>
      </trkpt>
      <trkpt lat="48.41344" lon="-3.57708">
        <ele>198</ele>
        <time>2015-03-22T09:44:11.1Z</time>
      </trkpt>
      <trkpt lat="48.41346" lon="-3.5771">
        <ele>197</ele>
        <time>2015-03-22T09:44:13.1Z</time>
      </trkpt>
      <trkpt lat="48.41348" lon="-3.57713">
        <ele>197</ele>
        <time>2015-03-22T09:44:16.1Z</time>
      </trkpt>
      <trkpt lat="48.41352" lon="-3.57716">
        <ele>197</ele>
        <time>2015-03-22T09:44:19.1Z</time>
      </trkpt>
      <trkpt lat="48.41356" lon="-3.57718">
        <ele>197</ele>
        <time>2015-03-22T09:44:22.1Z</time>
      </trkpt>
      <trkpt lat="48.4136" lon="-3.5772">
        <ele>197</ele>
        <time>2015-03-22T09:44:25.1Z</time>
      </trkpt>
      <trkpt lat="48.41362" lon="-3.57722">
        <ele>197</ele>
        <time>2015-03-22T09:44:27.1Z</time>
      </trkpt>
      <trkpt lat="48.41366" lon="-3.57724">
        <ele>197</ele>
        <time>2015-03-22T09:44:30.1Z</time>
      </trkpt>
      <trkpt lat="48.41368" lon="-3.57725">
        <ele>197</ele>
        <time>2015-03-22T09:44:32.1Z</time>
      </trkpt>
      <trkpt lat="48.41371" lon="-3.57727">
        <ele>197</ele>
        <time>2015-03-22T09:44:34.1Z</time>
      </trkpt>
      <trkpt lat="48.41375" lon="-3.57729">
        <ele>197</ele>
        <time>2015-03-22T09:44:37.1Z</time>
      </trkpt>
      <trkpt lat="48.41378" lon="-3.5773">
        <ele>197</ele>
        <time>2015-03-22T09:44:39.1Z</time>
      </trkpt>
      <trkpt lat="48.41381" lon="-3.57733">
        <ele>197</ele>
        <time>2015-03-22T09:44:42.1Z</time>
      </trkpt>
      <trkpt lat="48.41383" lon="-3.57735">
        <ele>197</ele>
        <time>2015-03-22T09:44:44.1Z</time>
      </trkpt>
      <trkpt lat="48.41387" lon="-3.57738">
        <ele>197</ele>
        <time>2015-03-22T09:44:47.1Z</time>
      </trkpt>
      <trkpt lat="48.41389" lon="-3.5774">
        <ele>197</ele>
        <time>2015-03-22T09:44:49.1Z</time>
      </trkpt>
      <trkpt lat="48.41392" lon="-3.57743">
        <ele>197</ele>
        <time>2015-03-22T09:44:52.1Z</time>
      </trkpt>
      <trkpt lat="48.41395" lon="-3.57746">
        <ele>197</ele>
        <time>2015-03-22T09:44:55.1Z</time>
      </trkpt>
      <trkpt lat="48.41398" lon="-3.57749">
        <ele>197</ele>
        <time>2015-03-22T09:44:58.1Z</time>
      </trkpt>
      <trkpt lat="48.414" lon="-3.5775">
        <ele>197</ele>
        <time>2015-03-22T09:45:00.1Z</time>
      </trkpt>
      <trkpt lat="48.41402" lon="-3.57753">
        <ele>197</ele>
        <time>2015-03-22T09:45:03.1Z</time>
      </trkpt>
      <trkpt lat="48.41404" lon="-3.57756">
        <ele>197</ele>
        <time>2015-03-22T09:45:06.1Z</time>
      </trkpt>
      <trkpt lat="48.41405" lon="-3.57758">
        <ele>198</ele>
        <time>2015-03-22T09:45:08.1Z</time>
      </trkpt>
      <trkpt lat="48.41407" lon="-3.57761">
        <ele>198</ele>
        <time>2015-03-22T09:45:11.1Z</time>
      </trkpt>
      <trkpt lat="48.41409" lon="-3.57763">
        <ele>198</ele>
        <time>2015-03-22T09:45:14.1Z</time>
      </trkpt>
      <trkpt lat="48.41412" lon="-3.57766">
        <ele>199</ele>
        <time>2015-03-22T09:45:17.1Z</time>
      </trkpt>
      <trkpt lat="48.41413" lon="-3.57769">
        <ele>199</ele>
        <time>2015-03-22T09:45:20.1Z</time>
      </trkpt>
      <trkpt lat="48.41416" lon="-3.57772">
        <ele>199</ele>
        <time>2015-03-22T09:45:23.1Z</time>
      </trkpt>
      <trkpt lat="48.41417" lon="-3.57774">
        <ele>200</ele>
        <time>2015-03-22T09:45:25.1Z</time>
      </trkpt>
      <trkpt lat="48.41419" lon="-3.57777">
        <ele>200</ele>
        <time>2015-03-22T09:45:28.1Z</time>
      </trkpt>
      <trkpt lat="48.4142" lon="-3.57779">
        <ele>200</ele>
        <time>2015-03-22T09:45:30.1Z</time>
      </trkpt>
      <trkpt lat="48.4142" lon="-3.5778">
        <ele>201</ele>
        <time>2015-03-22T09:45:32.1Z</time>
      </trkpt>
      <trkpt lat="48.41422" lon="-3.57783">
        <ele>201</ele>
        <time>2015-03-22T09:45:35.1Z</time>
      </trkpt>
      <trkpt lat="48.41423" lon="-3.57786">
        <ele>202</ele>
        <time>2015-03-22T09:45:37.1Z</time>
      </trkpt>
      <trkpt lat="48.41425" lon="-3.57788">
        <ele>203</ele>
        <time>2015-03-22T09:45:40.1Z</time>
      </trkpt>
      <trkpt lat="48.41425" lon="-3.57791">
        <ele>203</ele>
        <time>2015-03-22T09:45:42.1Z</time>
      </trkpt>
      <trkpt lat="48.41427" lon="-3.57794">
        <ele>203</ele>
        <time>2015-03-22T09:45:45.1Z</time>
      </trkpt>
      <trkpt lat="48.41428" lon="-3.57797">
        <ele>203</ele>
        <time>2015-03-22T09:45:47.1Z</time>
      </trkpt>
      <trkpt lat="48.41429" lon="-3.57799">
        <ele>203</ele>
        <time>2015-03-22T09:45:49.1Z</time>
      </trkpt>
      <trkpt lat="48.41431" lon="-3.57802">
        <ele>204</ele>
        <time>2015-03-22T09:45:52.1Z</time>
      </trkpt>
      <trkpt lat="48.41432" lon="-3.57804">
        <ele>204</ele>
        <time>2015-03-22T09:45:54.1Z</time>
      </trkpt>
      <trkpt lat="48.41433" lon="-3.57805">
        <ele>204</ele>
        <time>2015-03-22T09:45:56.1Z</time>
      </trkpt>
      <trkpt lat="48.41436" lon="-3.57808">
        <ele>205</ele>
        <time>2015-03-22T09:45:59.1Z</time>
      </trkpt>
      <trkpt lat="48.41437" lon="-3.57811">
        <ele>206</ele>
        <time>2015-03-22T09:46:02.1Z</time>
      </trkpt>
      <trkpt lat="48.41438" lon="-3.57813">
        <ele>206</ele>
        <time>2015-03-22T09:46:04.1Z</time>
      </trkpt>
      <trkpt lat="48.4144" lon="-3.57816">
        <ele>207</ele>
        <time>2015-03-22T09:46:07.1Z</time>
      </trkpt>
      <trkpt lat="48.41441" lon="-3.57819">
        <ele>207</ele>
        <time>2015-03-22T09:46:10.1Z</time>
      </trkpt>
      <trkpt lat="48.41442" lon="-3.57821">
        <ele>208</ele>
        <time>2015-03-22T09:46:12.1Z</time>
      </trkpt>
      <trkpt lat="48.41443" lon="-3.57823">
        <ele>208</ele>
        <time>2015-03-22T09:46:15.1Z</time>
      </trkpt>
      <trkpt lat="48.41445" lon="-3.57827">
        <ele>209</ele>
        <time>2015-03-22T09:46:18.1Z</time>
      </trkpt>
      <trkpt lat="48.41446" lon="-3.57828">
        <ele>209</ele>
        <time>2015-03-22T09:46:20.1Z</time>
      </trkpt>
      <trkpt lat="48.41448" lon="-3.57831">
        <ele>210</ele>
        <time>2015-03-22T09:46:23.1Z</time>
      </trkpt>
      <trkpt lat="48.41449" lon="-3.57834">
        <ele>210</ele>
        <time>2015-03-22T09:46:26.1Z</time>
      </trkpt>
      <trkpt lat="48.41451" lon="-3.57836">
        <ele>210</ele>
        <time>2015-03-22T09:46:28.1Z</time>
      </trkpt>
      <trkpt lat="48.41452" lon="-3.57839">
        <ele>211</ele>
        <time>2015-03-22T09:46:31.1Z</time>
      </trkpt>
      <trkpt lat="48.41452" lon="-3.57841">
        <ele>211</ele>
        <time>2015-03-22T09:46:33.1Z</time>
      </trkpt>
      <trkpt lat="48.41453" lon="-3.57844">
        <ele>211</ele>
        <time>2015-03-22T09:46:36.1Z</time>
      </trkpt>
      <trkpt lat="48.41454" lon="-3.57845">
        <ele>212</ele>
        <time>2015-03-22T09:46:38.1Z</time>
      </trkpt>
      <trkpt lat="48.41455" lon="-3.57849">
        <ele>212</ele>
        <time>2015-03-22T09:46:41.1Z</time>
      </trkpt>
      <trkpt lat="48.41456" lon="-3.57851">
        <ele>212</ele>
        <time>2015-03-22T09:46:43.1Z</time>
      </trkpt>
      <trkpt lat="48.41457" lon="-3.57854">
        <ele>212</ele>
        <time>2015-03-22T09:46:46.1Z</time>
      </trkpt>
      <trkpt lat="48.41458" lon="-3.57856">
        <ele>213</ele>
        <time>2015-03-22T09:46:48.1Z</time>
      </trkpt>
      <trkpt lat="48.41458" lon="-3.57858">
        <ele>213</ele>
        <time>2015-03-22T09:46:50.1Z</time>
      </trkpt>
      <trkpt lat="48.41459" lon="-3.57861">
        <ele>214</ele>
        <time>2015-03-22T09:46:53.1Z</time>
      </trkpt>
      <trkpt lat="48.4146" lon="-3.57862">
        <ele>214</ele>
        <time>2015-03-22T09:46:55.1Z</time>
      </trkpt>
      <trkpt lat="48.4146" lon="-3.57866">
        <ele>214</ele>
        <time>2015-03-22T09:46:58.1Z</time>
      </trkpt>
      <trkpt lat="48.41461" lon="-3.57868">
        <ele>214</ele>
        <time>2015-03-22T09:47:00.1Z</time>
      </trkpt>
      <trkpt lat="48.41462" lon="-3.57872">
        <ele>215</ele>
        <time>2015-03-22T09:47:03.1Z</time>
      </trkpt>
      <trkpt lat="48.41463" lon="-3.57875">
        <ele>215</ele>
        <time>2015-03-22T09:47:06.1Z</time>
      </trkpt>
      <trkpt lat="48.41464" lon="-3.57878">
        <ele>215</ele>
        <time>2015-03-22T09:47:08.1Z</time>
      </trkpt>
      <trkpt lat="48.41465" lon="-3.57881">
        <ele>215</ele>
        <time>2015-03-22T09:47:10.1Z</time>
      </trkpt>
      <trkpt lat="48.41465" lon="-3.57884">
        <ele>215</ele>
        <time>2015-03-22T09:47:12.1Z</time>
      </trkpt>
      <trkpt lat="48.41466" lon="-3.57889">
        <ele>215</ele>
        <time>2015-03-22T09:47:15.1Z</time>
      </trkpt>
      <trkpt lat="48.41466" lon="-3.57892">
        <ele>216</ele>
        <time>2015-03-22T09:47:17.1Z</time>
      </trkpt>
      <trkpt lat="48.41467" lon="-3.57894">
        <ele>217</ele>
        <time>2015-03-22T09:47:19.1Z</time>
      </trkpt>
      <trkpt lat="48.41468" lon="-3.57897">
        <ele>217</ele>
        <time>2015-03-22T09:47:21.1Z</time>
      </trkpt>
      <trkpt lat="48.4147" lon="-3.57902">
        <ele>218</ele>
        <time>2015-03-22T09:47:24.1Z</time>
      </trkpt>
      <trkpt lat="48.41471" lon="-3.57906">
        <ele>218</ele>
        <time>2015-03-22T09:47:26.1Z</time>
      </trkpt>
      <trkpt lat="48.41473" lon="-3.5791">
        <ele>218</ele>
        <time>2015-03-22T09:47:29.1Z</time>
      </trkpt>
      <trkpt lat="48.41473" lon="-3.57913">
        <ele>219</ele>
        <time>2015-03-22T09:47:31.1Z</time>
      </trkpt>
      <trkpt lat="48.41475" lon="-3.57918">
        <ele>219</ele>
        <time>2015-03-22T09:47:34.1Z</time>
      </trkpt>
      <trkpt lat="48.41475" lon="-3.57921">
        <ele>219</ele>
        <time>2015-03-22T09:47:36.1Z</time>
      </trkpt>
      <trkpt lat="48.41476" lon="-3.57924">
        <ele>219</ele>
        <time>2015-03-22T09:47:38.1Z</time>
      </trkpt>
      <trkpt lat="48.41476" lon="-3.57927">
        <ele>219</ele>
        <time>2015-03-22T09:47:40.1Z</time>
      </trkpt>
      <trkpt lat="48.41477" lon="-3.57932">
        <ele>220</ele>
        <time>2015-03-22T09:47:43.1Z</time>
      </trkpt>
      <trkpt lat="48.41478" lon="-3.57937">
        <ele>220</ele>
        <time>2015-03-22T09:47:46.1Z</time>
      </trkpt>
      <trkpt lat="48.41479" lon="-3.5794">
        <ele>220</ele>
        <time>2015-03-22T09:47:48.1Z</time>
      </trkpt>
      <trkpt lat="48.41479" lon="-3.57944">
        <ele>221</ele>
        <time>2015-03-22T09:47:51.1Z</time>
      </trkpt>
      <trkpt lat="48.41479" lon="-3.57947">
        <ele>221</ele>
        <time>2015-03-22T09:47:53.1Z</time>
      </trkpt>
      <trkpt lat="48.4148" lon="-3.57951">
        <ele>221</ele>
        <time>2015-03-22T09:47:55.1Z</time>
      </trkpt>
      <trkpt lat="48.41481" lon="-3.57955">
        <ele>221</ele>
        <time>2015-03-22T09:47:58.1Z</time>
      </trkpt>
      <trkpt lat="48.41481" lon="-3.5796">
        <ele>221</ele>
        <time>2015-03-22T09:48:01.1Z</time>
      </trkpt>
      <trkpt lat="48.41482" lon="-3.57964">
        <ele>221</ele>
        <time>2015-03-22T09:48:04.1Z</time>
      </trkpt>
      <trkpt lat="48.41483" lon="-3.5797">
        <ele>222</ele>
        <time>2015-03-22T09:48:07.1Z</time>
      </trkpt>
      <trkpt lat="48.41483" lon="-3.57973">
        <ele>223</ele>
        <time>2015-03-22T09:48:09.1Z</time>
      </trkpt>
      <trkpt lat="48.41484" lon="-3.57979">
        <ele>223</ele>
        <time>2015-03-22T09:48:12.1Z</time>
      </trkpt>
      <trkpt lat="48.41484" lon="-3.57982">
        <ele>223</ele>
        <time>2015-03-22T09:48:14.1Z</time>
      </trkpt>
      <trkpt lat="48.41485" lon="-3.57987">
        <ele>224</ele>
        <time>2015-03-22T09:48:17.1Z</time>
      </trkpt>
      <trkpt lat="48.41485" lon="-3.5799">
        <ele>223</ele>
        <time>2015-03-22T09:48:19.1Z</time>
      </trkpt>
      <trkpt lat="48.41485" lon="-3.57995">
        <ele>224</ele>
        <time>2015-03-22T09:48:22.1Z</time>
      </trkpt>
      <trkpt lat="48.41486" lon="-3.57998">
        <ele>224</ele>
        <time>2015-03-22T09:48:24.1Z</time>
      </trkpt>
      <trkpt lat="48.41486" lon="-3.58003">
        <ele>225</ele>
        <time>2015-03-22T09:48:27.1Z</time>
      </trkpt>
      <trkpt lat="48.41486" lon="-3.58008">
        <ele>225</ele>
        <time>2015-03-22T09:48:30.1Z</time>
      </trkpt>
      <trkpt lat="48.41486" lon="-3.58011">
        <ele>225</ele>
        <time>2015-03-22T09:48:32.1Z</time>
      </trkpt>
      <trkpt lat="48.41486" lon="-3.58016">
        <ele>225</ele>
        <time>2015-03-22T09:48:35.1Z</time>
      </trkpt>
      <trkpt lat="48.41486" lon="-3.58019">
        <ele>225</ele>
        <time>2015-03-22T09:48:37.1Z</time>
      </trkpt>
      <trkpt lat="48.41487" lon="-3.58024">
        <ele>225</ele>
        <time>2015-03-22T09:48:40.1Z</time>
      </trkpt>
      <trkpt lat="48.41488" lon="-3.58029">
        <ele>226</ele>
        <time>2015-03-22T09:48:43.1Z</time>
      </trkpt>
      <trkpt lat="48.41488" lon="-3.58033">
        <ele>226</ele>
        <time>2015-03-22T09:48:46.1Z</time>
      </trkpt>
      <trkpt lat="48.41488" lon="-3.58036">
        <ele>226</ele>
        <time>2015-03-22T09:48:48.1Z</time>
      </trkpt>
      <trkpt lat="48.41489" lon="-3.58041">
        <ele>227</ele>
        <time>2015-03-22T09:48:51.1Z</time>
      </trkpt>
      <trkpt lat="48.41489" lon="-3.58044">
        <ele>226</ele>
        <time>2015-03-22T09:48:53.1Z</time>
      </trkpt>
      <trkpt lat="48.41489" lon="-3.58047">
        <ele>227</ele>
        <time>2015-03-22T09:48:55.1Z</time>
      </trkpt>
      <trkpt lat="48.4149" lon="-3.58052">
        <ele>227</ele>
        <time>2015-03-22T09:48:58.1Z</time>
      </trkpt>
      <trkpt lat="48.41491" lon="-3.58055">
        <ele>227</ele>
        <time>2015-03-22T09:49:00.1Z</time>
      </trkpt>
      <trkpt lat="48.41491" lon="-3.58059">
        <ele>228</ele>
        <time>2015-03-22T09:49:02.1Z</time>
      </trkpt>
      <trkpt lat="48.41491" lon="-3.58064">
        <ele>228</ele>
        <time>2015-03-22T09:49:05.1Z</time>
      </trkpt>
      <trkpt lat="48.41492" lon="-3.58067">
        <ele>228</ele>
        <time>2015-03-22T09:49:07.1Z</time>
      </trkpt>
      <trkpt lat="48.41492" lon="-3.58071">
        <ele>228</ele>
        <time>2015-03-22T09:49:10.1Z</time>
      </trkpt>
      <trkpt lat="48.41493" lon="-3.58076">
        <ele>229</ele>
        <time>2015-03-22T09:49:13.1Z</time>
      </trkpt>
      <trkpt lat="48.41494" lon="-3.5808">
        <ele>229</ele>
        <time>2015-03-22T09:49:15.1Z</time>
      </trkpt>
      <trkpt lat="48.41494" lon="-3.58084">
        <ele>229</ele>
        <time>2015-03-22T09:49:18.1Z</time>
      </trkpt>
      <trkpt lat="48.41495" lon="-3.58088">
        <ele>229</ele>
        <time>2015-03-22T09:49:21.1Z</time>
      </trkpt>
      <trkpt lat="48.41495" lon="-3.58091">
        <ele>229</ele>
        <time>2015-03-22T09:49:23.1Z</time>
      </trkpt>
      <trkpt lat="48.41496" lon="-3.58096">
        <ele>229</ele>
        <time>2015-03-22T09:49:26.1Z</time>
      </trkpt>
      <trkpt lat="48.41496" lon="-3.581">
        <ele>230</ele>
        <time>2015-03-22T09:49:29.1Z</time>
      </trkpt>
      <trkpt lat="48.41496" lon="-3.58103">
        <ele>230</ele>
        <time>2015-03-22T09:49:31.1Z</time>
      </trkpt>
      <trkpt lat="48.41497" lon="-3.58108">
        <ele>230</ele>
        <time>2015-03-22T09:49:34.1Z</time>
      </trkpt>
      <trkpt lat="48.41497" lon="-3.58112">
        <ele>231</ele>
        <time>2015-03-22T09:49:36.1Z</time>
      </trkpt>
      <trkpt lat="48.41498" lon="-3.58116">
        <ele>231</ele>
        <time>2015-03-22T09:49:39.1Z</time>
      </trkpt>
      <trkpt lat="48.41498" lon="-3.58119">
        <ele>231</ele>
        <time>2015-03-22T09:49:41.1Z</time>
      </trkpt>
      <trkpt lat="48.41499" lon="-3.58124">
        <ele>231</ele>
        <time>2015-03-22T09:49:44.1Z</time>
      </trkpt>
      <trkpt lat="48.41499" lon="-3.58129">
        <ele>231</ele>
        <time>2015-03-22T09:49:47.1Z</time>
      </trkpt>
      <trkpt lat="48.415" lon="-3.58134">
        <ele>232</ele>
        <time>2015-03-22T09:49:50.1Z</time>
      </trkpt>
      <trkpt lat="48.415" lon="-3.58137">
        <ele>232</ele>
        <time>2015-03-22T09:49:52.1Z</time>
      </trkpt>
      <trkpt lat="48.41501" lon="-3.5814">
        <ele>232</ele>
        <time>2015-03-22T09:49:54.1Z</time>
      </trkpt>
      <trkpt lat="48.41501" lon="-3.58146">
        <ele>232</ele>
        <time>2015-03-22T09:49:57.1Z</time>
      </trkpt>
      <trkpt lat="48.41502" lon="-3.58151">
        <ele>232</ele>
        <time>2015-03-22T09:50:00.1Z</time>
      </trkpt>
      <trkpt lat="48.41502" lon="-3.58154">
        <ele>233</ele>
        <time>2015-03-22T09:50:02.1Z</time>
      </trkpt>
      <trkpt lat="48.41502" lon="-3.58157">
        <ele>233</ele>
        <time>2015-03-22T09:50:04.1Z</time>
      </trkpt>
      <trkpt lat="48.41502" lon="-3.58162">
        <ele>233</ele>
        <time>2015-03-22T09:50:07.1Z</time>
      </trkpt>
      <trkpt lat="48.41503" lon="-3.58167">
        <ele>233</ele>
        <time>2015-03-22T09:50:10.1Z</time>
      </trkpt>
      <trkpt lat="48.41503" lon="-3.5817">
        <ele>233</ele>
        <time>2015-03-22T09:50:12.1Z</time>
      </trkpt>
      <trkpt lat="48.41503" lon="-3.58175">
        <ele>233</ele>
        <time>2015-03-22T09:50:15.1Z</time>
      </trkpt>
      <trkpt lat="48.41503" lon="-3.58178">
        <ele>233</ele>
        <time>2015-03-22T09:50:17.1Z</time>
      </trkpt>
      <trkpt lat="48.41504" lon="-3.58182">
        <ele>233</ele>
        <time>2015-03-22T09:50:19.1Z</time>
      </trkpt>
      <trkpt lat="48.41504" lon="-3.58186">
        <ele>234</ele>
        <time>2015-03-22T09:50:22.1Z</time>
      </trkpt>
      <trkpt lat="48.41504" lon="-3.58191">
        <ele>234</ele>
        <time>2015-03-22T09:50:25.1Z</time>
      </trkpt>
      <trkpt lat="48.41505" lon="-3.58196">
        <ele>235</ele>
        <time>2015-03-22T09:50:28.1Z</time>
      </trkpt>
      <trkpt lat="48.41505" lon="-3.582">
        <ele>235</ele>
        <time>2015-03-22T09:50:31.1Z</time>
      </trkpt>
      <trkpt lat="48.41505" lon="-3.58203">
        <ele>235</ele>
        <time>2015-03-22T09:50:33.1Z</time>
      </trkpt>
      <trkpt lat="48.41505" lon="-3.58207">
        <ele>235</ele>
        <time>2015-03-22T09:50:35.1Z</time>
      </trkpt>
      <trkpt lat="48.41505" lon="-3.58212">
        <ele>235</ele>
        <time>2015-03-22T09:50:38.1Z</time>
      </trkpt>
      <trkpt lat="48.41505" lon="-3.58217">
        <ele>235</ele>
        <time>2015-03-22T09:50:41.1Z</time>
      </trkpt>
      <trkpt lat="48.41505" lon="-3.58221">
        <ele>236</ele>
        <time>2015-03-22T09:50:43.1Z</time>
      </trkpt>
      <trkpt lat="48.41505" lon="-3.58226">
        <ele>236</ele>
        <time>2015-03-22T09:50:46.1Z</time>
      </trkpt>
      <trkpt lat="48.41505" lon="-3.58231">
        <ele>236</ele>
        <time>2015-03-22T09:50:49.1Z</time>
      </trkpt>
      <trkpt lat="48.41504" lon="-3.58236">
        <ele>236</ele>
        <time>2015-03-22T09:50:51.1Z</time>
      </trkpt>
      <trkpt lat="48.41505" lon="-3.58241">
        <ele>236</ele>
        <time>2015-03-22T09:50:54.1Z</time>
      </trkpt>
      <trkpt lat="48.41504" lon="-3.58246">
        <ele>237</ele>
        <time>2015-03-22T09:50:57.1Z</time>
      </trkpt>
      <trkpt lat="48.41503" lon="-3.58249">
        <ele>237</ele>
        <time>2015-03-22T09:50:59.1Z</time>
      </trkpt>
      <trkpt lat="48.41503" lon="-3.58253">
        <ele>237</ele>
        <time>2015-03-22T09:51:01.1Z</time>
      </trkpt>
      <trkpt lat="48.41501" lon="-3.58258">
        <ele>236</ele>
        <time>2015-03-22T09:51:04.1Z</time>
      </trkpt>
      <trkpt lat="48.41502" lon="-3.58262">
        <ele>236</ele>
        <time>2015-03-22T09:51:07.1Z</time>
      </trkpt>
      <trkpt lat="48.41503" lon="-3.58265">
        <ele>236</ele>
        <time>2015-03-22T09:51:10.1Z</time>
      </trkpt>
      <trkpt lat="48.41501" lon="-3.58265">
        <ele>236</ele>
        <time>2015-03-22T09:51:12.1Z</time>
      </trkpt>
      <trkpt lat="48.415" lon="-3.58266">
        <ele>236</ele>
        <time>2015-03-22T09:51:15.1Z</time>
      </trkpt>
      <trkpt lat="48.41499" lon="-3.58269">
        <ele>236</ele>
        <time>2015-03-22T09:51:18.1Z</time>
      </trkpt>
      <trkpt lat="48.41499" lon="-3.58274">
        <ele>236</ele>
        <time>2015-03-22T09:51:20.1Z</time>
      </trkpt>
      <trkpt lat="48.41497" lon="-3.58278">
        <ele>236</ele>
        <time>2015-03-22T09:51:23.1Z</time>
      </trkpt>
      <trkpt lat="48.41496" lon="-3.58283">
        <ele>236</ele>
        <time>2015-03-22T09:51:26.1Z</time>
      </trkpt>
      <trkpt lat="48.41495" lon="-3.58289">
        <ele>236</ele>
        <time>2015-03-22T09:51:29.1Z</time>
      </trkpt>
      <trkpt lat="48.41494" lon="-3.58294">
        <ele>236</ele>
        <time>2015-03-22T09:51:32.1Z</time>
      </trkpt>
      <trkpt lat="48.41493" lon="-3.58297">
        <ele>236</ele>
        <time>2015-03-22T09:51:34.1Z</time>
      </trkpt>
      <trkpt lat="48.41492" lon="-3.58302">
        <ele>236</ele>
        <time>2015-03-22T09:51:37.1Z</time>
      </trkpt>
      <trkpt lat="48.41491" lon="-3.58306">
        <ele>236</ele>
        <time>2015-03-22T09:51:39.1Z</time>
      </trkpt>
      <trkpt lat="48.41491" lon="-3.5831">
        <ele>236</ele>
        <time>2015-03-22T09:51:41.1Z</time>
      </trkpt>
      <trkpt lat="48.4149" lon="-3.58313">
        <ele>235</ele>
        <time>2015-03-22T09:51:43.1Z</time>
      </trkpt>
      <trkpt lat="48.41488" lon="-3.58318">
        <ele>235</ele>
        <time>2015-03-22T09:51:46.1Z</time>
      </trkpt>
      <trkpt lat="48.41487" lon="-3.5832">
        <ele>235</ele>
        <time>2015-03-22T09:51:48.1Z</time>
      </trkpt>
      <trkpt lat="48.41487" lon="-3.58324">
        <ele>235</ele>
        <time>2015-03-22T09:51:50.1Z</time>
      </trkpt>
      <trkpt lat="48.41486" lon="-3.58325">
        <ele>235</ele>
        <time>2015-03-22T09:51:53.1Z</time>
      </trkpt>
      <trkpt lat="48.41486" lon="-3.58325">
        <ele>235</ele>
        <time>2015-03-22T09:51:55.1Z</time>
      </trkpt>
      <trkpt lat="48.41486" lon="-3.58326">
        <ele>235</ele>
        <time>2015-03-22T09:51:58.1Z</time>
      </trkpt>
      <trkpt lat="48.41485" lon="-3.58328">
        <ele>234</ele>
        <time>2015-03-22T09:52:00.1Z</time>
      </trkpt>
      <trkpt lat="48.41484" lon="-3.58332">
        <ele>234</ele>
        <time>2015-03-22T09:52:02.1Z</time>
      </trkpt>
      <trkpt lat="48.41484" lon="-3.58336">
        <ele>234</ele>
        <time>2015-03-22T09:52:04.1Z</time>
      </trkpt>
      <trkpt lat="48.41483" lon="-3.58339">
        <ele>234</ele>
        <time>2015-03-22T09:52:07.1Z</time>
      </trkpt>
      <trkpt lat="48.41482" lon="-3.58344">
        <ele>234</ele>
        <time>2015-03-22T09:52:10.1Z</time>
      </trkpt>
      <trkpt lat="48.41481" lon="-3.58349">
        <ele>234</ele>
        <time>2015-03-22T09:52:12.1Z</time>
      </trkpt>
      <trkpt lat="48.4148" lon="-3.58352">
        <ele>234</ele>
        <time>2015-03-22T09:52:15.1Z</time>
      </trkpt>
      <trkpt lat="48.41478" lon="-3.58356">
        <ele>233</ele>
        <time>2015-03-22T09:52:18.1Z</time>
      </trkpt>
      <trkpt lat="48.41478" lon="-3.58359">
        <ele>233</ele>
        <time>2015-03-22T09:52:20.1Z</time>
      </trkpt>
      <trkpt lat="48.41477" lon="-3.58362">
        <ele>233</ele>
        <time>2015-03-22T09:52:22.1Z</time>
      </trkpt>
      <trkpt lat="48.41476" lon="-3.58367">
        <ele>233</ele>
        <time>2015-03-22T09:52:25.1Z</time>
      </trkpt>
      <trkpt lat="48.41474" lon="-3.58372">
        <ele>233</ele>
        <time>2015-03-22T09:52:28.1Z</time>
      </trkpt>
      <trkpt lat="48.41473" lon="-3.58377">
        <ele>233</ele>
        <time>2015-03-22T09:52:30.1Z</time>
      </trkpt>
      <trkpt lat="48.41472" lon="-3.5838">
        <ele>233</ele>
        <time>2015-03-22T09:52:32.1Z</time>
      </trkpt>
      <trkpt lat="48.41471" lon="-3.58384">
        <ele>232</ele>
        <time>2015-03-22T09:52:35.1Z</time>
      </trkpt>
      <trkpt lat="48.4147" lon="-3.58388">
        <ele>232</ele>
        <time>2015-03-22T09:52:38.1Z</time>
      </trkpt>
      <trkpt lat="48.41469" lon="-3.58391">
        <ele>232</ele>
        <time>2015-03-22T09:52:40.1Z</time>
      </trkpt>
      <trkpt lat="48.41468" lon="-3.58395">
        <ele>232</ele>
        <time>2015-03-22T09:52:42.1Z</time>
      </trkpt>
      <trkpt lat="48.41468" lon="-3.58397">
        <ele>232</ele>
        <time>2015-03-22T09:52:44.1Z</time>
      </trkpt>
      <trkpt lat="48.41467" lon="-3.58398">
        <ele>231</ele>
        <time>2015-03-22T09:52:47.1Z</time>
      </trkpt>
      <trkpt lat="48.41467" lon="-3.58398">
        <ele>231</ele>
        <time>2015-03-22T09:52:49.1Z</time>
      </trkpt>
      <trkpt lat="48.41466" lon="-3.58401">
        <ele>231</ele>
        <time>2015-03-22T09:52:51.1Z</time>
      </trkpt>
      <trkpt lat="48.41465" lon="-3.58405">
        <ele>231</ele>
        <time>2015-03-22T09:52:54.1Z</time>
      </trkpt>
      <trkpt lat="48.41463" lon="-3.5841">
        <ele>231</ele>
        <time>2015-03-22T09:52:56.1Z</time>
      </trkpt>
      <trkpt lat="48.41462" lon="-3.58413">
        <ele>231</ele>
        <time>2015-03-22T09:52:59.1Z</time>
      </trkpt>
      <trkpt lat="48.41461" lon="-3.58416">
        <ele>231</ele>
        <time>2015-03-22T09:53:02.1Z</time>
      </trkpt>
      <trkpt lat="48.41461" lon="-3.5842">
        <ele>231</ele>
        <time>2015-03-22T09:53:05.1Z</time>
      </trkpt>
      <trkpt lat="48.41461" lon="-3.58421">
        <ele>231</ele>
        <time>2015-03-22T09:53:07.1Z</time>
      </trkpt>
      <trkpt lat="48.41461" lon="-3.58421">
        <ele>231</ele>
        <time>2015-03-22T09:53:09.1Z</time>
      </trkpt>
      <trkpt lat="48.41459" lon="-3.58423">
        <ele>231</ele>
        <time>2015-03-22T09:53:12.1Z</time>
      </trkpt>
      <trkpt lat="48.41458" lon="-3.58429">
        <ele>231</ele>
        <time>2015-03-22T09:53:15.1Z</time>
      </trkpt>
      <trkpt lat="48.41457" lon="-3.58432">
        <ele>230</ele>
        <time>2015-03-22T09:53:17.1Z</time>
      </trkpt>
      <trkpt lat="48.41456" lon="-3.58437">
        <ele>230</ele>
        <time>2015-03-22T09:53:20.1Z</time>
      </trkpt>
      <trkpt lat="48.41455" lon="-3.58442">
        <ele>229</ele>
        <time>2015-03-22T09:53:23.1Z</time>
      </trkpt>
      <trkpt lat="48.41454" lon="-3.58445">
        <ele>229</ele>
        <time>2015-03-22T09:53:25.1Z</time>
      </trkpt>
      <trkpt lat="48.41453" lon="-3.5845">
        <ele>229</ele>
        <time>2015-03-22T09:53:27.1Z</time>
      </trkpt>
      <trkpt lat="48.41452" lon="-3.58454">
        <ele>229</ele>
        <time>2015-03-22T09:53:30.1Z</time>
      </trkpt>
      <trkpt lat="48.4145" lon="-3.58459">
        <ele>229</ele>
        <time>2015-03-22T09:53:32.1Z</time>
      </trkpt>
      <trkpt lat="48.41449" lon="-3.58463">
        <ele>229</ele>
        <time>2015-03-22T09:53:35.1Z</time>
      </trkpt>
      <trkpt lat="48.41448" lon="-3.58469">
        <ele>229</ele>
        <time>2015-03-22T09:53:38.1Z</time>
      </trkpt>
      <trkpt lat="48.41447" lon="-3.58474">
        <ele>228</ele>
        <time>2015-03-22T09:53:40.1Z</time>
      </trkpt>
      <trkpt lat="48.41447" lon="-3.58478">
        <ele>228</ele>
        <time>2015-03-22T09:53:42.1Z</time>
      </trkpt>
      <trkpt lat="48.41446" lon="-3.5848">
        <ele>228</ele>
        <time>2015-03-22T09:53:45.1Z</time>
      </trkpt>
      <trkpt lat="48.41444" lon="-3.58484">
        <ele>228</ele>
        <time>2015-03-22T09:53:48.1Z</time>
      </trkpt>
      <trkpt lat="48.41442" lon="-3.5849">
        <ele>228</ele>
        <time>2015-03-22T09:53:51.1Z</time>
      </trkpt>
      <trkpt lat="48.41442" lon="-3.58496">
        <ele>227</ele>
        <time>2015-03-22T09:53:54.1Z</time>
      </trkpt>
      <trkpt lat="48.41441" lon="-3.58501">
        <ele>227</ele>
        <time>2015-03-22T09:53:56.1Z</time>
      </trkpt>
      <trkpt lat="48.41441" lon="-3.58507">
        <ele>227</ele>
        <time>2015-03-22T09:53:59.1Z</time>
      </trkpt>
      <trkpt lat="48.4144" lon="-3.58513">
        <ele>227</ele>
        <time>2015-03-22T09:54:01.1Z</time>
      </trkpt>
      <trkpt lat="48.4144" lon="-3.58517">
        <ele>227</ele>
        <time>2015-03-22T09:54:04.1Z</time>
      </trkpt>
      <trkpt lat="48.41439" lon="-3.58522">
        <ele>226</ele>
        <time>2015-03-22T09:54:07.1Z</time>
      </trkpt>
      <trkpt lat="48.41439" lon="-3.58527">
        <ele>226</ele>
        <time>2015-03-22T09:54:09.1Z</time>
      </trkpt>
      <trkpt lat="48.41438" lon="-3.58531">
        <ele>225</ele>
        <time>2015-03-22T09:54:12.1Z</time>
      </trkpt>
      <trkpt lat="48.41438" lon="-3.58537">
        <ele>225</ele>
        <time>2015-03-22T09:54:14.1Z</time>
      </trkpt>
      <trkpt lat="48.41437" lon="-3.5854">
        <ele>225</ele>
        <time>2015-03-22T09:54:17.1Z</time>
      </trkpt>
      <trkpt lat="48.41437" lon="-3.58545">
        <ele>225</ele>
        <time>2015-03-22T09:54:19.1Z</time>
      </trkpt>
      <trkpt lat="48.41436" lon="-3.58549">
        <ele>224</ele>
        <time>2015-03-22T09:54:22.1Z</time>
      </trkpt>
      <trkpt lat="48.41436" lon="-3.58553">
        <ele>224</ele>
        <time>2015-03-22T09:54:24.1Z</time>
      </trkpt>
      <trkpt lat="48.41435" lon="-3.58558">
        <ele>224</ele>
        <time>2015-03-22T09:54:27.1Z</time>
      </trkpt>
      <trkpt lat="48.41434" lon="-3.58563">
        <ele>223</ele>
        <time>2015-03-22T09:54:30.1Z</time>
      </trkpt>
      <trkpt lat="48.41434" lon="-3.58566">
        <ele>223</ele>
        <time>2015-03-22T09:54:32.1Z</time>
      </trkpt>
      <trkpt lat="48.41433" lon="-3.58572">
        <ele>223</ele>
        <time>2015-03-22T09:54:34.1Z</time>
      </trkpt>
      <trkpt lat="48.41433" lon="-3.58576">
        <ele>223</ele>
        <time>2015-03-22T09:54:37.1Z</time>
      </trkpt>
      <trkpt lat="48.41432" lon="-3.58581">
        <ele>222</ele>
        <time>2015-03-22T09:54:39.1Z</time>
      </trkpt>
      <trkpt lat="48.41431" lon="-3.58584">
        <ele>222</ele>
        <time>2015-03-22T09:54:42.1Z</time>
      </trkpt>
      <trkpt lat="48.41431" lon="-3.58589">
        <ele>222</ele>
        <time>2015-03-22T09:54:45.1Z</time>
      </trkpt>
      <trkpt lat="48.4143" lon="-3.58594">
        <ele>222</ele>
        <time>2015-03-22T09:54:47.1Z</time>
      </trkpt>
      <trkpt lat="48.41429" lon="-3.58597">
        <ele>221</ele>
        <time>2015-03-22T09:54:50.1Z</time>
      </trkpt>
      <trkpt lat="48.41429" lon="-3.58602">
        <ele>221</ele>
        <time>2015-03-22T09:54:52.1Z</time>
      </trkpt>
      <trkpt lat="48.41428" lon="-3.58606">
        <ele>221</ele>
        <time>2015-03-22T09:54:55.1Z</time>
      </trkpt>
      <trkpt lat="48.41427" lon="-3.58611">
        <ele>221</ele>
        <time>2015-03-22T09:54:57.1Z</time>
      </trkpt>
      <trkpt lat="48.41427" lon="-3.58615">
        <ele>221</ele>
        <time>2015-03-22T09:55:00.1Z</time>
      </trkpt>
      <trkpt lat="48.41426" lon="-3.58618">
        <ele>221</ele>
        <time>2015-03-22T09:55:02.1Z</time>
      </trkpt>
      <trkpt lat="48.41425" lon="-3.58623">
        <ele>221</ele>
        <time>2015-03-22T09:55:05.1Z</time>
      </trkpt>
      <trkpt lat="48.41424" lon="-3.58627">
        <ele>221</ele>
        <time>2015-03-22T09:55:07.1Z</time>
      </trkpt>
      <trkpt lat="48.41423" lon="-3.58629">
        <ele>220</ele>
        <time>2015-03-22T09:55:10.1Z</time>
      </trkpt>
      <trkpt lat="48.41423" lon="-3.58632">
        <ele>220</ele>
        <time>2015-03-22T09:55:12.1Z</time>
      </trkpt>
      <trkpt lat="48.41422" lon="-3.58634">
        <ele>220</ele>
        <time>2015-03-22T09:55:15.1Z</time>
      </trkpt>
      <trkpt lat="48.41422" lon="-3.58638">
        <ele>220</ele>
        <time>2015-03-22T09:55:17.1Z</time>
      </trkpt>
      <trkpt lat="48.41421" lon="-3.58642">
        <ele>220</ele>
        <time>2015-03-22T09:55:19.1Z</time>
      </trkpt>
      <trkpt lat="48.4142" lon="-3.58646">
        <ele>220</ele>
        <time>2015-03-22T09:55:22.1Z</time>
      </trkpt>
      <trkpt lat="48.41419" lon="-3.58651">
        <ele>220</ele>
        <time>2015-03-22T09:55:24.1Z</time>
      </trkpt>
      <trkpt lat="48.41418" lon="-3.58654">
        <ele>221</ele>
        <time>2015-03-22T09:55:27.1Z</time>
      </trkpt>
      <trkpt lat="48.41417" lon="-3.58657">
        <ele>220</ele>
        <time>2015-03-22T09:55:29.1Z</time>
      </trkpt>
      <trkpt lat="48.41414" lon="-3.58663">
        <ele>220</ele>
        <time>2015-03-22T09:55:31.1Z</time>
      </trkpt>
      <trkpt lat="48.41413" lon="-3.58665">
        <ele>220</ele>
        <time>2015-03-22T09:55:34.1Z</time>
      </trkpt>
      <trkpt lat="48.4141" lon="-3.58669">
        <ele>220</ele>
        <time>2015-03-22T09:55:36.1Z</time>
      </trkpt>
      <trkpt lat="48.41409" lon="-3.58672">
        <ele>220</ele>
        <time>2015-03-22T09:55:39.1Z</time>
      </trkpt>
      <trkpt lat="48.41406" lon="-3.58676">
        <ele>220</ele>
        <time>2015-03-22T09:55:42.1Z</time>
      </trkpt>
      <trkpt lat="48.41403" lon="-3.58679">
        <ele>220</ele>
        <time>2015-03-22T09:55:45.1Z</time>
      </trkpt>
      <trkpt lat="48.41401" lon="-3.58683">
        <ele>219</ele>
        <time>2015-03-22T09:55:48.1Z</time>
      </trkpt>
      <trkpt lat="48.41399" lon="-3.58687">
        <ele>219</ele>
        <time>2015-03-22T09:55:51.1Z</time>
      </trkpt>
      <trkpt lat="48.41397" lon="-3.58692">
        <ele>219</ele>
        <time>2015-03-22T09:55:53.1Z</time>
      </trkpt>
      <trkpt lat="48.41396" lon="-3.58695">
        <ele>219</ele>
        <time>2015-03-22T09:55:56.1Z</time>
      </trkpt>
      <trkpt lat="48.41393" lon="-3.587">
        <ele>219</ele>
        <time>2015-03-22T09:55:59.1Z</time>
      </trkpt>
      <trkpt lat="48.41392" lon="-3.58704">
        <ele>218</ele>
        <time>2015-03-22T09:56:01.1Z</time>
      </trkpt>
      <trkpt lat="48.41389" lon="-3.58709">
        <ele>219</ele>
        <time>2015-03-22T09:56:03.1Z</time>
      </trkpt>
      <trkpt lat="48.41388" lon="-3.58712">
        <ele>219</ele>
        <time>2015-03-22T09:56:06.1Z</time>
      </trkpt>
      <trkpt lat="48.41385" lon="-3.58716">
        <ele>219</ele>
        <time>2015-03-22T09:56:09.1Z</time>
      </trkpt>
      <trkpt lat="48.41383" lon="-3.5872">
        <ele>218</ele>
        <time>2015-03-22T09:56:12.1Z</time>
      </trkpt>
      <trkpt lat="48.4138" lon="-3.58724">
        <ele>218</ele>
        <time>2015-03-22T09:56:15.1Z</time>
      </trkpt>
      <trkpt lat="48.41378" lon="-3.58728">
        <ele>218</ele>
        <time>2015-03-22T09:56:17.1Z</time>
      </trkpt>
      <trkpt lat="48.41376" lon="-3.58731">
        <ele>218</ele>
        <time>2015-03-22T09:56:20.1Z</time>
      </trkpt>
      <trkpt lat="48.41373" lon="-3.58735">
        <ele>218</ele>
        <time>2015-03-22T09:56:22.1Z</time>
      </trkpt>
      <trkpt lat="48.41372" lon="-3.58738">
        <ele>218</ele>
        <time>2015-03-22T09:56:25.1Z</time>
      </trkpt>
      <trkpt lat="48.41369" lon="-3.58742">
        <ele>218</ele>
        <time>2015-03-22T09:56:28.1Z</time>
      </trkpt>
      <trkpt lat="48.41367" lon="-3.58746">
        <ele>218</ele>
        <time>2015-03-22T09:56:30.1Z</time>
      </trkpt>
      <trkpt lat="48.41365" lon="-3.58749">
        <ele>218</ele>
        <time>2015-03-22T09:56:33.1Z</time>
      </trkpt>
      <trkpt lat="48.41362" lon="-3.58753">
        <ele>217</ele>
        <time>2015-03-22T09:56:35.1Z</time>
      </trkpt>
      <trkpt lat="48.4136" lon="-3.58756">
        <ele>217</ele>
        <time>2015-03-22T09:56:38.1Z</time>
      </trkpt>
      <trkpt lat="48.41358" lon="-3.58761">
        <ele>217</ele>
        <time>2015-03-22T09:56:41.1Z</time>
      </trkpt>
      <trkpt lat="48.41356" lon="-3.58765">
        <ele>217</ele>
        <time>2015-03-22T09:56:43.1Z</time>
      </trkpt>
      <trkpt lat="48.41354" lon="-3.58768">
        <ele>218</ele>
        <time>2015-03-22T09:56:46.1Z</time>
      </trkpt>
      <trkpt lat="48.41352" lon="-3.58773">
        <ele>218</ele>
        <time>2015-03-22T09:56:48.1Z</time>
      </trkpt>
      <trkpt lat="48.41349" lon="-3.58777">
        <ele>218</ele>
        <time>2015-03-22T09:56:52.1Z</time>
      </trkpt>
      <trkpt lat="48.41347" lon="-3.58781">
        <ele>217</ele>
        <time>2015-03-22T09:56:54.1Z</time>
      </trkpt>
      <trkpt lat="48.41344" lon="-3.58785">
        <ele>217</ele>
        <time>2015-03-22T09:56:58.1Z</time>
      </trkpt>
      <trkpt lat="48.41341" lon="-3.58789">
        <ele>216</ele>
        <time>2015-03-22T09:57:00.1Z</time>
      </trkpt>
      <trkpt lat="48.41339" lon="-3.58792">
        <ele>216</ele>
        <time>2015-03-22T09:57:03.1Z</time>
      </trkpt>
      <trkpt lat="48.41337" lon="-3.58793">
        <ele>216</ele>
        <time>2015-03-22T09:57:05.1Z</time>
      </trkpt>
      <trkpt lat="48.41335" lon="-3.58797">
        <ele>217</ele>
        <time>2015-03-22T09:57:07.1Z</time>
      </trkpt>
      <trkpt lat="48.41333" lon="-3.58799">
        <ele>217</ele>
        <time>2015-03-22T09:57:09.1Z</time>
      </trkpt>
      <trkpt lat="48.4133" lon="-3.58804">
        <ele>216</ele>
        <time>2015-03-22T09:57:12.1Z</time>
      </trkpt>
      <trkpt lat="48.41328" lon="-3.58807">
        <ele>216</ele>
        <time>2015-03-22T09:57:15.1Z</time>
      </trkpt>
      <trkpt lat="48.41325" lon="-3.58812">
        <ele>216</ele>
        <time>2015-03-22T09:57:17.1Z</time>
      </trkpt>
      <trkpt lat="48.41323" lon="-3.58815">
        <ele>216</ele>
        <time>2015-03-22T09:57:20.1Z</time>
      </trkpt>
      <trkpt lat="48.4132" lon="-3.58819">
        <ele>216</ele>
        <time>2015-03-22T09:57:22.1Z</time>
      </trkpt>
      <trkpt lat="48.41318" lon="-3.58821">
        <ele>216</ele>
        <time>2015-03-22T09:57:25.1Z</time>
      </trkpt>
      <trkpt lat="48.41316" lon="-3.58823">
        <ele>216</ele>
        <time>2015-03-22T09:57:27.1Z</time>
      </trkpt>
      <trkpt lat="48.41313" lon="-3.58827">
        <ele>216</ele>
        <time>2015-03-22T09:57:30.1Z</time>
      </trkpt>
      <trkpt lat="48.41309" lon="-3.5883">
        <ele>216</ele>
        <time>2015-03-22T09:57:33.1Z</time>
      </trkpt>
      <trkpt lat="48.41307" lon="-3.58833">
        <ele>216</ele>
        <time>2015-03-22T09:57:35.1Z</time>
      </trkpt>
      <trkpt lat="48.41304" lon="-3.58836">
        <ele>215</ele>
        <time>2015-03-22T09:57:37.1Z</time>
      </trkpt>
      <trkpt lat="48.41303" lon="-3.58838">
        <ele>215</ele>
        <time>2015-03-22T09:57:40.1Z</time>
      </trkpt>
      <trkpt lat="48.41301" lon="-3.5884">
        <ele>215</ele>
        <time>2015-03-22T09:57:42.1Z</time>
      </trkpt>
      <trkpt lat="48.41297" lon="-3.58843">
        <ele>215</ele>
        <time>2015-03-22T09:57:44.1Z</time>
      </trkpt>
      <trkpt lat="48.41293" lon="-3.58846">
        <ele>215</ele>
        <time>2015-03-22T09:57:48.1Z</time>
      </trkpt>
      <trkpt lat="48.4129" lon="-3.58848">
        <ele>216</ele>
        <time>2015-03-22T09:57:50.1Z</time>
      </trkpt>
      <trkpt lat="48.41286" lon="-3.5885">
        <ele>216</ele>
        <time>2015-03-22T09:57:53.1Z</time>
      </trkpt>
      <trkpt lat="48.41284" lon="-3.58853">
        <ele>216</ele>
        <time>2015-03-22T09:57:56.1Z</time>
      </trkpt>
      <trkpt lat="48.41281" lon="-3.58856">
        <ele>216</ele>
        <time>2015-03-22T09:57:59.1Z</time>
      </trkpt>
      <trkpt lat="48.41278" lon="-3.58859">
        <ele>216</ele>
        <time>2015-03-22T09:58:02.1Z</time>
      </trkpt>
      <trkpt lat="48.41275" lon="-3.58861">
        <ele>216</ele>
        <time>2015-03-22T09:58:04.1Z</time>
      </trkpt>
      <trkpt lat="48.41273" lon="-3.58863">
        <ele>215</ele>
        <time>2015-03-22T09:58:07.1Z</time>
      </trkpt>
      <trkpt lat="48.41271" lon="-3.58866">
        <ele>215</ele>
        <time>2015-03-22T09:58:09.1Z</time>
      </trkpt>
      <trkpt lat="48.4127" lon="-3.58867">
        <ele>215</ele>
        <time>2015-03-22T09:58:12.1Z</time>
      </trkpt>
      <trkpt lat="48.41269" lon="-3.58867">
        <ele>215</ele>
        <time>2015-03-22T09:58:14.1Z</time>
      </trkpt>
      <trkpt lat="48.41267" lon="-3.58869">
        <ele>215</ele>
        <time>2015-03-22T09:58:16.1Z</time>
      </trkpt>
      <trkpt lat="48.41265" lon="-3.58871">
        <ele>215</ele>
        <time>2015-03-22T09:58:19.1Z</time>
      </trkpt>
      <trkpt lat="48.41262" lon="-3.58874">
        <ele>214</ele>
        <time>2015-03-22T09:58:21.1Z</time>
      </trkpt>
      <trkpt lat="48.41261" lon="-3.58876">
        <ele>214</ele>
        <time>2015-03-22T09:58:23.1Z</time>
      </trkpt>
      <trkpt lat="48.4126" lon="-3.5888">
        <ele>214</ele>
        <time>2015-03-22T09:58:25.1Z</time>
      </trkpt>
      <trkpt lat="48.4126" lon="-3.58881">
        <ele>214</ele>
        <time>2015-03-22T09:58:28.1Z</time>
      </trkpt>
      <trkpt lat="48.4126" lon="-3.5888">
        <ele>214</ele>
        <time>2015-03-22T09:58:30.1Z</time>
      </trkpt>
      <trkpt lat="48.41259" lon="-3.58881">
        <ele>215</ele>
        <time>2015-03-22T09:58:32.1Z</time>
      </trkpt>
      <trkpt lat="48.4126" lon="-3.58881">
        <ele>215</ele>
        <time>2015-03-22T09:58:35.1Z</time>
      </trkpt>
      <trkpt lat="48.41259" lon="-3.58881">
        <ele>215</ele>
        <time>2015-03-22T09:58:37.1Z</time>
      </trkpt>
      <trkpt lat="48.41259" lon="-3.58882">
        <ele>215</ele>
        <time>2015-03-22T09:58:41.1Z</time>
      </trkpt>
      <trkpt lat="48.41259" lon="-3.58882">
        <ele>215</ele>
        <time>2015-03-22T09:58:43.1Z</time>
      </trkpt>
      <trkpt lat="48.41259" lon="-3.58884">
        <ele>214</ele>
        <time>2015-03-22T09:58:47.1Z</time>
      </trkpt>
      <trkpt lat="48.4126" lon="-3.58884">
        <ele>215</ele>
        <time>2015-03-22T09:58:50.1Z</time>
      </trkpt>
      <trkpt lat="48.4126" lon="-3.58885">
        <ele>214</ele>
        <time>2015-03-22T09:58:52.1Z</time>
      </trkpt>
      <trkpt lat="48.4126" lon="-3.58886">
        <ele>215</ele>
        <time>2015-03-22T09:58:56.1Z</time>
      </trkpt>
      <trkpt lat="48.4126" lon="-3.58886">
        <ele>215</ele>
        <time>2015-03-22T09:58:58.1Z</time>
      </trkpt>
      <trkpt lat="48.4126" lon="-3.58887">
        <ele>215</ele>
        <time>2015-03-22T09:59:01.1Z</time>
      </trkpt>
      <trkpt lat="48.4126" lon="-3.58888">
        <ele>215</ele>
        <time>2015-03-22T09:59:04.1Z</time>
      </trkpt>
      <trkpt lat="48.4126" lon="-3.58888">
        <ele>215</ele>
        <time>2015-03-22T09:59:06.1Z</time>
      </trkpt>
      <trkpt lat="48.4126" lon="-3.58887">
        <ele>215</ele>
        <time>2015-03-22T09:59:09.1Z</time>
      </trkpt>
      <trkpt lat="48.41259" lon="-3.58887">
        <ele>214</ele>
        <time>2015-03-22T09:59:12.1Z</time>
      </trkpt>
      <trkpt lat="48.41258" lon="-3.58887">
        <ele>214</ele>
        <time>2015-03-22T09:59:14.1Z</time>
      </trkpt>
      <trkpt lat="48.41258" lon="-3.58887">
        <ele>214</ele>
        <time>2015-03-22T09:59:17.1Z</time>
      </trkpt>
      <trkpt lat="48.41258" lon="-3.58886">
        <ele>215</ele>
        <time>2015-03-22T09:59:19.1Z</time>
      </trkpt>
      <trkpt lat="48.41257" lon="-3.58886">
        <ele>215</ele>
        <time>2015-03-22T09:59:22.1Z</time>
      </trkpt>
      <trkpt lat="48.41257" lon="-3.58886">
        <ele>215</ele>
        <time>2015-03-22T09:59:24.1Z</time>
      </trkpt>
      <trkpt lat="48.41258" lon="-3.58885">
        <ele>215</ele>
        <time>2015-03-22T09:59:26.1Z</time>
      </trkpt>
      <trkpt lat="48.41258" lon="-3.58885">
        <ele>215</ele>
        <time>2015-03-22T09:59:29.1Z</time>
      </trkpt>
      <trkpt lat="48.41257" lon="-3.58886">
        <ele>214</ele>
        <time>2015-03-22T09:59:32.1Z</time>
      </trkpt>
      <trkpt lat="48.41258" lon="-3.58886">
        <ele>215</ele>
        <time>2015-03-22T09:59:36.1Z</time>
      </trkpt>
      <trkpt lat="48.41258" lon="-3.58886">
        <ele>215</ele>
        <time>2015-03-22T09:59:38.1Z</time>
      </trkpt>
      <trkpt lat="48.41258" lon="-3.58886">
        <ele>215</ele>
        <time>2015-03-22T09:59:40.1Z</time>
      </trkpt>
      <trkpt lat="48.41258" lon="-3.58887">
        <ele>215</ele>
        <time>2015-03-22T09:59:43.1Z</time>
      </trkpt>
      <trkpt lat="48.41259" lon="-3.58887">
        <ele>215</ele>
        <time>2015-03-22T09:59:47.1Z</time>
      </trkpt>
      <trkpt lat="48.41258" lon="-3.58887">
        <ele>215</ele>
        <time>2015-03-22T09:59:50.1Z</time>
      </trkpt>
      <trkpt lat="48.41258" lon="-3.58888">
        <ele>215</ele>
        <time>2015-03-22T09:59:52.1Z</time>
      </trkpt>
      <trkpt lat="48.41259" lon="-3.58887">
        <ele>215</ele>
        <time>2015-03-22T09:59:55.1Z</time>
      </trkpt>
      <trkpt lat="48.41259" lon="-3.58887">
        <ele>214</ele>
        <time>2015-03-22T09:59:57.1Z</time>
      </trkpt>
      <trkpt lat="48.41259" lon="-3.58887">
        <ele>214</ele>
        <time>2015-03-22T09:59:59.1Z</time>
      </trkpt>
      <trkpt lat="48.41259" lon="-3.58887">
        <ele>214</ele>
        <time>2015-03-22T10:00:01.1Z</time>
      </trkpt>
      <trkpt lat="48.41259" lon="-3.58887">
        <ele>215</ele>
        <time>2015-03-22T10:00:04.1Z</time>
      </trkpt>
      <trkpt lat="48.41259" lon="-3.58887">
        <ele>215</ele>
        <time>2015-03-22T10:00:06.1Z</time>
      </trkpt>
      <trkpt lat="48.4126" lon="-3.58887">
        <ele>215</ele>
        <time>2015-03-22T10:00:08.1Z</time>
      </trkpt>
      <trkpt lat="48.4126" lon="-3.58886">
        <ele>215</ele>
        <time>2015-03-22T10:00:11.1Z</time>
      </trkpt>
      <trkpt lat="48.4126" lon="-3.58887">
        <ele>215</ele>
        <time>2015-03-22T10:00:13.1Z</time>
      </trkpt>
      <trkpt lat="48.4126" lon="-3.58887">
        <ele>215</ele>
        <time>2015-03-22T10:00:15.1Z</time>
      </trkpt>
      <trkpt lat="48.4126" lon="-3.58886">
        <ele>215</ele>
        <time>2015-03-22T10:00:19.1Z</time>
      </trkpt>
      <trkpt lat="48.4126" lon="-3.58886">
        <ele>215</ele>
        <time>2015-03-22T10:00:21.1Z</time>
      </trkpt>
      <trkpt lat="48.4126" lon="-3.58886">
        <ele>215</ele>
        <time>2015-03-22T10:00:23.1Z</time>
      </trkpt>
      <trkpt lat="48.4126" lon="-3.58885">
        <ele>215</ele>
        <time>2015-03-22T10:00:26.1Z</time>
      </trkpt>
      <trkpt lat="48.4126" lon="-3.58885">
        <ele>215</ele>
        <time>2015-03-22T10:00:30.1Z</time>
      </trkpt>
      <trkpt lat="48.4126" lon="-3.58886">
        <ele>216</ele>
        <time>2015-03-22T10:00:33.1Z</time>
      </trkpt>
      <trkpt lat="48.41261" lon="-3.58886">
        <ele>217</ele>
        <time>2015-03-22T10:00:35.1Z</time>
      </trkpt>
      <trkpt lat="48.41261" lon="-3.58885">
        <ele>217</ele>
        <time>2015-03-22T10:00:38.1Z</time>
      </trkpt>
      <trkpt lat="48.41261" lon="-3.58885">
        <ele>216</ele>
        <time>2015-03-22T10:00:41.1Z</time>
      </trkpt>
      <trkpt lat="48.41261" lon="-3.58886">
        <ele>215</ele>
        <time>2015-03-22T10:00:44.1Z</time>
      </trkpt>
      <trkpt lat="48.41261" lon="-3.58886">
        <ele>215</ele>
        <time>2015-03-22T10:00:48.1Z</time>
      </trkpt>
      <trkpt lat="48.41261" lon="-3.58888">
        <ele>215</ele>
        <time>2015-03-22T10:00:51.1Z</time>
      </trkpt>
      <trkpt lat="48.41262" lon="-3.58888">
        <ele>215</ele>
        <time>2015-03-22T10:00:54.1Z</time>
      </trkpt>
      <trkpt lat="48.41261" lon="-3.58888">
        <ele>215</ele>
        <time>2015-03-22T10:00:56.1Z</time>
      </trkpt>
      <trkpt lat="48.41262" lon="-3.58889">
        <ele>215</ele>
        <time>2015-03-22T10:00:59.1Z</time>
      </trkpt>
      <trkpt lat="48.41262" lon="-3.58888">
        <ele>215</ele>
        <time>2015-03-22T10:01:02.1Z</time>
      </trkpt>
      <trkpt lat="48.41263" lon="-3.58889">
        <ele>215</ele>
        <time>2015-03-22T10:01:04.1Z</time>
      </trkpt>
      <trkpt lat="48.41264" lon="-3.58892">
        <ele>215</ele>
        <time>2015-03-22T10:01:06.1Z</time>
      </trkpt>
      <trkpt lat="48.41265" lon="-3.58894">
        <ele>215</ele>
        <time>2015-03-22T10:01:09.1Z</time>
      </trkpt>
      <trkpt lat="48.41265" lon="-3.58895">
        <ele>216</ele>
        <time>2015-03-22T10:01:11.1Z</time>
      </trkpt>
      <trkpt lat="48.41266" lon="-3.58898">
        <ele>216</ele>
        <time>2015-03-22T10:01:14.1Z</time>
      </trkpt>
      <trkpt lat="48.41267" lon="-3.58901">
        <ele>216</ele>
        <time>2015-03-22T10:01:17.1Z</time>
      </trkpt>
      <trkpt lat="48.41268" lon="-3.58903">
        <ele>216</ele>
        <time>2015-03-22T10:01:19.1Z</time>
      </trkpt>
      <trkpt lat="48.41269" lon="-3.58905">
        <ele>217</ele>
        <time>2015-03-22T10:01:22.1Z</time>
      </trkpt>
      <trkpt lat="48.41269" lon="-3.58907">
        <ele>217</ele>
        <time>2015-03-22T10:01:24.1Z</time>
      </trkpt>
      <trkpt lat="48.41271" lon="-3.58909">
        <ele>217</ele>
        <time>2015-03-22T10:01:27.1Z</time>
      </trkpt>
      <trkpt lat="48.41273" lon="-3.5891">
        <ele>218</ele>
        <time>2015-03-22T10:01:29.1Z</time>
      </trkpt>
      <trkpt lat="48.41274" lon="-3.58913">
        <ele>218</ele>
        <time>2015-03-22T10:01:32.1Z</time>
      </trkpt>
      <trkpt lat="48.41275" lon="-3.58916">
        <ele>219</ele>
        <time>2015-03-22T10:01:34.1Z</time>
      </trkpt>
      <trkpt lat="48.41275" lon="-3.5892">
        <ele>219</ele>
        <time>2015-03-22T10:01:36.1Z</time>
      </trkpt>
      <trkpt lat="48.41277" lon="-3.58927">
        <ele>220</ele>
        <time>2015-03-22T10:01:39.1Z</time>
      </trkpt>
      <trkpt lat="48.41278" lon="-3.58932">
        <ele>220</ele>
        <time>2015-03-22T10:01:42.1Z</time>
      </trkpt>
      <trkpt lat="48.41279" lon="-3.58935">
        <ele>221</ele>
        <time>2015-03-22T10:01:45.1Z</time>
      </trkpt>
      <trkpt lat="48.41279" lon="-3.58936">
        <ele>222</ele>
        <time>2015-03-22T10:01:48.1Z</time>
      </trkpt>
      <trkpt lat="48.4128" lon="-3.58939">
        <ele>222</ele>
        <time>2015-03-22T10:01:51.1Z</time>
      </trkpt>
      <trkpt lat="48.4128" lon="-3.5894">
        <ele>222</ele>
        <time>2015-03-22T10:01:53.1Z</time>
      </trkpt>
      <trkpt lat="48.41281" lon="-3.58942">
        <ele>222</ele>
        <time>2015-03-22T10:01:55.1Z</time>
      </trkpt>
      <trkpt lat="48.41281" lon="-3.58943">
        <ele>222</ele>
        <time>2015-03-22T10:01:57.1Z</time>
      </trkpt>
      <trkpt lat="48.41281" lon="-3.58944">
        <ele>222</ele>
        <time>2015-03-22T10:02:00.1Z</time>
      </trkpt>
      <trkpt lat="48.41281" lon="-3.58947">
        <ele>222</ele>
        <time>2015-03-22T10:02:03.1Z</time>
      </trkpt>
      <trkpt lat="48.41281" lon="-3.58949">
        <ele>222</ele>
        <time>2015-03-22T10:02:06.1Z</time>
      </trkpt>
      <trkpt lat="48.41281" lon="-3.58951">
        <ele>222</ele>
        <time>2015-03-22T10:02:08.1Z</time>
      </trkpt>
      <trkpt lat="48.41282" lon="-3.58952">
        <ele>222</ele>
        <time>2015-03-22T10:02:12.1Z</time>
      </trkpt>
      <trkpt lat="48.41283" lon="-3.58953">
        <ele>222</ele>
        <time>2015-03-22T10:02:14.1Z</time>
      </trkpt>
      <trkpt lat="48.41283" lon="-3.58954">
        <ele>222</ele>
        <time>2015-03-22T10:02:17.1Z</time>
      </trkpt>
      <trkpt lat="48.41283" lon="-3.58954">
        <ele>222</ele>
        <time>2015-03-22T10:02:19.1Z</time>
      </trkpt>
      <trkpt lat="48.41284" lon="-3.58953">
        <ele>222</ele>
        <time>2015-03-22T10:02:22.1Z</time>
      </trkpt>
      <trkpt lat="48.41284" lon="-3.58953">
        <ele>222</ele>
        <time>2015-03-22T10:02:24.1Z</time>
      </trkpt>
      <trkpt lat="48.41285" lon="-3.58953">
        <ele>222</ele>
        <time>2015-03-22T10:02:27.1Z</time>
      </trkpt>
      <trkpt lat="48.41288" lon="-3.58953">
        <ele>222</ele>
        <time>2015-03-22T10:02:29.1Z</time>
      </trkpt>
      <trkpt lat="48.41291" lon="-3.58952">
        <ele>223</ele>
        <time>2015-03-22T10:02:32.1Z</time>
      </trkpt>
      <trkpt lat="48.41294" lon="-3.5895">
        <ele>223</ele>
        <time>2015-03-22T10:02:35.1Z</time>
      </trkpt>
      <trkpt lat="48.41296" lon="-3.5895">
        <ele>223</ele>
        <time>2015-03-22T10:02:37.1Z</time>
      </trkpt>
      <trkpt lat="48.41299" lon="-3.5895">
        <ele>224</ele>
        <time>2015-03-22T10:02:40.1Z</time>
      </trkpt>
      <trkpt lat="48.41301" lon="-3.58951">
        <ele>224</ele>
        <time>2015-03-22T10:02:43.1Z</time>
      </trkpt>
      <trkpt lat="48.41303" lon="-3.58952">
        <ele>224</ele>
        <time>2015-03-22T10:02:45.1Z</time>
      </trkpt>
      <trkpt lat="48.41306" lon="-3.58953">
        <ele>224</ele>
        <time>2015-03-22T10:02:48.1Z</time>
      </trkpt>
      <trkpt lat="48.41309" lon="-3.58955">
        <ele>224</ele>
        <time>2015-03-22T10:02:51.1Z</time>
      </trkpt>
      <trkpt lat="48.41313" lon="-3.58958">
        <ele>224</ele>
        <time>2015-03-22T10:02:54.1Z</time>
      </trkpt>
      <trkpt lat="48.41315" lon="-3.58959">
        <ele>224</ele>
        <time>2015-03-22T10:02:56.1Z</time>
      </trkpt>
      <trkpt lat="48.41316" lon="-3.5896">
        <ele>225</ele>
        <time>2015-03-22T10:02:59.1Z</time>
      </trkpt>
      <trkpt lat="48.41319" lon="-3.58961">
        <ele>225</ele>
        <time>2015-03-22T10:03:01.1Z</time>
      </trkpt>
      <trkpt lat="48.41321" lon="-3.58961">
        <ele>226</ele>
        <time>2015-03-22T10:03:04.1Z</time>
      </trkpt>
      <trkpt lat="48.41324" lon="-3.58959">
        <ele>226</ele>
        <time>2015-03-22T10:03:07.1Z</time>
      </trkpt>
      <trkpt lat="48.41326" lon="-3.58959">
        <ele>226</ele>
        <time>2015-03-22T10:03:09.1Z</time>
      </trkpt>
      <trkpt lat="48.41328" lon="-3.58957">
        <ele>226</ele>
        <time>2015-03-22T10:03:11.1Z</time>
      </trkpt>
      <trkpt lat="48.41331" lon="-3.58957">
        <ele>227</ele>
        <time>2015-03-22T10:03:14.1Z</time>
      </trkpt>
      <trkpt lat="48.41333" lon="-3.58956">
        <ele>227</ele>
        <time>2015-03-22T10:03:16.1Z</time>
      </trkpt>
      <trkpt lat="48.41336" lon="-3.58956">
        <ele>227</ele>
        <time>2015-03-22T10:03:18.1Z</time>
      </trkpt>
      <trkpt lat="48.4134" lon="-3.58954">
        <ele>227</ele>
        <time>2015-03-22T10:03:21.1Z</time>
      </trkpt>
      <trkpt lat="48.41342" lon="-3.58954">
        <ele>227</ele>
        <time>2015-03-22T10:03:23.1Z</time>
      </trkpt>
      <trkpt lat="48.41344" lon="-3.58953">
        <ele>227</ele>
        <time>2015-03-22T10:03:25.1Z</time>
      </trkpt>
      <trkpt lat="48.41348" lon="-3.5895">
        <ele>227</ele>
        <time>2015-03-22T10:03:28.1Z</time>
      </trkpt>
      <trkpt lat="48.41349" lon="-3.58948">
        <ele>227</ele>
        <time>2015-03-22T10:03:30.1Z</time>
      </trkpt>
      <trkpt lat="48.41352" lon="-3.58945">
        <ele>227</ele>
        <time>2015-03-22T10:03:33.1Z</time>
      </trkpt>
      <trkpt lat="48.41355" lon="-3.58942">
        <ele>227</ele>
        <time>2015-03-22T10:03:35.1Z</time>
      </trkpt>
      <trkpt lat="48.41357" lon="-3.58937">
        <ele>227</ele>
        <time>2015-03-22T10:03:38.1Z</time>
      </trkpt>
      <trkpt lat="48.4136" lon="-3.58935">
        <ele>227</ele>
        <time>2015-03-22T10:03:41.1Z</time>
      </trkpt>
      <trkpt lat="48.41363" lon="-3.58931">
        <ele>227</ele>
        <time>2015-03-22T10:03:43.1Z</time>
      </trkpt>
      <trkpt lat="48.41366" lon="-3.58926">
        <ele>228</ele>
        <time>2015-03-22T10:03:46.1Z</time>
      </trkpt>
      <trkpt lat="48.41368" lon="-3.58923">
        <ele>228</ele>
        <time>2015-03-22T10:03:48.1Z</time>
      </trkpt>
      <trkpt lat="48.4137" lon="-3.58921">
        <ele>228</ele>
        <time>2015-03-22T10:03:50.1Z</time>
      </trkpt>
      <trkpt lat="48.41374" lon="-3.58917">
        <ele>228</ele>
        <time>2015-03-22T10:03:53.1Z</time>
      </trkpt>
      <trkpt lat="48.41377" lon="-3.58916">
        <ele>227</ele>
        <time>2015-03-22T10:03:56.1Z</time>
      </trkpt>
      <trkpt lat="48.41381" lon="-3.58914">
        <ele>227</ele>
        <time>2015-03-22T10:03:58.1Z</time>
      </trkpt>
      <trkpt lat="48.41383" lon="-3.58911">
        <ele>228</ele>
        <time>2015-03-22T10:04:01.1Z</time>
      </trkpt>
      <trkpt lat="48.41386" lon="-3.58909">
        <ele>228</ele>
        <time>2015-03-22T10:04:04.1Z</time>
      </trkpt>
      <trkpt lat="48.41387" lon="-3.58905">
        <ele>228</ele>
        <time>2015-03-22T10:04:07.1Z</time>
      </trkpt>
      <trkpt lat="48.41389" lon="-3.58901">
        <ele>228</ele>
        <time>2015-03-22T10:04:09.1Z</time>
      </trkpt>
      <trkpt lat="48.41391" lon="-3.58897">
        <ele>228</ele>
        <time>2015-03-22T10:04:12.1Z</time>
      </trkpt>
      <trkpt lat="48.41392" lon="-3.58895">
        <ele>228</ele>
        <time>2015-03-22T10:04:14.1Z</time>
      </trkpt>
      <trkpt lat="48.41393" lon="-3.58891">
        <ele>228</ele>
        <time>2015-03-22T10:04:17.1Z</time>
      </trkpt>
      <trkpt lat="48.41394" lon="-3.58889">
        <ele>228</ele>
        <time>2015-03-22T10:04:19.1Z</time>
      </trkpt>
      <trkpt lat="48.41396" lon="-3.58885">
        <ele>227</ele>
        <time>2015-03-22T10:04:22.1Z</time>
      </trkpt>
      <trkpt lat="48.41399" lon="-3.58882">
        <ele>227</ele>
        <time>2015-03-22T10:04:24.1Z</time>
      </trkpt>
      <trkpt lat="48.41401" lon="-3.58878">
        <ele>227</ele>
        <time>2015-03-22T10:04:27.1Z</time>
      </trkpt>
      <trkpt lat="48.41403" lon="-3.58875">
        <ele>227</ele>
        <time>2015-03-22T10:04:30.1Z</time>
      </trkpt>
      <trkpt lat="48.41406" lon="-3.58873">
        <ele>227</ele>
        <time>2015-03-22T10:04:32.1Z</time>
      </trkpt>
      <trkpt lat="48.41408" lon="-3.5887">
        <ele>227</ele>
        <time>2015-03-22T10:04:35.1Z</time>
      </trkpt>
      <trkpt lat="48.4141" lon="-3.58869">
        <ele>228</ele>
        <time>2015-03-22T10:04:37.1Z</time>
      </trkpt>
      <trkpt lat="48.41411" lon="-3.58867">
        <ele>228</ele>
        <time>2015-03-22T10:04:40.1Z</time>
      </trkpt>
      <trkpt lat="48.41414" lon="-3.58866">
        <ele>228</ele>
        <time>2015-03-22T10:04:42.1Z</time>
      </trkpt>
      <trkpt lat="48.41415" lon="-3.58864">
        <ele>228</ele>
        <time>2015-03-22T10:04:44.1Z</time>
      </trkpt>
      <trkpt lat="48.41418" lon="-3.58862">
        <ele>229</ele>
        <time>2015-03-22T10:04:47.1Z</time>
      </trkpt>
      <trkpt lat="48.4142" lon="-3.58861">
        <ele>229</ele>
        <time>2015-03-22T10:04:50.1Z</time>
      </trkpt>
      <trkpt lat="48.41424" lon="-3.5886">
        <ele>229</ele>
        <time>2015-03-22T10:04:53.1Z</time>
      </trkpt>
      <trkpt lat="48.41426" lon="-3.5886">
        <ele>229</ele>
        <time>2015-03-22T10:04:55.1Z</time>
      </trkpt>
      <trkpt lat="48.4143" lon="-3.5886">
        <ele>229</ele>
        <time>2015-03-22T10:04:58.1Z</time>
      </trkpt>
      <trkpt lat="48.41433" lon="-3.5886">
        <ele>230</ele>
        <time>2015-03-22T10:05:01.1Z</time>
      </trkpt>
      <trkpt lat="48.41436" lon="-3.58861">
        <ele>231</ele>
        <time>2015-03-22T10:05:04.1Z</time>
      </trkpt>
      <trkpt lat="48.41438" lon="-3.58864">
        <ele>231</ele>
        <time>2015-03-22T10:05:07.1Z</time>
      </trkpt>
      <trkpt lat="48.41439" lon="-3.58866">
        <ele>232</ele>
        <time>2015-03-22T10:05:09.1Z</time>
      </trkpt>
      <trkpt lat="48.4144" lon="-3.58869">
        <ele>232</ele>
        <time>2015-03-22T10:05:12.1Z</time>
      </trkpt>
      <trkpt lat="48.41442" lon="-3.58873">
        <ele>232</ele>
        <time>2015-03-22T10:05:14.1Z</time>
      </trkpt>
      <trkpt lat="48.41445" lon="-3.58873">
        <ele>233</ele>
        <time>2015-03-22T10:05:17.1Z</time>
      </trkpt>
      <trkpt lat="48.41447" lon="-3.58874">
        <ele>234</ele>
        <time>2015-03-22T10:05:19.1Z</time>
      </trkpt>
      <trkpt lat="48.4145" lon="-3.58876">
        <ele>234</ele>
        <time>2015-03-22T10:05:22.1Z</time>
      </trkpt>
      <trkpt lat="48.41452" lon="-3.58878">
        <ele>235</ele>
        <time>2015-03-22T10:05:24.1Z</time>
      </trkpt>
      <trkpt lat="48.41455" lon="-3.5888">
        <ele>235</ele>
        <time>2015-03-22T10:05:27.1Z</time>
      </trkpt>
      <trkpt lat="48.41458" lon="-3.58881">
        <ele>236</ele>
        <time>2015-03-22T10:05:30.1Z</time>
      </trkpt>
      <trkpt lat="48.41458" lon="-3.58881">
        <ele>236</ele>
        <time>2015-03-22T10:05:32.1Z</time>
      </trkpt>
      <trkpt lat="48.41458" lon="-3.58881">
        <ele>237</ele>
        <time>2015-03-22T10:05:35.1Z</time>
      </trkpt>
      <trkpt lat="48.41459" lon="-3.5888">
        <ele>237</ele>
        <time>2015-03-22T10:05:37.1Z</time>
      </trkpt>
      <trkpt lat="48.41459" lon="-3.58879">
        <ele>237</ele>
        <time>2015-03-22T10:05:40.1Z</time>
      </trkpt>
      <trkpt lat="48.4146" lon="-3.58878">
        <ele>237</ele>
        <time>2015-03-22T10:05:43.1Z</time>
      </trkpt>
      <trkpt lat="48.41459" lon="-3.58877">
        <ele>237</ele>
        <time>2015-03-22T10:05:46.1Z</time>
      </trkpt>
      <trkpt lat="48.41458" lon="-3.58876">
        <ele>237</ele>
        <time>2015-03-22T10:05:49.1Z</time>
      </trkpt>
      <trkpt lat="48.41458" lon="-3.58876">
        <ele>237</ele>
        <time>2015-03-22T10:05:52.1Z</time>
      </trkpt>
      <trkpt lat="48.41458" lon="-3.58875">
        <ele>237</ele>
        <time>2015-03-22T10:05:55.1Z</time>
      </trkpt>
      <trkpt lat="48.41457" lon="-3.58875">
        <ele>237</ele>
        <time>2015-03-22T10:05:57.1Z</time>
      </trkpt>
      <trkpt lat="48.41459" lon="-3.58875">
        <ele>237</ele>
        <time>2015-03-22T10:05:59.1Z</time>
      </trkpt>
      <trkpt lat="48.41462" lon="-3.58875">
        <ele>237</ele>
        <time>2015-03-22T10:06:02.1Z</time>
      </trkpt>
      <trkpt lat="48.41466" lon="-3.58875">
        <ele>237</ele>
        <time>2015-03-22T10:06:05.1Z</time>
      </trkpt>
      <trkpt lat="48.41468" lon="-3.58875">
        <ele>237</ele>
        <time>2015-03-22T10:06:08.1Z</time>
      </trkpt>
      <trkpt lat="48.4147" lon="-3.58873">
        <ele>237</ele>
        <time>2015-03-22T10:06:10.1Z</time>
      </trkpt>
      <trkpt lat="48.41472" lon="-3.5887">
        <ele>236</ele>
        <time>2015-03-22T10:06:12.1Z</time>
      </trkpt>
      <trkpt lat="48.41475" lon="-3.58867">
        <ele>236</ele>
        <time>2015-03-22T10:06:15.1Z</time>
      </trkpt>
      <trkpt lat="48.41476" lon="-3.58865">
        <ele>236</ele>
        <time>2015-03-22T10:06:17.1Z</time>
      </trkpt>
      <trkpt lat="48.41478" lon="-3.58861">
        <ele>236</ele>
        <time>2015-03-22T10:06:19.1Z</time>
      </trkpt>
      <trkpt lat="48.41479" lon="-3.58858">
        <ele>236</ele>
        <time>2015-03-22T10:06:21.1Z</time>
      </trkpt>
      <trkpt lat="48.41481" lon="-3.58855">
        <ele>236</ele>
        <time>2015-03-22T10:06:23.1Z</time>
      </trkpt>
      <trkpt lat="48.41483" lon="-3.58854">
        <ele>236</ele>
        <time>2015-03-22T10:06:26.1Z</time>
      </trkpt>
      <trkpt lat="48.41484" lon="-3.58853">
        <ele>235</ele>
        <time>2015-03-22T10:06:28.1Z</time>
      </trkpt>
      <trkpt lat="48.41487" lon="-3.5885">
        <ele>235</ele>
        <time>2015-03-22T10:06:31.1Z</time>
      </trkpt>
      <trkpt lat="48.4149" lon="-3.58852">
        <ele>234</ele>
        <time>2015-03-22T10:06:34.1Z</time>
      </trkpt>
      <trkpt lat="48.41492" lon="-3.58854">
        <ele>234</ele>
        <time>2015-03-22T10:06:36.1Z</time>
      </trkpt>
      <trkpt lat="48.41493" lon="-3.58855">
        <ele>234</ele>
        <time>2015-03-22T10:06:38.1Z</time>
      </trkpt>
      <trkpt lat="48.41496" lon="-3.58858">
        <ele>235</ele>
        <time>2015-03-22T10:06:41.1Z</time>
      </trkpt>
      <trkpt lat="48.41499" lon="-3.58859">
        <ele>235</ele>
        <time>2015-03-22T10:06:43.1Z</time>
      </trkpt>
      <trkpt lat="48.41501" lon="-3.58861">
        <ele>235</ele>
        <time>2015-03-22T10:06:46.1Z</time>
      </trkpt>
      <trkpt lat="48.41503" lon="-3.58862">
        <ele>235</ele>
        <time>2015-03-22T10:06:48.1Z</time>
      </trkpt>
      <trkpt lat="48.41505" lon="-3.58863">
        <ele>235</ele>
        <time>2015-03-22T10:06:50.1Z</time>
      </trkpt>
      <trkpt lat="48.41508" lon="-3.58863">
        <ele>235</ele>
        <time>2015-03-22T10:06:53.1Z</time>
      </trkpt>
      <trkpt lat="48.41512" lon="-3.58864">
        <ele>236</ele>
        <time>2015-03-22T10:06:56.1Z</time>
      </trkpt>
      <trkpt lat="48.41517" lon="-3.58862">
        <ele>236</ele>
        <time>2015-03-22T10:06:59.1Z</time>
      </trkpt>
      <trkpt lat="48.41518" lon="-3.58859">
        <ele>236</ele>
        <time>2015-03-22T10:07:01.1Z</time>
      </trkpt>
      <trkpt lat="48.4152" lon="-3.58858">
        <ele>236</ele>
        <time>2015-03-22T10:07:04.1Z</time>
      </trkpt>
      <trkpt lat="48.4152" lon="-3.58857">
        <ele>236</ele>
        <time>2015-03-22T10:07:06.1Z</time>
      </trkpt>
      <trkpt lat="48.41522" lon="-3.58854">
        <ele>235</ele>
        <time>2015-03-22T10:07:09.1Z</time>
      </trkpt>
      <trkpt lat="48.41523" lon="-3.58855">
        <ele>235</ele>
        <time>2015-03-22T10:07:12.1Z</time>
      </trkpt>
      <trkpt lat="48.41524" lon="-3.58856">
        <ele>235</ele>
        <time>2015-03-22T10:07:15.1Z</time>
      </trkpt>
      <trkpt lat="48.41526" lon="-3.58855">
        <ele>236</ele>
        <time>2015-03-22T10:07:18.1Z</time>
      </trkpt>
      <trkpt lat="48.41526" lon="-3.58855">
        <ele>236</ele>
        <time>2015-03-22T10:07:20.1Z</time>
      </trkpt>
      <trkpt lat="48.41526" lon="-3.58855">
        <ele>236</ele>
        <time>2015-03-22T10:07:23.1Z</time>
      </trkpt>
      <trkpt lat="48.41529" lon="-3.58854">
        <ele>235</ele>
        <time>2015-03-22T10:07:26.1Z</time>
      </trkpt>
      <trkpt lat="48.41533" lon="-3.58855">
        <ele>235</ele>
        <time>2015-03-22T10:07:29.1Z</time>
      </trkpt>
      <trkpt lat="48.41534" lon="-3.58855">
        <ele>235</ele>
        <time>2015-03-22T10:07:31.1Z</time>
      </trkpt>
      <trkpt lat="48.41536" lon="-3.58856">
        <ele>235</ele>
        <time>2015-03-22T10:07:34.1Z</time>
      </trkpt>
      <trkpt lat="48.41539" lon="-3.58858">
        <ele>235</ele>
        <time>2015-03-22T10:07:36.1Z</time>
      </trkpt>
      <trkpt lat="48.41541" lon="-3.58859">
        <ele>235</ele>
        <time>2015-03-22T10:07:38.1Z</time>
      </trkpt>
      <trkpt lat="48.41543" lon="-3.58861">
        <ele>236</ele>
        <time>2015-03-22T10:07:41.1Z</time>
      </trkpt>
      <trkpt lat="48.41546" lon="-3.58863">
        <ele>236</ele>
        <time>2015-03-22T10:07:44.1Z</time>
      </trkpt>
      <trkpt lat="48.41548" lon="-3.58864">
        <ele>237</ele>
        <time>2015-03-22T10:07:47.1Z</time>
      </trkpt>
      <trkpt lat="48.41551" lon="-3.58865">
        <ele>237</ele>
        <time>2015-03-22T10:07:49.1Z</time>
      </trkpt>
      <trkpt lat="48.41554" lon="-3.58868">
        <ele>237</ele>
        <time>2015-03-22T10:07:52.1Z</time>
      </trkpt>
      <trkpt lat="48.41555" lon="-3.5887">
        <ele>236</ele>
        <time>2015-03-22T10:07:54.1Z</time>
      </trkpt>
      <trkpt lat="48.41556" lon="-3.58873">
        <ele>236</ele>
        <time>2015-03-22T10:07:56.1Z</time>
      </trkpt>
      <trkpt lat="48.41558" lon="-3.58875">
        <ele>236</ele>
        <time>2015-03-22T10:07:59.1Z</time>
      </trkpt>
      <trkpt lat="48.4156" lon="-3.58878">
        <ele>236</ele>
        <time>2015-03-22T10:08:02.1Z</time>
      </trkpt>
      <trkpt lat="48.41563" lon="-3.58878">
        <ele>236</ele>
        <time>2015-03-22T10:08:05.1Z</time>
      </trkpt>
      <trkpt lat="48.41565" lon="-3.58878">
        <ele>236</ele>
        <time>2015-03-22T10:08:07.1Z</time>
      </trkpt>
      <trkpt lat="48.41567" lon="-3.58878">
        <ele>236</ele>
        <time>2015-03-22T10:08:10.1Z</time>
      </trkpt>
      <trkpt lat="48.4157" lon="-3.58876">
        <ele>236</ele>
        <time>2015-03-22T10:08:13.1Z</time>
      </trkpt>
      <trkpt lat="48.41572" lon="-3.58876">
        <ele>236</ele>
        <time>2015-03-22T10:08:15.1Z</time>
      </trkpt>
      <trkpt lat="48.41576" lon="-3.58875">
        <ele>236</ele>
        <time>2015-03-22T10:08:18.1Z</time>
      </trkpt>
      <trkpt lat="48.41577" lon="-3.58873">
        <ele>236</ele>
        <time>2015-03-22T10:08:20.1Z</time>
      </trkpt>
      <trkpt lat="48.4158" lon="-3.58872">
        <ele>236</ele>
        <time>2015-03-22T10:08:23.1Z</time>
      </trkpt>
      <trkpt lat="48.41582" lon="-3.58872">
        <ele>236</ele>
        <time>2015-03-22T10:08:26.1Z</time>
      </trkpt>
      <trkpt lat="48.41583" lon="-3.58871">
        <ele>237</ele>
        <time>2015-03-22T10:08:28.1Z</time>
      </trkpt>
      <trkpt lat="48.41586" lon="-3.58868">
        <ele>237</ele>
        <time>2015-03-22T10:08:31.1Z</time>
      </trkpt>
      <trkpt lat="48.41588" lon="-3.58865">
        <ele>237</ele>
        <time>2015-03-22T10:08:34.1Z</time>
      </trkpt>
      <trkpt lat="48.4159" lon="-3.58862">
        <ele>237</ele>
        <time>2015-03-22T10:08:36.1Z</time>
      </trkpt>
      <trkpt lat="48.41592" lon="-3.58859">
        <ele>237</ele>
        <time>2015-03-22T10:08:39.1Z</time>
      </trkpt>
      <trkpt lat="48.41595" lon="-3.58858">
        <ele>237</ele>
        <time>2015-03-22T10:08:41.1Z</time>
      </trkpt>
      <trkpt lat="48.41596" lon="-3.58857">
        <ele>237</ele>
        <time>2015-03-22T10:08:43.1Z</time>
      </trkpt>
      <trkpt lat="48.41599" lon="-3.58855">
        <ele>237</ele>
        <time>2015-03-22T10:08:46.1Z</time>
      </trkpt>
      <trkpt lat="48.41601" lon="-3.58855">
        <ele>237</ele>
        <time>2015-03-22T10:08:48.1Z</time>
      </trkpt>
      <trkpt lat="48.41603" lon="-3.58854">
        <ele>237</ele>
        <time>2015-03-22T10:08:51.1Z</time>
      </trkpt>
      <trkpt lat="48.41603" lon="-3.58854">
        <ele>237</ele>
        <time>2015-03-22T10:08:54.1Z</time>
      </trkpt>
      <trkpt lat="48.41604" lon="-3.58853">
        <ele>237</ele>
        <time>2015-03-22T10:08:56.1Z</time>
      </trkpt>
      <trkpt lat="48.41605" lon="-3.58852">
        <ele>237</ele>
        <time>2015-03-22T10:08:59.1Z</time>
      </trkpt>
      <trkpt lat="48.41605" lon="-3.58852">
        <ele>237</ele>
        <time>2015-03-22T10:09:03.1Z</time>
      </trkpt>
      <trkpt lat="48.41606" lon="-3.58853">
        <ele>237</ele>
        <time>2015-03-22T10:09:06.1Z</time>
      </trkpt>
      <trkpt lat="48.41607" lon="-3.58852">
        <ele>237</ele>
        <time>2015-03-22T10:09:08.1Z</time>
      </trkpt>
      <trkpt lat="48.41607" lon="-3.58852">
        <ele>237</ele>
        <time>2015-03-22T10:09:10.1Z</time>
      </trkpt>
      <trkpt lat="48.41609" lon="-3.58852">
        <ele>237</ele>
        <time>2015-03-22T10:09:13.1Z</time>
      </trkpt>
      <trkpt lat="48.41611" lon="-3.58851">
        <ele>237</ele>
        <time>2015-03-22T10:09:15.1Z</time>
      </trkpt>
      <trkpt lat="48.41614" lon="-3.5885">
        <ele>236</ele>
        <time>2015-03-22T10:09:17.1Z</time>
      </trkpt>
      <trkpt lat="48.41618" lon="-3.58848">
        <ele>236</ele>
        <time>2015-03-22T10:09:20.1Z</time>
      </trkpt>
      <trkpt lat="48.41621" lon="-3.58847">
        <ele>236</ele>
        <time>2015-03-22T10:09:23.1Z</time>
      </trkpt>
      <trkpt lat="48.41624" lon="-3.58845">
        <ele>237</ele>
        <time>2015-03-22T10:09:26.1Z</time>
      </trkpt>
      <trkpt lat="48.41628" lon="-3.58842">
        <ele>237</ele>
        <time>2015-03-22T10:09:29.1Z</time>
      </trkpt>
      <trkpt lat="48.4163" lon="-3.5884">
        <ele>237</ele>
        <time>2015-03-22T10:09:31.1Z</time>
      </trkpt>
      <trkpt lat="48.41633" lon="-3.58839">
        <ele>237</ele>
        <time>2015-03-22T10:09:34.1Z</time>
      </trkpt>
      <trkpt lat="48.41636" lon="-3.58837">
        <ele>238</ele>
        <time>2015-03-22T10:09:37.1Z</time>
      </trkpt>
      <trkpt lat="48.41638" lon="-3.58834">
        <ele>238</ele>
        <time>2015-03-22T10:09:40.1Z</time>
      </trkpt>
      <trkpt lat="48.41639" lon="-3.58832">
        <ele>238</ele>
        <time>2015-03-22T10:09:42.1Z</time>
      </trkpt>
      <trkpt lat="48.41642" lon="-3.58829">
        <ele>238</ele>
        <time>2015-03-22T10:09:45.1Z</time>
      </trkpt>
      <trkpt lat="48.41644" lon="-3.58827">
        <ele>238</ele>
        <time>2015-03-22T10:09:48.1Z</time>
      </trkpt>
      <trkpt lat="48.41646" lon="-3.58826">
        <ele>237</ele>
        <time>2015-03-22T10:09:51.1Z</time>
      </trkpt>
      <trkpt lat="48.41648" lon="-3.58825">
        <ele>237</ele>
        <time>2015-03-22T10:09:54.1Z</time>
      </trkpt>
      <trkpt lat="48.41649" lon="-3.58824">
        <ele>238</ele>
        <time>2015-03-22T10:09:57.1Z</time>
      </trkpt>
      <trkpt lat="48.4165" lon="-3.58822">
        <ele>238</ele>
        <time>2015-03-22T10:10:00.1Z</time>
      </trkpt>
      <trkpt lat="48.41651" lon="-3.5882">
        <ele>239</ele>
        <time>2015-03-22T10:10:03.1Z</time>
      </trkpt>
      <trkpt lat="48.41652" lon="-3.58818">
        <ele>239</ele>
        <time>2015-03-22T10:10:05.1Z</time>
      </trkpt>
      <trkpt lat="48.41652" lon="-3.58818">
        <ele>238</ele>
        <time>2015-03-22T10:10:08.1Z</time>
      </trkpt>
      <trkpt lat="48.41653" lon="-3.58818">
        <ele>238</ele>
        <time>2015-03-22T10:10:10.1Z</time>
      </trkpt>
      <trkpt lat="48.41654" lon="-3.58818">
        <ele>238</ele>
        <time>2015-03-22T10:10:12.1Z</time>
      </trkpt>
      <trkpt lat="48.41653" lon="-3.58819">
        <ele>238</ele>
        <time>2015-03-22T10:10:15.1Z</time>
      </trkpt>
      <trkpt lat="48.41651" lon="-3.5882">
        <ele>238</ele>
        <time>2015-03-22T10:10:18.1Z</time>
      </trkpt>
      <trkpt lat="48.41651" lon="-3.58819">
        <ele>238</ele>
        <time>2015-03-22T10:10:20.1Z</time>
      </trkpt>
      <trkpt lat="48.41651" lon="-3.58818">
        <ele>237</ele>
        <time>2015-03-22T10:10:23.1Z</time>
      </trkpt>
      <trkpt lat="48.4165" lon="-3.58817">
        <ele>238</ele>
        <time>2015-03-22T10:10:26.1Z</time>
      </trkpt>
      <trkpt lat="48.4165" lon="-3.58815">
        <ele>238</ele>
        <time>2015-03-22T10:10:29.1Z</time>
      </trkpt>
      <trkpt lat="48.4165" lon="-3.58815">
        <ele>238</ele>
        <time>2015-03-22T10:10:31.1Z</time>
      </trkpt>
      <trkpt lat="48.41649" lon="-3.58814">
        <ele>237</ele>
        <time>2015-03-22T10:10:34.1Z</time>
      </trkpt>
      <trkpt lat="48.4165" lon="-3.58813">
        <ele>237</ele>
        <time>2015-03-22T10:10:36.1Z</time>
      </trkpt>
      <trkpt lat="48.41651" lon="-3.58813">
        <ele>237</ele>
        <time>2015-03-22T10:10:39.1Z</time>
      </trkpt>
      <trkpt lat="48.41652" lon="-3.58813">
        <ele>238</ele>
        <time>2015-03-22T10:10:41.1Z</time>
      </trkpt>
      <trkpt lat="48.41652" lon="-3.58813">
        <ele>238</ele>
        <time>2015-03-22T10:10:44.1Z</time>
      </trkpt>
      <trkpt lat="48.41652" lon="-3.58812">
        <ele>238</ele>
        <time>2015-03-22T10:10:47.1Z</time>
      </trkpt>
      <trkpt lat="48.41653" lon="-3.58812">
        <ele>239</ele>
        <time>2015-03-22T10:10:49.1Z</time>
      </trkpt>
      <trkpt lat="48.41654" lon="-3.5881">
        <ele>238</ele>
        <time>2015-03-22T10:10:51.1Z</time>
      </trkpt>
      <trkpt lat="48.41656" lon="-3.58808">
        <ele>238</ele>
        <time>2015-03-22T10:10:54.1Z</time>
      </trkpt>
      <trkpt lat="48.41658" lon="-3.58807">
        <ele>238</ele>
        <time>2015-03-22T10:10:56.1Z</time>
      </trkpt>
      <trkpt lat="48.4166" lon="-3.58804">
        <ele>238</ele>
        <time>2015-03-22T10:10:59.1Z</time>
      </trkpt>
      <trkpt lat="48.41662" lon="-3.58803">
        <ele>238</ele>
        <time>2015-03-22T10:11:02.1Z</time>
      </trkpt>
      <trkpt lat="48.41664" lon="-3.58804">
        <ele>239</ele>
        <time>2015-03-22T10:11:05.1Z</time>
      </trkpt>
      <trkpt lat="48.41666" lon="-3.58804">
        <ele>239</ele>
        <time>2015-03-22T10:11:07.1Z</time>
      </trkpt>
      <trkpt lat="48.41667" lon="-3.58804">
        <ele>239</ele>
        <time>2015-03-22T10:11:10.1Z</time>
      </trkpt>
      <trkpt lat="48.41668" lon="-3.58805">
        <ele>239</ele>
        <time>2015-03-22T10:11:12.1Z</time>
      </trkpt>
      <trkpt lat="48.4167" lon="-3.58806">
        <ele>240</ele>
        <time>2015-03-22T10:11:14.1Z</time>
      </trkpt>
      <trkpt lat="48.41671" lon="-3.58807">
        <ele>240</ele>
        <time>2015-03-22T10:11:17.1Z</time>
      </trkpt>
      <trkpt lat="48.41672" lon="-3.58807">
        <ele>240</ele>
        <time>2015-03-22T10:11:20.1Z</time>
      </trkpt>
      <trkpt lat="48.41673" lon="-3.58807">
        <ele>239</ele>
        <time>2015-03-22T10:11:22.1Z</time>
      </trkpt>
      <trkpt lat="48.41674" lon="-3.58807">
        <ele>239</ele>
        <time>2015-03-22T10:11:25.1Z</time>
      </trkpt>
      <trkpt lat="48.41675" lon="-3.58807">
        <ele>239</ele>
        <time>2015-03-22T10:11:27.1Z</time>
      </trkpt>
      <trkpt lat="48.41675" lon="-3.58806">
        <ele>239</ele>
        <time>2015-03-22T10:11:29.1Z</time>
      </trkpt>
      <trkpt lat="48.41675" lon="-3.58805">
        <ele>239</ele>
        <time>2015-03-22T10:11:32.1Z</time>
      </trkpt>
      <trkpt lat="48.41675" lon="-3.58804">
        <ele>239</ele>
        <time>2015-03-22T10:11:34.1Z</time>
      </trkpt>
      <trkpt lat="48.41676" lon="-3.58802">
        <ele>239</ele>
        <time>2015-03-22T10:11:37.1Z</time>
      </trkpt>
      <trkpt lat="48.41676" lon="-3.588">
        <ele>239</ele>
        <time>2015-03-22T10:11:39.1Z</time>
      </trkpt>
      <trkpt lat="48.41677" lon="-3.58798">
        <ele>240</ele>
        <time>2015-03-22T10:11:41.1Z</time>
      </trkpt>
      <trkpt lat="48.41677" lon="-3.58797">
        <ele>240</ele>
        <time>2015-03-22T10:11:43.1Z</time>
      </trkpt>
      <trkpt lat="48.41677" lon="-3.58794">
        <ele>240</ele>
        <time>2015-03-22T10:11:46.1Z</time>
      </trkpt>
      <trkpt lat="48.41679" lon="-3.58792">
        <ele>239</ele>
        <time>2015-03-22T10:11:48.1Z</time>
      </trkpt>
      <trkpt lat="48.4168" lon="-3.5879">
        <ele>239</ele>
        <time>2015-03-22T10:11:50.1Z</time>
      </trkpt>
      <trkpt lat="48.41682" lon="-3.5879">
        <ele>239</ele>
        <time>2015-03-22T10:11:53.1Z</time>
      </trkpt>
      <trkpt lat="48.41684" lon="-3.58792">
        <ele>239</ele>
        <time>2015-03-22T10:11:55.1Z</time>
      </trkpt>
      <trkpt lat="48.41685" lon="-3.58795">
        <ele>239</ele>
        <time>2015-03-22T10:11:58.1Z</time>
      </trkpt>
      <trkpt lat="48.41686" lon="-3.58797">
        <ele>239</ele>
        <time>2015-03-22T10:12:00.1Z</time>
      </trkpt>
      <trkpt lat="48.41687" lon="-3.58801">
        <ele>239</ele>
        <time>2015-03-22T10:12:03.1Z</time>
      </trkpt>
      <trkpt lat="48.41688" lon="-3.58803">
        <ele>239</ele>
        <time>2015-03-22T10:12:05.1Z</time>
      </trkpt>
      <trkpt lat="48.41689" lon="-3.58807">
        <ele>239</ele>
        <time>2015-03-22T10:12:08.1Z</time>
      </trkpt>
      <trkpt lat="48.4169" lon="-3.5881">
        <ele>239</ele>
        <time>2015-03-22T10:12:10.1Z</time>
      </trkpt>
      <trkpt lat="48.41691" lon="-3.58812">
        <ele>239</ele>
        <time>2015-03-22T10:12:13.1Z</time>
      </trkpt>
      <trkpt lat="48.41692" lon="-3.58816">
        <ele>240</ele>
        <time>2015-03-22T10:12:16.1Z</time>
      </trkpt>
      <trkpt lat="48.41693" lon="-3.58819">
        <ele>240</ele>
        <time>2015-03-22T10:12:18.1Z</time>
      </trkpt>
      <trkpt lat="48.41694" lon="-3.58824">
        <ele>239</ele>
        <time>2015-03-22T10:12:21.1Z</time>
      </trkpt>
      <trkpt lat="48.41695" lon="-3.58827">
        <ele>239</ele>
        <time>2015-03-22T10:12:23.1Z</time>
      </trkpt>
      <trkpt lat="48.41695" lon="-3.58829">
        <ele>239</ele>
        <time>2015-03-22T10:12:25.1Z</time>
      </trkpt>
      <trkpt lat="48.41696" lon="-3.58835">
        <ele>239</ele>
        <time>2015-03-22T10:12:28.1Z</time>
      </trkpt>
      <trkpt lat="48.41696" lon="-3.58839">
        <ele>239</ele>
        <time>2015-03-22T10:12:31.1Z</time>
      </trkpt>
      <trkpt lat="48.41697" lon="-3.58842">
        <ele>239</ele>
        <time>2015-03-22T10:12:33.1Z</time>
      </trkpt>
      <trkpt lat="48.41698" lon="-3.58846">
        <ele>239</ele>
        <time>2015-03-22T10:12:36.1Z</time>
      </trkpt>
      <trkpt lat="48.41699" lon="-3.58848">
        <ele>240</ele>
        <time>2015-03-22T10:12:38.1Z</time>
      </trkpt>
      <trkpt lat="48.417" lon="-3.5885">
        <ele>240</ele>
        <time>2015-03-22T10:12:40.1Z</time>
      </trkpt>
      <trkpt lat="48.41703" lon="-3.58853">
        <ele>240</ele>
        <time>2015-03-22T10:12:43.1Z</time>
      </trkpt>
      <trkpt lat="48.41704" lon="-3.58853">
        <ele>240</ele>
        <time>2015-03-22T10:12:45.1Z</time>
      </trkpt>
      <trkpt lat="48.41706" lon="-3.58853">
        <ele>240</ele>
        <time>2015-03-22T10:12:47.1Z</time>
      </trkpt>
      <trkpt lat="48.41708" lon="-3.58851">
        <ele>240</ele>
        <time>2015-03-22T10:12:50.1Z</time>
      </trkpt>
      <trkpt lat="48.4171" lon="-3.5885">
        <ele>240</ele>
        <time>2015-03-22T10:12:52.1Z</time>
      </trkpt>
      <trkpt lat="48.41711" lon="-3.58849">
        <ele>240</ele>
        <time>2015-03-22T10:12:54.1Z</time>
      </trkpt>
      <trkpt lat="48.41714" lon="-3.58846">
        <ele>240</ele>
        <time>2015-03-22T10:12:57.1Z</time>
      </trkpt>
      <trkpt lat="48.41716" lon="-3.58845">
        <ele>240</ele>
        <time>2015-03-22T10:12:59.1Z</time>
      </trkpt>
      <trkpt lat="48.41719" lon="-3.58843">
        <ele>240</ele>
        <time>2015-03-22T10:13:02.1Z</time>
      </trkpt>
      <trkpt lat="48.41723" lon="-3.58841">
        <ele>240</ele>
        <time>2015-03-22T10:13:05.1Z</time>
      </trkpt>
      <trkpt lat="48.41727" lon="-3.58839">
        <ele>240</ele>
        <time>2015-03-22T10:13:08.1Z</time>
      </trkpt>
      <trkpt lat="48.41729" lon="-3.58838">
        <ele>240</ele>
        <time>2015-03-22T10:13:10.1Z</time>
      </trkpt>
      <trkpt lat="48.41732" lon="-3.58836">
        <ele>240</ele>
        <time>2015-03-22T10:13:13.1Z</time>
      </trkpt>
      <trkpt lat="48.41734" lon="-3.58834">
        <ele>241</ele>
        <time>2015-03-22T10:13:15.1Z</time>
      </trkpt>
      <trkpt lat="48.41737" lon="-3.58831">
        <ele>241</ele>
        <time>2015-03-22T10:13:18.1Z</time>
      </trkpt>
      <trkpt lat="48.4174" lon="-3.58829">
        <ele>241</ele>
        <time>2015-03-22T10:13:21.1Z</time>
      </trkpt>
      <trkpt lat="48.41742" lon="-3.58828">
        <ele>241</ele>
        <time>2015-03-22T10:13:24.1Z</time>
      </trkpt>
      <trkpt lat="48.41742" lon="-3.58827">
        <ele>241</ele>
        <time>2015-03-22T10:13:26.1Z</time>
      </trkpt>
      <trkpt lat="48.41743" lon="-3.58826">
        <ele>241</ele>
        <time>2015-03-22T10:13:29.1Z</time>
      </trkpt>
      <trkpt lat="48.41742" lon="-3.58824">
        <ele>240</ele>
        <time>2015-03-22T10:13:32.1Z</time>
      </trkpt>
      <trkpt lat="48.41742" lon="-3.58823">
        <ele>240</ele>
        <time>2015-03-22T10:13:34.1Z</time>
      </trkpt>
      <trkpt lat="48.41744" lon="-3.58823">
        <ele>240</ele>
        <time>2015-03-22T10:13:37.1Z</time>
      </trkpt>
      <trkpt lat="48.41745" lon="-3.58822">
        <ele>240</ele>
        <time>2015-03-22T10:13:39.1Z</time>
      </trkpt>
      <trkpt lat="48.41744" lon="-3.5882">
        <ele>240</ele>
        <time>2015-03-22T10:13:41.1Z</time>
      </trkpt>
      <trkpt lat="48.41744" lon="-3.58819">
        <ele>240</ele>
        <time>2015-03-22T10:13:43.1Z</time>
      </trkpt>
      <trkpt lat="48.41745" lon="-3.58814">
        <ele>241</ele>
        <time>2015-03-22T10:13:46.1Z</time>
      </trkpt>
      <trkpt lat="48.41746" lon="-3.58812">
        <ele>241</ele>
        <time>2015-03-22T10:13:48.1Z</time>
      </trkpt>
      <trkpt lat="48.41747" lon="-3.5881">
        <ele>241</ele>
        <time>2015-03-22T10:13:50.1Z</time>
      </trkpt>
      <trkpt lat="48.41749" lon="-3.58808">
        <ele>241</ele>
        <time>2015-03-22T10:13:53.1Z</time>
      </trkpt>
      <trkpt lat="48.4175" lon="-3.58806">
        <ele>241</ele>
        <time>2015-03-22T10:13:55.1Z</time>
      </trkpt>
      <trkpt lat="48.41752" lon="-3.58804">
        <ele>242</ele>
        <time>2015-03-22T10:13:58.1Z</time>
      </trkpt>
      <trkpt lat="48.41753" lon="-3.58803">
        <ele>242</ele>
        <time>2015-03-22T10:14:00.1Z</time>
      </trkpt>
      <trkpt lat="48.41755" lon="-3.588">
        <ele>242</ele>
        <time>2015-03-22T10:14:02.1Z</time>
      </trkpt>
      <trkpt lat="48.41758" lon="-3.58796">
        <ele>242</ele>
        <time>2015-03-22T10:14:05.1Z</time>
      </trkpt>
      <trkpt lat="48.41759" lon="-3.58794">
        <ele>242</ele>
        <time>2015-03-22T10:14:07.1Z</time>
      </trkpt>
      <trkpt lat="48.41761" lon="-3.58791">
        <ele>242</ele>
        <time>2015-03-22T10:14:10.1Z</time>
      </trkpt>
      <trkpt lat="48.41764" lon="-3.58789">
        <ele>242</ele>
        <time>2015-03-22T10:14:13.1Z</time>
      </trkpt>
      <trkpt lat="48.41766" lon="-3.58787">
        <ele>242</ele>
        <time>2015-03-22T10:14:15.1Z</time>
      </trkpt>
      <trkpt lat="48.41769" lon="-3.58785">
        <ele>242</ele>
        <time>2015-03-22T10:14:18.1Z</time>
      </trkpt>
      <trkpt lat="48.41772" lon="-3.58782">
        <ele>242</ele>
        <time>2015-03-22T10:14:21.1Z</time>
      </trkpt>
      <trkpt lat="48.41774" lon="-3.58779">
        <ele>242</ele>
        <time>2015-03-22T10:14:24.1Z</time>
      </trkpt>
      <trkpt lat="48.41775" lon="-3.58777">
        <ele>242</ele>
        <time>2015-03-22T10:14:26.1Z</time>
      </trkpt>
      <trkpt lat="48.41777" lon="-3.58775">
        <ele>242</ele>
        <time>2015-03-22T10:14:28.1Z</time>
      </trkpt>
      <trkpt lat="48.41778" lon="-3.58772">
        <ele>242</ele>
        <time>2015-03-22T10:14:31.1Z</time>
      </trkpt>
      <trkpt lat="48.41782" lon="-3.5877">
        <ele>241</ele>
        <time>2015-03-22T10:14:34.1Z</time>
      </trkpt>
      <trkpt lat="48.41784" lon="-3.58766">
        <ele>241</ele>
        <time>2015-03-22T10:14:37.1Z</time>
      </trkpt>
      <trkpt lat="48.41785" lon="-3.58762">
        <ele>241</ele>
        <time>2015-03-22T10:14:39.1Z</time>
      </trkpt>
      <trkpt lat="48.41787" lon="-3.58758">
        <ele>242</ele>
        <time>2015-03-22T10:14:41.1Z</time>
      </trkpt>
      <trkpt lat="48.41792" lon="-3.58757">
        <ele>242</ele>
        <time>2015-03-22T10:14:44.1Z</time>
      </trkpt>
      <trkpt lat="48.41795" lon="-3.58754">
        <ele>242</ele>
        <time>2015-03-22T10:14:46.1Z</time>
      </trkpt>
      <trkpt lat="48.41797" lon="-3.58752">
        <ele>242</ele>
        <time>2015-03-22T10:14:48.1Z</time>
      </trkpt>
      <trkpt lat="48.418" lon="-3.58748">
        <ele>241</ele>
        <time>2015-03-22T10:14:51.1Z</time>
      </trkpt>
      <trkpt lat="48.41803" lon="-3.58745">
        <ele>241</ele>
        <time>2015-03-22T10:14:53.1Z</time>
      </trkpt>
      <trkpt lat="48.41805" lon="-3.58741">
        <ele>241</ele>
        <time>2015-03-22T10:14:55.1Z</time>
      </trkpt>
      <trkpt lat="48.41807" lon="-3.58737">
        <ele>241</ele>
        <time>2015-03-22T10:14:58.1Z</time>
      </trkpt>
      <trkpt lat="48.4181" lon="-3.58734">
        <ele>241</ele>
        <time>2015-03-22T10:15:01.1Z</time>
      </trkpt>
      <trkpt lat="48.41812" lon="-3.58729">
        <ele>241</ele>
        <time>2015-03-22T10:15:04.1Z</time>
      </trkpt>
      <trkpt lat="48.41814" lon="-3.58726">
        <ele>241</ele>
        <time>2015-03-22T10:15:07.1Z</time>
      </trkpt>
      <trkpt lat="48.41815" lon="-3.58723">
        <ele>241</ele>
        <time>2015-03-22T10:15:09.1Z</time>
      </trkpt>
      <trkpt lat="48.41816" lon="-3.5872">
        <ele>241</ele>
        <time>2015-03-22T10:15:11.1Z</time>
      </trkpt>
      <trkpt lat="48.41817" lon="-3.58717">
        <ele>241</ele>
        <time>2015-03-22T10:15:13.1Z</time>
      </trkpt>
      <trkpt lat="48.41819" lon="-3.58713">
        <ele>241</ele>
        <time>2015-03-22T10:15:16.1Z</time>
      </trkpt>
      <trkpt lat="48.4182" lon="-3.58711">
        <ele>241</ele>
        <time>2015-03-22T10:15:18.1Z</time>
      </trkpt>
      <trkpt lat="48.41822" lon="-3.58708">
        <ele>241</ele>
        <time>2015-03-22T10:15:21.1Z</time>
      </trkpt>
      <trkpt lat="48.41822" lon="-3.58705">
        <ele>241</ele>
        <time>2015-03-22T10:15:23.1Z</time>
      </trkpt>
      <trkpt lat="48.41823" lon="-3.58701">
        <ele>241</ele>
        <time>2015-03-22T10:15:26.1Z</time>
      </trkpt>
      <trkpt lat="48.41824" lon="-3.58699">
        <ele>241</ele>
        <time>2015-03-22T10:15:28.1Z</time>
      </trkpt>
      <trkpt lat="48.41825" lon="-3.58696">
        <ele>241</ele>
        <time>2015-03-22T10:15:31.1Z</time>
      </trkpt>
      <trkpt lat="48.41826" lon="-3.58694">
        <ele>241</ele>
        <time>2015-03-22T10:15:33.1Z</time>
      </trkpt>
      <trkpt lat="48.41827" lon="-3.58693">
        <ele>241</ele>
        <time>2015-03-22T10:15:36.1Z</time>
      </trkpt>
      <trkpt lat="48.41827" lon="-3.58692">
        <ele>241</ele>
        <time>2015-03-22T10:15:38.1Z</time>
      </trkpt>
      <trkpt lat="48.41828" lon="-3.5869">
        <ele>241</ele>
        <time>2015-03-22T10:15:41.1Z</time>
      </trkpt>
      <trkpt lat="48.41829" lon="-3.58689">
        <ele>241</ele>
        <time>2015-03-22T10:15:43.1Z</time>
      </trkpt>
      <trkpt lat="48.4183" lon="-3.58688">
        <ele>241</ele>
        <time>2015-03-22T10:15:46.1Z</time>
      </trkpt>
      <trkpt lat="48.41832" lon="-3.58687">
        <ele>241</ele>
        <time>2015-03-22T10:15:49.1Z</time>
      </trkpt>
      <trkpt lat="48.41834" lon="-3.58682">
        <ele>240</ele>
        <time>2015-03-22T10:15:52.1Z</time>
      </trkpt>
      <trkpt lat="48.41836" lon="-3.58677">
        <ele>240</ele>
        <time>2015-03-22T10:15:55.1Z</time>
      </trkpt>
      <trkpt lat="48.41838" lon="-3.58674">
        <ele>239</ele>
        <time>2015-03-22T10:15:57.1Z</time>
      </trkpt>
      <trkpt lat="48.41839" lon="-3.58671">
        <ele>239</ele>
        <time>2015-03-22T10:15:59.1Z</time>
      </trkpt>
      <trkpt lat="48.4184" lon="-3.58665">
        <ele>239</ele>
        <time>2015-03-22T10:16:02.1Z</time>
      </trkpt>
      <trkpt lat="48.4184" lon="-3.5866">
        <ele>239</ele>
        <time>2015-03-22T10:16:04.1Z</time>
      </trkpt>
      <trkpt lat="48.4184" lon="-3.58657">
        <ele>239</ele>
        <time>2015-03-22T10:16:06.1Z</time>
      </trkpt>
      <trkpt lat="48.41841" lon="-3.58651">
        <ele>239</ele>
        <time>2015-03-22T10:16:09.1Z</time>
      </trkpt>
      <trkpt lat="48.41842" lon="-3.58647">
        <ele>238</ele>
        <time>2015-03-22T10:16:11.1Z</time>
      </trkpt>
      <trkpt lat="48.41843" lon="-3.58643">
        <ele>238</ele>
        <time>2015-03-22T10:16:13.1Z</time>
      </trkpt>
      <trkpt lat="48.41845" lon="-3.58638">
        <ele>238</ele>
        <time>2015-03-22T10:16:16.1Z</time>
      </trkpt>
      <trkpt lat="48.41848" lon="-3.58634">
        <ele>238</ele>
        <time>2015-03-22T10:16:19.1Z</time>
      </trkpt>
      <trkpt lat="48.41849" lon="-3.58632">
        <ele>237</ele>
        <time>2015-03-22T10:16:21.1Z</time>
      </trkpt>
      <trkpt lat="48.41852" lon="-3.58629">
        <ele>237</ele>
        <time>2015-03-22T10:16:23.1Z</time>
      </trkpt>
      <trkpt lat="48.41854" lon="-3.58625">
        <ele>237</ele>
        <time>2015-03-22T10:16:26.1Z</time>
      </trkpt>
      <trkpt lat="48.41856" lon="-3.58621">
        <ele>237</ele>
        <time>2015-03-22T10:16:29.1Z</time>
      </trkpt>
      <trkpt lat="48.41858" lon="-3.58616">
        <ele>237</ele>
        <time>2015-03-22T10:16:32.1Z</time>
      </trkpt>
      <trkpt lat="48.4186" lon="-3.58613">
        <ele>237</ele>
        <time>2015-03-22T10:16:34.1Z</time>
      </trkpt>
      <trkpt lat="48.41862" lon="-3.58608">
        <ele>236</ele>
        <time>2015-03-22T10:16:37.1Z</time>
      </trkpt>
      <trkpt lat="48.41864" lon="-3.58605">
        <ele>236</ele>
        <time>2015-03-22T10:16:39.1Z</time>
      </trkpt>
      <trkpt lat="48.41867" lon="-3.58602">
        <ele>237</ele>
        <time>2015-03-22T10:16:41.1Z</time>
      </trkpt>
      <trkpt lat="48.41871" lon="-3.58598">
        <ele>237</ele>
        <time>2015-03-22T10:16:44.1Z</time>
      </trkpt>
      <trkpt lat="48.41873" lon="-3.58594">
        <ele>237</ele>
        <time>2015-03-22T10:16:47.1Z</time>
      </trkpt>
      <trkpt lat="48.41875" lon="-3.58592">
        <ele>236</ele>
        <time>2015-03-22T10:16:50.1Z</time>
      </trkpt>
      <trkpt lat="48.41876" lon="-3.5859">
        <ele>236</ele>
        <time>2015-03-22T10:16:52.1Z</time>
      </trkpt>
      <trkpt lat="48.41878" lon="-3.58591">
        <ele>235</ele>
        <time>2015-03-22T10:16:55.1Z</time>
      </trkpt>
      <trkpt lat="48.4188" lon="-3.58594">
        <ele>235</ele>
        <time>2015-03-22T10:16:58.1Z</time>
      </trkpt>
      <trkpt lat="48.41881" lon="-3.58596">
        <ele>235</ele>
        <time>2015-03-22T10:17:00.1Z</time>
      </trkpt>
      <trkpt lat="48.41882" lon="-3.58598">
        <ele>236</ele>
        <time>2015-03-22T10:17:02.1Z</time>
      </trkpt>
      <trkpt lat="48.41885" lon="-3.58601">
        <ele>236</ele>
        <time>2015-03-22T10:17:05.1Z</time>
      </trkpt>
      <trkpt lat="48.41885" lon="-3.58604">
        <ele>235</ele>
        <time>2015-03-22T10:17:07.1Z</time>
      </trkpt>
      <trkpt lat="48.41887" lon="-3.58608">
        <ele>235</ele>
        <time>2015-03-22T10:17:10.1Z</time>
      </trkpt>
      <trkpt lat="48.41888" lon="-3.58609">
        <ele>235</ele>
        <time>2015-03-22T10:17:12.1Z</time>
      </trkpt>
      <trkpt lat="48.41889" lon="-3.58613">
        <ele>235</ele>
        <time>2015-03-22T10:17:15.1Z</time>
      </trkpt>
      <trkpt lat="48.4189" lon="-3.58615">
        <ele>235</ele>
        <time>2015-03-22T10:17:17.1Z</time>
      </trkpt>
      <trkpt lat="48.41892" lon="-3.58618">
        <ele>235</ele>
        <time>2015-03-22T10:17:20.1Z</time>
      </trkpt>
      <trkpt lat="48.41892" lon="-3.5862">
        <ele>235</ele>
        <time>2015-03-22T10:17:22.1Z</time>
      </trkpt>
      <trkpt lat="48.41893" lon="-3.58622">
        <ele>235</ele>
        <time>2015-03-22T10:17:25.1Z</time>
      </trkpt>
      <trkpt lat="48.41893" lon="-3.58623">
        <ele>236</ele>
        <time>2015-03-22T10:17:27.1Z</time>
      </trkpt>
      <trkpt lat="48.41895" lon="-3.58626">
        <ele>236</ele>
        <time>2015-03-22T10:17:30.1Z</time>
      </trkpt>
      <trkpt lat="48.41895" lon="-3.58628">
        <ele>236</ele>
        <time>2015-03-22T10:17:32.1Z</time>
      </trkpt>
      <trkpt lat="48.41897" lon="-3.58631">
        <ele>236</ele>
        <time>2015-03-22T10:17:35.1Z</time>
      </trkpt>
      <trkpt lat="48.41898" lon="-3.58634">
        <ele>236</ele>
        <time>2015-03-22T10:17:38.1Z</time>
      </trkpt>
      <trkpt lat="48.419" lon="-3.58637">
        <ele>235</ele>
        <time>2015-03-22T10:17:41.1Z</time>
      </trkpt>
      <trkpt lat="48.41901" lon="-3.58639">
        <ele>235</ele>
        <time>2015-03-22T10:17:43.1Z</time>
      </trkpt>
      <trkpt lat="48.41902" lon="-3.58643">
        <ele>235</ele>
        <time>2015-03-22T10:17:46.1Z</time>
      </trkpt>
      <trkpt lat="48.41903" lon="-3.58645">
        <ele>235</ele>
        <time>2015-03-22T10:17:48.1Z</time>
      </trkpt>
      <trkpt lat="48.41906" lon="-3.58648">
        <ele>236</ele>
        <time>2015-03-22T10:17:51.1Z</time>
      </trkpt>
      <trkpt lat="48.41909" lon="-3.58649">
        <ele>236</ele>
        <time>2015-03-22T10:17:54.1Z</time>
      </trkpt>
      <trkpt lat="48.41911" lon="-3.58651">
        <ele>235</ele>
        <time>2015-03-22T10:17:56.1Z</time>
      </trkpt>
      <trkpt lat="48.41914" lon="-3.5865">
        <ele>235</ele>
        <time>2015-03-22T10:17:59.1Z</time>
      </trkpt>
      <trkpt lat="48.41915" lon="-3.58649">
        <ele>236</ele>
        <time>2015-03-22T10:18:01.1Z</time>
      </trkpt>
      <trkpt lat="48.41916" lon="-3.58649">
        <ele>236</ele>
        <time>2015-03-22T10:18:04.1Z</time>
      </trkpt>
      <trkpt lat="48.41917" lon="-3.58649">
        <ele>236</ele>
        <time>2015-03-22T10:18:07.1Z</time>
      </trkpt>
      <trkpt lat="48.41918" lon="-3.58649">
        <ele>236</ele>
        <time>2015-03-22T10:18:09.1Z</time>
      </trkpt>
      <trkpt lat="48.41919" lon="-3.58649">
        <ele>236</ele>
        <time>2015-03-22T10:18:12.1Z</time>
      </trkpt>
      <trkpt lat="48.41922" lon="-3.58649">
        <ele>236</ele>
        <time>2015-03-22T10:18:15.1Z</time>
      </trkpt>
      <trkpt lat="48.41924" lon="-3.5865">
        <ele>236</ele>
        <time>2015-03-22T10:18:17.1Z</time>
      </trkpt>
      <trkpt lat="48.41926" lon="-3.5865">
        <ele>236</ele>
        <time>2015-03-22T10:18:19.1Z</time>
      </trkpt>
      <trkpt lat="48.41929" lon="-3.5865">
        <ele>236</ele>
        <time>2015-03-22T10:18:22.1Z</time>
      </trkpt>
      <trkpt lat="48.4193" lon="-3.5865">
        <ele>237</ele>
        <time>2015-03-22T10:18:25.1Z</time>
      </trkpt>
      <trkpt lat="48.41931" lon="-3.58651">
        <ele>237</ele>
        <time>2015-03-22T10:18:28.1Z</time>
      </trkpt>
      <trkpt lat="48.41933" lon="-3.58652">
        <ele>236</ele>
        <time>2015-03-22T10:18:31.1Z</time>
      </trkpt>
      <trkpt lat="48.41936" lon="-3.58652">
        <ele>236</ele>
        <time>2015-03-22T10:18:34.1Z</time>
      </trkpt>
      <trkpt lat="48.41937" lon="-3.58652">
        <ele>236</ele>
        <time>2015-03-22T10:18:36.1Z</time>
      </trkpt>
      <trkpt lat="48.41938" lon="-3.58652">
        <ele>236</ele>
        <time>2015-03-22T10:18:38.1Z</time>
      </trkpt>
      <trkpt lat="48.4194" lon="-3.5865">
        <ele>236</ele>
        <time>2015-03-22T10:18:40.1Z</time>
      </trkpt>
      <trkpt lat="48.41943" lon="-3.5865">
        <ele>236</ele>
        <time>2015-03-22T10:18:43.1Z</time>
      </trkpt>
      <trkpt lat="48.41948" lon="-3.5865">
        <ele>236</ele>
        <time>2015-03-22T10:18:46.1Z</time>
      </trkpt>
      <trkpt lat="48.41951" lon="-3.5865">
        <ele>236</ele>
        <time>2015-03-22T10:18:49.1Z</time>
      </trkpt>
      <trkpt lat="48.41953" lon="-3.5865">
        <ele>236</ele>
        <time>2015-03-22T10:18:51.1Z</time>
      </trkpt>
      <trkpt lat="48.41956" lon="-3.5865">
        <ele>236</ele>
        <time>2015-03-22T10:18:54.1Z</time>
      </trkpt>
      <trkpt lat="48.41959" lon="-3.58651">
        <ele>236</ele>
        <time>2015-03-22T10:18:57.1Z</time>
      </trkpt>
      <trkpt lat="48.41961" lon="-3.58652">
        <ele>236</ele>
        <time>2015-03-22T10:19:00.1Z</time>
      </trkpt>
      <trkpt lat="48.41962" lon="-3.58652">
        <ele>236</ele>
        <time>2015-03-22T10:19:02.1Z</time>
      </trkpt>
      <trkpt lat="48.41964" lon="-3.58654">
        <ele>236</ele>
        <time>2015-03-22T10:19:05.1Z</time>
      </trkpt>
      <trkpt lat="48.41967" lon="-3.58656">
        <ele>236</ele>
        <time>2015-03-22T10:19:08.1Z</time>
      </trkpt>
      <trkpt lat="48.41968" lon="-3.58658">
        <ele>236</ele>
        <time>2015-03-22T10:19:10.1Z</time>
      </trkpt>
      <trkpt lat="48.4197" lon="-3.58659">
        <ele>236</ele>
        <time>2015-03-22T10:19:12.1Z</time>
      </trkpt>
      <trkpt lat="48.41972" lon="-3.58661">
        <ele>236</ele>
        <time>2015-03-22T10:19:15.1Z</time>
      </trkpt>
      <trkpt lat="48.41974" lon="-3.58662">
        <ele>237</ele>
        <time>2015-03-22T10:19:17.1Z</time>
      </trkpt>
      <trkpt lat="48.41976" lon="-3.58665">
        <ele>237</ele>
        <time>2015-03-22T10:19:20.1Z</time>
      </trkpt>
      <trkpt lat="48.41978" lon="-3.58666">
        <ele>237</ele>
        <time>2015-03-22T10:19:22.1Z</time>
      </trkpt>
      <trkpt lat="48.4198" lon="-3.58668">
        <ele>237</ele>
        <time>2015-03-22T10:19:24.1Z</time>
      </trkpt>
      <trkpt lat="48.41982" lon="-3.5867">
        <ele>237</ele>
        <time>2015-03-22T10:19:27.1Z</time>
      </trkpt>
      <trkpt lat="48.41984" lon="-3.58671">
        <ele>237</ele>
        <time>2015-03-22T10:19:29.1Z</time>
      </trkpt>
      <trkpt lat="48.41987" lon="-3.58673">
        <ele>238</ele>
        <time>2015-03-22T10:19:32.1Z</time>
      </trkpt>
      <trkpt lat="48.41989" lon="-3.58675">
        <ele>238</ele>
        <time>2015-03-22T10:19:34.1Z</time>
      </trkpt>
      <trkpt lat="48.41991" lon="-3.58676">
        <ele>238</ele>
        <time>2015-03-22T10:19:36.1Z</time>
      </trkpt>
      <trkpt lat="48.41993" lon="-3.58677">
        <ele>238</ele>
        <time>2015-03-22T10:19:38.1Z</time>
      </trkpt>
      <trkpt lat="48.41996" lon="-3.58679">
        <ele>237</ele>
        <time>2015-03-22T10:19:41.1Z</time>
      </trkpt>
      <trkpt lat="48.42" lon="-3.5868">
        <ele>237</ele>
        <time>2015-03-22T10:19:44.1Z</time>
      </trkpt>
      <trkpt lat="48.42002" lon="-3.58681">
        <ele>237</ele>
        <time>2015-03-22T10:19:46.1Z</time>
      </trkpt>
      <trkpt lat="48.42005" lon="-3.58683">
        <ele>237</ele>
        <time>2015-03-22T10:19:49.1Z</time>
      </trkpt>
      <trkpt lat="48.42007" lon="-3.58684">
        <ele>237</ele>
        <time>2015-03-22T10:19:51.1Z</time>
      </trkpt>
      <trkpt lat="48.42009" lon="-3.58685">
        <ele>237</ele>
        <time>2015-03-22T10:19:53.1Z</time>
      </trkpt>
      <trkpt lat="48.42013" lon="-3.58687">
        <ele>238</ele>
        <time>2015-03-22T10:19:56.1Z</time>
      </trkpt>
      <trkpt lat="48.42016" lon="-3.58689">
        <ele>237</ele>
        <time>2015-03-22T10:19:59.1Z</time>
      </trkpt>
      <trkpt lat="48.42018" lon="-3.5869">
        <ele>237</ele>
        <time>2015-03-22T10:20:01.1Z</time>
      </trkpt>
      <trkpt lat="48.4202" lon="-3.58692">
        <ele>237</ele>
        <time>2015-03-22T10:20:04.1Z</time>
      </trkpt>
      <trkpt lat="48.42022" lon="-3.58693">
        <ele>238</ele>
        <time>2015-03-22T10:20:06.1Z</time>
      </trkpt>
      <trkpt lat="48.42024" lon="-3.58695">
        <ele>237</ele>
        <time>2015-03-22T10:20:09.1Z</time>
      </trkpt>
      <trkpt lat="48.42027" lon="-3.58697">
        <ele>237</ele>
        <time>2015-03-22T10:20:12.1Z</time>
      </trkpt>
      <trkpt lat="48.42028" lon="-3.58698">
        <ele>237</ele>
        <time>2015-03-22T10:20:14.1Z</time>
      </trkpt>
      <trkpt lat="48.42029" lon="-3.58701">
        <ele>236</ele>
        <time>2015-03-22T10:20:17.1Z</time>
      </trkpt>
      <trkpt lat="48.4203" lon="-3.58702">
        <ele>237</ele>
        <time>2015-03-22T10:20:20.1Z</time>
      </trkpt>
      <trkpt lat="48.42032" lon="-3.58703">
        <ele>237</ele>
        <time>2015-03-22T10:20:22.1Z</time>
      </trkpt>
      <trkpt lat="48.42034" lon="-3.58704">
        <ele>237</ele>
        <time>2015-03-22T10:20:25.1Z</time>
      </trkpt>
      <trkpt lat="48.42036" lon="-3.58704">
        <ele>237</ele>
        <time>2015-03-22T10:20:27.1Z</time>
      </trkpt>
      <trkpt lat="48.42038" lon="-3.58704">
        <ele>237</ele>
        <time>2015-03-22T10:20:29.1Z</time>
      </trkpt>
      <trkpt lat="48.42041" lon="-3.58704">
        <ele>237</ele>
        <time>2015-03-22T10:20:32.1Z</time>
      </trkpt>
      <trkpt lat="48.42044" lon="-3.58703">
        <ele>237</ele>
        <time>2015-03-22T10:20:34.1Z</time>
      </trkpt>
      <trkpt lat="48.42046" lon="-3.58702">
        <ele>237</ele>
        <time>2015-03-22T10:20:36.1Z</time>
      </trkpt>
      <trkpt lat="48.42048" lon="-3.587">
        <ele>237</ele>
        <time>2015-03-22T10:20:39.1Z</time>
      </trkpt>
      <trkpt lat="48.42049" lon="-3.58699">
        <ele>237</ele>
        <time>2015-03-22T10:20:41.1Z</time>
      </trkpt>
      <trkpt lat="48.42051" lon="-3.58696">
        <ele>236</ele>
        <time>2015-03-22T10:20:44.1Z</time>
      </trkpt>
      <trkpt lat="48.42053" lon="-3.58694">
        <ele>237</ele>
        <time>2015-03-22T10:20:46.1Z</time>
      </trkpt>
      <trkpt lat="48.42056" lon="-3.58691">
        <ele>237</ele>
        <time>2015-03-22T10:20:49.1Z</time>
      </trkpt>
      <trkpt lat="48.42059" lon="-3.58689">
        <ele>237</ele>
        <time>2015-03-22T10:20:51.1Z</time>
      </trkpt>
      <trkpt lat="48.42061" lon="-3.58686">
        <ele>237</ele>
        <time>2015-03-22T10:20:53.1Z</time>
      </trkpt>
      <trkpt lat="48.42064" lon="-3.58683">
        <ele>237</ele>
        <time>2015-03-22T10:20:56.1Z</time>
      </trkpt>
      <trkpt lat="48.42066" lon="-3.58682">
        <ele>236</ele>
        <time>2015-03-22T10:20:58.1Z</time>
      </trkpt>
      <trkpt lat="48.42068" lon="-3.58681">
        <ele>236</ele>
        <time>2015-03-22T10:21:00.1Z</time>
      </trkpt>
      <trkpt lat="48.4207" lon="-3.58679">
        <ele>236</ele>
        <time>2015-03-22T10:21:03.1Z</time>
      </trkpt>
      <trkpt lat="48.42073" lon="-3.58678">
        <ele>236</ele>
        <time>2015-03-22T10:21:06.1Z</time>
      </trkpt>
      <trkpt lat="48.42076" lon="-3.58678">
        <ele>236</ele>
        <time>2015-03-22T10:21:08.1Z</time>
      </trkpt>
      <trkpt lat="48.42079" lon="-3.58677">
        <ele>236</ele>
        <time>2015-03-22T10:21:11.1Z</time>
      </trkpt>
      <trkpt lat="48.42082" lon="-3.58676">
        <ele>236</ele>
        <time>2015-03-22T10:21:14.1Z</time>
      </trkpt>
      <trkpt lat="48.42084" lon="-3.58675">
        <ele>236</ele>
        <time>2015-03-22T10:21:16.1Z</time>
      </trkpt>
      <trkpt lat="48.42087" lon="-3.58673">
        <ele>237</ele>
        <time>2015-03-22T10:21:19.1Z</time>
      </trkpt>
      <trkpt lat="48.42089" lon="-3.58672">
        <ele>237</ele>
        <time>2015-03-22T10:21:21.1Z</time>
      </trkpt>
      <trkpt lat="48.42091" lon="-3.5867">
        <ele>237</ele>
        <time>2015-03-22T10:21:24.1Z</time>
      </trkpt>
      <trkpt lat="48.42094" lon="-3.58669">
        <ele>237</ele>
        <time>2015-03-22T10:21:27.1Z</time>
      </trkpt>
      <trkpt lat="48.42096" lon="-3.58668">
        <ele>237</ele>
        <time>2015-03-22T10:21:29.1Z</time>
      </trkpt>
      <trkpt lat="48.42097" lon="-3.58667">
        <ele>237</ele>
        <time>2015-03-22T10:21:31.1Z</time>
      </trkpt>
      <trkpt lat="48.42099" lon="-3.58667">
        <ele>236</ele>
        <time>2015-03-22T10:21:34.1Z</time>
      </trkpt>
      <trkpt lat="48.42102" lon="-3.58668">
        <ele>236</ele>
        <time>2015-03-22T10:21:37.1Z</time>
      </trkpt>
      <trkpt lat="48.42104" lon="-3.58669">
        <ele>236</ele>
        <time>2015-03-22T10:21:39.1Z</time>
      </trkpt>
      <trkpt lat="48.42105" lon="-3.58671">
        <ele>236</ele>
        <time>2015-03-22T10:21:41.1Z</time>
      </trkpt>
      <trkpt lat="48.42106" lon="-3.58673">
        <ele>236</ele>
        <time>2015-03-22T10:21:43.1Z</time>
      </trkpt>
      <trkpt lat="48.42107" lon="-3.58675">
        <ele>236</ele>
        <time>2015-03-22T10:21:45.1Z</time>
      </trkpt>
      <trkpt lat="48.42108" lon="-3.58678">
        <ele>236</ele>
        <time>2015-03-22T10:21:48.1Z</time>
      </trkpt>
      <trkpt lat="48.42108" lon="-3.5868">
        <ele>237</ele>
        <time>2015-03-22T10:21:50.1Z</time>
      </trkpt>
      <trkpt lat="48.42109" lon="-3.58683">
        <ele>237</ele>
        <time>2015-03-22T10:21:52.1Z</time>
      </trkpt>
      <trkpt lat="48.4211" lon="-3.58687">
        <ele>237</ele>
        <time>2015-03-22T10:21:55.1Z</time>
      </trkpt>
      <trkpt lat="48.4211" lon="-3.5869">
        <ele>237</ele>
        <time>2015-03-22T10:21:57.1Z</time>
      </trkpt>
      <trkpt lat="48.4211" lon="-3.58695">
        <ele>237</ele>
        <time>2015-03-22T10:22:00.1Z</time>
      </trkpt>
      <trkpt lat="48.4211" lon="-3.58698">
        <ele>237</ele>
        <time>2015-03-22T10:22:02.1Z</time>
      </trkpt>
      <trkpt lat="48.4211" lon="-3.58703">
        <ele>237</ele>
        <time>2015-03-22T10:22:05.1Z</time>
      </trkpt>
      <trkpt lat="48.4211" lon="-3.58706">
        <ele>237</ele>
        <time>2015-03-22T10:22:07.1Z</time>
      </trkpt>
      <trkpt lat="48.4211" lon="-3.58711">
        <ele>237</ele>
        <time>2015-03-22T10:22:10.1Z</time>
      </trkpt>
      <trkpt lat="48.4211" lon="-3.58716">
        <ele>237</ele>
        <time>2015-03-22T10:22:13.1Z</time>
      </trkpt>
      <trkpt lat="48.42109" lon="-3.5872">
        <ele>237</ele>
        <time>2015-03-22T10:22:16.1Z</time>
      </trkpt>
      <trkpt lat="48.42108" lon="-3.58724">
        <ele>237</ele>
        <time>2015-03-22T10:22:18.1Z</time>
      </trkpt>
      <trkpt lat="48.42107" lon="-3.58727">
        <ele>237</ele>
        <time>2015-03-22T10:22:20.1Z</time>
      </trkpt>
      <trkpt lat="48.42106" lon="-3.58732">
        <ele>237</ele>
        <time>2015-03-22T10:22:23.1Z</time>
      </trkpt>
      <trkpt lat="48.42104" lon="-3.58736">
        <ele>238</ele>
        <time>2015-03-22T10:22:26.1Z</time>
      </trkpt>
      <trkpt lat="48.42104" lon="-3.58739">
        <ele>238</ele>
        <time>2015-03-22T10:22:28.1Z</time>
      </trkpt>
      <trkpt lat="48.42102" lon="-3.58743">
        <ele>238</ele>
        <time>2015-03-22T10:22:31.1Z</time>
      </trkpt>
      <trkpt lat="48.42101" lon="-3.58746">
        <ele>238</ele>
        <time>2015-03-22T10:22:34.1Z</time>
      </trkpt>
      <trkpt lat="48.42099" lon="-3.58748">
        <ele>239</ele>
        <time>2015-03-22T10:22:36.1Z</time>
      </trkpt>
      <trkpt lat="48.42099" lon="-3.58752">
        <ele>239</ele>
        <time>2015-03-22T10:22:39.1Z</time>
      </trkpt>
      <trkpt lat="48.42098" lon="-3.58755">
        <ele>239</ele>
        <time>2015-03-22T10:22:42.1Z</time>
      </trkpt>
      <trkpt lat="48.42098" lon="-3.58759">
        <ele>239</ele>
        <time>2015-03-22T10:22:45.1Z</time>
      </trkpt>
      <trkpt lat="48.42098" lon="-3.58763">
        <ele>239</ele>
        <time>2015-03-22T10:22:48.1Z</time>
      </trkpt>
      <trkpt lat="48.42098" lon="-3.58765">
        <ele>240</ele>
        <time>2015-03-22T10:22:50.1Z</time>
      </trkpt>
      <trkpt lat="48.42097" lon="-3.5877">
        <ele>240</ele>
        <time>2015-03-22T10:22:53.1Z</time>
      </trkpt>
      <trkpt lat="48.42096" lon="-3.58773">
        <ele>239</ele>
        <time>2015-03-22T10:22:55.1Z</time>
      </trkpt>
      <trkpt lat="48.42096" lon="-3.58777">
        <ele>239</ele>
        <time>2015-03-22T10:22:57.1Z</time>
      </trkpt>
      <trkpt lat="48.42095" lon="-3.58781">
        <ele>239</ele>
        <time>2015-03-22T10:22:59.1Z</time>
      </trkpt>
      <trkpt lat="48.42093" lon="-3.58785">
        <ele>239</ele>
        <time>2015-03-22T10:23:02.1Z</time>
      </trkpt>
      <trkpt lat="48.42092" lon="-3.58788">
        <ele>239</ele>
        <time>2015-03-22T10:23:04.1Z</time>
      </trkpt>
      <trkpt lat="48.4209" lon="-3.58791">
        <ele>240</ele>
        <time>2015-03-22T10:23:07.1Z</time>
      </trkpt>
      <trkpt lat="48.42089" lon="-3.58794">
        <ele>240</ele>
        <time>2015-03-22T10:23:09.1Z</time>
      </trkpt>
      <trkpt lat="48.42088" lon="-3.58799">
        <ele>241</ele>
        <time>2015-03-22T10:23:12.1Z</time>
      </trkpt>
      <trkpt lat="48.42086" lon="-3.58802">
        <ele>241</ele>
        <time>2015-03-22T10:23:15.1Z</time>
      </trkpt>
      <trkpt lat="48.42086" lon="-3.58804">
        <ele>241</ele>
        <time>2015-03-22T10:23:17.1Z</time>
      </trkpt>
      <trkpt lat="48.42086" lon="-3.58804">
        <ele>241</ele>
        <time>2015-03-22T10:23:20.1Z</time>
      </trkpt>
      <trkpt lat="48.42085" lon="-3.58805">
        <ele>241</ele>
        <time>2015-03-22T10:23:22.1Z</time>
      </trkpt>
      <trkpt lat="48.42085" lon="-3.58806">
        <ele>241</ele>
        <time>2015-03-22T10:23:25.1Z</time>
      </trkpt>
      <trkpt lat="48.42085" lon="-3.58807">
        <ele>241</ele>
        <time>2015-03-22T10:23:27.1Z</time>
      </trkpt>
      <trkpt lat="48.42084" lon="-3.58808">
        <ele>241</ele>
        <time>2015-03-22T10:23:30.1Z</time>
      </trkpt>
      <trkpt lat="48.42085" lon="-3.58808">
        <ele>241</ele>
        <time>2015-03-22T10:23:32.1Z</time>
      </trkpt>
      <trkpt lat="48.42085" lon="-3.5881">
        <ele>241</ele>
        <time>2015-03-22T10:23:35.1Z</time>
      </trkpt>
      <trkpt lat="48.42084" lon="-3.58811">
        <ele>241</ele>
        <time>2015-03-22T10:23:37.1Z</time>
      </trkpt>
      <trkpt lat="48.42083" lon="-3.58812">
        <ele>241</ele>
        <time>2015-03-22T10:23:39.1Z</time>
      </trkpt>
      <trkpt lat="48.42081" lon="-3.58814">
        <ele>241</ele>
        <time>2015-03-22T10:23:42.1Z</time>
      </trkpt>
      <trkpt lat="48.42081" lon="-3.58816">
        <ele>241</ele>
        <time>2015-03-22T10:23:44.1Z</time>
      </trkpt>
      <trkpt lat="48.4208" lon="-3.58817">
        <ele>241</ele>
        <time>2015-03-22T10:23:47.1Z</time>
      </trkpt>
      <trkpt lat="48.42079" lon="-3.58818">
        <ele>241</ele>
        <time>2015-03-22T10:23:50.1Z</time>
      </trkpt>
      <trkpt lat="48.42077" lon="-3.58818">
        <ele>241</ele>
        <time>2015-03-22T10:23:52.1Z</time>
      </trkpt>
      <trkpt lat="48.42075" lon="-3.5882">
        <ele>241</ele>
        <time>2015-03-22T10:23:55.1Z</time>
      </trkpt>
      <trkpt lat="48.42074" lon="-3.58821">
        <ele>241</ele>
        <time>2015-03-22T10:23:58.1Z</time>
      </trkpt>
      <trkpt lat="48.42073" lon="-3.5882">
        <ele>241</ele>
        <time>2015-03-22T10:24:00.1Z</time>
      </trkpt>
      <trkpt lat="48.4207" lon="-3.58822">
        <ele>241</ele>
        <time>2015-03-22T10:24:03.1Z</time>
      </trkpt>
      <trkpt lat="48.4207" lon="-3.58822">
        <ele>242</ele>
        <time>2015-03-22T10:24:05.1Z</time>
      </trkpt>
      <trkpt lat="48.42067" lon="-3.58824">
        <ele>242</ele>
        <time>2015-03-22T10:24:08.1Z</time>
      </trkpt>
      <trkpt lat="48.42066" lon="-3.58826">
        <ele>242</ele>
        <time>2015-03-22T10:24:10.1Z</time>
      </trkpt>
      <trkpt lat="48.42063" lon="-3.58829">
        <ele>241</ele>
        <time>2015-03-22T10:24:13.1Z</time>
      </trkpt>
      <trkpt lat="48.4206" lon="-3.58832">
        <ele>241</ele>
        <time>2015-03-22T10:24:16.1Z</time>
      </trkpt>
      <trkpt lat="48.42057" lon="-3.58834">
        <ele>242</ele>
        <time>2015-03-22T10:24:19.1Z</time>
      </trkpt>
      <trkpt lat="48.42055" lon="-3.58836">
        <ele>242</ele>
        <time>2015-03-22T10:24:21.1Z</time>
      </trkpt>
      <trkpt lat="48.42052" lon="-3.58839">
        <ele>242</ele>
        <time>2015-03-22T10:24:24.1Z</time>
      </trkpt>
      <trkpt lat="48.42049" lon="-3.58841">
        <ele>242</ele>
        <time>2015-03-22T10:24:27.1Z</time>
      </trkpt>
      <trkpt lat="48.42046" lon="-3.58841">
        <ele>242</ele>
        <time>2015-03-22T10:24:29.1Z</time>
      </trkpt>
      <trkpt lat="48.42044" lon="-3.58841">
        <ele>242</ele>
        <time>2015-03-22T10:24:31.1Z</time>
      </trkpt>
      <trkpt lat="48.42041" lon="-3.58842">
        <ele>242</ele>
        <time>2015-03-22T10:24:34.1Z</time>
      </trkpt>
      <trkpt lat="48.42037" lon="-3.58845">
        <ele>243</ele>
        <time>2015-03-22T10:24:37.1Z</time>
      </trkpt>
      <trkpt lat="48.42034" lon="-3.58848">
        <ele>243</ele>
        <time>2015-03-22T10:24:40.1Z</time>
      </trkpt>
      <trkpt lat="48.4203" lon="-3.58852">
        <ele>243</ele>
        <time>2015-03-22T10:24:43.1Z</time>
      </trkpt>
      <trkpt lat="48.42028" lon="-3.58854">
        <ele>243</ele>
        <time>2015-03-22T10:24:45.1Z</time>
      </trkpt>
      <trkpt lat="48.42026" lon="-3.58857">
        <ele>243</ele>
        <time>2015-03-22T10:24:47.1Z</time>
      </trkpt>
      <trkpt lat="48.42023" lon="-3.5886">
        <ele>243</ele>
        <time>2015-03-22T10:24:50.1Z</time>
      </trkpt>
      <trkpt lat="48.4202" lon="-3.58863">
        <ele>243</ele>
        <time>2015-03-22T10:24:53.1Z</time>
      </trkpt>
      <trkpt lat="48.42018" lon="-3.58868">
        <ele>243</ele>
        <time>2015-03-22T10:24:56.1Z</time>
      </trkpt>
      <trkpt lat="48.42015" lon="-3.58872">
        <ele>244</ele>
        <time>2015-03-22T10:24:59.1Z</time>
      </trkpt>
      <trkpt lat="48.42013" lon="-3.58874">
        <ele>244</ele>
        <time>2015-03-22T10:25:02.1Z</time>
      </trkpt>
      <trkpt lat="48.42011" lon="-3.58875">
        <ele>244</ele>
        <time>2015-03-22T10:25:04.1Z</time>
      </trkpt>
      <trkpt lat="48.42009" lon="-3.58877">
        <ele>244</ele>
        <time>2015-03-22T10:25:07.1Z</time>
      </trkpt>
      <trkpt lat="48.42008" lon="-3.58881">
        <ele>244</ele>
        <time>2015-03-22T10:25:09.1Z</time>
      </trkpt>
      <trkpt lat="48.42007" lon="-3.58885">
        <ele>244</ele>
        <time>2015-03-22T10:25:11.1Z</time>
      </trkpt>
      <trkpt lat="48.42008" lon="-3.5889">
        <ele>245</ele>
        <time>2015-03-22T10:25:14.1Z</time>
      </trkpt>
      <trkpt lat="48.42009" lon="-3.58897">
        <ele>245</ele>
        <time>2015-03-22T10:25:17.1Z</time>
      </trkpt>
      <trkpt lat="48.42009" lon="-3.58903">
        <ele>245</ele>
        <time>2015-03-22T10:25:20.1Z</time>
      </trkpt>
      <trkpt lat="48.4201" lon="-3.58906">
        <ele>245</ele>
        <time>2015-03-22T10:25:22.1Z</time>
      </trkpt>
      <trkpt lat="48.42012" lon="-3.58909">
        <ele>245</ele>
        <time>2015-03-22T10:25:24.1Z</time>
      </trkpt>
      <trkpt lat="48.42014" lon="-3.5891">
        <ele>245</ele>
        <time>2015-03-22T10:25:27.1Z</time>
      </trkpt>
      <trkpt lat="48.42016" lon="-3.58909">
        <ele>245</ele>
        <time>2015-03-22T10:25:29.1Z</time>
      </trkpt>
      <trkpt lat="48.42016" lon="-3.5891">
        <ele>245</ele>
        <time>2015-03-22T10:25:32.1Z</time>
      </trkpt>
      <trkpt lat="48.42016" lon="-3.5891">
        <ele>246</ele>
        <time>2015-03-22T10:25:34.1Z</time>
      </trkpt>
      <trkpt lat="48.42017" lon="-3.58911">
        <ele>246</ele>
        <time>2015-03-22T10:25:37.1Z</time>
      </trkpt>
      <trkpt lat="48.42019" lon="-3.5891">
        <ele>245</ele>
        <time>2015-03-22T10:25:39.1Z</time>
      </trkpt>
      <trkpt lat="48.42022" lon="-3.58908">
        <ele>245</ele>
        <time>2015-03-22T10:25:42.1Z</time>
      </trkpt>
      <trkpt lat="48.42025" lon="-3.58906">
        <ele>245</ele>
        <time>2015-03-22T10:25:45.1Z</time>
      </trkpt>
      <trkpt lat="48.42028" lon="-3.58904">
        <ele>245</ele>
        <time>2015-03-22T10:25:47.1Z</time>
      </trkpt>
      <trkpt lat="48.42032" lon="-3.58903">
        <ele>245</ele>
        <time>2015-03-22T10:25:50.1Z</time>
      </trkpt>
      <trkpt lat="48.42034" lon="-3.58901">
        <ele>245</ele>
        <time>2015-03-22T10:25:52.1Z</time>
      </trkpt>
      <trkpt lat="48.42036" lon="-3.58899">
        <ele>245</ele>
        <time>2015-03-22T10:25:55.1Z</time>
      </trkpt>
      <trkpt lat="48.42038" lon="-3.58898">
        <ele>245</ele>
        <time>2015-03-22T10:25:57.1Z</time>
      </trkpt>
      <trkpt lat="48.42041" lon="-3.58896">
        <ele>245</ele>
        <time>2015-03-22T10:26:00.1Z</time>
      </trkpt>
      <trkpt lat="48.42044" lon="-3.58894">
        <ele>245</ele>
        <time>2015-03-22T10:26:03.1Z</time>
      </trkpt>
      <trkpt lat="48.42046" lon="-3.58893">
        <ele>244</ele>
        <time>2015-03-22T10:26:05.1Z</time>
      </trkpt>
      <trkpt lat="48.4205" lon="-3.58891">
        <ele>244</ele>
        <time>2015-03-22T10:26:08.1Z</time>
      </trkpt>
      <trkpt lat="48.42053" lon="-3.58889">
        <ele>244</ele>
        <time>2015-03-22T10:26:11.1Z</time>
      </trkpt>
      <trkpt lat="48.42057" lon="-3.58887">
        <ele>244</ele>
        <time>2015-03-22T10:26:14.1Z</time>
      </trkpt>
      <trkpt lat="48.4206" lon="-3.58885">
        <ele>244</ele>
        <time>2015-03-22T10:26:17.1Z</time>
      </trkpt>
      <trkpt lat="48.42062" lon="-3.58883">
        <ele>244</ele>
        <time>2015-03-22T10:26:19.1Z</time>
      </trkpt>
      <trkpt lat="48.42065" lon="-3.5888">
        <ele>244</ele>
        <time>2015-03-22T10:26:22.1Z</time>
      </trkpt>
      <trkpt lat="48.42068" lon="-3.58877">
        <ele>244</ele>
        <time>2015-03-22T10:26:25.1Z</time>
      </trkpt>
      <trkpt lat="48.4207" lon="-3.58875">
        <ele>244</ele>
        <time>2015-03-22T10:26:27.1Z</time>
      </trkpt>
      <trkpt lat="48.42073" lon="-3.58873">
        <ele>243</ele>
        <time>2015-03-22T10:26:30.1Z</time>
      </trkpt>
      <trkpt lat="48.42075" lon="-3.58871">
        <ele>243</ele>
        <time>2015-03-22T10:26:33.1Z</time>
      </trkpt>
      <trkpt lat="48.42076" lon="-3.58868">
        <ele>243</ele>
        <time>2015-03-22T10:26:35.1Z</time>
      </trkpt>
      <trkpt lat="48.4208" lon="-3.58866">
        <ele>243</ele>
        <time>2015-03-22T10:26:38.1Z</time>
      </trkpt>
      <trkpt lat="48.42082" lon="-3.58865">
        <ele>243</ele>
        <time>2015-03-22T10:26:40.1Z</time>
      </trkpt>
      <trkpt lat="48.42084" lon="-3.58861">
        <ele>243</ele>
        <time>2015-03-22T10:26:43.1Z</time>
      </trkpt>
      <trkpt lat="48.42086" lon="-3.5886">
        <ele>242</ele>
        <time>2015-03-22T10:26:45.1Z</time>
      </trkpt>
      <trkpt lat="48.42087" lon="-3.58858">
        <ele>242</ele>
        <time>2015-03-22T10:26:47.1Z</time>
      </trkpt>
      <trkpt lat="48.42088" lon="-3.58856">
        <ele>242</ele>
        <time>2015-03-22T10:26:49.1Z</time>
      </trkpt>
      <trkpt lat="48.42091" lon="-3.58853">
        <ele>242</ele>
        <time>2015-03-22T10:26:52.1Z</time>
      </trkpt>
      <trkpt lat="48.42094" lon="-3.5885">
        <ele>242</ele>
        <time>2015-03-22T10:26:55.1Z</time>
      </trkpt>
      <trkpt lat="48.42096" lon="-3.58849">
        <ele>242</ele>
        <time>2015-03-22T10:26:57.1Z</time>
      </trkpt>
      <trkpt lat="48.42098" lon="-3.58848">
        <ele>242</ele>
        <time>2015-03-22T10:27:00.1Z</time>
      </trkpt>
      <trkpt lat="48.42101" lon="-3.58846">
        <ele>241</ele>
        <time>2015-03-22T10:27:03.1Z</time>
      </trkpt>
      <trkpt lat="48.42104" lon="-3.58845">
        <ele>241</ele>
        <time>2015-03-22T10:27:05.1Z</time>
      </trkpt>
      <trkpt lat="48.42105" lon="-3.58844">
        <ele>241</ele>
        <time>2015-03-22T10:27:07.1Z</time>
      </trkpt>
      <trkpt lat="48.42109" lon="-3.58842">
        <ele>241</ele>
        <time>2015-03-22T10:27:10.1Z</time>
      </trkpt>
      <trkpt lat="48.42111" lon="-3.58841">
        <ele>241</ele>
        <time>2015-03-22T10:27:12.1Z</time>
      </trkpt>
      <trkpt lat="48.42113" lon="-3.5884">
        <ele>241</ele>
        <time>2015-03-22T10:27:14.1Z</time>
      </trkpt>
      <trkpt lat="48.42117" lon="-3.58837">
        <ele>241</ele>
        <time>2015-03-22T10:27:17.1Z</time>
      </trkpt>
      <trkpt lat="48.4212" lon="-3.58833">
        <ele>240</ele>
        <time>2015-03-22T10:27:20.1Z</time>
      </trkpt>
      <trkpt lat="48.42123" lon="-3.58831">
        <ele>240</ele>
        <time>2015-03-22T10:27:22.1Z</time>
      </trkpt>
      <trkpt lat="48.42126" lon="-3.58829">
        <ele>240</ele>
        <time>2015-03-22T10:27:25.1Z</time>
      </trkpt>
      <trkpt lat="48.42129" lon="-3.58827">
        <ele>240</ele>
        <time>2015-03-22T10:27:28.1Z</time>
      </trkpt>
      <trkpt lat="48.42131" lon="-3.58825">
        <ele>240</ele>
        <time>2015-03-22T10:27:30.1Z</time>
      </trkpt>
      <trkpt lat="48.42135" lon="-3.58822">
        <ele>240</ele>
        <time>2015-03-22T10:27:33.1Z</time>
      </trkpt>
      <trkpt lat="48.42137" lon="-3.5882">
        <ele>240</ele>
        <time>2015-03-22T10:27:35.1Z</time>
      </trkpt>
      <trkpt lat="48.4214" lon="-3.58815">
        <ele>240</ele>
        <time>2015-03-22T10:27:38.1Z</time>
      </trkpt>
      <trkpt lat="48.42143" lon="-3.5881">
        <ele>240</ele>
        <time>2015-03-22T10:27:41.1Z</time>
      </trkpt>
      <trkpt lat="48.42147" lon="-3.58805">
        <ele>239</ele>
        <time>2015-03-22T10:27:44.1Z</time>
      </trkpt>
      <trkpt lat="48.42149" lon="-3.58804">
        <ele>239</ele>
        <time>2015-03-22T10:27:46.1Z</time>
      </trkpt>
      <trkpt lat="48.42152" lon="-3.588">
        <ele>239</ele>
        <time>2015-03-22T10:27:49.1Z</time>
      </trkpt>
      <trkpt lat="48.42155" lon="-3.58795">
        <ele>239</ele>
        <time>2015-03-22T10:27:52.1Z</time>
      </trkpt>
      <trkpt lat="48.4216" lon="-3.5879">
        <ele>239</ele>
        <time>2015-03-22T10:27:55.1Z</time>
      </trkpt>
      <trkpt lat="48.42162" lon="-3.5879">
        <ele>239</ele>
        <time>2015-03-22T10:27:57.1Z</time>
      </trkpt>
      <trkpt lat="48.42163" lon="-3.58788">
        <ele>239</ele>
        <time>2015-03-22T10:28:00.1Z</time>
      </trkpt>
      <trkpt lat="48.42164" lon="-3.58788">
        <ele>239</ele>
        <time>2015-03-22T10:28:02.1Z</time>
      </trkpt>
      <trkpt lat="48.42165" lon="-3.58788">
        <ele>239</ele>
        <time>2015-03-22T10:28:05.1Z</time>
      </trkpt>
      <trkpt lat="48.42165" lon="-3.58788">
        <ele>239</ele>
        <time>2015-03-22T10:28:08.1Z</time>
      </trkpt>
      <trkpt lat="48.42166" lon="-3.58786">
        <ele>239</ele>
        <time>2015-03-22T10:28:11.1Z</time>
      </trkpt>
      <trkpt lat="48.42168" lon="-3.58784">
        <ele>239</ele>
        <time>2015-03-22T10:28:13.1Z</time>
      </trkpt>
      <trkpt lat="48.4217" lon="-3.58783">
        <ele>239</ele>
        <time>2015-03-22T10:28:15.1Z</time>
      </trkpt>
      <trkpt lat="48.42173" lon="-3.58781">
        <ele>239</ele>
        <time>2015-03-22T10:28:18.1Z</time>
      </trkpt>
      <trkpt lat="48.42176" lon="-3.5878">
        <ele>239</ele>
        <time>2015-03-22T10:28:21.1Z</time>
      </trkpt>
      <trkpt lat="48.4218" lon="-3.58777">
        <ele>239</ele>
        <time>2015-03-22T10:28:24.1Z</time>
      </trkpt>
      <trkpt lat="48.42182" lon="-3.58775">
        <ele>239</ele>
        <time>2015-03-22T10:28:27.1Z</time>
      </trkpt>
      <trkpt lat="48.42183" lon="-3.58772">
        <ele>238</ele>
        <time>2015-03-22T10:28:29.1Z</time>
      </trkpt>
      <trkpt lat="48.42184" lon="-3.58771">
        <ele>238</ele>
        <time>2015-03-22T10:28:32.1Z</time>
      </trkpt>
      <trkpt lat="48.42187" lon="-3.58768">
        <ele>239</ele>
        <time>2015-03-22T10:28:35.1Z</time>
      </trkpt>
      <trkpt lat="48.42189" lon="-3.58765">
        <ele>239</ele>
        <time>2015-03-22T10:28:38.1Z</time>
      </trkpt>
      <trkpt lat="48.42192" lon="-3.58762">
        <ele>239</ele>
        <time>2015-03-22T10:28:41.1Z</time>
      </trkpt>
      <trkpt lat="48.42194" lon="-3.58759">
        <ele>238</ele>
        <time>2015-03-22T10:28:44.1Z</time>
      </trkpt>
      <trkpt lat="48.42196" lon="-3.58757">
        <ele>238</ele>
        <time>2015-03-22T10:28:46.1Z</time>
      </trkpt>
      <trkpt lat="48.42199" lon="-3.58756">
        <ele>238</ele>
        <time>2015-03-22T10:28:49.1Z</time>
      </trkpt>
      <trkpt lat="48.42202" lon="-3.58754">
        <ele>238</ele>
        <time>2015-03-22T10:28:52.1Z</time>
      </trkpt>
      <trkpt lat="48.42203" lon="-3.58752">
        <ele>237</ele>
        <time>2015-03-22T10:28:54.1Z</time>
      </trkpt>
      <trkpt lat="48.42206" lon="-3.5875">
        <ele>237</ele>
        <time>2015-03-22T10:28:57.1Z</time>
      </trkpt>
      <trkpt lat="48.42207" lon="-3.58748">
        <ele>237</ele>
        <time>2015-03-22T10:28:59.1Z</time>
      </trkpt>
      <trkpt lat="48.42209" lon="-3.58746">
        <ele>237</ele>
        <time>2015-03-22T10:29:02.1Z</time>
      </trkpt>
      <trkpt lat="48.42211" lon="-3.58745">
        <ele>237</ele>
        <time>2015-03-22T10:29:05.1Z</time>
      </trkpt>
      <trkpt lat="48.42213" lon="-3.58744">
        <ele>237</ele>
        <time>2015-03-22T10:29:07.1Z</time>
      </trkpt>
      <trkpt lat="48.42215" lon="-3.58742">
        <ele>237</ele>
        <time>2015-03-22T10:29:10.1Z</time>
      </trkpt>
      <trkpt lat="48.42219" lon="-3.5874">
        <ele>237</ele>
        <time>2015-03-22T10:29:13.1Z</time>
      </trkpt>
      <trkpt lat="48.42221" lon="-3.58739">
        <ele>238</ele>
        <time>2015-03-22T10:29:16.1Z</time>
      </trkpt>
      <trkpt lat="48.42224" lon="-3.58738">
        <ele>238</ele>
        <time>2015-03-22T10:29:18.1Z</time>
      </trkpt>
      <trkpt lat="48.42228" lon="-3.58735">
        <ele>238</ele>
        <time>2015-03-22T10:29:21.1Z</time>
      </trkpt>
      <trkpt lat="48.42229" lon="-3.58733">
        <ele>238</ele>
        <time>2015-03-22T10:29:23.1Z</time>
      </trkpt>
      <trkpt lat="48.42233" lon="-3.5873">
        <ele>237</ele>
        <time>2015-03-22T10:29:26.1Z</time>
      </trkpt>
      <trkpt lat="48.42235" lon="-3.5873">
        <ele>237</ele>
        <time>2015-03-22T10:29:28.1Z</time>
      </trkpt>
      <trkpt lat="48.42238" lon="-3.58727">
        <ele>237</ele>
        <time>2015-03-22T10:29:31.1Z</time>
      </trkpt>
      <trkpt lat="48.42241" lon="-3.58724">
        <ele>237</ele>
        <time>2015-03-22T10:29:34.1Z</time>
      </trkpt>
      <trkpt lat="48.42244" lon="-3.5872">
        <ele>237</ele>
        <time>2015-03-22T10:29:37.1Z</time>
      </trkpt>
      <trkpt lat="48.42246" lon="-3.58717">
        <ele>237</ele>
        <time>2015-03-22T10:29:39.1Z</time>
      </trkpt>
      <trkpt lat="48.42248" lon="-3.58716">
        <ele>237</ele>
        <time>2015-03-22T10:29:41.1Z</time>
      </trkpt>
      <trkpt lat="48.42251" lon="-3.58712">
        <ele>237</ele>
        <time>2015-03-22T10:29:44.1Z</time>
      </trkpt>
      <trkpt lat="48.42253" lon="-3.5871">
        <ele>237</ele>
        <time>2015-03-22T10:29:46.1Z</time>
      </trkpt>
      <trkpt lat="48.42256" lon="-3.58707">
        <ele>237</ele>
        <time>2015-03-22T10:29:49.1Z</time>
      </trkpt>
      <trkpt lat="48.42258" lon="-3.58704">
        <ele>237</ele>
        <time>2015-03-22T10:29:51.1Z</time>
      </trkpt>
      <trkpt lat="48.4226" lon="-3.58702">
        <ele>237</ele>
        <time>2015-03-22T10:29:53.1Z</time>
      </trkpt>
      <trkpt lat="48.42263" lon="-3.58699">
        <ele>237</ele>
        <time>2015-03-22T10:29:56.1Z</time>
      </trkpt>
      <trkpt lat="48.42265" lon="-3.58697">
        <ele>237</ele>
        <time>2015-03-22T10:29:58.1Z</time>
      </trkpt>
      <trkpt lat="48.42267" lon="-3.58694">
        <ele>237</ele>
        <time>2015-03-22T10:30:00.1Z</time>
      </trkpt>
      <trkpt lat="48.42269" lon="-3.58691">
        <ele>237</ele>
        <time>2015-03-22T10:30:03.1Z</time>
      </trkpt>
      <trkpt lat="48.42272" lon="-3.58687">
        <ele>238</ele>
        <time>2015-03-22T10:30:06.1Z</time>
      </trkpt>
      <trkpt lat="48.42275" lon="-3.58685">
        <ele>238</ele>
        <time>2015-03-22T10:30:09.1Z</time>
      </trkpt>
      <trkpt lat="48.42277" lon="-3.58682">
        <ele>238</ele>
        <time>2015-03-22T10:30:11.1Z</time>
      </trkpt>
      <trkpt lat="48.4228" lon="-3.58678">
        <ele>238</ele>
        <time>2015-03-22T10:30:14.1Z</time>
      </trkpt>
      <trkpt lat="48.42284" lon="-3.58675">
        <ele>238</ele>
        <time>2015-03-22T10:30:17.1Z</time>
      </trkpt>
      <trkpt lat="48.42287" lon="-3.58672">
        <ele>237</ele>
        <time>2015-03-22T10:30:20.1Z</time>
      </trkpt>
      <trkpt lat="48.42289" lon="-3.5867">
        <ele>238</ele>
        <time>2015-03-22T10:30:22.1Z</time>
      </trkpt>
      <trkpt lat="48.42292" lon="-3.58667">
        <ele>238</ele>
        <time>2015-03-22T10:30:25.1Z</time>
      </trkpt>
      <trkpt lat="48.42294" lon="-3.58664">
        <ele>238</ele>
        <time>2015-03-22T10:30:27.1Z</time>
      </trkpt>
      <trkpt lat="48.42297" lon="-3.58662">
        <ele>238</ele>
        <time>2015-03-22T10:30:30.1Z</time>
      </trkpt>
      <trkpt lat="48.423" lon="-3.58659">
        <ele>238</ele>
        <time>2015-03-22T10:30:33.1Z</time>
      </trkpt>
      <trkpt lat="48.42302" lon="-3.58657">
        <ele>239</ele>
        <time>2015-03-22T10:30:35.1Z</time>
      </trkpt>
      <trkpt lat="48.42304" lon="-3.58654">
        <ele>239</ele>
        <time>2015-03-22T10:30:38.1Z</time>
      </trkpt>
      <trkpt lat="48.42306" lon="-3.58652">
        <ele>239</ele>
        <time>2015-03-22T10:30:40.1Z</time>
      </trkpt>
      <trkpt lat="48.42309" lon="-3.5865">
        <ele>239</ele>
        <time>2015-03-22T10:30:43.1Z</time>
      </trkpt>
      <trkpt lat="48.42311" lon="-3.58648">
        <ele>239</ele>
        <time>2015-03-22T10:30:45.1Z</time>
      </trkpt>
      <trkpt lat="48.42313" lon="-3.58646">
        <ele>240</ele>
        <time>2015-03-22T10:30:48.1Z</time>
      </trkpt>
      <trkpt lat="48.42315" lon="-3.58644">
        <ele>240</ele>
        <time>2015-03-22T10:30:50.1Z</time>
      </trkpt>
      <trkpt lat="48.42318" lon="-3.58642">
        <ele>240</ele>
        <time>2015-03-22T10:30:53.1Z</time>
      </trkpt>
      <trkpt lat="48.4232" lon="-3.58641">
        <ele>240</ele>
        <time>2015-03-22T10:30:55.1Z</time>
      </trkpt>
      <trkpt lat="48.42323" lon="-3.58638">
        <ele>241</ele>
        <time>2015-03-22T10:30:58.1Z</time>
      </trkpt>
      <trkpt lat="48.42325" lon="-3.58637">
        <ele>241</ele>
        <time>2015-03-22T10:31:00.1Z</time>
      </trkpt>
      <trkpt lat="48.42327" lon="-3.58635">
        <ele>241</ele>
        <time>2015-03-22T10:31:03.1Z</time>
      </trkpt>
      <trkpt lat="48.42329" lon="-3.58633">
        <ele>242</ele>
        <time>2015-03-22T10:31:05.1Z</time>
      </trkpt>
      <trkpt lat="48.42332" lon="-3.58631">
        <ele>242</ele>
        <time>2015-03-22T10:31:08.1Z</time>
      </trkpt>
      <trkpt lat="48.42334" lon="-3.5863">
        <ele>242</ele>
        <time>2015-03-22T10:31:10.1Z</time>
      </trkpt>
      <trkpt lat="48.42338" lon="-3.58628">
        <ele>243</ele>
        <time>2015-03-22T10:31:13.1Z</time>
      </trkpt>
      <trkpt lat="48.4234" lon="-3.58625">
        <ele>242</ele>
        <time>2015-03-22T10:31:16.1Z</time>
      </trkpt>
      <trkpt lat="48.42343" lon="-3.58622">
        <ele>242</ele>
        <time>2015-03-22T10:31:19.1Z</time>
      </trkpt>
      <trkpt lat="48.42346" lon="-3.58621">
        <ele>242</ele>
        <time>2015-03-22T10:31:21.1Z</time>
      </trkpt>
      <trkpt lat="48.42349" lon="-3.58618">
        <ele>242</ele>
        <time>2015-03-22T10:31:24.1Z</time>
      </trkpt>
      <trkpt lat="48.42353" lon="-3.58615">
        <ele>242</ele>
        <time>2015-03-22T10:31:27.1Z</time>
      </trkpt>
      <trkpt lat="48.42356" lon="-3.58613">
        <ele>242</ele>
        <time>2015-03-22T10:31:30.1Z</time>
      </trkpt>
      <trkpt lat="48.42358" lon="-3.58611">
        <ele>242</ele>
        <time>2015-03-22T10:31:32.1Z</time>
      </trkpt>
      <trkpt lat="48.42361" lon="-3.58608">
        <ele>242</ele>
        <time>2015-03-22T10:31:35.1Z</time>
      </trkpt>
      <trkpt lat="48.42365" lon="-3.58605">
        <ele>242</ele>
        <time>2015-03-22T10:31:38.1Z</time>
      </trkpt>
      <trkpt lat="48.42368" lon="-3.58602">
        <ele>242</ele>
        <time>2015-03-22T10:31:41.1Z</time>
      </trkpt>
      <trkpt lat="48.42372" lon="-3.586">
        <ele>242</ele>
        <time>2015-03-22T10:31:44.1Z</time>
      </trkpt>
      <trkpt lat="48.42374" lon="-3.58598">
        <ele>242</ele>
        <time>2015-03-22T10:31:46.1Z</time>
      </trkpt>
      <trkpt lat="48.42377" lon="-3.58595">
        <ele>242</ele>
        <time>2015-03-22T10:31:49.1Z</time>
      </trkpt>
      <trkpt lat="48.42379" lon="-3.58594">
        <ele>242</ele>
        <time>2015-03-22T10:31:51.1Z</time>
      </trkpt>
      <trkpt lat="48.42382" lon="-3.58591">
        <ele>243</ele>
        <time>2015-03-22T10:31:54.1Z</time>
      </trkpt>
      <trkpt lat="48.42385" lon="-3.58588">
        <ele>243</ele>
        <time>2015-03-22T10:31:57.1Z</time>
      </trkpt>
      <trkpt lat="48.42388" lon="-3.58586">
        <ele>243</ele>
        <time>2015-03-22T10:31:59.1Z</time>
      </trkpt>
      <trkpt lat="48.42391" lon="-3.58583">
        <ele>243</ele>
        <time>2015-03-22T10:32:02.1Z</time>
      </trkpt>
      <trkpt lat="48.42393" lon="-3.58579">
        <ele>242</ele>
        <time>2015-03-22T10:32:05.1Z</time>
      </trkpt>
      <trkpt lat="48.42396" lon="-3.58576">
        <ele>242</ele>
        <time>2015-03-22T10:32:08.1Z</time>
      </trkpt>
      <trkpt lat="48.42398" lon="-3.58574">
        <ele>242</ele>
        <time>2015-03-22T10:32:10.1Z</time>
      </trkpt>
      <trkpt lat="48.424" lon="-3.58572">
        <ele>242</ele>
        <time>2015-03-22T10:32:12.1Z</time>
      </trkpt>
      <trkpt lat="48.42403" lon="-3.58569">
        <ele>242</ele>
        <time>2015-03-22T10:32:15.1Z</time>
      </trkpt>
      <trkpt lat="48.42405" lon="-3.58568">
        <ele>242</ele>
        <time>2015-03-22T10:32:17.1Z</time>
      </trkpt>
      <trkpt lat="48.42406" lon="-3.58566">
        <ele>242</ele>
        <time>2015-03-22T10:32:19.1Z</time>
      </trkpt>
      <trkpt lat="48.42409" lon="-3.58563">
        <ele>242</ele>
        <time>2015-03-22T10:32:22.1Z</time>
      </trkpt>
      <trkpt lat="48.42412" lon="-3.5856">
        <ele>242</ele>
        <time>2015-03-22T10:32:25.1Z</time>
      </trkpt>
      <trkpt lat="48.42416" lon="-3.58558">
        <ele>242</ele>
        <time>2015-03-22T10:32:28.1Z</time>
      </trkpt>
      <trkpt lat="48.42418" lon="-3.58556">
        <ele>242</ele>
        <time>2015-03-22T10:32:30.1Z</time>
      </trkpt>
      <trkpt lat="48.4242" lon="-3.58554">
        <ele>241</ele>
        <time>2015-03-22T10:32:32.1Z</time>
      </trkpt>
      <trkpt lat="48.42423" lon="-3.58552">
        <ele>241</ele>
        <time>2015-03-22T10:32:35.1Z</time>
      </trkpt>
      <trkpt lat="48.42427" lon="-3.58549">
        <ele>241</ele>
        <time>2015-03-22T10:32:38.1Z</time>
      </trkpt>
      <trkpt lat="48.42429" lon="-3.58547">
        <ele>241</ele>
        <time>2015-03-22T10:32:41.1Z</time>
      </trkpt>
      <trkpt lat="48.42432" lon="-3.58544">
        <ele>241</ele>
        <time>2015-03-22T10:32:44.1Z</time>
      </trkpt>
      <trkpt lat="48.42434" lon="-3.58543">
        <ele>241</ele>
        <time>2015-03-22T10:32:46.1Z</time>
      </trkpt>
      <trkpt lat="48.42438" lon="-3.58542">
        <ele>241</ele>
        <time>2015-03-22T10:32:49.1Z</time>
      </trkpt>
      <trkpt lat="48.42441" lon="-3.58538">
        <ele>241</ele>
        <time>2015-03-22T10:32:52.1Z</time>
      </trkpt>
      <trkpt lat="48.42444" lon="-3.58537">
        <ele>241</ele>
        <time>2015-03-22T10:32:55.1Z</time>
      </trkpt>
      <trkpt lat="48.42448" lon="-3.58535">
        <ele>241</ele>
        <time>2015-03-22T10:32:58.1Z</time>
      </trkpt>
      <trkpt lat="48.42451" lon="-3.58533">
        <ele>241</ele>
        <time>2015-03-22T10:33:00.1Z</time>
      </trkpt>
      <trkpt lat="48.42455" lon="-3.58531">
        <ele>241</ele>
        <time>2015-03-22T10:33:03.1Z</time>
      </trkpt>
      <trkpt lat="48.42458" lon="-3.58529">
        <ele>241</ele>
        <time>2015-03-22T10:33:06.1Z</time>
      </trkpt>
      <trkpt lat="48.42462" lon="-3.58526">
        <ele>240</ele>
        <time>2015-03-22T10:33:09.1Z</time>
      </trkpt>
      <trkpt lat="48.42464" lon="-3.58525">
        <ele>240</ele>
        <time>2015-03-22T10:33:11.1Z</time>
      </trkpt>
      <trkpt lat="48.42468" lon="-3.58523">
        <ele>240</ele>
        <time>2015-03-22T10:33:14.1Z</time>
      </trkpt>
      <trkpt lat="48.42471" lon="-3.5852">
        <ele>239</ele>
        <time>2015-03-22T10:33:17.1Z</time>
      </trkpt>
      <trkpt lat="48.42474" lon="-3.58518">
        <ele>239</ele>
        <time>2015-03-22T10:33:20.1Z</time>
      </trkpt>
      <trkpt lat="48.42477" lon="-3.58517">
        <ele>239</ele>
        <time>2015-03-22T10:33:22.1Z</time>
      </trkpt>
      <trkpt lat="48.42479" lon="-3.58515">
        <ele>238</ele>
        <time>2015-03-22T10:33:24.1Z</time>
      </trkpt>
      <trkpt lat="48.42481" lon="-3.58513">
        <ele>239</ele>
        <time>2015-03-22T10:33:27.1Z</time>
      </trkpt>
      <trkpt lat="48.42484" lon="-3.58512">
        <ele>239</ele>
        <time>2015-03-22T10:33:29.1Z</time>
      </trkpt>
      <trkpt lat="48.42486" lon="-3.58511">
        <ele>239</ele>
        <time>2015-03-22T10:33:31.1Z</time>
      </trkpt>
      <trkpt lat="48.42489" lon="-3.58509">
        <ele>239</ele>
        <time>2015-03-22T10:33:34.1Z</time>
      </trkpt>
      <trkpt lat="48.42491" lon="-3.58507">
        <ele>239</ele>
        <time>2015-03-22T10:33:36.1Z</time>
      </trkpt>
      <trkpt lat="48.42495" lon="-3.58504">
        <ele>239</ele>
        <time>2015-03-22T10:33:39.1Z</time>
      </trkpt>
      <trkpt lat="48.42498" lon="-3.58502">
        <ele>238</ele>
        <time>2015-03-22T10:33:41.1Z</time>
      </trkpt>
      <trkpt lat="48.42501" lon="-3.58501">
        <ele>238</ele>
        <time>2015-03-22T10:33:44.1Z</time>
      </trkpt>
      <trkpt lat="48.42504" lon="-3.58498">
        <ele>238</ele>
        <time>2015-03-22T10:33:47.1Z</time>
      </trkpt>
      <trkpt lat="48.42506" lon="-3.58496">
        <ele>238</ele>
        <time>2015-03-22T10:33:49.1Z</time>
      </trkpt>
      <trkpt lat="48.4251" lon="-3.58494">
        <ele>239</ele>
        <time>2015-03-22T10:33:52.1Z</time>
      </trkpt>
      <trkpt lat="48.42512" lon="-3.58492">
        <ele>239</ele>
        <time>2015-03-22T10:33:54.1Z</time>
      </trkpt>
      <trkpt lat="48.42514" lon="-3.5849">
        <ele>238</ele>
        <time>2015-03-22T10:33:56.1Z</time>
      </trkpt>
      <trkpt lat="48.42517" lon="-3.58488">
        <ele>238</ele>
        <time>2015-03-22T10:33:59.1Z</time>
      </trkpt>
      <trkpt lat="48.4252" lon="-3.58486">
        <ele>238</ele>
        <time>2015-03-22T10:34:02.1Z</time>
      </trkpt>
      <trkpt lat="48.42522" lon="-3.58483">
        <ele>239</ele>
        <time>2015-03-22T10:34:04.1Z</time>
      </trkpt>
      <trkpt lat="48.42525" lon="-3.58481">
        <ele>239</ele>
        <time>2015-03-22T10:34:07.1Z</time>
      </trkpt>
      <trkpt lat="48.42528" lon="-3.58479">
        <ele>239</ele>
        <time>2015-03-22T10:34:10.1Z</time>
      </trkpt>
      <trkpt lat="48.42532" lon="-3.58477">
        <ele>239</ele>
        <time>2015-03-22T10:34:13.1Z</time>
      </trkpt>
      <trkpt lat="48.42534" lon="-3.58475">
        <ele>239</ele>
        <time>2015-03-22T10:34:15.1Z</time>
      </trkpt>
      <trkpt lat="48.42537" lon="-3.58471">
        <ele>239</ele>
        <time>2015-03-22T10:34:18.1Z</time>
      </trkpt>
      <trkpt lat="48.4254" lon="-3.58467">
        <ele>239</ele>
        <time>2015-03-22T10:34:21.1Z</time>
      </trkpt>
      <trkpt lat="48.42542" lon="-3.58465">
        <ele>239</ele>
        <time>2015-03-22T10:34:23.1Z</time>
      </trkpt>
      <trkpt lat="48.42543" lon="-3.58463">
        <ele>239</ele>
        <time>2015-03-22T10:34:25.1Z</time>
      </trkpt>
      <trkpt lat="48.42545" lon="-3.5846">
        <ele>239</ele>
        <time>2015-03-22T10:34:27.1Z</time>
      </trkpt>
      <trkpt lat="48.42548" lon="-3.58456">
        <ele>239</ele>
        <time>2015-03-22T10:34:30.1Z</time>
      </trkpt>
      <trkpt lat="48.4255" lon="-3.58454">
        <ele>239</ele>
        <time>2015-03-22T10:34:32.1Z</time>
      </trkpt>
      <trkpt lat="48.42552" lon="-3.58452">
        <ele>239</ele>
        <time>2015-03-22T10:34:34.1Z</time>
      </trkpt>
      <trkpt lat="48.42555" lon="-3.58449">
        <ele>238</ele>
        <time>2015-03-22T10:34:37.1Z</time>
      </trkpt>
      <trkpt lat="48.42557" lon="-3.58445">
        <ele>238</ele>
        <time>2015-03-22T10:34:40.1Z</time>
      </trkpt>
      <trkpt lat="48.42558" lon="-3.58442">
        <ele>238</ele>
        <time>2015-03-22T10:34:42.1Z</time>
      </trkpt>
      <trkpt lat="48.42559" lon="-3.58439">
        <ele>238</ele>
        <time>2015-03-22T10:34:44.1Z</time>
      </trkpt>
      <trkpt lat="48.42562" lon="-3.58436">
        <ele>238</ele>
        <time>2015-03-22T10:34:47.1Z</time>
      </trkpt>
      <trkpt lat="48.42564" lon="-3.58434">
        <ele>238</ele>
        <time>2015-03-22T10:34:49.1Z</time>
      </trkpt>
      <trkpt lat="48.42566" lon="-3.5843">
        <ele>238</ele>
        <time>2015-03-22T10:34:52.1Z</time>
      </trkpt>
      <trkpt lat="48.42568" lon="-3.58425">
        <ele>238</ele>
        <time>2015-03-22T10:34:55.1Z</time>
      </trkpt>
      <trkpt lat="48.42571" lon="-3.58422">
        <ele>238</ele>
        <time>2015-03-22T10:34:58.1Z</time>
      </trkpt>
      <trkpt lat="48.42574" lon="-3.58418">
        <ele>239</ele>
        <time>2015-03-22T10:35:01.1Z</time>
      </trkpt>
      <trkpt lat="48.42576" lon="-3.58416">
        <ele>238</ele>
        <time>2015-03-22T10:35:03.1Z</time>
      </trkpt>
      <trkpt lat="48.42579" lon="-3.58414">
        <ele>238</ele>
        <time>2015-03-22T10:35:06.1Z</time>
      </trkpt>
      <trkpt lat="48.42582" lon="-3.58411">
        <ele>238</ele>
        <time>2015-03-22T10:35:09.1Z</time>
      </trkpt>
      <trkpt lat="48.42585" lon="-3.58408">
        <ele>238</ele>
        <time>2015-03-22T10:35:11.1Z</time>
      </trkpt>
      <trkpt lat="48.42588" lon="-3.58404">
        <ele>238</ele>
        <time>2015-03-22T10:35:14.1Z</time>
      </trkpt>
      <trkpt lat="48.4259" lon="-3.58402">
        <ele>238</ele>
        <time>2015-03-22T10:35:16.1Z</time>
      </trkpt>
      <trkpt lat="48.42592" lon="-3.58399">
        <ele>238</ele>
        <time>2015-03-22T10:35:18.1Z</time>
      </trkpt>
      <trkpt lat="48.42596" lon="-3.58395">
        <ele>238</ele>
        <time>2015-03-22T10:35:21.1Z</time>
      </trkpt>
      <trkpt lat="48.42598" lon="-3.58392">
        <ele>238</ele>
        <time>2015-03-22T10:35:23.1Z</time>
      </trkpt>
      <trkpt lat="48.426" lon="-3.58389">
        <ele>238</ele>
        <time>2015-03-22T10:35:26.1Z</time>
      </trkpt>
      <trkpt lat="48.42602" lon="-3.58385">
        <ele>238</ele>
        <time>2015-03-22T10:35:28.1Z</time>
      </trkpt>
      <trkpt lat="48.42604" lon="-3.58381">
        <ele>238</ele>
        <time>2015-03-22T10:35:31.1Z</time>
      </trkpt>
      <trkpt lat="48.42607" lon="-3.58377">
        <ele>238</ele>
        <time>2015-03-22T10:35:34.1Z</time>
      </trkpt>
      <trkpt lat="48.42609" lon="-3.58374">
        <ele>238</ele>
        <time>2015-03-22T10:35:36.1Z</time>
      </trkpt>
      <trkpt lat="48.4261" lon="-3.5837">
        <ele>238</ele>
        <time>2015-03-22T10:35:38.1Z</time>
      </trkpt>
      <trkpt lat="48.42611" lon="-3.58366">
        <ele>238</ele>
        <time>2015-03-22T10:35:40.1Z</time>
      </trkpt>
      <trkpt lat="48.42612" lon="-3.58363">
        <ele>238</ele>
        <time>2015-03-22T10:35:42.1Z</time>
      </trkpt>
      <trkpt lat="48.42613" lon="-3.5836">
        <ele>238</ele>
        <time>2015-03-22T10:35:44.1Z</time>
      </trkpt>
      <trkpt lat="48.42615" lon="-3.58357">
        <ele>238</ele>
        <time>2015-03-22T10:35:47.1Z</time>
      </trkpt>
      <trkpt lat="48.42616" lon="-3.58354">
        <ele>237</ele>
        <time>2015-03-22T10:35:49.1Z</time>
      </trkpt>
      <trkpt lat="48.42616" lon="-3.58354">
        <ele>237</ele>
        <time>2015-03-22T10:35:52.1Z</time>
      </trkpt>
      <trkpt lat="48.42617" lon="-3.58354">
        <ele>238</ele>
        <time>2015-03-22T10:35:55.1Z</time>
      </trkpt>
      <trkpt lat="48.42617" lon="-3.58354">
        <ele>238</ele>
        <time>2015-03-22T10:35:58.1Z</time>
      </trkpt>
      <trkpt lat="48.42617" lon="-3.58352">
        <ele>238</ele>
        <time>2015-03-22T10:36:01.1Z</time>
      </trkpt>
      <trkpt lat="48.42617" lon="-3.5835">
        <ele>238</ele>
        <time>2015-03-22T10:36:03.1Z</time>
      </trkpt>
      <trkpt lat="48.42618" lon="-3.58345">
        <ele>237</ele>
        <time>2015-03-22T10:36:06.1Z</time>
      </trkpt>
      <trkpt lat="48.42619" lon="-3.58341">
        <ele>237</ele>
        <time>2015-03-22T10:36:08.1Z</time>
      </trkpt>
      <trkpt lat="48.42622" lon="-3.58336">
        <ele>237</ele>
        <time>2015-03-22T10:36:11.1Z</time>
      </trkpt>
      <trkpt lat="48.42623" lon="-3.58333">
        <ele>236</ele>
        <time>2015-03-22T10:36:13.1Z</time>
      </trkpt>
      <trkpt lat="48.42625" lon="-3.58328">
        <ele>236</ele>
        <time>2015-03-22T10:36:16.1Z</time>
      </trkpt>
      <trkpt lat="48.42626" lon="-3.58324">
        <ele>237</ele>
        <time>2015-03-22T10:36:18.1Z</time>
      </trkpt>
      <trkpt lat="48.42627" lon="-3.58318">
        <ele>236</ele>
        <time>2015-03-22T10:36:21.1Z</time>
      </trkpt>
      <trkpt lat="48.42629" lon="-3.58315">
        <ele>237</ele>
        <time>2015-03-22T10:36:23.1Z</time>
      </trkpt>
      <trkpt lat="48.42631" lon="-3.58311">
        <ele>237</ele>
        <time>2015-03-22T10:36:26.1Z</time>
      </trkpt>
      <trkpt lat="48.42633" lon="-3.58308">
        <ele>237</ele>
        <time>2015-03-22T10:36:28.1Z</time>
      </trkpt>
      <trkpt lat="48.42635" lon="-3.58305">
        <ele>237</ele>
        <time>2015-03-22T10:36:30.1Z</time>
      </trkpt>
      <trkpt lat="48.42637" lon="-3.58302">
        <ele>237</ele>
        <time>2015-03-22T10:36:33.1Z</time>
      </trkpt>
      <trkpt lat="48.42641" lon="-3.58301">
        <ele>237</ele>
        <time>2015-03-22T10:36:36.1Z</time>
      </trkpt>
      <trkpt lat="48.42643" lon="-3.58302">
        <ele>237</ele>
        <time>2015-03-22T10:36:38.1Z</time>
      </trkpt>
      <trkpt lat="48.42646" lon="-3.58302">
        <ele>237</ele>
        <time>2015-03-22T10:36:40.1Z</time>
      </trkpt>
      <trkpt lat="48.42649" lon="-3.58303">
        <ele>238</ele>
        <time>2015-03-22T10:36:43.1Z</time>
      </trkpt>
      <trkpt lat="48.42651" lon="-3.58304">
        <ele>238</ele>
        <time>2015-03-22T10:36:45.1Z</time>
      </trkpt>
      <trkpt lat="48.42654" lon="-3.58305">
        <ele>238</ele>
        <time>2015-03-22T10:36:48.1Z</time>
      </trkpt>
      <trkpt lat="48.42657" lon="-3.58306">
        <ele>238</ele>
        <time>2015-03-22T10:36:51.1Z</time>
      </trkpt>
      <trkpt lat="48.42659" lon="-3.58306">
        <ele>238</ele>
        <time>2015-03-22T10:36:53.1Z</time>
      </trkpt>
      <trkpt lat="48.42663" lon="-3.58307">
        <ele>238</ele>
        <time>2015-03-22T10:36:56.1Z</time>
      </trkpt>
      <trkpt lat="48.42666" lon="-3.58309">
        <ele>239</ele>
        <time>2015-03-22T10:36:59.1Z</time>
      </trkpt>
      <trkpt lat="48.42668" lon="-3.5831">
        <ele>239</ele>
        <time>2015-03-22T10:37:01.1Z</time>
      </trkpt>
      <trkpt lat="48.42672" lon="-3.58311">
        <ele>239</ele>
        <time>2015-03-22T10:37:04.1Z</time>
      </trkpt>
      <trkpt lat="48.42673" lon="-3.58312">
        <ele>239</ele>
        <time>2015-03-22T10:37:06.1Z</time>
      </trkpt>
      <trkpt lat="48.42677" lon="-3.58313">
        <ele>240</ele>
        <time>2015-03-22T10:37:09.1Z</time>
      </trkpt>
      <trkpt lat="48.42679" lon="-3.58313">
        <ele>240</ele>
        <time>2015-03-22T10:37:11.1Z</time>
      </trkpt>
      <trkpt lat="48.42682" lon="-3.58314">
        <ele>240</ele>
        <time>2015-03-22T10:37:14.1Z</time>
      </trkpt>
      <trkpt lat="48.42686" lon="-3.58315">
        <ele>240</ele>
        <time>2015-03-22T10:37:17.1Z</time>
      </trkpt>
      <trkpt lat="48.42688" lon="-3.58316">
        <ele>241</ele>
        <time>2015-03-22T10:37:19.1Z</time>
      </trkpt>
      <trkpt lat="48.42692" lon="-3.58317">
        <ele>241</ele>
        <time>2015-03-22T10:37:22.1Z</time>
      </trkpt>
      <trkpt lat="48.42694" lon="-3.58318">
        <ele>240</ele>
        <time>2015-03-22T10:37:24.1Z</time>
      </trkpt>
      <trkpt lat="48.42698" lon="-3.5832">
        <ele>240</ele>
        <time>2015-03-22T10:37:27.1Z</time>
      </trkpt>
      <trkpt lat="48.427" lon="-3.58321">
        <ele>241</ele>
        <time>2015-03-22T10:37:29.1Z</time>
      </trkpt>
      <trkpt lat="48.42704" lon="-3.58322">
        <ele>240</ele>
        <time>2015-03-22T10:37:32.1Z</time>
      </trkpt>
      <trkpt lat="48.42706" lon="-3.58323">
        <ele>241</ele>
        <time>2015-03-22T10:37:34.1Z</time>
      </trkpt>
      <trkpt lat="48.4271" lon="-3.58324">
        <ele>241</ele>
        <time>2015-03-22T10:37:37.1Z</time>
      </trkpt>
      <trkpt lat="48.42714" lon="-3.58325">
        <ele>241</ele>
        <time>2015-03-22T10:37:40.1Z</time>
      </trkpt>
      <trkpt lat="48.42716" lon="-3.58325">
        <ele>241</ele>
        <time>2015-03-22T10:37:42.1Z</time>
      </trkpt>
      <trkpt lat="48.42719" lon="-3.58326">
        <ele>241</ele>
        <time>2015-03-22T10:37:44.1Z</time>
      </trkpt>
      <trkpt lat="48.42723" lon="-3.58326">
        <ele>241</ele>
        <time>2015-03-22T10:37:47.1Z</time>
      </trkpt>
      <trkpt lat="48.42726" lon="-3.58326">
        <ele>241</ele>
        <time>2015-03-22T10:37:50.1Z</time>
      </trkpt>
      <trkpt lat="48.42729" lon="-3.58326">
        <ele>242</ele>
        <time>2015-03-22T10:37:52.1Z</time>
      </trkpt>
      <trkpt lat="48.42732" lon="-3.58326">
        <ele>241</ele>
        <time>2015-03-22T10:37:55.1Z</time>
      </trkpt>
      <trkpt lat="48.42735" lon="-3.58326">
        <ele>242</ele>
        <time>2015-03-22T10:37:58.1Z</time>
      </trkpt>
      <trkpt lat="48.42738" lon="-3.58326">
        <ele>241</ele>
        <time>2015-03-22T10:38:00.1Z</time>
      </trkpt>
      <trkpt lat="48.42741" lon="-3.58325">
        <ele>241</ele>
        <time>2015-03-22T10:38:03.1Z</time>
      </trkpt>
      <trkpt lat="48.42744" lon="-3.58325">
        <ele>241</ele>
        <time>2015-03-22T10:38:05.1Z</time>
      </trkpt>
      <trkpt lat="48.42747" lon="-3.58325">
        <ele>242</ele>
        <time>2015-03-22T10:38:08.1Z</time>
      </trkpt>
      <trkpt lat="48.4275" lon="-3.58324">
        <ele>243</ele>
        <time>2015-03-22T10:38:11.1Z</time>
      </trkpt>
      <trkpt lat="48.42752" lon="-3.58323">
        <ele>243</ele>
        <time>2015-03-22T10:38:13.1Z</time>
      </trkpt>
      <trkpt lat="48.42756" lon="-3.58322">
        <ele>243</ele>
        <time>2015-03-22T10:38:16.1Z</time>
      </trkpt>
      <trkpt lat="48.42758" lon="-3.58322">
        <ele>243</ele>
        <time>2015-03-22T10:38:18.1Z</time>
      </trkpt>
      <trkpt lat="48.42762" lon="-3.58321">
        <ele>243</ele>
        <time>2015-03-22T10:38:21.1Z</time>
      </trkpt>
      <trkpt lat="48.42765" lon="-3.58322">
        <ele>242</ele>
        <time>2015-03-22T10:38:24.1Z</time>
      </trkpt>
      <trkpt lat="48.42768" lon="-3.58321">
        <ele>243</ele>
        <time>2015-03-22T10:38:27.1Z</time>
      </trkpt>
      <trkpt lat="48.42771" lon="-3.58321">
        <ele>242</ele>
        <time>2015-03-22T10:38:30.1Z</time>
      </trkpt>
      <trkpt lat="48.42773" lon="-3.58321">
        <ele>242</ele>
        <time>2015-03-22T10:38:33.1Z</time>
      </trkpt>
      <trkpt lat="48.42773" lon="-3.58321">
        <ele>243</ele>
        <time>2015-03-22T10:38:36.1Z</time>
      </trkpt>
      <trkpt lat="48.42773" lon="-3.58321">
        <ele>243</ele>
        <time>2015-03-22T10:38:39.1Z</time>
      </trkpt>
      <trkpt lat="48.42773" lon="-3.58321">
        <ele>243</ele>
        <time>2015-03-22T10:38:41.1Z</time>
      </trkpt>
      <trkpt lat="48.42774" lon="-3.5832">
        <ele>243</ele>
        <time>2015-03-22T10:38:44.1Z</time>
      </trkpt>
      <trkpt lat="48.42774" lon="-3.5832">
        <ele>243</ele>
        <time>2015-03-22T10:38:47.1Z</time>
      </trkpt>
      <trkpt lat="48.42774" lon="-3.5832">
        <ele>242</ele>
        <time>2015-03-22T10:38:50.1Z</time>
      </trkpt>
      <trkpt lat="48.42775" lon="-3.5832">
        <ele>243</ele>
        <time>2015-03-22T10:38:52.1Z</time>
      </trkpt>
      <trkpt lat="48.42777" lon="-3.58318">
        <ele>243</ele>
        <time>2015-03-22T10:38:55.1Z</time>
      </trkpt>
      <trkpt lat="48.42778" lon="-3.58315">
        <ele>243</ele>
        <time>2015-03-22T10:38:57.1Z</time>
      </trkpt>
      <trkpt lat="48.42779" lon="-3.58315">
        <ele>243</ele>
        <time>2015-03-22T10:39:00.1Z</time>
      </trkpt>
      <trkpt lat="48.42781" lon="-3.58314">
        <ele>243</ele>
        <time>2015-03-22T10:39:02.1Z</time>
      </trkpt>
      <trkpt lat="48.42783" lon="-3.58313">
        <ele>243</ele>
        <time>2015-03-22T10:39:05.1Z</time>
      </trkpt>
      <trkpt lat="48.42786" lon="-3.58313">
        <ele>243</ele>
        <time>2015-03-22T10:39:08.1Z</time>
      </trkpt>
      <trkpt lat="48.42789" lon="-3.5831">
        <ele>243</ele>
        <time>2015-03-22T10:39:11.1Z</time>
      </trkpt>
      <trkpt lat="48.42791" lon="-3.58309">
        <ele>243</ele>
        <time>2015-03-22T10:39:13.1Z</time>
      </trkpt>
      <trkpt lat="48.42793" lon="-3.58308">
        <ele>242</ele>
        <time>2015-03-22T10:39:16.1Z</time>
      </trkpt>
      <trkpt lat="48.42795" lon="-3.58308">
        <ele>242</ele>
        <time>2015-03-22T10:39:18.1Z</time>
      </trkpt>
      <trkpt lat="48.42797" lon="-3.58308">
        <ele>242</ele>
        <time>2015-03-22T10:39:20.1Z</time>
      </trkpt>
      <trkpt lat="48.42799" lon="-3.58308">
        <ele>242</ele>
        <time>2015-03-22T10:39:23.1Z</time>
      </trkpt>
      <trkpt lat="48.428" lon="-3.58308">
        <ele>243</ele>
        <time>2015-03-22T10:39:25.1Z</time>
      </trkpt>
      <trkpt lat="48.42803" lon="-3.58306">
        <ele>243</ele>
        <time>2015-03-22T10:39:28.1Z</time>
      </trkpt>
      <trkpt lat="48.42805" lon="-3.58306">
        <ele>243</ele>
        <time>2015-03-22T10:39:31.1Z</time>
      </trkpt>
      <trkpt lat="48.42806" lon="-3.58306">
        <ele>243</ele>
        <time>2015-03-22T10:39:33.1Z</time>
      </trkpt>
      <trkpt lat="48.42808" lon="-3.58307">
        <ele>243</ele>
        <time>2015-03-22T10:39:36.1Z</time>
      </trkpt>
      <trkpt lat="48.42811" lon="-3.58307">
        <ele>244</ele>
        <time>2015-03-22T10:39:39.1Z</time>
      </trkpt>
      <trkpt lat="48.42812" lon="-3.58306">
        <ele>244</ele>
        <time>2015-03-22T10:39:41.1Z</time>
      </trkpt>
      <trkpt lat="48.42814" lon="-3.58306">
        <ele>243</ele>
        <time>2015-03-22T10:39:44.1Z</time>
      </trkpt>
      <trkpt lat="48.42816" lon="-3.58306">
        <ele>244</ele>
        <time>2015-03-22T10:39:46.1Z</time>
      </trkpt>
      <trkpt lat="48.42819" lon="-3.58307">
        <ele>244</ele>
        <time>2015-03-22T10:39:49.1Z</time>
      </trkpt>
      <trkpt lat="48.42821" lon="-3.58307">
        <ele>244</ele>
        <time>2015-03-22T10:39:52.1Z</time>
      </trkpt>
      <trkpt lat="48.42823" lon="-3.58309">
        <ele>243</ele>
        <time>2015-03-22T10:39:55.1Z</time>
      </trkpt>
      <trkpt lat="48.42826" lon="-3.5831">
        <ele>243</ele>
        <time>2015-03-22T10:39:58.1Z</time>
      </trkpt>
      <trkpt lat="48.42828" lon="-3.58312">
        <ele>243</ele>
        <time>2015-03-22T10:40:00.1Z</time>
      </trkpt>
      <trkpt lat="48.42831" lon="-3.58312">
        <ele>243</ele>
        <time>2015-03-22T10:40:02.1Z</time>
      </trkpt>
      <trkpt lat="48.42834" lon="-3.58313">
        <ele>243</ele>
        <time>2015-03-22T10:40:05.1Z</time>
      </trkpt>
      <trkpt lat="48.42836" lon="-3.58312">
        <ele>244</ele>
        <time>2015-03-22T10:40:08.1Z</time>
      </trkpt>
      <trkpt lat="48.42838" lon="-3.58312">
        <ele>244</ele>
        <time>2015-03-22T10:40:10.1Z</time>
      </trkpt>
      <trkpt lat="48.42839" lon="-3.58313">
        <ele>244</ele>
        <time>2015-03-22T10:40:13.1Z</time>
      </trkpt>
      <trkpt lat="48.42841" lon="-3.58314">
        <ele>244</ele>
        <time>2015-03-22T10:40:15.1Z</time>
      </trkpt>
      <trkpt lat="48.42842" lon="-3.58313">
        <ele>244</ele>
        <time>2015-03-22T10:40:18.1Z</time>
      </trkpt>
      <trkpt lat="48.42844" lon="-3.58313">
        <ele>244</ele>
        <time>2015-03-22T10:40:21.1Z</time>
      </trkpt>
      <trkpt lat="48.42848" lon="-3.58314">
        <ele>244</ele>
        <time>2015-03-22T10:40:24.1Z</time>
      </trkpt>
      <trkpt lat="48.42852" lon="-3.58315">
        <ele>244</ele>
        <time>2015-03-22T10:40:27.1Z</time>
      </trkpt>
      <trkpt lat="48.42854" lon="-3.58316">
        <ele>244</ele>
        <time>2015-03-22T10:40:29.1Z</time>
      </trkpt>
      <trkpt lat="48.42856" lon="-3.58316">
        <ele>244</ele>
        <time>2015-03-22T10:40:31.1Z</time>
      </trkpt>
      <trkpt lat="48.42859" lon="-3.58317">
        <ele>244</ele>
        <time>2015-03-22T10:40:34.1Z</time>
      </trkpt>
      <trkpt lat="48.4286" lon="-3.58317">
        <ele>245</ele>
        <time>2015-03-22T10:40:36.1Z</time>
      </trkpt>
      <trkpt lat="48.42862" lon="-3.58316">
        <ele>245</ele>
        <time>2015-03-22T10:40:39.1Z</time>
      </trkpt>
      <trkpt lat="48.42865" lon="-3.58315">
        <ele>245</ele>
        <time>2015-03-22T10:40:41.1Z</time>
      </trkpt>
      <trkpt lat="48.42869" lon="-3.58314">
        <ele>245</ele>
        <time>2015-03-22T10:40:44.1Z</time>
      </trkpt>
      <trkpt lat="48.42871" lon="-3.58313">
        <ele>245</ele>
        <time>2015-03-22T10:40:46.1Z</time>
      </trkpt>
      <trkpt lat="48.42873" lon="-3.58311">
        <ele>246</ele>
        <time>2015-03-22T10:40:49.1Z</time>
      </trkpt>
      <trkpt lat="48.42874" lon="-3.58311">
        <ele>246</ele>
        <time>2015-03-22T10:40:51.1Z</time>
      </trkpt>
      <trkpt lat="48.42876" lon="-3.58311">
        <ele>246</ele>
        <time>2015-03-22T10:40:54.1Z</time>
      </trkpt>
      <trkpt lat="48.42876" lon="-3.5831">
        <ele>246</ele>
        <time>2015-03-22T10:40:56.1Z</time>
      </trkpt>
      <trkpt lat="48.42877" lon="-3.58309">
        <ele>247</ele>
        <time>2015-03-22T10:40:58.1Z</time>
      </trkpt>
      <trkpt lat="48.42878" lon="-3.58308">
        <ele>246</ele>
        <time>2015-03-22T10:41:00.1Z</time>
      </trkpt>
      <trkpt lat="48.42879" lon="-3.58308">
        <ele>247</ele>
        <time>2015-03-22T10:41:02.1Z</time>
      </trkpt>
      <trkpt lat="48.42879" lon="-3.58306">
        <ele>247</ele>
        <time>2015-03-22T10:41:05.1Z</time>
      </trkpt>
      <trkpt lat="48.4288" lon="-3.58305">
        <ele>247</ele>
        <time>2015-03-22T10:41:08.1Z</time>
      </trkpt>
      <trkpt lat="48.4288" lon="-3.58304">
        <ele>247</ele>
        <time>2015-03-22T10:41:11.1Z</time>
      </trkpt>
      <trkpt lat="48.4288" lon="-3.58304">
        <ele>246</ele>
        <time>2015-03-22T10:41:13.1Z</time>
      </trkpt>
      <trkpt lat="48.42881" lon="-3.58302">
        <ele>246</ele>
        <time>2015-03-22T10:41:16.1Z</time>
      </trkpt>
      <trkpt lat="48.42881" lon="-3.58301">
        <ele>246</ele>
        <time>2015-03-22T10:41:18.1Z</time>
      </trkpt>
      <trkpt lat="48.42881" lon="-3.58299">
        <ele>247</ele>
        <time>2015-03-22T10:41:20.1Z</time>
      </trkpt>
      <trkpt lat="48.42883" lon="-3.58298">
        <ele>247</ele>
        <time>2015-03-22T10:41:23.1Z</time>
      </trkpt>
      <trkpt lat="48.42885" lon="-3.58297">
        <ele>247</ele>
        <time>2015-03-22T10:41:26.1Z</time>
      </trkpt>
      <trkpt lat="48.42887" lon="-3.58295">
        <ele>248</ele>
        <time>2015-03-22T10:41:29.1Z</time>
      </trkpt>
      <trkpt lat="48.42889" lon="-3.58293">
        <ele>248</ele>
        <time>2015-03-22T10:41:32.1Z</time>
      </trkpt>
      <trkpt lat="48.42891" lon="-3.58291">
        <ele>249</ele>
        <time>2015-03-22T10:41:35.1Z</time>
      </trkpt>
      <trkpt lat="48.42892" lon="-3.5829">
        <ele>249</ele>
        <time>2015-03-22T10:41:37.1Z</time>
      </trkpt>
      <trkpt lat="48.42894" lon="-3.58289">
        <ele>249</ele>
        <time>2015-03-22T10:41:39.1Z</time>
      </trkpt>
      <trkpt lat="48.42897" lon="-3.58288">
        <ele>250</ele>
        <time>2015-03-22T10:41:42.1Z</time>
      </trkpt>
      <trkpt lat="48.42899" lon="-3.58287">
        <ele>250</ele>
        <time>2015-03-22T10:41:45.1Z</time>
      </trkpt>
      <trkpt lat="48.42902" lon="-3.58288">
        <ele>250</ele>
        <time>2015-03-22T10:41:48.1Z</time>
      </trkpt>
      <trkpt lat="48.42906" lon="-3.58289">
        <ele>250</ele>
        <time>2015-03-22T10:41:51.1Z</time>
      </trkpt>
      <trkpt lat="48.42907" lon="-3.5829">
        <ele>250</ele>
        <time>2015-03-22T10:41:53.1Z</time>
      </trkpt>
      <trkpt lat="48.42911" lon="-3.58291">
        <ele>250</ele>
        <time>2015-03-22T10:41:56.1Z</time>
      </trkpt>
      <trkpt lat="48.42913" lon="-3.58291">
        <ele>250</ele>
        <time>2015-03-22T10:41:58.1Z</time>
      </trkpt>
      <trkpt lat="48.42915" lon="-3.58289">
        <ele>250</ele>
        <time>2015-03-22T10:42:01.1Z</time>
      </trkpt>
      <trkpt lat="48.42916" lon="-3.58286">
        <ele>250</ele>
        <time>2015-03-22T10:42:03.1Z</time>
      </trkpt>
      <trkpt lat="48.42916" lon="-3.58284">
        <ele>251</ele>
        <time>2015-03-22T10:42:05.1Z</time>
      </trkpt>
      <trkpt lat="48.42917" lon="-3.5828">
        <ele>251</ele>
        <time>2015-03-22T10:42:08.1Z</time>
      </trkpt>
      <trkpt lat="48.42918" lon="-3.58278">
        <ele>252</ele>
        <time>2015-03-22T10:42:10.1Z</time>
      </trkpt>
      <trkpt lat="48.4292" lon="-3.58276">
        <ele>252</ele>
        <time>2015-03-22T10:42:13.1Z</time>
      </trkpt>
      <trkpt lat="48.42921" lon="-3.58274">
        <ele>253</ele>
        <time>2015-03-22T10:42:15.1Z</time>
      </trkpt>
      <trkpt lat="48.42922" lon="-3.58271">
        <ele>253</ele>
        <time>2015-03-22T10:42:17.1Z</time>
      </trkpt>
      <trkpt lat="48.42923" lon="-3.58269">
        <ele>253</ele>
        <time>2015-03-22T10:42:19.1Z</time>
      </trkpt>
      <trkpt lat="48.42923" lon="-3.58267">
        <ele>254</ele>
        <time>2015-03-22T10:42:21.1Z</time>
      </trkpt>
      <trkpt lat="48.42924" lon="-3.58264">
        <ele>254</ele>
        <time>2015-03-22T10:42:23.1Z</time>
      </trkpt>
      <trkpt lat="48.42925" lon="-3.58262">
        <ele>255</ele>
        <time>2015-03-22T10:42:25.1Z</time>
      </trkpt>
      <trkpt lat="48.42927" lon="-3.58261">
        <ele>255</ele>
        <time>2015-03-22T10:42:28.1Z</time>
      </trkpt>
      <trkpt lat="48.42929" lon="-3.58259">
        <ele>255</ele>
        <time>2015-03-22T10:42:31.1Z</time>
      </trkpt>
      <trkpt lat="48.4293" lon="-3.58258">
        <ele>255</ele>
        <time>2015-03-22T10:42:33.1Z</time>
      </trkpt>
      <trkpt lat="48.42931" lon="-3.58257">
        <ele>256</ele>
        <time>2015-03-22T10:42:35.1Z</time>
      </trkpt>
      <trkpt lat="48.42932" lon="-3.58256">
        <ele>255</ele>
        <time>2015-03-22T10:42:37.1Z</time>
      </trkpt>
      <trkpt lat="48.42933" lon="-3.58255">
        <ele>255</ele>
        <time>2015-03-22T10:42:39.1Z</time>
      </trkpt>
      <trkpt lat="48.42934" lon="-3.58254">
        <ele>256</ele>
        <time>2015-03-22T10:42:41.1Z</time>
      </trkpt>
      <trkpt lat="48.42934" lon="-3.58255">
        <ele>256</ele>
        <time>2015-03-22T10:42:44.1Z</time>
      </trkpt>
      <trkpt lat="48.42934" lon="-3.58256">
        <ele>256</ele>
        <time>2015-03-22T10:42:46.1Z</time>
      </trkpt>
      <trkpt lat="48.42935" lon="-3.58256">
        <ele>255</ele>
        <time>2015-03-22T10:42:48.1Z</time>
      </trkpt>
      <trkpt lat="48.42936" lon="-3.58256">
        <ele>255</ele>
        <time>2015-03-22T10:42:51.1Z</time>
      </trkpt>
      <trkpt lat="48.42938" lon="-3.58258">
        <ele>254</ele>
        <time>2015-03-22T10:42:54.1Z</time>
      </trkpt>
      <trkpt lat="48.42939" lon="-3.58257">
        <ele>254</ele>
        <time>2015-03-22T10:42:56.1Z</time>
      </trkpt>
      <trkpt lat="48.42941" lon="-3.58256">
        <ele>254</ele>
        <time>2015-03-22T10:42:59.1Z</time>
      </trkpt>
      <trkpt lat="48.42942" lon="-3.58255">
        <ele>254</ele>
        <time>2015-03-22T10:43:02.1Z</time>
      </trkpt>
      <trkpt lat="48.42941" lon="-3.58255">
        <ele>253</ele>
        <time>2015-03-22T10:43:04.1Z</time>
      </trkpt>
      <trkpt lat="48.42942" lon="-3.58253">
        <ele>253</ele>
        <time>2015-03-22T10:43:07.1Z</time>
      </trkpt>
      <trkpt lat="48.42942" lon="-3.58253">
        <ele>253</ele>
        <time>2015-03-22T10:43:10.1Z</time>
      </trkpt>
      <trkpt lat="48.42943" lon="-3.58251">
        <ele>253</ele>
        <time>2015-03-22T10:43:13.1Z</time>
      </trkpt>
      <trkpt lat="48.42944" lon="-3.5825">
        <ele>254</ele>
        <time>2015-03-22T10:43:15.1Z</time>
      </trkpt>
      <trkpt lat="48.42945" lon="-3.5825">
        <ele>254</ele>
        <time>2015-03-22T10:43:18.1Z</time>
      </trkpt>
      <trkpt lat="48.42945" lon="-3.58248">
        <ele>254</ele>
        <time>2015-03-22T10:43:20.1Z</time>
      </trkpt>
      <trkpt lat="48.42945" lon="-3.58247">
        <ele>254</ele>
        <time>2015-03-22T10:43:22.1Z</time>
      </trkpt>
      <trkpt lat="48.42945" lon="-3.58245">
        <ele>255</ele>
        <time>2015-03-22T10:43:24.1Z</time>
      </trkpt>
      <trkpt lat="48.42945" lon="-3.58243">
        <ele>255</ele>
        <time>2015-03-22T10:43:26.1Z</time>
      </trkpt>
      <trkpt lat="48.42945" lon="-3.58241">
        <ele>256</ele>
        <time>2015-03-22T10:43:29.1Z</time>
      </trkpt>
      <trkpt lat="48.42945" lon="-3.58239">
        <ele>256</ele>
        <time>2015-03-22T10:43:31.1Z</time>
      </trkpt>
      <trkpt lat="48.42946" lon="-3.58237">
        <ele>257</ele>
        <time>2015-03-22T10:43:33.1Z</time>
      </trkpt>
      <trkpt lat="48.42946" lon="-3.58236">
        <ele>257</ele>
        <time>2015-03-22T10:43:35.1Z</time>
      </trkpt>
      <trkpt lat="48.42947" lon="-3.58235">
        <ele>257</ele>
        <time>2015-03-22T10:43:38.1Z</time>
      </trkpt>
      <trkpt lat="48.42947" lon="-3.58233">
        <ele>258</ele>
        <time>2015-03-22T10:43:40.1Z</time>
      </trkpt>
      <trkpt lat="48.42948" lon="-3.58231">
        <ele>258</ele>
        <time>2015-03-22T10:43:42.1Z</time>
      </trkpt>
      <trkpt lat="48.42949" lon="-3.58229">
        <ele>258</ele>
        <time>2015-03-22T10:43:45.1Z</time>
      </trkpt>
      <trkpt lat="48.42949" lon="-3.58227">
        <ele>258</ele>
        <time>2015-03-22T10:43:47.1Z</time>
      </trkpt>
      <trkpt lat="48.42949" lon="-3.58225">
        <ele>258</ele>
        <time>2015-03-22T10:43:50.1Z</time>
      </trkpt>
      <trkpt lat="48.42949" lon="-3.58223">
        <ele>259</ele>
        <time>2015-03-22T10:43:53.1Z</time>
      </trkpt>
      <trkpt lat="48.42949" lon="-3.58221">
        <ele>259</ele>
        <time>2015-03-22T10:43:56.1Z</time>
      </trkpt>
      <trkpt lat="48.42949" lon="-3.58218">
        <ele>261</ele>
        <time>2015-03-22T10:43:59.1Z</time>
      </trkpt>
      <trkpt lat="48.42949" lon="-3.58216">
        <ele>261</ele>
        <time>2015-03-22T10:44:01.1Z</time>
      </trkpt>
      <trkpt lat="48.42948" lon="-3.58214">
        <ele>262</ele>
        <time>2015-03-22T10:44:04.1Z</time>
      </trkpt>
      <trkpt lat="48.42947" lon="-3.58214">
        <ele>262</ele>
        <time>2015-03-22T10:44:07.1Z</time>
      </trkpt>
      <trkpt lat="48.42948" lon="-3.58212">
        <ele>263</ele>
        <time>2015-03-22T10:44:09.1Z</time>
      </trkpt>
      <trkpt lat="48.42948" lon="-3.5821">
        <ele>263</ele>
        <time>2015-03-22T10:44:11.1Z</time>
      </trkpt>
      <trkpt lat="48.42947" lon="-3.58207">
        <ele>263</ele>
        <time>2015-03-22T10:44:13.1Z</time>
      </trkpt>
      <trkpt lat="48.42945" lon="-3.58205">
        <ele>263</ele>
        <time>2015-03-22T10:44:15.1Z</time>
      </trkpt>
      <trkpt lat="48.42944" lon="-3.58203">
        <ele>263</ele>
        <time>2015-03-22T10:44:17.1Z</time>
      </trkpt>
      <trkpt lat="48.42944" lon="-3.58203">
        <ele>264</ele>
        <time>2015-03-22T10:44:21.1Z</time>
      </trkpt>
      <trkpt lat="48.42944" lon="-3.58202">
        <ele>264</ele>
        <time>2015-03-22T10:44:23.1Z</time>
      </trkpt>
      <trkpt lat="48.42942" lon="-3.58201">
        <ele>265</ele>
        <time>2015-03-22T10:44:25.1Z</time>
      </trkpt>
      <trkpt lat="48.42942" lon="-3.58202">
        <ele>265</ele>
        <time>2015-03-22T10:44:27.1Z</time>
      </trkpt>
      <trkpt lat="48.42941" lon="-3.58203">
        <ele>265</ele>
        <time>2015-03-22T10:44:30.1Z</time>
      </trkpt>
      <trkpt lat="48.4294" lon="-3.58204">
        <ele>266</ele>
        <time>2015-03-22T10:44:32.1Z</time>
      </trkpt>
      <trkpt lat="48.42939" lon="-3.58205">
        <ele>266</ele>
        <time>2015-03-22T10:44:34.1Z</time>
      </trkpt>
      <trkpt lat="48.42938" lon="-3.58206">
        <ele>267</ele>
        <time>2015-03-22T10:44:36.1Z</time>
      </trkpt>
      <trkpt lat="48.42936" lon="-3.58207">
        <ele>267</ele>
        <time>2015-03-22T10:44:39.1Z</time>
      </trkpt>
      <trkpt lat="48.42935" lon="-3.58209">
        <ele>269</ele>
        <time>2015-03-22T10:44:42.1Z</time>
      </trkpt>
      <trkpt lat="48.42934" lon="-3.5821">
        <ele>269</ele>
        <time>2015-03-22T10:44:44.1Z</time>
      </trkpt>
      <trkpt lat="48.42934" lon="-3.58212">
        <ele>270</ele>
        <time>2015-03-22T10:44:46.1Z</time>
      </trkpt>
      <trkpt lat="48.42934" lon="-3.58214">
        <ele>270</ele>
        <time>2015-03-22T10:44:49.1Z</time>
      </trkpt>
      <trkpt lat="48.42932" lon="-3.58216">
        <ele>269</ele>
        <time>2015-03-22T10:44:52.1Z</time>
      </trkpt>
      <trkpt lat="48.42932" lon="-3.58219">
        <ele>269</ele>
        <time>2015-03-22T10:44:55.1Z</time>
      </trkpt>
      <trkpt lat="48.42932" lon="-3.58219">
        <ele>269</ele>
        <time>2015-03-22T10:44:58.1Z</time>
      </trkpt>
      <trkpt lat="48.42933" lon="-3.58219">
        <ele>269</ele>
        <time>2015-03-22T10:45:00.1Z</time>
      </trkpt>
      <trkpt lat="48.42932" lon="-3.5822">
        <ele>269</ele>
        <time>2015-03-22T10:45:03.1Z</time>
      </trkpt>
      <trkpt lat="48.42932" lon="-3.5822">
        <ele>269</ele>
        <time>2015-03-22T10:45:05.1Z</time>
      </trkpt>
      <trkpt lat="48.42931" lon="-3.5822">
        <ele>269</ele>
        <time>2015-03-22T10:45:08.1Z</time>
      </trkpt>
      <trkpt lat="48.42931" lon="-3.5822">
        <ele>269</ele>
        <time>2015-03-22T10:45:10.1Z</time>
      </trkpt>
      <trkpt lat="48.42931" lon="-3.5822">
        <ele>269</ele>
        <time>2015-03-22T10:45:13.1Z</time>
      </trkpt>
      <trkpt lat="48.42931" lon="-3.58221">
        <ele>269</ele>
        <time>2015-03-22T10:45:15.1Z</time>
      </trkpt>
      <trkpt lat="48.42931" lon="-3.58221">
        <ele>269</ele>
        <time>2015-03-22T10:45:18.1Z</time>
      </trkpt>
      <trkpt lat="48.42932" lon="-3.58221">
        <ele>269</ele>
        <time>2015-03-22T10:45:21.1Z</time>
      </trkpt>
      <trkpt lat="48.42932" lon="-3.58221">
        <ele>269</ele>
        <time>2015-03-22T10:45:24.1Z</time>
      </trkpt>
      <trkpt lat="48.42932" lon="-3.58221">
        <ele>269</ele>
        <time>2015-03-22T10:45:28.1Z</time>
      </trkpt>
      <trkpt lat="48.42933" lon="-3.58222">
        <ele>269</ele>
        <time>2015-03-22T10:45:31.1Z</time>
      </trkpt>
      <trkpt lat="48.42933" lon="-3.58221">
        <ele>269</ele>
        <time>2015-03-22T10:45:33.1Z</time>
      </trkpt>
      <trkpt lat="48.42933" lon="-3.5822">
        <ele>269</ele>
        <time>2015-03-22T10:45:35.1Z</time>
      </trkpt>
      <trkpt lat="48.42933" lon="-3.5822">
        <ele>269</ele>
        <time>2015-03-22T10:45:39.1Z</time>
      </trkpt>
      <trkpt lat="48.42933" lon="-3.5822">
        <ele>269</ele>
        <time>2015-03-22T10:45:41.1Z</time>
      </trkpt>
      <trkpt lat="48.42934" lon="-3.58221">
        <ele>269</ele>
        <time>2015-03-22T10:45:44.1Z</time>
      </trkpt>
      <trkpt lat="48.42935" lon="-3.58221">
        <ele>268</ele>
        <time>2015-03-22T10:45:47.1Z</time>
      </trkpt>
      <trkpt lat="48.42936" lon="-3.58221">
        <ele>268</ele>
        <time>2015-03-22T10:45:50.1Z</time>
      </trkpt>
      <trkpt lat="48.42936" lon="-3.5822">
        <ele>269</ele>
        <time>2015-03-22T10:45:52.1Z</time>
      </trkpt>
      <trkpt lat="48.42936" lon="-3.58221">
        <ele>269</ele>
        <time>2015-03-22T10:45:55.1Z</time>
      </trkpt>
      <trkpt lat="48.42936" lon="-3.58221">
        <ele>269</ele>
        <time>2015-03-22T10:45:57.1Z</time>
      </trkpt>
      <trkpt lat="48.42936" lon="-3.58221">
        <ele>269</ele>
        <time>2015-03-22T10:46:00.1Z</time>
      </trkpt>
      <trkpt lat="48.42934" lon="-3.58222">
        <ele>269</ele>
        <time>2015-03-22T10:46:03.1Z</time>
      </trkpt>
      <trkpt lat="48.42933" lon="-3.58222">
        <ele>269</ele>
        <time>2015-03-22T10:46:06.1Z</time>
      </trkpt>
      <trkpt lat="48.42933" lon="-3.58222">
        <ele>269</ele>
        <time>2015-03-22T10:46:08.1Z</time>
      </trkpt>
      <trkpt lat="48.42932" lon="-3.58222">
        <ele>269</ele>
        <time>2015-03-22T10:46:11.1Z</time>
      </trkpt>
      <trkpt lat="48.42932" lon="-3.58222">
        <ele>269</ele>
        <time>2015-03-22T10:46:14.1Z</time>
      </trkpt>
      <trkpt lat="48.42933" lon="-3.58222">
        <ele>269</ele>
        <time>2015-03-22T10:46:17.1Z</time>
      </trkpt>
      <trkpt lat="48.42934" lon="-3.58222">
        <ele>268</ele>
        <time>2015-03-22T10:46:20.1Z</time>
      </trkpt>
      <trkpt lat="48.42936" lon="-3.58222">
        <ele>268</ele>
        <time>2015-03-22T10:46:23.1Z</time>
      </trkpt>
      <trkpt lat="48.42937" lon="-3.58222">
        <ele>268</ele>
        <time>2015-03-22T10:46:26.1Z</time>
      </trkpt>
      <trkpt lat="48.42937" lon="-3.58222">
        <ele>269</ele>
        <time>2015-03-22T10:46:28.1Z</time>
      </trkpt>
      <trkpt lat="48.42937" lon="-3.58221">
        <ele>269</ele>
        <time>2015-03-22T10:46:31.1Z</time>
      </trkpt>
      <trkpt lat="48.42938" lon="-3.58221">
        <ele>269</ele>
        <time>2015-03-22T10:46:34.1Z</time>
      </trkpt>
      <trkpt lat="48.42938" lon="-3.58221">
        <ele>269</ele>
        <time>2015-03-22T10:46:36.1Z</time>
      </trkpt>
      <trkpt lat="48.42938" lon="-3.58222">
        <ele>269</ele>
        <time>2015-03-22T10:46:39.1Z</time>
      </trkpt>
      <trkpt lat="48.42937" lon="-3.58222">
        <ele>269</ele>
        <time>2015-03-22T10:46:41.1Z</time>
      </trkpt>
      <trkpt lat="48.42937" lon="-3.58223">
        <ele>270</ele>
        <time>2015-03-22T10:46:43.1Z</time>
      </trkpt>
      <trkpt lat="48.42937" lon="-3.58223">
        <ele>270</ele>
        <time>2015-03-22T10:46:46.1Z</time>
      </trkpt>
      <trkpt lat="48.42936" lon="-3.58223">
        <ele>270</ele>
        <time>2015-03-22T10:46:48.1Z</time>
      </trkpt>
      <trkpt lat="48.42936" lon="-3.58223">
        <ele>269</ele>
        <time>2015-03-22T10:46:51.1Z</time>
      </trkpt>
      <trkpt lat="48.42934" lon="-3.58224">
        <ele>269</ele>
        <time>2015-03-22T10:46:54.1Z</time>
      </trkpt>
      <trkpt lat="48.42933" lon="-3.58224">
        <ele>270</ele>
        <time>2015-03-22T10:46:57.1Z</time>
      </trkpt>
      <trkpt lat="48.42932" lon="-3.58224">
        <ele>270</ele>
        <time>2015-03-22T10:46:59.1Z</time>
      </trkpt>
      <trkpt lat="48.42932" lon="-3.58224">
        <ele>270</ele>
        <time>2015-03-22T10:47:02.1Z</time>
      </trkpt>
      <trkpt lat="48.42931" lon="-3.58224">
        <ele>269</ele>
        <time>2015-03-22T10:47:05.1Z</time>
      </trkpt>
      <trkpt lat="48.42931" lon="-3.58223">
        <ele>270</ele>
        <time>2015-03-22T10:47:08.1Z</time>
      </trkpt>
      <trkpt lat="48.42932" lon="-3.58222">
        <ele>269</ele>
        <time>2015-03-22T10:47:10.1Z</time>
      </trkpt>
      <trkpt lat="48.42932" lon="-3.58222">
        <ele>270</ele>
        <time>2015-03-22T10:47:14.1Z</time>
      </trkpt>
      <trkpt lat="48.42933" lon="-3.58222">
        <ele>270</ele>
        <time>2015-03-22T10:47:16.1Z</time>
      </trkpt>
      <trkpt lat="48.42933" lon="-3.58222">
        <ele>270</ele>
        <time>2015-03-22T10:47:19.1Z</time>
      </trkpt>
      <trkpt lat="48.42933" lon="-3.58222">
        <ele>269</ele>
        <time>2015-03-22T10:47:21.1Z</time>
      </trkpt>
      <trkpt lat="48.42934" lon="-3.58222">
        <ele>269</ele>
        <time>2015-03-22T10:47:24.1Z</time>
      </trkpt>
      <trkpt lat="48.42933" lon="-3.58222">
        <ele>269</ele>
        <time>2015-03-22T10:47:27.1Z</time>
      </trkpt>
      <trkpt lat="48.42932" lon="-3.58222">
        <ele>270</ele>
        <time>2015-03-22T10:47:30.1Z</time>
      </trkpt>
      <trkpt lat="48.42931" lon="-3.58222">
        <ele>270</ele>
        <time>2015-03-22T10:47:32.1Z</time>
      </trkpt>
      <trkpt lat="48.4293" lon="-3.58222">
        <ele>270</ele>
        <time>2015-03-22T10:47:35.1Z</time>
      </trkpt>
      <trkpt lat="48.42929" lon="-3.58223">
        <ele>270</ele>
        <time>2015-03-22T10:47:38.1Z</time>
      </trkpt>
      <trkpt lat="48.42928" lon="-3.58223">
        <ele>270</ele>
        <time>2015-03-22T10:47:41.1Z</time>
      </trkpt>
      <trkpt lat="48.42928" lon="-3.58224">
        <ele>269</ele>
        <time>2015-03-22T10:47:45.1Z</time>
      </trkpt>
      <trkpt lat="48.42928" lon="-3.58224">
        <ele>269</ele>
        <time>2015-03-22T10:47:48.1Z</time>
      </trkpt>
      <trkpt lat="48.42927" lon="-3.58224">
        <ele>269</ele>
        <time>2015-03-22T10:47:52.1Z</time>
      </trkpt>
      <trkpt lat="48.42927" lon="-3.58224">
        <ele>269</ele>
        <time>2015-03-22T10:47:55.1Z</time>
      </trkpt>
      <trkpt lat="48.42927" lon="-3.58224">
        <ele>269</ele>
        <time>2015-03-22T10:47:57.1Z</time>
      </trkpt>
      <trkpt lat="48.42928" lon="-3.58224">
        <ele>269</ele>
        <time>2015-03-22T10:47:59.1Z</time>
      </trkpt>
      <trkpt lat="48.42928" lon="-3.58223">
        <ele>269</ele>
        <time>2015-03-22T10:48:02.1Z</time>
      </trkpt>
      <trkpt lat="48.42929" lon="-3.58223">
        <ele>269</ele>
        <time>2015-03-22T10:48:05.1Z</time>
      </trkpt>
      <trkpt lat="48.42929" lon="-3.58223">
        <ele>269</ele>
        <time>2015-03-22T10:48:08.1Z</time>
      </trkpt>
      <trkpt lat="48.42928" lon="-3.58223">
        <ele>269</ele>
        <time>2015-03-22T10:48:11.1Z</time>
      </trkpt>
      <trkpt lat="48.42928" lon="-3.58223">
        <ele>269</ele>
        <time>2015-03-22T10:48:13.1Z</time>
      </trkpt>
      <trkpt lat="48.42927" lon="-3.58223">
        <ele>269</ele>
        <time>2015-03-22T10:48:16.1Z</time>
      </trkpt>
      <trkpt lat="48.42927" lon="-3.58223">
        <ele>269</ele>
        <time>2015-03-22T10:48:19.1Z</time>
      </trkpt>
      <trkpt lat="48.42926" lon="-3.58223">
        <ele>269</ele>
        <time>2015-03-22T10:48:22.1Z</time>
      </trkpt>
      <trkpt lat="48.42926" lon="-3.58223">
        <ele>269</ele>
        <time>2015-03-22T10:48:24.1Z</time>
      </trkpt>
      <trkpt lat="48.42925" lon="-3.58224">
        <ele>269</ele>
        <time>2015-03-22T10:48:27.1Z</time>
      </trkpt>
      <trkpt lat="48.42925" lon="-3.58223">
        <ele>269</ele>
        <time>2015-03-22T10:48:30.1Z</time>
      </trkpt>
      <trkpt lat="48.42926" lon="-3.58224">
        <ele>269</ele>
        <time>2015-03-22T10:48:33.1Z</time>
      </trkpt>
      <trkpt lat="48.42927" lon="-3.58224">
        <ele>269</ele>
        <time>2015-03-22T10:48:36.1Z</time>
      </trkpt>
      <trkpt lat="48.42927" lon="-3.58225">
        <ele>269</ele>
        <time>2015-03-22T10:48:38.1Z</time>
      </trkpt>
      <trkpt lat="48.42928" lon="-3.58225">
        <ele>269</ele>
        <time>2015-03-22T10:48:40.1Z</time>
      </trkpt>
      <trkpt lat="48.42928" lon="-3.58225">
        <ele>269</ele>
        <time>2015-03-22T10:48:43.1Z</time>
      </trkpt>
      <trkpt lat="48.42928" lon="-3.58223">
        <ele>268</ele>
        <time>2015-03-22T10:48:46.1Z</time>
      </trkpt>
      <trkpt lat="48.42929" lon="-3.58222">
        <ele>269</ele>
        <time>2015-03-22T10:48:48.1Z</time>
      </trkpt>
      <trkpt lat="48.42931" lon="-3.58219">
        <ele>268</ele>
        <time>2015-03-22T10:48:51.1Z</time>
      </trkpt>
      <trkpt lat="48.42932" lon="-3.58217">
        <ele>269</ele>
        <time>2015-03-22T10:48:54.1Z</time>
      </trkpt>
      <trkpt lat="48.42933" lon="-3.58215">
        <ele>269</ele>
        <time>2015-03-22T10:48:56.1Z</time>
      </trkpt>
      <trkpt lat="48.42934" lon="-3.58213">
        <ele>269</ele>
        <time>2015-03-22T10:48:59.1Z</time>
      </trkpt>
      <trkpt lat="48.42935" lon="-3.58212">
        <ele>268</ele>
        <time>2015-03-22T10:49:01.1Z</time>
      </trkpt>
      <trkpt lat="48.42936" lon="-3.58211">
        <ele>268</ele>
        <time>2015-03-22T10:49:03.1Z</time>
      </trkpt>
      <trkpt lat="48.42938" lon="-3.58211">
        <ele>267</ele>
        <time>2015-03-22T10:49:06.1Z</time>
      </trkpt>
      <trkpt lat="48.42938" lon="-3.5821">
        <ele>266</ele>
        <time>2015-03-22T10:49:08.1Z</time>
      </trkpt>
      <trkpt lat="48.42938" lon="-3.58209">
        <ele>266</ele>
        <time>2015-03-22T10:49:11.1Z</time>
      </trkpt>
      <trkpt lat="48.42939" lon="-3.58209">
        <ele>266</ele>
        <time>2015-03-22T10:49:13.1Z</time>
      </trkpt>
      <trkpt lat="48.4294" lon="-3.58209">
        <ele>266</ele>
        <time>2015-03-22T10:49:16.1Z</time>
      </trkpt>
      <trkpt lat="48.4294" lon="-3.58209">
        <ele>266</ele>
        <time>2015-03-22T10:49:19.1Z</time>
      </trkpt>
      <trkpt lat="48.4294" lon="-3.58209">
        <ele>266</ele>
        <time>2015-03-22T10:49:21.1Z</time>
      </trkpt>
      <trkpt lat="48.4294" lon="-3.58208">
        <ele>266</ele>
        <time>2015-03-22T10:49:24.1Z</time>
      </trkpt>
      <trkpt lat="48.4294" lon="-3.58207">
        <ele>266</ele>
        <time>2015-03-22T10:49:26.1Z</time>
      </trkpt>
      <trkpt lat="48.42942" lon="-3.58205">
        <ele>266</ele>
        <time>2015-03-22T10:49:29.1Z</time>
      </trkpt>
      <trkpt lat="48.42943" lon="-3.58202">
        <ele>265</ele>
        <time>2015-03-22T10:49:32.1Z</time>
      </trkpt>
      <trkpt lat="48.42944" lon="-3.58202">
        <ele>264</ele>
        <time>2015-03-22T10:49:35.1Z</time>
      </trkpt>
      <trkpt lat="48.42946" lon="-3.58203">
        <ele>263</ele>
        <time>2015-03-22T10:49:37.1Z</time>
      </trkpt>
      <trkpt lat="48.42947" lon="-3.58205">
        <ele>263</ele>
        <time>2015-03-22T10:49:39.1Z</time>
      </trkpt>
      <trkpt lat="48.42948" lon="-3.58206">
        <ele>263</ele>
        <time>2015-03-22T10:49:41.1Z</time>
      </trkpt>
      <trkpt lat="48.42948" lon="-3.58206">
        <ele>262</ele>
        <time>2015-03-22T10:49:44.1Z</time>
      </trkpt>
      <trkpt lat="48.42948" lon="-3.58205">
        <ele>262</ele>
        <time>2015-03-22T10:49:46.1Z</time>
      </trkpt>
      <trkpt lat="48.42948" lon="-3.58206">
        <ele>262</ele>
        <time>2015-03-22T10:49:49.1Z</time>
      </trkpt>
      <trkpt lat="48.42947" lon="-3.58205">
        <ele>262</ele>
        <time>2015-03-22T10:49:52.1Z</time>
      </trkpt>
      <trkpt lat="48.42947" lon="-3.58205">
        <ele>261</ele>
        <time>2015-03-22T10:49:55.1Z</time>
      </trkpt>
      <trkpt lat="48.42947" lon="-3.58205">
        <ele>261</ele>
        <time>2015-03-22T10:49:58.1Z</time>
      </trkpt>
      <trkpt lat="48.42947" lon="-3.58205">
        <ele>262</ele>
        <time>2015-03-22T10:50:01.1Z</time>
      </trkpt>
      <trkpt lat="48.42947" lon="-3.58204">
        <ele>262</ele>
        <time>2015-03-22T10:50:04.1Z</time>
      </trkpt>
      <trkpt lat="48.42948" lon="-3.58207">
        <ele>262</ele>
        <time>2015-03-22T10:50:07.1Z</time>
      </trkpt>
      <trkpt lat="48.42947" lon="-3.58211">
        <ele>262</ele>
        <time>2015-03-22T10:50:10.1Z</time>
      </trkpt>
      <trkpt lat="48.42947" lon="-3.58214">
        <ele>262</ele>
        <time>2015-03-22T10:50:12.1Z</time>
      </trkpt>
      <trkpt lat="48.42947" lon="-3.58216">
        <ele>261</ele>
        <time>2015-03-22T10:50:14.1Z</time>
      </trkpt>
      <trkpt lat="48.42947" lon="-3.58218">
        <ele>260</ele>
        <time>2015-03-22T10:50:16.1Z</time>
      </trkpt>
      <trkpt lat="48.42947" lon="-3.5822">
        <ele>260</ele>
        <time>2015-03-22T10:50:18.1Z</time>
      </trkpt>
      <trkpt lat="48.42948" lon="-3.58224">
        <ele>259</ele>
        <time>2015-03-22T10:50:20.1Z</time>
      </trkpt>
      <trkpt lat="48.42947" lon="-3.58227">
        <ele>258</ele>
        <time>2015-03-22T10:50:23.1Z</time>
      </trkpt>
      <trkpt lat="48.42946" lon="-3.58232">
        <ele>257</ele>
        <time>2015-03-22T10:50:26.1Z</time>
      </trkpt>
      <trkpt lat="48.42946" lon="-3.58234">
        <ele>257</ele>
        <time>2015-03-22T10:50:28.1Z</time>
      </trkpt>
      <trkpt lat="48.42945" lon="-3.58238">
        <ele>256</ele>
        <time>2015-03-22T10:50:31.1Z</time>
      </trkpt>
      <trkpt lat="48.42945" lon="-3.58241">
        <ele>255</ele>
        <time>2015-03-22T10:50:34.1Z</time>
      </trkpt>
      <trkpt lat="48.42946" lon="-3.58242">
        <ele>254</ele>
        <time>2015-03-22T10:50:36.1Z</time>
      </trkpt>
      <trkpt lat="48.42947" lon="-3.58243">
        <ele>253</ele>
        <time>2015-03-22T10:50:38.1Z</time>
      </trkpt>
      <trkpt lat="48.42949" lon="-3.58245">
        <ele>252</ele>
        <time>2015-03-22T10:50:40.1Z</time>
      </trkpt>
      <trkpt lat="48.42951" lon="-3.58247">
        <ele>252</ele>
        <time>2015-03-22T10:50:43.1Z</time>
      </trkpt>
      <trkpt lat="48.42953" lon="-3.58248">
        <ele>251</ele>
        <time>2015-03-22T10:50:46.1Z</time>
      </trkpt>
      <trkpt lat="48.42955" lon="-3.5825">
        <ele>250</ele>
        <time>2015-03-22T10:50:49.1Z</time>
      </trkpt>
      <trkpt lat="48.42957" lon="-3.5825">
        <ele>250</ele>
        <time>2015-03-22T10:50:51.1Z</time>
      </trkpt>
      <trkpt lat="48.4296" lon="-3.58252">
        <ele>249</ele>
        <time>2015-03-22T10:50:54.1Z</time>
      </trkpt>
      <trkpt lat="48.42962" lon="-3.58254">
        <ele>249</ele>
        <time>2015-03-22T10:50:57.1Z</time>
      </trkpt>
      <trkpt lat="48.42963" lon="-3.58256">
        <ele>248</ele>
        <time>2015-03-22T10:51:00.1Z</time>
      </trkpt>
      <trkpt lat="48.42964" lon="-3.58258">
        <ele>247</ele>
        <time>2015-03-22T10:51:02.1Z</time>
      </trkpt>
      <trkpt lat="48.42966" lon="-3.5826">
        <ele>246</ele>
        <time>2015-03-22T10:51:05.1Z</time>
      </trkpt>
      <trkpt lat="48.42968" lon="-3.58261">
        <ele>246</ele>
        <time>2015-03-22T10:51:07.1Z</time>
      </trkpt>
      <trkpt lat="48.4297" lon="-3.58264">
        <ele>245</ele>
        <time>2015-03-22T10:51:10.1Z</time>
      </trkpt>
      <trkpt lat="48.42972" lon="-3.58266">
        <ele>244</ele>
        <time>2015-03-22T10:51:13.1Z</time>
      </trkpt>
      <trkpt lat="48.42973" lon="-3.5827">
        <ele>244</ele>
        <time>2015-03-22T10:51:16.1Z</time>
      </trkpt>
      <trkpt lat="48.42973" lon="-3.58273">
        <ele>243</ele>
        <time>2015-03-22T10:51:18.1Z</time>
      </trkpt>
      <trkpt lat="48.42973" lon="-3.58276">
        <ele>243</ele>
        <time>2015-03-22T10:51:20.1Z</time>
      </trkpt>
      <trkpt lat="48.42974" lon="-3.58279">
        <ele>242</ele>
        <time>2015-03-22T10:51:23.1Z</time>
      </trkpt>
      <trkpt lat="48.42976" lon="-3.58282">
        <ele>242</ele>
        <time>2015-03-22T10:51:26.1Z</time>
      </trkpt>
      <trkpt lat="48.42978" lon="-3.58284">
        <ele>241</ele>
        <time>2015-03-22T10:51:28.1Z</time>
      </trkpt>
      <trkpt lat="48.4298" lon="-3.58286">
        <ele>241</ele>
        <time>2015-03-22T10:51:31.1Z</time>
      </trkpt>
      <trkpt lat="48.42982" lon="-3.58287">
        <ele>241</ele>
        <time>2015-03-22T10:51:33.1Z</time>
      </trkpt>
      <trkpt lat="48.42983" lon="-3.58289">
        <ele>241</ele>
        <time>2015-03-22T10:51:35.1Z</time>
      </trkpt>
      <trkpt lat="48.42985" lon="-3.58292">
        <ele>240</ele>
        <time>2015-03-22T10:51:38.1Z</time>
      </trkpt>
      <trkpt lat="48.42986" lon="-3.58294">
        <ele>240</ele>
        <time>2015-03-22T10:51:40.1Z</time>
      </trkpt>
      <trkpt lat="48.42987" lon="-3.58297">
        <ele>239</ele>
        <time>2015-03-22T10:51:43.1Z</time>
      </trkpt>
      <trkpt lat="48.42987" lon="-3.58303">
        <ele>239</ele>
        <time>2015-03-22T10:51:46.1Z</time>
      </trkpt>
      <trkpt lat="48.4299" lon="-3.58306">
        <ele>239</ele>
        <time>2015-03-22T10:51:49.1Z</time>
      </trkpt>
      <trkpt lat="48.42992" lon="-3.58309">
        <ele>239</ele>
        <time>2015-03-22T10:51:51.1Z</time>
      </trkpt>
      <trkpt lat="48.42993" lon="-3.58313">
        <ele>238</ele>
        <time>2015-03-22T10:51:54.1Z</time>
      </trkpt>
      <trkpt lat="48.42994" lon="-3.58317">
        <ele>238</ele>
        <time>2015-03-22T10:51:57.1Z</time>
      </trkpt>
      <trkpt lat="48.42995" lon="-3.5832">
        <ele>237</ele>
        <time>2015-03-22T10:51:59.1Z</time>
      </trkpt>
      <trkpt lat="48.42995" lon="-3.58325">
        <ele>237</ele>
        <time>2015-03-22T10:52:02.1Z</time>
      </trkpt>
      <trkpt lat="48.42995" lon="-3.58329">
        <ele>237</ele>
        <time>2015-03-22T10:52:05.1Z</time>
      </trkpt>
      <trkpt lat="48.42996" lon="-3.58332">
        <ele>237</ele>
        <time>2015-03-22T10:52:07.1Z</time>
      </trkpt>
      <trkpt lat="48.42998" lon="-3.58337">
        <ele>237</ele>
        <time>2015-03-22T10:52:10.1Z</time>
      </trkpt>
      <trkpt lat="48.43" lon="-3.58342">
        <ele>237</ele>
        <time>2015-03-22T10:52:13.1Z</time>
      </trkpt>
      <trkpt lat="48.43001" lon="-3.58346">
        <ele>236</ele>
        <time>2015-03-22T10:52:16.1Z</time>
      </trkpt>
      <trkpt lat="48.43003" lon="-3.58349">
        <ele>236</ele>
        <time>2015-03-22T10:52:19.1Z</time>
      </trkpt>
      <trkpt lat="48.43004" lon="-3.58351">
        <ele>236</ele>
        <time>2015-03-22T10:52:21.1Z</time>
      </trkpt>
      <trkpt lat="48.43006" lon="-3.58355">
        <ele>235</ele>
        <time>2015-03-22T10:52:24.1Z</time>
      </trkpt>
      <trkpt lat="48.43006" lon="-3.58359">
        <ele>234</ele>
        <time>2015-03-22T10:52:27.1Z</time>
      </trkpt>
      <trkpt lat="48.43007" lon="-3.58362">
        <ele>234</ele>
        <time>2015-03-22T10:52:29.1Z</time>
      </trkpt>
      <trkpt lat="48.43009" lon="-3.58366">
        <ele>234</ele>
        <time>2015-03-22T10:52:32.1Z</time>
      </trkpt>
      <trkpt lat="48.43011" lon="-3.58366">
        <ele>234</ele>
        <time>2015-03-22T10:52:34.1Z</time>
      </trkpt>
      <trkpt lat="48.43013" lon="-3.58366">
        <ele>233</ele>
        <time>2015-03-22T10:52:36.1Z</time>
      </trkpt>
      <trkpt lat="48.43015" lon="-3.58366">
        <ele>233</ele>
        <time>2015-03-22T10:52:38.1Z</time>
      </trkpt>
      <trkpt lat="48.43018" lon="-3.58366">
        <ele>233</ele>
        <time>2015-03-22T10:52:40.1Z</time>
      </trkpt>
      <trkpt lat="48.43021" lon="-3.58366">
        <ele>232</ele>
        <time>2015-03-22T10:52:43.1Z</time>
      </trkpt>
      <trkpt lat="48.43023" lon="-3.58366">
        <ele>232</ele>
        <time>2015-03-22T10:52:45.1Z</time>
      </trkpt>
      <trkpt lat="48.43024" lon="-3.58366">
        <ele>232</ele>
        <time>2015-03-22T10:52:47.1Z</time>
      </trkpt>
      <trkpt lat="48.43026" lon="-3.58366">
        <ele>232</ele>
        <time>2015-03-22T10:52:49.1Z</time>
      </trkpt>
      <trkpt lat="48.43028" lon="-3.58366">
        <ele>231</ele>
        <time>2015-03-22T10:52:51.1Z</time>
      </trkpt>
      <trkpt lat="48.43031" lon="-3.58367">
        <ele>231</ele>
        <time>2015-03-22T10:52:53.1Z</time>
      </trkpt>
      <trkpt lat="48.43034" lon="-3.58367">
        <ele>231</ele>
        <time>2015-03-22T10:52:55.1Z</time>
      </trkpt>
      <trkpt lat="48.43036" lon="-3.58367">
        <ele>230</ele>
        <time>2015-03-22T10:52:57.1Z</time>
      </trkpt>
      <trkpt lat="48.43037" lon="-3.58367">
        <ele>230</ele>
        <time>2015-03-22T10:52:59.1Z</time>
      </trkpt>
      <trkpt lat="48.43041" lon="-3.58368">
        <ele>229</ele>
        <time>2015-03-22T10:53:02.1Z</time>
      </trkpt>
      <trkpt lat="48.43045" lon="-3.58369">
        <ele>229</ele>
        <time>2015-03-22T10:53:05.1Z</time>
      </trkpt>
      <trkpt lat="48.43048" lon="-3.5837">
        <ele>228</ele>
        <time>2015-03-22T10:53:08.1Z</time>
      </trkpt>
      <trkpt lat="48.43052" lon="-3.58371">
        <ele>228</ele>
        <time>2015-03-22T10:53:11.1Z</time>
      </trkpt>
      <trkpt lat="48.43055" lon="-3.58371">
        <ele>227</ele>
        <time>2015-03-22T10:53:13.1Z</time>
      </trkpt>
      <trkpt lat="48.43059" lon="-3.58371">
        <ele>227</ele>
        <time>2015-03-22T10:53:15.1Z</time>
      </trkpt>
      <trkpt lat="48.43063" lon="-3.58371">
        <ele>226</ele>
        <time>2015-03-22T10:53:18.1Z</time>
      </trkpt>
      <trkpt lat="48.43064" lon="-3.58371">
        <ele>226</ele>
        <time>2015-03-22T10:53:20.1Z</time>
      </trkpt>
      <trkpt lat="48.43067" lon="-3.58369">
        <ele>225</ele>
        <time>2015-03-22T10:53:22.1Z</time>
      </trkpt>
      <trkpt lat="48.43069" lon="-3.58368">
        <ele>225</ele>
        <time>2015-03-22T10:53:24.1Z</time>
      </trkpt>
      <trkpt lat="48.43072" lon="-3.58368">
        <ele>224</ele>
        <time>2015-03-22T10:53:26.1Z</time>
      </trkpt>
      <trkpt lat="48.43075" lon="-3.58367">
        <ele>224</ele>
        <time>2015-03-22T10:53:28.1Z</time>
      </trkpt>
      <trkpt lat="48.43077" lon="-3.58366">
        <ele>224</ele>
        <time>2015-03-22T10:53:30.1Z</time>
      </trkpt>
      <trkpt lat="48.43079" lon="-3.58366">
        <ele>224</ele>
        <time>2015-03-22T10:53:33.1Z</time>
      </trkpt>
      <trkpt lat="48.4308" lon="-3.58365">
        <ele>224</ele>
        <time>2015-03-22T10:53:35.1Z</time>
      </trkpt>
      <trkpt lat="48.43082" lon="-3.58363">
        <ele>223</ele>
        <time>2015-03-22T10:53:38.1Z</time>
      </trkpt>
      <trkpt lat="48.43085" lon="-3.58363">
        <ele>223</ele>
        <time>2015-03-22T10:53:40.1Z</time>
      </trkpt>
      <trkpt lat="48.43087" lon="-3.58362">
        <ele>222</ele>
        <time>2015-03-22T10:53:42.1Z</time>
      </trkpt>
      <trkpt lat="48.43088" lon="-3.58361">
        <ele>222</ele>
        <time>2015-03-22T10:53:45.1Z</time>
      </trkpt>
      <trkpt lat="48.4309" lon="-3.58359">
        <ele>222</ele>
        <time>2015-03-22T10:53:48.1Z</time>
      </trkpt>
      <trkpt lat="48.43092" lon="-3.58357">
        <ele>222</ele>
        <time>2015-03-22T10:53:51.1Z</time>
      </trkpt>
      <trkpt lat="48.43092" lon="-3.58356">
        <ele>221</ele>
        <time>2015-03-22T10:53:53.1Z</time>
      </trkpt>
      <trkpt lat="48.43095" lon="-3.58355">
        <ele>221</ele>
        <time>2015-03-22T10:53:56.1Z</time>
      </trkpt>
      <trkpt lat="48.43097" lon="-3.58355">
        <ele>220</ele>
        <time>2015-03-22T10:53:58.1Z</time>
      </trkpt>
      <trkpt lat="48.431" lon="-3.58355">
        <ele>220</ele>
        <time>2015-03-22T10:54:01.1Z</time>
      </trkpt>
      <trkpt lat="48.43103" lon="-3.58355">
        <ele>220</ele>
        <time>2015-03-22T10:54:04.1Z</time>
      </trkpt>
      <trkpt lat="48.43106" lon="-3.58354">
        <ele>220</ele>
        <time>2015-03-22T10:54:06.1Z</time>
      </trkpt>
      <trkpt lat="48.43109" lon="-3.58354">
        <ele>219</ele>
        <time>2015-03-22T10:54:08.1Z</time>
      </trkpt>
      <trkpt lat="48.4311" lon="-3.58354">
        <ele>219</ele>
        <time>2015-03-22T10:54:10.1Z</time>
      </trkpt>
      <trkpt lat="48.43111" lon="-3.58353">
        <ele>218</ele>
        <time>2015-03-22T10:54:12.1Z</time>
      </trkpt>
      <trkpt lat="48.43113" lon="-3.58353">
        <ele>218</ele>
        <time>2015-03-22T10:54:15.1Z</time>
      </trkpt>
      <trkpt lat="48.43114" lon="-3.58353">
        <ele>218</ele>
        <time>2015-03-22T10:54:17.1Z</time>
      </trkpt>
      <trkpt lat="48.43116" lon="-3.58352">
        <ele>218</ele>
        <time>2015-03-22T10:54:20.1Z</time>
      </trkpt>
      <trkpt lat="48.43118" lon="-3.58352">
        <ele>217</ele>
        <time>2015-03-22T10:54:23.1Z</time>
      </trkpt>
      <trkpt lat="48.43121" lon="-3.58351">
        <ele>217</ele>
        <time>2015-03-22T10:54:26.1Z</time>
      </trkpt>
      <trkpt lat="48.43123" lon="-3.5835">
        <ele>216</ele>
        <time>2015-03-22T10:54:29.1Z</time>
      </trkpt>
      <trkpt lat="48.43126" lon="-3.5835">
        <ele>216</ele>
        <time>2015-03-22T10:54:32.1Z</time>
      </trkpt>
      <trkpt lat="48.43127" lon="-3.58349">
        <ele>216</ele>
        <time>2015-03-22T10:54:34.1Z</time>
      </trkpt>
      <trkpt lat="48.4313" lon="-3.5835">
        <ele>216</ele>
        <time>2015-03-22T10:54:37.1Z</time>
      </trkpt>
      <trkpt lat="48.43133" lon="-3.5835">
        <ele>215</ele>
        <time>2015-03-22T10:54:40.1Z</time>
      </trkpt>
      <trkpt lat="48.43135" lon="-3.5835">
        <ele>215</ele>
        <time>2015-03-22T10:54:42.1Z</time>
      </trkpt>
      <trkpt lat="48.43137" lon="-3.58349">
        <ele>215</ele>
        <time>2015-03-22T10:54:45.1Z</time>
      </trkpt>
      <trkpt lat="48.43138" lon="-3.58349">
        <ele>215</ele>
        <time>2015-03-22T10:54:47.1Z</time>
      </trkpt>
      <trkpt lat="48.4314" lon="-3.5835">
        <ele>215</ele>
        <time>2015-03-22T10:54:50.1Z</time>
      </trkpt>
      <trkpt lat="48.43142" lon="-3.58349">
        <ele>215</ele>
        <time>2015-03-22T10:54:52.1Z</time>
      </trkpt>
      <trkpt lat="48.43144" lon="-3.58349">
        <ele>214</ele>
        <time>2015-03-22T10:54:55.1Z</time>
      </trkpt>
      <trkpt lat="48.43145" lon="-3.58349">
        <ele>214</ele>
        <time>2015-03-22T10:54:57.1Z</time>
      </trkpt>
      <trkpt lat="48.43149" lon="-3.58348">
        <ele>214</ele>
        <time>2015-03-22T10:55:00.1Z</time>
      </trkpt>
      <trkpt lat="48.43152" lon="-3.58348">
        <ele>213</ele>
        <time>2015-03-22T10:55:03.1Z</time>
      </trkpt>
      <trkpt lat="48.43154" lon="-3.58348">
        <ele>212</ele>
        <time>2015-03-22T10:55:05.1Z</time>
      </trkpt>
      <trkpt lat="48.43156" lon="-3.58348">
        <ele>212</ele>
        <time>2015-03-22T10:55:08.1Z</time>
      </trkpt>
      <trkpt lat="48.43159" lon="-3.58349">
        <ele>212</ele>
        <time>2015-03-22T10:55:11.1Z</time>
      </trkpt>
      <trkpt lat="48.4316" lon="-3.58349">
        <ele>211</ele>
        <time>2015-03-22T10:55:13.1Z</time>
      </trkpt>
      <trkpt lat="48.43163" lon="-3.58348">
        <ele>211</ele>
        <time>2015-03-22T10:55:16.1Z</time>
      </trkpt>
      <trkpt lat="48.43166" lon="-3.58347">
        <ele>211</ele>
        <time>2015-03-22T10:55:19.1Z</time>
      </trkpt>
      <trkpt lat="48.43167" lon="-3.58346">
        <ele>210</ele>
        <time>2015-03-22T10:55:21.1Z</time>
      </trkpt>
      <trkpt lat="48.43169" lon="-3.58345">
        <ele>209</ele>
        <time>2015-03-22T10:55:24.1Z</time>
      </trkpt>
      <trkpt lat="48.43171" lon="-3.58345">
        <ele>209</ele>
        <time>2015-03-22T10:55:27.1Z</time>
      </trkpt>
      <trkpt lat="48.43173" lon="-3.58345">
        <ele>208</ele>
        <time>2015-03-22T10:55:29.1Z</time>
      </trkpt>
      <trkpt lat="48.43174" lon="-3.58345">
        <ele>208</ele>
        <time>2015-03-22T10:55:32.1Z</time>
      </trkpt>
      <trkpt lat="48.43176" lon="-3.58345">
        <ele>208</ele>
        <time>2015-03-22T10:55:34.1Z</time>
      </trkpt>
      <trkpt lat="48.43177" lon="-3.58345">
        <ele>207</ele>
        <time>2015-03-22T10:55:36.1Z</time>
      </trkpt>
      <trkpt lat="48.4318" lon="-3.58345">
        <ele>207</ele>
        <time>2015-03-22T10:55:39.1Z</time>
      </trkpt>
      <trkpt lat="48.43183" lon="-3.58345">
        <ele>207</ele>
        <time>2015-03-22T10:55:42.1Z</time>
      </trkpt>
      <trkpt lat="48.43185" lon="-3.58344">
        <ele>206</ele>
        <time>2015-03-22T10:55:45.1Z</time>
      </trkpt>
      <trkpt lat="48.43186" lon="-3.58345">
        <ele>206</ele>
        <time>2015-03-22T10:55:47.1Z</time>
      </trkpt>
      <trkpt lat="48.43188" lon="-3.58344">
        <ele>206</ele>
        <time>2015-03-22T10:55:50.1Z</time>
      </trkpt>
      <trkpt lat="48.43192" lon="-3.58344">
        <ele>206</ele>
        <time>2015-03-22T10:55:53.1Z</time>
      </trkpt>
      <trkpt lat="48.43193" lon="-3.58344">
        <ele>205</ele>
        <time>2015-03-22T10:55:55.1Z</time>
      </trkpt>
      <trkpt lat="48.43196" lon="-3.58343">
        <ele>205</ele>
        <time>2015-03-22T10:55:58.1Z</time>
      </trkpt>
      <trkpt lat="48.43197" lon="-3.58343">
        <ele>204</ele>
        <time>2015-03-22T10:56:00.1Z</time>
      </trkpt>
      <trkpt lat="48.43198" lon="-3.58343">
        <ele>204</ele>
        <time>2015-03-22T10:56:02.1Z</time>
      </trkpt>
      <trkpt lat="48.43199" lon="-3.58342">
        <ele>204</ele>
        <time>2015-03-22T10:56:05.1Z</time>
      </trkpt>
      <trkpt lat="48.43201" lon="-3.58341">
        <ele>204</ele>
        <time>2015-03-22T10:56:08.1Z</time>
      </trkpt>
      <trkpt lat="48.43201" lon="-3.58341">
        <ele>204</ele>
        <time>2015-03-22T10:56:11.1Z</time>
      </trkpt>
      <trkpt lat="48.43201" lon="-3.5834">
        <ele>204</ele>
        <time>2015-03-22T10:56:13.1Z</time>
      </trkpt>
      <trkpt lat="48.43203" lon="-3.58339">
        <ele>204</ele>
        <time>2015-03-22T10:56:15.1Z</time>
      </trkpt>
      <trkpt lat="48.43204" lon="-3.58339">
        <ele>204</ele>
        <time>2015-03-22T10:56:18.1Z</time>
      </trkpt>
      <trkpt lat="48.43206" lon="-3.5834">
        <ele>204</ele>
        <time>2015-03-22T10:56:21.1Z</time>
      </trkpt>
      <trkpt lat="48.43206" lon="-3.5834">
        <ele>204</ele>
        <time>2015-03-22T10:56:23.1Z</time>
      </trkpt>
      <trkpt lat="48.43207" lon="-3.5834">
        <ele>204</ele>
        <time>2015-03-22T10:56:26.1Z</time>
      </trkpt>
      <trkpt lat="48.43207" lon="-3.58339">
        <ele>204</ele>
        <time>2015-03-22T10:56:28.1Z</time>
      </trkpt>
      <trkpt lat="48.43208" lon="-3.58338">
        <ele>204</ele>
        <time>2015-03-22T10:56:30.1Z</time>
      </trkpt>
      <trkpt lat="48.43208" lon="-3.58338">
        <ele>204</ele>
        <time>2015-03-22T10:56:33.1Z</time>
      </trkpt>
      <trkpt lat="48.43209" lon="-3.58335">
        <ele>204</ele>
        <time>2015-03-22T10:56:36.1Z</time>
      </trkpt>
      <trkpt lat="48.43209" lon="-3.58333">
        <ele>205</ele>
        <time>2015-03-22T10:56:39.1Z</time>
      </trkpt>
      <trkpt lat="48.43208" lon="-3.58331">
        <ele>205</ele>
        <time>2015-03-22T10:56:41.1Z</time>
      </trkpt>
      <trkpt lat="48.43208" lon="-3.58329">
        <ele>205</ele>
        <time>2015-03-22T10:56:43.1Z</time>
      </trkpt>
      <trkpt lat="48.43209" lon="-3.58326">
        <ele>205</ele>
        <time>2015-03-22T10:56:45.1Z</time>
      </trkpt>
      <trkpt lat="48.43209" lon="-3.58324">
        <ele>205</ele>
        <time>2015-03-22T10:56:47.1Z</time>
      </trkpt>
      <trkpt lat="48.43209" lon="-3.58321">
        <ele>205</ele>
        <time>2015-03-22T10:56:49.1Z</time>
      </trkpt>
      <trkpt lat="48.43208" lon="-3.58316">
        <ele>205</ele>
        <time>2015-03-22T10:56:52.1Z</time>
      </trkpt>
      <trkpt lat="48.43208" lon="-3.58313">
        <ele>206</ele>
        <time>2015-03-22T10:56:54.1Z</time>
      </trkpt>
      <trkpt lat="48.43208" lon="-3.58311">
        <ele>206</ele>
        <time>2015-03-22T10:56:56.1Z</time>
      </trkpt>
      <trkpt lat="48.43208" lon="-3.58309">
        <ele>206</ele>
        <time>2015-03-22T10:56:58.1Z</time>
      </trkpt>
      <trkpt lat="48.43209" lon="-3.58307">
        <ele>206</ele>
        <time>2015-03-22T10:57:00.1Z</time>
      </trkpt>
      <trkpt lat="48.43209" lon="-3.58304">
        <ele>207</ele>
        <time>2015-03-22T10:57:02.1Z</time>
      </trkpt>
      <trkpt lat="48.43209" lon="-3.58301">
        <ele>207</ele>
        <time>2015-03-22T10:57:05.1Z</time>
      </trkpt>
      <trkpt lat="48.43209" lon="-3.583">
        <ele>207</ele>
        <time>2015-03-22T10:57:07.1Z</time>
      </trkpt>
      <trkpt lat="48.43209" lon="-3.58298">
        <ele>208</ele>
        <time>2015-03-22T10:57:09.1Z</time>
      </trkpt>
      <trkpt lat="48.43208" lon="-3.58296">
        <ele>208</ele>
        <time>2015-03-22T10:57:12.1Z</time>
      </trkpt>
      <trkpt lat="48.43209" lon="-3.58294">
        <ele>208</ele>
        <time>2015-03-22T10:57:15.1Z</time>
      </trkpt>
      <trkpt lat="48.43209" lon="-3.58291">
        <ele>209</ele>
        <time>2015-03-22T10:57:18.1Z</time>
      </trkpt>
      <trkpt lat="48.43209" lon="-3.5829">
        <ele>209</ele>
        <time>2015-03-22T10:57:20.1Z</time>
      </trkpt>
      <trkpt lat="48.43208" lon="-3.58287">
        <ele>209</ele>
        <time>2015-03-22T10:57:23.1Z</time>
      </trkpt>
      <trkpt lat="48.43208" lon="-3.58284">
        <ele>209</ele>
        <time>2015-03-22T10:57:26.1Z</time>
      </trkpt>
      <trkpt lat="48.43208" lon="-3.58282">
        <ele>210</ele>
        <time>2015-03-22T10:57:28.1Z</time>
      </trkpt>
      <trkpt lat="48.43208" lon="-3.5828">
        <ele>210</ele>
        <time>2015-03-22T10:57:31.1Z</time>
      </trkpt>
      <trkpt lat="48.43208" lon="-3.58278">
        <ele>210</ele>
        <time>2015-03-22T10:57:33.1Z</time>
      </trkpt>
      <trkpt lat="48.43208" lon="-3.58277">
        <ele>211</ele>
        <time>2015-03-22T10:57:36.1Z</time>
      </trkpt>
      <trkpt lat="48.43208" lon="-3.58274">
        <ele>211</ele>
        <time>2015-03-22T10:57:39.1Z</time>
      </trkpt>
      <trkpt lat="48.43208" lon="-3.58272">
        <ele>211</ele>
        <time>2015-03-22T10:57:41.1Z</time>
      </trkpt>
      <trkpt lat="48.43208" lon="-3.58271">
        <ele>211</ele>
        <time>2015-03-22T10:57:43.1Z</time>
      </trkpt>
      <trkpt lat="48.43208" lon="-3.58268">
        <ele>211</ele>
        <time>2015-03-22T10:57:45.1Z</time>
      </trkpt>
      <trkpt lat="48.43207" lon="-3.58265">
        <ele>211</ele>
        <time>2015-03-22T10:57:48.1Z</time>
      </trkpt>
      <trkpt lat="48.43206" lon="-3.58262">
        <ele>212</ele>
        <time>2015-03-22T10:57:50.1Z</time>
      </trkpt>
      <trkpt lat="48.43207" lon="-3.58258">
        <ele>212</ele>
        <time>2015-03-22T10:57:53.1Z</time>
      </trkpt>
      <trkpt lat="48.43206" lon="-3.58256">
        <ele>213</ele>
        <time>2015-03-22T10:57:55.1Z</time>
      </trkpt>
      <trkpt lat="48.43206" lon="-3.58253">
        <ele>213</ele>
        <time>2015-03-22T10:57:57.1Z</time>
      </trkpt>
      <trkpt lat="48.43206" lon="-3.58251">
        <ele>213</ele>
        <time>2015-03-22T10:57:59.1Z</time>
      </trkpt>
      <trkpt lat="48.43206" lon="-3.58249">
        <ele>214</ele>
        <time>2015-03-22T10:58:01.1Z</time>
      </trkpt>
      <trkpt lat="48.43206" lon="-3.58247">
        <ele>214</ele>
        <time>2015-03-22T10:58:03.1Z</time>
      </trkpt>
      <trkpt lat="48.43206" lon="-3.58245">
        <ele>214</ele>
        <time>2015-03-22T10:58:06.1Z</time>
      </trkpt>
      <trkpt lat="48.43206" lon="-3.58243">
        <ele>214</ele>
        <time>2015-03-22T10:58:08.1Z</time>
      </trkpt>
      <trkpt lat="48.43205" lon="-3.58241">
        <ele>215</ele>
        <time>2015-03-22T10:58:10.1Z</time>
      </trkpt>
      <trkpt lat="48.43205" lon="-3.58238">
        <ele>215</ele>
        <time>2015-03-22T10:58:12.1Z</time>
      </trkpt>
      <trkpt lat="48.43205" lon="-3.58236">
        <ele>215</ele>
        <time>2015-03-22T10:58:14.1Z</time>
      </trkpt>
      <trkpt lat="48.43205" lon="-3.58234">
        <ele>216</ele>
        <time>2015-03-22T10:58:16.1Z</time>
      </trkpt>
      <trkpt lat="48.43205" lon="-3.58231">
        <ele>216</ele>
        <time>2015-03-22T10:58:19.1Z</time>
      </trkpt>
      <trkpt lat="48.43205" lon="-3.58228">
        <ele>216</ele>
        <time>2015-03-22T10:58:21.1Z</time>
      </trkpt>
      <trkpt lat="48.43205" lon="-3.58225">
        <ele>217</ele>
        <time>2015-03-22T10:58:23.1Z</time>
      </trkpt>
      <trkpt lat="48.43204" lon="-3.58224">
        <ele>217</ele>
        <time>2015-03-22T10:58:25.1Z</time>
      </trkpt>
      <trkpt lat="48.43203" lon="-3.58222">
        <ele>218</ele>
        <time>2015-03-22T10:58:28.1Z</time>
      </trkpt>
      <trkpt lat="48.43203" lon="-3.58219">
        <ele>218</ele>
        <time>2015-03-22T10:58:31.1Z</time>
      </trkpt>
      <trkpt lat="48.43202" lon="-3.58217">
        <ele>219</ele>
        <time>2015-03-22T10:58:33.1Z</time>
      </trkpt>
      <trkpt lat="48.43202" lon="-3.58215">
        <ele>219</ele>
        <time>2015-03-22T10:58:35.1Z</time>
      </trkpt>
      <trkpt lat="48.43201" lon="-3.58212">
        <ele>220</ele>
        <time>2015-03-22T10:58:37.1Z</time>
      </trkpt>
      <trkpt lat="48.43201" lon="-3.58209">
        <ele>220</ele>
        <time>2015-03-22T10:58:40.1Z</time>
      </trkpt>
      <trkpt lat="48.432" lon="-3.58206">
        <ele>220</ele>
        <time>2015-03-22T10:58:42.1Z</time>
      </trkpt>
      <trkpt lat="48.43198" lon="-3.58205">
        <ele>220</ele>
        <time>2015-03-22T10:58:44.1Z</time>
      </trkpt>
      <trkpt lat="48.43198" lon="-3.58204">
        <ele>220</ele>
        <time>2015-03-22T10:58:46.1Z</time>
      </trkpt>
      <trkpt lat="48.43199" lon="-3.58202">
        <ele>220</ele>
        <time>2015-03-22T10:58:48.1Z</time>
      </trkpt>
      <trkpt lat="48.43198" lon="-3.58198">
        <ele>220</ele>
        <time>2015-03-22T10:58:51.1Z</time>
      </trkpt>
      <trkpt lat="48.43197" lon="-3.58195">
        <ele>220</ele>
        <time>2015-03-22T10:58:53.1Z</time>
      </trkpt>
      <trkpt lat="48.43197" lon="-3.58193">
        <ele>221</ele>
        <time>2015-03-22T10:58:55.1Z</time>
      </trkpt>
      <trkpt lat="48.43197" lon="-3.58191">
        <ele>221</ele>
        <time>2015-03-22T10:58:57.1Z</time>
      </trkpt>
      <trkpt lat="48.43196" lon="-3.58189">
        <ele>221</ele>
        <time>2015-03-22T10:58:59.1Z</time>
      </trkpt>
      <trkpt lat="48.43195" lon="-3.58187">
        <ele>222</ele>
        <time>2015-03-22T10:59:01.1Z</time>
      </trkpt>
      <trkpt lat="48.43195" lon="-3.58186">
        <ele>222</ele>
        <time>2015-03-22T10:59:04.1Z</time>
      </trkpt>
      <trkpt lat="48.43194" lon="-3.58185">
        <ele>222</ele>
        <time>2015-03-22T10:59:07.1Z</time>
      </trkpt>
      <trkpt lat="48.43193" lon="-3.58185">
        <ele>222</ele>
        <time>2015-03-22T10:59:09.1Z</time>
      </trkpt>
      <trkpt lat="48.43193" lon="-3.58183">
        <ele>222</ele>
        <time>2015-03-22T10:59:11.1Z</time>
      </trkpt>
      <trkpt lat="48.43192" lon="-3.58179">
        <ele>222</ele>
        <time>2015-03-22T10:59:14.1Z</time>
      </trkpt>
      <trkpt lat="48.43191" lon="-3.58177">
        <ele>223</ele>
        <time>2015-03-22T10:59:16.1Z</time>
      </trkpt>
      <trkpt lat="48.4319" lon="-3.58175">
        <ele>223</ele>
        <time>2015-03-22T10:59:18.1Z</time>
      </trkpt>
      <trkpt lat="48.43189" lon="-3.58173">
        <ele>224</ele>
        <time>2015-03-22T10:59:20.1Z</time>
      </trkpt>
      <trkpt lat="48.43188" lon="-3.58171">
        <ele>224</ele>
        <time>2015-03-22T10:59:22.1Z</time>
      </trkpt>
      <trkpt lat="48.43186" lon="-3.58169">
        <ele>224</ele>
        <time>2015-03-22T10:59:25.1Z</time>
      </trkpt>
      <trkpt lat="48.43185" lon="-3.58165">
        <ele>224</ele>
        <time>2015-03-22T10:59:27.1Z</time>
      </trkpt>
      <trkpt lat="48.43185" lon="-3.58163">
        <ele>225</ele>
        <time>2015-03-22T10:59:29.1Z</time>
      </trkpt>
      <trkpt lat="48.43183" lon="-3.58159">
        <ele>225</ele>
        <time>2015-03-22T10:59:32.1Z</time>
      </trkpt>
      <trkpt lat="48.43183" lon="-3.58156">
        <ele>225</ele>
        <time>2015-03-22T10:59:34.1Z</time>
      </trkpt>
      <trkpt lat="48.43182" lon="-3.58154">
        <ele>225</ele>
        <time>2015-03-22T10:59:36.1Z</time>
      </trkpt>
      <trkpt lat="48.43183" lon="-3.5815">
        <ele>226</ele>
        <time>2015-03-22T10:59:39.1Z</time>
      </trkpt>
      <trkpt lat="48.43182" lon="-3.58148">
        <ele>226</ele>
        <time>2015-03-22T10:59:41.1Z</time>
      </trkpt>
      <trkpt lat="48.43182" lon="-3.58144">
        <ele>226</ele>
        <time>2015-03-22T10:59:44.1Z</time>
      </trkpt>
      <trkpt lat="48.43182" lon="-3.58143">
        <ele>226</ele>
        <time>2015-03-22T10:59:46.1Z</time>
      </trkpt>
      <trkpt lat="48.43182" lon="-3.5814">
        <ele>226</ele>
        <time>2015-03-22T10:59:48.1Z</time>
      </trkpt>
      <trkpt lat="48.43181" lon="-3.58138">
        <ele>227</ele>
        <time>2015-03-22T10:59:51.1Z</time>
      </trkpt>
      <trkpt lat="48.43181" lon="-3.58136">
        <ele>227</ele>
        <time>2015-03-22T10:59:53.1Z</time>
      </trkpt>
      <trkpt lat="48.4318" lon="-3.58134">
        <ele>228</ele>
        <time>2015-03-22T10:59:56.1Z</time>
      </trkpt>
      <trkpt lat="48.43179" lon="-3.58134">
        <ele>228</ele>
        <time>2015-03-22T10:59:59.1Z</time>
      </trkpt>
      <trkpt lat="48.43177" lon="-3.58132">
        <ele>228</ele>
        <time>2015-03-22T11:00:02.1Z</time>
      </trkpt>
      <trkpt lat="48.43177" lon="-3.5813">
        <ele>228</ele>
        <time>2015-03-22T11:00:04.1Z</time>
      </trkpt>
      <trkpt lat="48.43174" lon="-3.58129">
        <ele>228</ele>
        <time>2015-03-22T11:00:07.1Z</time>
      </trkpt>
      <trkpt lat="48.43173" lon="-3.58129">
        <ele>229</ele>
        <time>2015-03-22T11:00:09.1Z</time>
      </trkpt>
      <trkpt lat="48.43173" lon="-3.58127">
        <ele>229</ele>
        <time>2015-03-22T11:00:12.1Z</time>
      </trkpt>
      <trkpt lat="48.43173" lon="-3.58124">
        <ele>229</ele>
        <time>2015-03-22T11:00:15.1Z</time>
      </trkpt>
      <trkpt lat="48.43171" lon="-3.58123">
        <ele>229</ele>
        <time>2015-03-22T11:00:17.1Z</time>
      </trkpt>
      <trkpt lat="48.4317" lon="-3.5812">
        <ele>229</ele>
        <time>2015-03-22T11:00:19.1Z</time>
      </trkpt>
      <trkpt lat="48.4317" lon="-3.58118">
        <ele>229</ele>
        <time>2015-03-22T11:00:22.1Z</time>
      </trkpt>
      <trkpt lat="48.43169" lon="-3.58118">
        <ele>229</ele>
        <time>2015-03-22T11:00:24.1Z</time>
      </trkpt>
      <trkpt lat="48.43169" lon="-3.58119">
        <ele>229</ele>
        <time>2015-03-22T11:00:27.1Z</time>
      </trkpt>
      <trkpt lat="48.43169" lon="-3.5812">
        <ele>229</ele>
        <time>2015-03-22T11:00:29.1Z</time>
      </trkpt>
      <trkpt lat="48.43169" lon="-3.58121">
        <ele>228</ele>
        <time>2015-03-22T11:00:31.1Z</time>
      </trkpt>
      <trkpt lat="48.43168" lon="-3.5812">
        <ele>228</ele>
        <time>2015-03-22T11:00:33.1Z</time>
      </trkpt>
      <trkpt lat="48.43167" lon="-3.5812">
        <ele>228</ele>
        <time>2015-03-22T11:00:36.1Z</time>
      </trkpt>
      <trkpt lat="48.43167" lon="-3.5812">
        <ele>228</ele>
        <time>2015-03-22T11:00:39.1Z</time>
      </trkpt>
      <trkpt lat="48.43167" lon="-3.58121">
        <ele>228</ele>
        <time>2015-03-22T11:00:41.1Z</time>
      </trkpt>
      <trkpt lat="48.43166" lon="-3.58121">
        <ele>228</ele>
        <time>2015-03-22T11:00:43.1Z</time>
      </trkpt>
      <trkpt lat="48.43166" lon="-3.58121">
        <ele>228</ele>
        <time>2015-03-22T11:00:46.1Z</time>
      </trkpt>
      <trkpt lat="48.43166" lon="-3.58121">
        <ele>228</ele>
        <time>2015-03-22T11:00:49.1Z</time>
      </trkpt>
      <trkpt lat="48.43166" lon="-3.5812">
        <ele>228</ele>
        <time>2015-03-22T11:00:51.1Z</time>
      </trkpt>
      <trkpt lat="48.43165" lon="-3.5812">
        <ele>228</ele>
        <time>2015-03-22T11:00:54.1Z</time>
      </trkpt>
      <trkpt lat="48.43165" lon="-3.5812">
        <ele>228</ele>
        <time>2015-03-22T11:00:56.1Z</time>
      </trkpt>
      <trkpt lat="48.43164" lon="-3.58117">
        <ele>228</ele>
        <time>2015-03-22T11:00:59.1Z</time>
      </trkpt>
      <trkpt lat="48.43163" lon="-3.58115">
        <ele>228</ele>
        <time>2015-03-22T11:01:01.1Z</time>
      </trkpt>
      <trkpt lat="48.43162" lon="-3.58112">
        <ele>229</ele>
        <time>2015-03-22T11:01:04.1Z</time>
      </trkpt>
      <trkpt lat="48.4316" lon="-3.58108">
        <ele>229</ele>
        <time>2015-03-22T11:01:07.1Z</time>
      </trkpt>
      <trkpt lat="48.43159" lon="-3.58105">
        <ele>230</ele>
        <time>2015-03-22T11:01:09.1Z</time>
      </trkpt>
      <trkpt lat="48.43156" lon="-3.58102">
        <ele>230</ele>
        <time>2015-03-22T11:01:12.1Z</time>
      </trkpt>
      <trkpt lat="48.43154" lon="-3.58099">
        <ele>230</ele>
        <time>2015-03-22T11:01:15.1Z</time>
      </trkpt>
      <trkpt lat="48.43152" lon="-3.58094">
        <ele>230</ele>
        <time>2015-03-22T11:01:18.1Z</time>
      </trkpt>
      <trkpt lat="48.4315" lon="-3.58091">
        <ele>230</ele>
        <time>2015-03-22T11:01:21.1Z</time>
      </trkpt>
      <trkpt lat="48.43148" lon="-3.58086">
        <ele>230</ele>
        <time>2015-03-22T11:01:24.1Z</time>
      </trkpt>
      <trkpt lat="48.43147" lon="-3.58084">
        <ele>231</ele>
        <time>2015-03-22T11:01:26.1Z</time>
      </trkpt>
      <trkpt lat="48.43145" lon="-3.58081">
        <ele>231</ele>
        <time>2015-03-22T11:01:28.1Z</time>
      </trkpt>
      <trkpt lat="48.43143" lon="-3.58077">
        <ele>232</ele>
        <time>2015-03-22T11:01:31.1Z</time>
      </trkpt>
      <trkpt lat="48.43142" lon="-3.58073">
        <ele>232</ele>
        <time>2015-03-22T11:01:34.1Z</time>
      </trkpt>
      <trkpt lat="48.43141" lon="-3.58068">
        <ele>232</ele>
        <time>2015-03-22T11:01:37.1Z</time>
      </trkpt>
      <trkpt lat="48.4314" lon="-3.58065">
        <ele>232</ele>
        <time>2015-03-22T11:01:40.1Z</time>
      </trkpt>
      <trkpt lat="48.43138" lon="-3.5806">
        <ele>233</ele>
        <time>2015-03-22T11:01:43.1Z</time>
      </trkpt>
      <trkpt lat="48.43136" lon="-3.58056">
        <ele>233</ele>
        <time>2015-03-22T11:01:46.1Z</time>
      </trkpt>
      <trkpt lat="48.43135" lon="-3.58053">
        <ele>234</ele>
        <time>2015-03-22T11:01:49.1Z</time>
      </trkpt>
      <trkpt lat="48.43132" lon="-3.5805">
        <ele>234</ele>
        <time>2015-03-22T11:01:51.1Z</time>
      </trkpt>
      <trkpt lat="48.4313" lon="-3.58047">
        <ele>234</ele>
        <time>2015-03-22T11:01:54.1Z</time>
      </trkpt>
      <trkpt lat="48.43129" lon="-3.58045">
        <ele>233</ele>
        <time>2015-03-22T11:01:56.1Z</time>
      </trkpt>
      <trkpt lat="48.43128" lon="-3.58043">
        <ele>233</ele>
        <time>2015-03-22T11:01:58.1Z</time>
      </trkpt>
      <trkpt lat="48.43127" lon="-3.5804">
        <ele>234</ele>
        <time>2015-03-22T11:02:01.1Z</time>
      </trkpt>
      <trkpt lat="48.43125" lon="-3.58039">
        <ele>234</ele>
        <time>2015-03-22T11:02:03.1Z</time>
      </trkpt>
      <trkpt lat="48.43123" lon="-3.58036">
        <ele>235</ele>
        <time>2015-03-22T11:02:06.1Z</time>
      </trkpt>
      <trkpt lat="48.43121" lon="-3.58032">
        <ele>234</ele>
        <time>2015-03-22T11:02:09.1Z</time>
      </trkpt>
      <trkpt lat="48.43119" lon="-3.5803">
        <ele>234</ele>
        <time>2015-03-22T11:02:11.1Z</time>
      </trkpt>
      <trkpt lat="48.43118" lon="-3.58026">
        <ele>234</ele>
        <time>2015-03-22T11:02:14.1Z</time>
      </trkpt>
      <trkpt lat="48.43117" lon="-3.58023">
        <ele>235</ele>
        <time>2015-03-22T11:02:16.1Z</time>
      </trkpt>
      <trkpt lat="48.43116" lon="-3.5802">
        <ele>235</ele>
        <time>2015-03-22T11:02:19.1Z</time>
      </trkpt>
      <trkpt lat="48.43114" lon="-3.58017">
        <ele>235</ele>
        <time>2015-03-22T11:02:21.1Z</time>
      </trkpt>
      <trkpt lat="48.43113" lon="-3.58014">
        <ele>236</ele>
        <time>2015-03-22T11:02:24.1Z</time>
      </trkpt>
      <trkpt lat="48.43111" lon="-3.5801">
        <ele>236</ele>
        <time>2015-03-22T11:02:27.1Z</time>
      </trkpt>
      <trkpt lat="48.4311" lon="-3.58006">
        <ele>237</ele>
        <time>2015-03-22T11:02:30.1Z</time>
      </trkpt>
      <trkpt lat="48.43109" lon="-3.58004">
        <ele>237</ele>
        <time>2015-03-22T11:02:32.1Z</time>
      </trkpt>
      <trkpt lat="48.43107" lon="-3.58001">
        <ele>237</ele>
        <time>2015-03-22T11:02:35.1Z</time>
      </trkpt>
      <trkpt lat="48.43105" lon="-3.57999">
        <ele>238</ele>
        <time>2015-03-22T11:02:37.1Z</time>
      </trkpt>
      <trkpt lat="48.43103" lon="-3.57995">
        <ele>238</ele>
        <time>2015-03-22T11:02:40.1Z</time>
      </trkpt>
      <trkpt lat="48.43101" lon="-3.57993">
        <ele>239</ele>
        <time>2015-03-22T11:02:43.1Z</time>
      </trkpt>
      <trkpt lat="48.431" lon="-3.57991">
        <ele>239</ele>
        <time>2015-03-22T11:02:45.1Z</time>
      </trkpt>
      <trkpt lat="48.43098" lon="-3.57989">
        <ele>239</ele>
        <time>2015-03-22T11:02:48.1Z</time>
      </trkpt>
      <trkpt lat="48.43097" lon="-3.57987">
        <ele>240</ele>
        <time>2015-03-22T11:02:51.1Z</time>
      </trkpt>
      <trkpt lat="48.43096" lon="-3.57985">
        <ele>240</ele>
        <time>2015-03-22T11:02:53.1Z</time>
      </trkpt>
      <trkpt lat="48.43093" lon="-3.57981">
        <ele>240</ele>
        <time>2015-03-22T11:02:56.1Z</time>
      </trkpt>
      <trkpt lat="48.43091" lon="-3.57978">
        <ele>240</ele>
        <time>2015-03-22T11:02:58.1Z</time>
      </trkpt>
      <trkpt lat="48.4309" lon="-3.57976">
        <ele>240</ele>
        <time>2015-03-22T11:03:00.1Z</time>
      </trkpt>
      <trkpt lat="48.43087" lon="-3.57972">
        <ele>240</ele>
        <time>2015-03-22T11:03:03.1Z</time>
      </trkpt>
      <trkpt lat="48.43084" lon="-3.57969">
        <ele>240</ele>
        <time>2015-03-22T11:03:06.1Z</time>
      </trkpt>
      <trkpt lat="48.43083" lon="-3.57967">
        <ele>241</ele>
        <time>2015-03-22T11:03:08.1Z</time>
      </trkpt>
      <trkpt lat="48.43081" lon="-3.57965">
        <ele>241</ele>
        <time>2015-03-22T11:03:10.1Z</time>
      </trkpt>
      <trkpt lat="48.43079" lon="-3.57962">
        <ele>241</ele>
        <time>2015-03-22T11:03:13.1Z</time>
      </trkpt>
      <trkpt lat="48.43076" lon="-3.57958">
        <ele>241</ele>
        <time>2015-03-22T11:03:16.1Z</time>
      </trkpt>
      <trkpt lat="48.43074" lon="-3.57955">
        <ele>241</ele>
        <time>2015-03-22T11:03:19.1Z</time>
      </trkpt>
      <trkpt lat="48.43071" lon="-3.57951">
        <ele>242</ele>
        <time>2015-03-22T11:03:22.1Z</time>
      </trkpt>
      <trkpt lat="48.43069" lon="-3.5795">
        <ele>242</ele>
        <time>2015-03-22T11:03:24.1Z</time>
      </trkpt>
      <trkpt lat="48.43068" lon="-3.57948">
        <ele>242</ele>
        <time>2015-03-22T11:03:26.1Z</time>
      </trkpt>
      <trkpt lat="48.43066" lon="-3.57945">
        <ele>242</ele>
        <time>2015-03-22T11:03:29.1Z</time>
      </trkpt>
      <trkpt lat="48.43064" lon="-3.57943">
        <ele>243</ele>
        <time>2015-03-22T11:03:31.1Z</time>
      </trkpt>
      <trkpt lat="48.43063" lon="-3.57941">
        <ele>243</ele>
        <time>2015-03-22T11:03:33.1Z</time>
      </trkpt>
      <trkpt lat="48.4306" lon="-3.57938">
        <ele>244</ele>
        <time>2015-03-22T11:03:36.1Z</time>
      </trkpt>
      <trkpt lat="48.43059" lon="-3.57936">
        <ele>244</ele>
        <time>2015-03-22T11:03:38.1Z</time>
      </trkpt>
      <trkpt lat="48.43057" lon="-3.57934">
        <ele>244</ele>
        <time>2015-03-22T11:03:40.1Z</time>
      </trkpt>
      <trkpt lat="48.43055" lon="-3.57932">
        <ele>244</ele>
        <time>2015-03-22T11:03:42.1Z</time>
      </trkpt>
      <trkpt lat="48.43052" lon="-3.5793">
        <ele>244</ele>
        <time>2015-03-22T11:03:45.1Z</time>
      </trkpt>
      <trkpt lat="48.4305" lon="-3.57928">
        <ele>244</ele>
        <time>2015-03-22T11:03:48.1Z</time>
      </trkpt>
      <trkpt lat="48.43047" lon="-3.57926">
        <ele>245</ele>
        <time>2015-03-22T11:03:51.1Z</time>
      </trkpt>
      <trkpt lat="48.43045" lon="-3.57925">
        <ele>245</ele>
        <time>2015-03-22T11:03:53.1Z</time>
      </trkpt>
      <trkpt lat="48.43043" lon="-3.57923">
        <ele>246</ele>
        <time>2015-03-22T11:03:56.1Z</time>
      </trkpt>
      <trkpt lat="48.43041" lon="-3.57921">
        <ele>246</ele>
        <time>2015-03-22T11:03:58.1Z</time>
      </trkpt>
      <trkpt lat="48.43039" lon="-3.57918">
        <ele>246</ele>
        <time>2015-03-22T11:04:01.1Z</time>
      </trkpt>
      <trkpt lat="48.43035" lon="-3.57914">
        <ele>246</ele>
        <time>2015-03-22T11:04:04.1Z</time>
      </trkpt>
      <trkpt lat="48.43032" lon="-3.57912">
        <ele>246</ele>
        <time>2015-03-22T11:04:07.1Z</time>
      </trkpt>
      <trkpt lat="48.43031" lon="-3.5791">
        <ele>246</ele>
        <time>2015-03-22T11:04:09.1Z</time>
      </trkpt>
      <trkpt lat="48.43028" lon="-3.57907">
        <ele>246</ele>
        <time>2015-03-22T11:04:12.1Z</time>
      </trkpt>
      <trkpt lat="48.43026" lon="-3.57904">
        <ele>246</ele>
        <time>2015-03-22T11:04:14.1Z</time>
      </trkpt>
      <trkpt lat="48.43023" lon="-3.579">
        <ele>246</ele>
        <time>2015-03-22T11:04:17.1Z</time>
      </trkpt>
      <trkpt lat="48.43019" lon="-3.57897">
        <ele>246</ele>
        <time>2015-03-22T11:04:20.1Z</time>
      </trkpt>
      <trkpt lat="48.43017" lon="-3.57894">
        <ele>246</ele>
        <time>2015-03-22T11:04:22.1Z</time>
      </trkpt>
      <trkpt lat="48.43015" lon="-3.57892">
        <ele>246</ele>
        <time>2015-03-22T11:04:24.1Z</time>
      </trkpt>
      <trkpt lat="48.43013" lon="-3.5789">
        <ele>247</ele>
        <time>2015-03-22T11:04:26.1Z</time>
      </trkpt>
      <trkpt lat="48.4301" lon="-3.57886">
        <ele>247</ele>
        <time>2015-03-22T11:04:29.1Z</time>
      </trkpt>
      <trkpt lat="48.43008" lon="-3.57883">
        <ele>247</ele>
        <time>2015-03-22T11:04:31.1Z</time>
      </trkpt>
      <trkpt lat="48.43006" lon="-3.5788">
        <ele>247</ele>
        <time>2015-03-22T11:04:34.1Z</time>
      </trkpt>
      <trkpt lat="48.43004" lon="-3.57877">
        <ele>246</ele>
        <time>2015-03-22T11:04:36.1Z</time>
      </trkpt>
      <trkpt lat="48.43002" lon="-3.57875">
        <ele>246</ele>
        <time>2015-03-22T11:04:38.1Z</time>
      </trkpt>
      <trkpt lat="48.43" lon="-3.57872">
        <ele>246</ele>
        <time>2015-03-22T11:04:40.1Z</time>
      </trkpt>
      <trkpt lat="48.42997" lon="-3.57869">
        <ele>246</ele>
        <time>2015-03-22T11:04:43.1Z</time>
      </trkpt>
      <trkpt lat="48.42995" lon="-3.57866">
        <ele>246</ele>
        <time>2015-03-22T11:04:46.1Z</time>
      </trkpt>
      <trkpt lat="48.42993" lon="-3.57862">
        <ele>247</ele>
        <time>2015-03-22T11:04:49.1Z</time>
      </trkpt>
      <trkpt lat="48.4299" lon="-3.57859">
        <ele>247</ele>
        <time>2015-03-22T11:04:52.1Z</time>
      </trkpt>
      <trkpt lat="48.42989" lon="-3.57856">
        <ele>246</ele>
        <time>2015-03-22T11:04:54.1Z</time>
      </trkpt>
      <trkpt lat="48.42986" lon="-3.57853">
        <ele>246</ele>
        <time>2015-03-22T11:04:57.1Z</time>
      </trkpt>
      <trkpt lat="48.42985" lon="-3.5785">
        <ele>246</ele>
        <time>2015-03-22T11:04:59.1Z</time>
      </trkpt>
      <trkpt lat="48.42982" lon="-3.57846">
        <ele>246</ele>
        <time>2015-03-22T11:05:02.1Z</time>
      </trkpt>
      <trkpt lat="48.42981" lon="-3.57843">
        <ele>246</ele>
        <time>2015-03-22T11:05:04.1Z</time>
      </trkpt>
      <trkpt lat="48.42979" lon="-3.57841">
        <ele>246</ele>
        <time>2015-03-22T11:05:06.1Z</time>
      </trkpt>
      <trkpt lat="48.42976" lon="-3.57837">
        <ele>246</ele>
        <time>2015-03-22T11:05:09.1Z</time>
      </trkpt>
      <trkpt lat="48.42974" lon="-3.57833">
        <ele>246</ele>
        <time>2015-03-22T11:05:12.1Z</time>
      </trkpt>
      <trkpt lat="48.42972" lon="-3.57829">
        <ele>246</ele>
        <time>2015-03-22T11:05:15.1Z</time>
      </trkpt>
      <trkpt lat="48.4297" lon="-3.57825">
        <ele>246</ele>
        <time>2015-03-22T11:05:17.1Z</time>
      </trkpt>
      <trkpt lat="48.42968" lon="-3.57822">
        <ele>246</ele>
        <time>2015-03-22T11:05:19.1Z</time>
      </trkpt>
      <trkpt lat="48.42967" lon="-3.57818">
        <ele>246</ele>
        <time>2015-03-22T11:05:22.1Z</time>
      </trkpt>
      <trkpt lat="48.42965" lon="-3.57815">
        <ele>246</ele>
        <time>2015-03-22T11:05:24.1Z</time>
      </trkpt>
      <trkpt lat="48.42963" lon="-3.57811">
        <ele>246</ele>
        <time>2015-03-22T11:05:27.1Z</time>
      </trkpt>
      <trkpt lat="48.42962" lon="-3.57809">
        <ele>246</ele>
        <time>2015-03-22T11:05:29.1Z</time>
      </trkpt>
      <trkpt lat="48.42961" lon="-3.57807">
        <ele>246</ele>
        <time>2015-03-22T11:05:31.1Z</time>
      </trkpt>
      <trkpt lat="48.42959" lon="-3.57803">
        <ele>246</ele>
        <time>2015-03-22T11:05:34.1Z</time>
      </trkpt>
      <trkpt lat="48.42956" lon="-3.57799">
        <ele>246</ele>
        <time>2015-03-22T11:05:37.1Z</time>
      </trkpt>
      <trkpt lat="48.42954" lon="-3.57795">
        <ele>246</ele>
        <time>2015-03-22T11:05:40.1Z</time>
      </trkpt>
      <trkpt lat="48.42952" lon="-3.57793">
        <ele>246</ele>
        <time>2015-03-22T11:05:42.1Z</time>
      </trkpt>
      <trkpt lat="48.4295" lon="-3.57789">
        <ele>246</ele>
        <time>2015-03-22T11:05:45.1Z</time>
      </trkpt>
      <trkpt lat="48.42948" lon="-3.57786">
        <ele>246</ele>
        <time>2015-03-22T11:05:47.1Z</time>
      </trkpt>
      <trkpt lat="48.42946" lon="-3.57784">
        <ele>245</ele>
        <time>2015-03-22T11:05:49.1Z</time>
      </trkpt>
      <trkpt lat="48.42945" lon="-3.57781">
        <ele>245</ele>
        <time>2015-03-22T11:05:51.1Z</time>
      </trkpt>
      <trkpt lat="48.42942" lon="-3.57777">
        <ele>245</ele>
        <time>2015-03-22T11:05:54.1Z</time>
      </trkpt>
      <trkpt lat="48.42941" lon="-3.57774">
        <ele>245</ele>
        <time>2015-03-22T11:05:56.1Z</time>
      </trkpt>
      <trkpt lat="48.42938" lon="-3.57769">
        <ele>244</ele>
        <time>2015-03-22T11:05:59.1Z</time>
      </trkpt>
      <trkpt lat="48.42937" lon="-3.57767">
        <ele>244</ele>
        <time>2015-03-22T11:06:01.1Z</time>
      </trkpt>
      <trkpt lat="48.42934" lon="-3.57763">
        <ele>244</ele>
        <time>2015-03-22T11:06:04.1Z</time>
      </trkpt>
      <trkpt lat="48.42932" lon="-3.57758">
        <ele>243</ele>
        <time>2015-03-22T11:06:07.1Z</time>
      </trkpt>
      <trkpt lat="48.42931" lon="-3.57755">
        <ele>243</ele>
        <time>2015-03-22T11:06:09.1Z</time>
      </trkpt>
      <trkpt lat="48.4293" lon="-3.57753">
        <ele>243</ele>
        <time>2015-03-22T11:06:11.1Z</time>
      </trkpt>
      <trkpt lat="48.42927" lon="-3.57749">
        <ele>243</ele>
        <time>2015-03-22T11:06:14.1Z</time>
      </trkpt>
      <trkpt lat="48.42926" lon="-3.57747">
        <ele>243</ele>
        <time>2015-03-22T11:06:16.1Z</time>
      </trkpt>
      <trkpt lat="48.42923" lon="-3.57743">
        <ele>243</ele>
        <time>2015-03-22T11:06:19.1Z</time>
      </trkpt>
      <trkpt lat="48.42922" lon="-3.5774">
        <ele>243</ele>
        <time>2015-03-22T11:06:21.1Z</time>
      </trkpt>
      <trkpt lat="48.4292" lon="-3.57737">
        <ele>242</ele>
        <time>2015-03-22T11:06:24.1Z</time>
      </trkpt>
      <trkpt lat="48.42919" lon="-3.57734">
        <ele>242</ele>
        <time>2015-03-22T11:06:26.1Z</time>
      </trkpt>
      <trkpt lat="48.42918" lon="-3.57731">
        <ele>242</ele>
        <time>2015-03-22T11:06:29.1Z</time>
      </trkpt>
      <trkpt lat="48.42916" lon="-3.57728">
        <ele>242</ele>
        <time>2015-03-22T11:06:32.1Z</time>
      </trkpt>
      <trkpt lat="48.42914" lon="-3.57725">
        <ele>241</ele>
        <time>2015-03-22T11:06:35.1Z</time>
      </trkpt>
      <trkpt lat="48.42913" lon="-3.57722">
        <ele>241</ele>
        <time>2015-03-22T11:06:38.1Z</time>
      </trkpt>
      <trkpt lat="48.42912" lon="-3.5772">
        <ele>241</ele>
        <time>2015-03-22T11:06:40.1Z</time>
      </trkpt>
      <trkpt lat="48.42911" lon="-3.57716">
        <ele>242</ele>
        <time>2015-03-22T11:06:43.1Z</time>
      </trkpt>
      <trkpt lat="48.42909" lon="-3.57712">
        <ele>241</ele>
        <time>2015-03-22T11:06:46.1Z</time>
      </trkpt>
      <trkpt lat="48.42907" lon="-3.5771">
        <ele>241</ele>
        <time>2015-03-22T11:06:48.1Z</time>
      </trkpt>
      <trkpt lat="48.42905" lon="-3.57705">
        <ele>241</ele>
        <time>2015-03-22T11:06:51.1Z</time>
      </trkpt>
      <trkpt lat="48.42904" lon="-3.577">
        <ele>242</ele>
        <time>2015-03-22T11:06:54.1Z</time>
      </trkpt>
      <trkpt lat="48.42902" lon="-3.57696">
        <ele>242</ele>
        <time>2015-03-22T11:06:57.1Z</time>
      </trkpt>
      <trkpt lat="48.42901" lon="-3.57693">
        <ele>241</ele>
        <time>2015-03-22T11:06:59.1Z</time>
      </trkpt>
      <trkpt lat="48.42899" lon="-3.57689">
        <ele>241</ele>
        <time>2015-03-22T11:07:01.1Z</time>
      </trkpt>
      <trkpt lat="48.42897" lon="-3.57684">
        <ele>241</ele>
        <time>2015-03-22T11:07:04.1Z</time>
      </trkpt>
      <trkpt lat="48.42896" lon="-3.57681">
        <ele>241</ele>
        <time>2015-03-22T11:07:06.1Z</time>
      </trkpt>
      <trkpt lat="48.42894" lon="-3.57675">
        <ele>241</ele>
        <time>2015-03-22T11:07:09.1Z</time>
      </trkpt>
      <trkpt lat="48.42893" lon="-3.5767">
        <ele>241</ele>
        <time>2015-03-22T11:07:12.1Z</time>
      </trkpt>
      <trkpt lat="48.42891" lon="-3.57667">
        <ele>241</ele>
        <time>2015-03-22T11:07:14.1Z</time>
      </trkpt>
      <trkpt lat="48.4289" lon="-3.57664">
        <ele>241</ele>
        <time>2015-03-22T11:07:16.1Z</time>
      </trkpt>
      <trkpt lat="48.42889" lon="-3.5766">
        <ele>240</ele>
        <time>2015-03-22T11:07:19.1Z</time>
      </trkpt>
      <trkpt lat="48.42888" lon="-3.57656">
        <ele>240</ele>
        <time>2015-03-22T11:07:21.1Z</time>
      </trkpt>
      <trkpt lat="48.42887" lon="-3.57652">
        <ele>240</ele>
        <time>2015-03-22T11:07:23.1Z</time>
      </trkpt>
      <trkpt lat="48.42886" lon="-3.57648">
        <ele>240</ele>
        <time>2015-03-22T11:07:26.1Z</time>
      </trkpt>
      <trkpt lat="48.42884" lon="-3.57643">
        <ele>240</ele>
        <time>2015-03-22T11:07:29.1Z</time>
      </trkpt>
      <trkpt lat="48.42882" lon="-3.57638">
        <ele>240</ele>
        <time>2015-03-22T11:07:32.1Z</time>
      </trkpt>
      <trkpt lat="48.42881" lon="-3.57635">
        <ele>240</ele>
        <time>2015-03-22T11:07:34.1Z</time>
      </trkpt>
      <trkpt lat="48.4288" lon="-3.57632">
        <ele>240</ele>
        <time>2015-03-22T11:07:36.1Z</time>
      </trkpt>
      <trkpt lat="48.42879" lon="-3.57627">
        <ele>240</ele>
        <time>2015-03-22T11:07:39.1Z</time>
      </trkpt>
      <trkpt lat="48.42877" lon="-3.57623">
        <ele>240</ele>
        <time>2015-03-22T11:07:42.1Z</time>
      </trkpt>
      <trkpt lat="48.42876" lon="-3.5762">
        <ele>240</ele>
        <time>2015-03-22T11:07:44.1Z</time>
      </trkpt>
      <trkpt lat="48.42874" lon="-3.57616">
        <ele>239</ele>
        <time>2015-03-22T11:07:47.1Z</time>
      </trkpt>
      <trkpt lat="48.42873" lon="-3.57611">
        <ele>239</ele>
        <time>2015-03-22T11:07:50.1Z</time>
      </trkpt>
      <trkpt lat="48.42871" lon="-3.57607">
        <ele>239</ele>
        <time>2015-03-22T11:07:53.1Z</time>
      </trkpt>
      <trkpt lat="48.4287" lon="-3.57603">
        <ele>239</ele>
        <time>2015-03-22T11:07:56.1Z</time>
      </trkpt>
      <trkpt lat="48.42869" lon="-3.57599">
        <ele>239</ele>
        <time>2015-03-22T11:07:59.1Z</time>
      </trkpt>
      <trkpt lat="48.42869" lon="-3.57597">
        <ele>238</ele>
        <time>2015-03-22T11:08:02.1Z</time>
      </trkpt>
      <trkpt lat="48.4287" lon="-3.57596">
        <ele>238</ele>
        <time>2015-03-22T11:08:04.1Z</time>
      </trkpt>
      <trkpt lat="48.4287" lon="-3.57594">
        <ele>238</ele>
        <time>2015-03-22T11:08:06.1Z</time>
      </trkpt>
      <trkpt lat="48.4287" lon="-3.57594">
        <ele>238</ele>
        <time>2015-03-22T11:08:09.1Z</time>
      </trkpt>
      <trkpt lat="48.4287" lon="-3.57595">
        <ele>238</ele>
        <time>2015-03-22T11:08:11.1Z</time>
      </trkpt>
      <trkpt lat="48.4287" lon="-3.57595">
        <ele>238</ele>
        <time>2015-03-22T11:08:15.1Z</time>
      </trkpt>
      <trkpt lat="48.4287" lon="-3.57596">
        <ele>238</ele>
        <time>2015-03-22T11:08:17.1Z</time>
      </trkpt>
      <trkpt lat="48.4287" lon="-3.57596">
        <ele>238</ele>
        <time>2015-03-22T11:08:21.1Z</time>
      </trkpt>
      <trkpt lat="48.4287" lon="-3.57596">
        <ele>238</ele>
        <time>2015-03-22T11:08:25.1Z</time>
      </trkpt>
      <trkpt lat="48.42871" lon="-3.57597">
        <ele>238</ele>
        <time>2015-03-22T11:08:28.1Z</time>
      </trkpt>
      <trkpt lat="48.4287" lon="-3.57597">
        <ele>238</ele>
        <time>2015-03-22T11:08:31.1Z</time>
      </trkpt>
      <trkpt lat="48.4287" lon="-3.57597">
        <ele>238</ele>
        <time>2015-03-22T11:08:34.1Z</time>
      </trkpt>
      <trkpt lat="48.42869" lon="-3.57595">
        <ele>238</ele>
        <time>2015-03-22T11:08:37.1Z</time>
      </trkpt>
      <trkpt lat="48.42869" lon="-3.57595">
        <ele>238</ele>
        <time>2015-03-22T11:08:39.1Z</time>
      </trkpt>
      <trkpt lat="48.42868" lon="-3.57595">
        <ele>239</ele>
        <time>2015-03-22T11:08:42.1Z</time>
      </trkpt>
      <trkpt lat="48.42868" lon="-3.57595">
        <ele>238</ele>
        <time>2015-03-22T11:08:44.1Z</time>
      </trkpt>
      <trkpt lat="48.42869" lon="-3.57594">
        <ele>238</ele>
        <time>2015-03-22T11:08:47.1Z</time>
      </trkpt>
      <trkpt lat="48.42869" lon="-3.57593">
        <ele>238</ele>
        <time>2015-03-22T11:08:49.1Z</time>
      </trkpt>
      <trkpt lat="48.42871" lon="-3.57592">
        <ele>238</ele>
        <time>2015-03-22T11:08:52.1Z</time>
      </trkpt>
      <trkpt lat="48.42873" lon="-3.57591">
        <ele>238</ele>
        <time>2015-03-22T11:08:54.1Z</time>
      </trkpt>
      <trkpt lat="48.42874" lon="-3.57588">
        <ele>238</ele>
        <time>2015-03-22T11:08:56.1Z</time>
      </trkpt>
      <trkpt lat="48.42876" lon="-3.57586">
        <ele>237</ele>
        <time>2015-03-22T11:08:58.1Z</time>
      </trkpt>
      <trkpt lat="48.42878" lon="-3.57583">
        <ele>237</ele>
        <time>2015-03-22T11:09:01.1Z</time>
      </trkpt>
      <trkpt lat="48.4288" lon="-3.5758">
        <ele>237</ele>
        <time>2015-03-22T11:09:03.1Z</time>
      </trkpt>
      <trkpt lat="48.42882" lon="-3.57578">
        <ele>237</ele>
        <time>2015-03-22T11:09:05.1Z</time>
      </trkpt>
      <trkpt lat="48.42884" lon="-3.57576">
        <ele>237</ele>
        <time>2015-03-22T11:09:07.1Z</time>
      </trkpt>
      <trkpt lat="48.42885" lon="-3.57574">
        <ele>237</ele>
        <time>2015-03-22T11:09:09.1Z</time>
      </trkpt>
      <trkpt lat="48.42886" lon="-3.57571">
        <ele>237</ele>
        <time>2015-03-22T11:09:11.1Z</time>
      </trkpt>
      <trkpt lat="48.42888" lon="-3.57569">
        <ele>237</ele>
        <time>2015-03-22T11:09:13.1Z</time>
      </trkpt>
      <trkpt lat="48.42891" lon="-3.57565">
        <ele>237</ele>
        <time>2015-03-22T11:09:16.1Z</time>
      </trkpt>
      <trkpt lat="48.42892" lon="-3.57563">
        <ele>237</ele>
        <time>2015-03-22T11:09:18.1Z</time>
      </trkpt>
      <trkpt lat="48.42894" lon="-3.5756">
        <ele>237</ele>
        <time>2015-03-22T11:09:20.1Z</time>
      </trkpt>
      <trkpt lat="48.42896" lon="-3.57556">
        <ele>237</ele>
        <time>2015-03-22T11:09:23.1Z</time>
      </trkpt>
      <trkpt lat="48.42898" lon="-3.57554">
        <ele>237</ele>
        <time>2015-03-22T11:09:25.1Z</time>
      </trkpt>
      <trkpt lat="48.42899" lon="-3.57552">
        <ele>237</ele>
        <time>2015-03-22T11:09:27.1Z</time>
      </trkpt>
      <trkpt lat="48.42901" lon="-3.57548">
        <ele>237</ele>
        <time>2015-03-22T11:09:30.1Z</time>
      </trkpt>
      <trkpt lat="48.42902" lon="-3.57545">
        <ele>237</ele>
        <time>2015-03-22T11:09:32.1Z</time>
      </trkpt>
      <trkpt lat="48.42904" lon="-3.57543">
        <ele>237</ele>
        <time>2015-03-22T11:09:34.1Z</time>
      </trkpt>
      <trkpt lat="48.42906" lon="-3.57539">
        <ele>237</ele>
        <time>2015-03-22T11:09:37.1Z</time>
      </trkpt>
      <trkpt lat="48.42907" lon="-3.57536">
        <ele>237</ele>
        <time>2015-03-22T11:09:39.1Z</time>
      </trkpt>
      <trkpt lat="48.42909" lon="-3.57533">
        <ele>237</ele>
        <time>2015-03-22T11:09:41.1Z</time>
      </trkpt>
      <trkpt lat="48.42911" lon="-3.57528">
        <ele>237</ele>
        <time>2015-03-22T11:09:44.1Z</time>
      </trkpt>
      <trkpt lat="48.42913" lon="-3.57525">
        <ele>237</ele>
        <time>2015-03-22T11:09:46.1Z</time>
      </trkpt>
      <trkpt lat="48.42914" lon="-3.57523">
        <ele>236</ele>
        <time>2015-03-22T11:09:48.1Z</time>
      </trkpt>
      <trkpt lat="48.42915" lon="-3.57519">
        <ele>237</ele>
        <time>2015-03-22T11:09:50.1Z</time>
      </trkpt>
      <trkpt lat="48.42918" lon="-3.57515">
        <ele>237</ele>
        <time>2015-03-22T11:09:53.1Z</time>
      </trkpt>
      <trkpt lat="48.42919" lon="-3.57512">
        <ele>237</ele>
        <time>2015-03-22T11:09:55.1Z</time>
      </trkpt>
      <trkpt lat="48.42921" lon="-3.57509">
        <ele>236</ele>
        <time>2015-03-22T11:09:57.1Z</time>
      </trkpt>
      <trkpt lat="48.42922" lon="-3.57505">
        <ele>236</ele>
        <time>2015-03-22T11:09:59.1Z</time>
      </trkpt>
      <trkpt lat="48.42925" lon="-3.57501">
        <ele>236</ele>
        <time>2015-03-22T11:10:02.1Z</time>
      </trkpt>
      <trkpt lat="48.42927" lon="-3.57496">
        <ele>236</ele>
        <time>2015-03-22T11:10:05.1Z</time>
      </trkpt>
      <trkpt lat="48.42929" lon="-3.57492">
        <ele>236</ele>
        <time>2015-03-22T11:10:08.1Z</time>
      </trkpt>
      <trkpt lat="48.42931" lon="-3.57489">
        <ele>236</ele>
        <time>2015-03-22T11:10:10.1Z</time>
      </trkpt>
      <trkpt lat="48.42933" lon="-3.57486">
        <ele>236</ele>
        <time>2015-03-22T11:10:12.1Z</time>
      </trkpt>
      <trkpt lat="48.42935" lon="-3.57482">
        <ele>236</ele>
        <time>2015-03-22T11:10:15.1Z</time>
      </trkpt>
      <trkpt lat="48.42936" lon="-3.57479">
        <ele>236</ele>
        <time>2015-03-22T11:10:17.1Z</time>
      </trkpt>
      <trkpt lat="48.42938" lon="-3.57475">
        <ele>236</ele>
        <time>2015-03-22T11:10:19.1Z</time>
      </trkpt>
      <trkpt lat="48.4294" lon="-3.57471">
        <ele>235</ele>
        <time>2015-03-22T11:10:22.1Z</time>
      </trkpt>
      <trkpt lat="48.42942" lon="-3.57468">
        <ele>235</ele>
        <time>2015-03-22T11:10:24.1Z</time>
      </trkpt>
      <trkpt lat="48.42943" lon="-3.57465">
        <ele>236</ele>
        <time>2015-03-22T11:10:26.1Z</time>
      </trkpt>
      <trkpt lat="48.42945" lon="-3.57461">
        <ele>236</ele>
        <time>2015-03-22T11:10:29.1Z</time>
      </trkpt>
      <trkpt lat="48.42946" lon="-3.57456">
        <ele>236</ele>
        <time>2015-03-22T11:10:32.1Z</time>
      </trkpt>
      <trkpt lat="48.42948" lon="-3.57451">
        <ele>235</ele>
        <time>2015-03-22T11:10:35.1Z</time>
      </trkpt>
      <trkpt lat="48.42949" lon="-3.57449">
        <ele>235</ele>
        <time>2015-03-22T11:10:37.1Z</time>
      </trkpt>
      <trkpt lat="48.42952" lon="-3.57444">
        <ele>235</ele>
        <time>2015-03-22T11:10:40.1Z</time>
      </trkpt>
      <trkpt lat="48.42953" lon="-3.57441">
        <ele>236</ele>
        <time>2015-03-22T11:10:42.1Z</time>
      </trkpt>
      <trkpt lat="48.42957" lon="-3.57439">
        <ele>236</ele>
        <time>2015-03-22T11:10:45.1Z</time>
      </trkpt>
      <trkpt lat="48.42959" lon="-3.57435">
        <ele>236</ele>
        <time>2015-03-22T11:10:48.1Z</time>
      </trkpt>
      <trkpt lat="48.42961" lon="-3.57431">
        <ele>236</ele>
        <time>2015-03-22T11:10:51.1Z</time>
      </trkpt>
      <trkpt lat="48.42963" lon="-3.57428">
        <ele>235</ele>
        <time>2015-03-22T11:10:53.1Z</time>
      </trkpt>
      <trkpt lat="48.42964" lon="-3.57425">
        <ele>236</ele>
        <time>2015-03-22T11:10:55.1Z</time>
      </trkpt>
      <trkpt lat="48.42966" lon="-3.5742">
        <ele>236</ele>
        <time>2015-03-22T11:10:58.1Z</time>
      </trkpt>
      <trkpt lat="48.42968" lon="-3.57417">
        <ele>236</ele>
        <time>2015-03-22T11:11:00.1Z</time>
      </trkpt>
      <trkpt lat="48.4297" lon="-3.57412">
        <ele>236</ele>
        <time>2015-03-22T11:11:03.1Z</time>
      </trkpt>
      <trkpt lat="48.42971" lon="-3.57409">
        <ele>236</ele>
        <time>2015-03-22T11:11:05.1Z</time>
      </trkpt>
      <trkpt lat="48.42973" lon="-3.57406">
        <ele>236</ele>
        <time>2015-03-22T11:11:07.1Z</time>
      </trkpt>
      <trkpt lat="48.42974" lon="-3.57403">
        <ele>236</ele>
        <time>2015-03-22T11:11:09.1Z</time>
      </trkpt>
      <trkpt lat="48.42976" lon="-3.57399">
        <ele>236</ele>
        <time>2015-03-22T11:11:12.1Z</time>
      </trkpt>
      <trkpt lat="48.42978" lon="-3.57396">
        <ele>235</ele>
        <time>2015-03-22T11:11:14.1Z</time>
      </trkpt>
      <trkpt lat="48.4298" lon="-3.57392">
        <ele>235</ele>
        <time>2015-03-22T11:11:17.1Z</time>
      </trkpt>
      <trkpt lat="48.42981" lon="-3.57389">
        <ele>235</ele>
        <time>2015-03-22T11:11:19.1Z</time>
      </trkpt>
      <trkpt lat="48.42984" lon="-3.57384">
        <ele>235</ele>
        <time>2015-03-22T11:11:22.1Z</time>
      </trkpt>
      <trkpt lat="48.42985" lon="-3.57381">
        <ele>235</ele>
        <time>2015-03-22T11:11:24.1Z</time>
      </trkpt>
      <trkpt lat="48.42987" lon="-3.57377">
        <ele>236</ele>
        <time>2015-03-22T11:11:27.1Z</time>
      </trkpt>
      <trkpt lat="48.42989" lon="-3.57372">
        <ele>236</ele>
        <time>2015-03-22T11:11:30.1Z</time>
      </trkpt>
      <trkpt lat="48.42991" lon="-3.57369">
        <ele>235</ele>
        <time>2015-03-22T11:11:32.1Z</time>
      </trkpt>
      <trkpt lat="48.42993" lon="-3.57364">
        <ele>235</ele>
        <time>2015-03-22T11:11:35.1Z</time>
      </trkpt>
      <trkpt lat="48.42995" lon="-3.57361">
        <ele>236</ele>
        <time>2015-03-22T11:11:37.1Z</time>
      </trkpt>
      <trkpt lat="48.42997" lon="-3.57357">
        <ele>235</ele>
        <time>2015-03-22T11:11:40.1Z</time>
      </trkpt>
      <trkpt lat="48.42999" lon="-3.57354">
        <ele>235</ele>
        <time>2015-03-22T11:11:42.1Z</time>
      </trkpt>
      <trkpt lat="48.43001" lon="-3.5735">
        <ele>236</ele>
        <time>2015-03-22T11:11:45.1Z</time>
      </trkpt>
      <trkpt lat="48.43002" lon="-3.57348">
        <ele>236</ele>
        <time>2015-03-22T11:11:47.1Z</time>
      </trkpt>
      <trkpt lat="48.43004" lon="-3.57347">
        <ele>236</ele>
        <time>2015-03-22T11:11:49.1Z</time>
      </trkpt>
      <trkpt lat="48.43005" lon="-3.57343">
        <ele>236</ele>
        <time>2015-03-22T11:11:52.1Z</time>
      </trkpt>
      <trkpt lat="48.43007" lon="-3.57341">
        <ele>235</ele>
        <time>2015-03-22T11:11:54.1Z</time>
      </trkpt>
      <trkpt lat="48.43009" lon="-3.57337">
        <ele>235</ele>
        <time>2015-03-22T11:11:57.1Z</time>
      </trkpt>
      <trkpt lat="48.43011" lon="-3.57334">
        <ele>235</ele>
        <time>2015-03-22T11:12:00.1Z</time>
      </trkpt>
      <trkpt lat="48.43013" lon="-3.57331">
        <ele>235</ele>
        <time>2015-03-22T11:12:02.1Z</time>
      </trkpt>
      <trkpt lat="48.43016" lon="-3.57327">
        <ele>236</ele>
        <time>2015-03-22T11:12:05.1Z</time>
      </trkpt>
      <trkpt lat="48.43017" lon="-3.57324">
        <ele>235</ele>
        <time>2015-03-22T11:12:07.1Z</time>
      </trkpt>
      <trkpt lat="48.43019" lon="-3.57322">
        <ele>235</ele>
        <time>2015-03-22T11:12:09.1Z</time>
      </trkpt>
      <trkpt lat="48.43021" lon="-3.57319">
        <ele>235</ele>
        <time>2015-03-22T11:12:12.1Z</time>
      </trkpt>
      <trkpt lat="48.43023" lon="-3.57316">
        <ele>235</ele>
        <time>2015-03-22T11:12:14.1Z</time>
      </trkpt>
      <trkpt lat="48.43025" lon="-3.57313">
        <ele>235</ele>
        <time>2015-03-22T11:12:17.1Z</time>
      </trkpt>
      <trkpt lat="48.43028" lon="-3.57311">
        <ele>235</ele>
        <time>2015-03-22T11:12:20.1Z</time>
      </trkpt>
      <trkpt lat="48.43031" lon="-3.57309">
        <ele>235</ele>
        <time>2015-03-22T11:12:23.1Z</time>
      </trkpt>
      <trkpt lat="48.43033" lon="-3.57307">
        <ele>235</ele>
        <time>2015-03-22T11:12:25.1Z</time>
      </trkpt>
      <trkpt lat="48.43034" lon="-3.57305">
        <ele>236</ele>
        <time>2015-03-22T11:12:29.1Z</time>
      </trkpt>
      <trkpt lat="48.43034" lon="-3.57305">
        <ele>237</ele>
        <time>2015-03-22T11:12:33.1Z</time>
      </trkpt>
      <trkpt lat="48.43033" lon="-3.57304">
        <ele>237</ele>
        <time>2015-03-22T11:12:35.1Z</time>
      </trkpt>
      <trkpt lat="48.43033" lon="-3.57304">
        <ele>237</ele>
        <time>2015-03-22T11:12:37.1Z</time>
      </trkpt>
      <trkpt lat="48.43032" lon="-3.57303">
        <ele>237</ele>
        <time>2015-03-22T11:12:39.1Z</time>
      </trkpt>
      <trkpt lat="48.43033" lon="-3.57302">
        <ele>236</ele>
        <time>2015-03-22T11:12:42.1Z</time>
      </trkpt>
      <trkpt lat="48.43034" lon="-3.57301">
        <ele>236</ele>
        <time>2015-03-22T11:12:44.1Z</time>
      </trkpt>
      <trkpt lat="48.43036" lon="-3.573">
        <ele>236</ele>
        <time>2015-03-22T11:12:47.1Z</time>
      </trkpt>
      <trkpt lat="48.43038" lon="-3.57299">
        <ele>236</ele>
        <time>2015-03-22T11:12:50.1Z</time>
      </trkpt>
      <trkpt lat="48.43041" lon="-3.57299">
        <ele>237</ele>
        <time>2015-03-22T11:12:53.1Z</time>
      </trkpt>
      <trkpt lat="48.43044" lon="-3.57297">
        <ele>237</ele>
        <time>2015-03-22T11:12:56.1Z</time>
      </trkpt>
      <trkpt lat="48.43047" lon="-3.57294">
        <ele>237</ele>
        <time>2015-03-22T11:12:59.1Z</time>
      </trkpt>
      <trkpt lat="48.43048" lon="-3.57291">
        <ele>237</ele>
        <time>2015-03-22T11:13:01.1Z</time>
      </trkpt>
      <trkpt lat="48.4305" lon="-3.57288">
        <ele>238</ele>
        <time>2015-03-22T11:13:04.1Z</time>
      </trkpt>
      <trkpt lat="48.43051" lon="-3.57285">
        <ele>238</ele>
        <time>2015-03-22T11:13:06.1Z</time>
      </trkpt>
      <trkpt lat="48.43053" lon="-3.57282">
        <ele>238</ele>
        <time>2015-03-22T11:13:09.1Z</time>
      </trkpt>
      <trkpt lat="48.43055" lon="-3.57279">
        <ele>238</ele>
        <time>2015-03-22T11:13:11.1Z</time>
      </trkpt>
      <trkpt lat="48.43056" lon="-3.57275">
        <ele>238</ele>
        <time>2015-03-22T11:13:14.1Z</time>
      </trkpt>
      <trkpt lat="48.43058" lon="-3.57272">
        <ele>238</ele>
        <time>2015-03-22T11:13:17.1Z</time>
      </trkpt>
      <trkpt lat="48.43058" lon="-3.57271">
        <ele>238</ele>
        <time>2015-03-22T11:13:19.1Z</time>
      </trkpt>
      <trkpt lat="48.43059" lon="-3.57266">
        <ele>238</ele>
        <time>2015-03-22T11:13:22.1Z</time>
      </trkpt>
      <trkpt lat="48.4306" lon="-3.57262">
        <ele>238</ele>
        <time>2015-03-22T11:13:25.1Z</time>
      </trkpt>
      <trkpt lat="48.43059" lon="-3.57262">
        <ele>238</ele>
        <time>2015-03-22T11:13:27.1Z</time>
      </trkpt>
      <trkpt lat="48.43059" lon="-3.57261">
        <ele>238</ele>
        <time>2015-03-22T11:13:30.1Z</time>
      </trkpt>
      <trkpt lat="48.43059" lon="-3.57261">
        <ele>238</ele>
        <time>2015-03-22T11:13:33.1Z</time>
      </trkpt>
      <trkpt lat="48.43059" lon="-3.57261">
        <ele>238</ele>
        <time>2015-03-22T11:13:35.1Z</time>
      </trkpt>
      <trkpt lat="48.4306" lon="-3.57262">
        <ele>238</ele>
        <time>2015-03-22T11:13:38.1Z</time>
      </trkpt>
      <trkpt lat="48.43062" lon="-3.5726">
        <ele>238</ele>
        <time>2015-03-22T11:13:40.1Z</time>
      </trkpt>
      <trkpt lat="48.43065" lon="-3.57256">
        <ele>238</ele>
        <time>2015-03-22T11:13:43.1Z</time>
      </trkpt>
      <trkpt lat="48.43067" lon="-3.57253">
        <ele>238</ele>
        <time>2015-03-22T11:13:45.1Z</time>
      </trkpt>
      <trkpt lat="48.43069" lon="-3.5725">
        <ele>238</ele>
        <time>2015-03-22T11:13:47.1Z</time>
      </trkpt>
      <trkpt lat="48.43071" lon="-3.57245">
        <ele>238</ele>
        <time>2015-03-22T11:13:50.1Z</time>
      </trkpt>
      <trkpt lat="48.43071" lon="-3.57241">
        <ele>237</ele>
        <time>2015-03-22T11:13:52.1Z</time>
      </trkpt>
      <trkpt lat="48.43071" lon="-3.57235">
        <ele>237</ele>
        <time>2015-03-22T11:13:55.1Z</time>
      </trkpt>
      <trkpt lat="48.43072" lon="-3.5723">
        <ele>237</ele>
        <time>2015-03-22T11:13:58.1Z</time>
      </trkpt>
      <trkpt lat="48.43071" lon="-3.57227">
        <ele>237</ele>
        <time>2015-03-22T11:14:00.1Z</time>
      </trkpt>
      <trkpt lat="48.43073" lon="-3.57224">
        <ele>237</ele>
        <time>2015-03-22T11:14:03.1Z</time>
      </trkpt>
      <trkpt lat="48.43075" lon="-3.57222">
        <ele>237</ele>
        <time>2015-03-22T11:14:05.1Z</time>
      </trkpt>
      <trkpt lat="48.43076" lon="-3.57219">
        <ele>237</ele>
        <time>2015-03-22T11:14:07.1Z</time>
      </trkpt>
      <trkpt lat="48.43079" lon="-3.57216">
        <ele>237</ele>
        <time>2015-03-22T11:14:10.1Z</time>
      </trkpt>
      <trkpt lat="48.43081" lon="-3.57214">
        <ele>237</ele>
        <time>2015-03-22T11:14:12.1Z</time>
      </trkpt>
      <trkpt lat="48.43083" lon="-3.5721">
        <ele>237</ele>
        <time>2015-03-22T11:14:14.1Z</time>
      </trkpt>
      <trkpt lat="48.43086" lon="-3.57205">
        <ele>236</ele>
        <time>2015-03-22T11:14:17.1Z</time>
      </trkpt>
      <trkpt lat="48.43087" lon="-3.57201">
        <ele>237</ele>
        <time>2015-03-22T11:14:19.1Z</time>
      </trkpt>
      <trkpt lat="48.43088" lon="-3.57198">
        <ele>236</ele>
        <time>2015-03-22T11:14:21.1Z</time>
      </trkpt>
      <trkpt lat="48.4309" lon="-3.57193">
        <ele>236</ele>
        <time>2015-03-22T11:14:24.1Z</time>
      </trkpt>
      <trkpt lat="48.43091" lon="-3.57191">
        <ele>236</ele>
        <time>2015-03-22T11:14:26.1Z</time>
      </trkpt>
      <trkpt lat="48.43094" lon="-3.57187">
        <ele>236</ele>
        <time>2015-03-22T11:14:29.1Z</time>
      </trkpt>
      <trkpt lat="48.43095" lon="-3.57184">
        <ele>237</ele>
        <time>2015-03-22T11:14:31.1Z</time>
      </trkpt>
      <trkpt lat="48.43098" lon="-3.57181">
        <ele>237</ele>
        <time>2015-03-22T11:14:34.1Z</time>
      </trkpt>
      <trkpt lat="48.431" lon="-3.57178">
        <ele>237</ele>
        <time>2015-03-22T11:14:36.1Z</time>
      </trkpt>
      <trkpt lat="48.43102" lon="-3.57175">
        <ele>237</ele>
        <time>2015-03-22T11:14:39.1Z</time>
      </trkpt>
      <trkpt lat="48.43105" lon="-3.57172">
        <ele>237</ele>
        <time>2015-03-22T11:14:42.1Z</time>
      </trkpt>
      <trkpt lat="48.43107" lon="-3.5717">
        <ele>237</ele>
        <time>2015-03-22T11:14:44.1Z</time>
      </trkpt>
      <trkpt lat="48.4311" lon="-3.57166">
        <ele>237</ele>
        <time>2015-03-22T11:14:47.1Z</time>
      </trkpt>
      <trkpt lat="48.43113" lon="-3.57164">
        <ele>237</ele>
        <time>2015-03-22T11:14:49.1Z</time>
      </trkpt>
      <trkpt lat="48.43115" lon="-3.57162">
        <ele>237</ele>
        <time>2015-03-22T11:14:51.1Z</time>
      </trkpt>
      <trkpt lat="48.43118" lon="-3.57158">
        <ele>237</ele>
        <time>2015-03-22T11:14:54.1Z</time>
      </trkpt>
      <trkpt lat="48.43119" lon="-3.57156">
        <ele>238</ele>
        <time>2015-03-22T11:14:56.1Z</time>
      </trkpt>
      <trkpt lat="48.43121" lon="-3.57154">
        <ele>237</ele>
        <time>2015-03-22T11:14:58.1Z</time>
      </trkpt>
      <trkpt lat="48.43124" lon="-3.5715">
        <ele>237</ele>
        <time>2015-03-22T11:15:01.1Z</time>
      </trkpt>
      <trkpt lat="48.43126" lon="-3.57148">
        <ele>237</ele>
        <time>2015-03-22T11:15:03.1Z</time>
      </trkpt>
      <trkpt lat="48.43129" lon="-3.57146">
        <ele>238</ele>
        <time>2015-03-22T11:15:05.1Z</time>
      </trkpt>
      <trkpt lat="48.43132" lon="-3.57142">
        <ele>238</ele>
        <time>2015-03-22T11:15:08.1Z</time>
      </trkpt>
      <trkpt lat="48.43135" lon="-3.57138">
        <ele>238</ele>
        <time>2015-03-22T11:15:11.1Z</time>
      </trkpt>
      <trkpt lat="48.43137" lon="-3.57136">
        <ele>238</ele>
        <time>2015-03-22T11:15:13.1Z</time>
      </trkpt>
      <trkpt lat="48.43139" lon="-3.57132">
        <ele>238</ele>
        <time>2015-03-22T11:15:16.1Z</time>
      </trkpt>
      <trkpt lat="48.4314" lon="-3.5713">
        <ele>238</ele>
        <time>2015-03-22T11:15:18.1Z</time>
      </trkpt>
      <trkpt lat="48.43143" lon="-3.57127">
        <ele>238</ele>
        <time>2015-03-22T11:15:21.1Z</time>
      </trkpt>
      <trkpt lat="48.43145" lon="-3.57124">
        <ele>238</ele>
        <time>2015-03-22T11:15:24.1Z</time>
      </trkpt>
      <trkpt lat="48.43147" lon="-3.57121">
        <ele>238</ele>
        <time>2015-03-22T11:15:27.1Z</time>
      </trkpt>
      <trkpt lat="48.4315" lon="-3.57117">
        <ele>238</ele>
        <time>2015-03-22T11:15:30.1Z</time>
      </trkpt>
      <trkpt lat="48.43151" lon="-3.57115">
        <ele>238</ele>
        <time>2015-03-22T11:15:32.1Z</time>
      </trkpt>
      <trkpt lat="48.43153" lon="-3.57112">
        <ele>238</ele>
        <time>2015-03-22T11:15:35.1Z</time>
      </trkpt>
      <trkpt lat="48.43154" lon="-3.57111">
        <ele>237</ele>
        <time>2015-03-22T11:15:37.1Z</time>
      </trkpt>
      <trkpt lat="48.43156" lon="-3.57107">
        <ele>237</ele>
        <time>2015-03-22T11:15:40.1Z</time>
      </trkpt>
      <trkpt lat="48.43158" lon="-3.57105">
        <ele>237</ele>
        <time>2015-03-22T11:15:42.1Z</time>
      </trkpt>
      <trkpt lat="48.4316" lon="-3.57102">
        <ele>237</ele>
        <time>2015-03-22T11:15:44.1Z</time>
      </trkpt>
      <trkpt lat="48.43163" lon="-3.57099">
        <ele>237</ele>
        <time>2015-03-22T11:15:47.1Z</time>
      </trkpt>
      <trkpt lat="48.43166" lon="-3.57095">
        <ele>237</ele>
        <time>2015-03-22T11:15:50.1Z</time>
      </trkpt>
      <trkpt lat="48.43167" lon="-3.57092">
        <ele>237</ele>
        <time>2015-03-22T11:15:52.1Z</time>
      </trkpt>
      <trkpt lat="48.4317" lon="-3.57088">
        <ele>237</ele>
        <time>2015-03-22T11:15:55.1Z</time>
      </trkpt>
      <trkpt lat="48.43171" lon="-3.57086">
        <ele>237</ele>
        <time>2015-03-22T11:15:57.1Z</time>
      </trkpt>
      <trkpt lat="48.43173" lon="-3.57083">
        <ele>237</ele>
        <time>2015-03-22T11:15:59.1Z</time>
      </trkpt>
      <trkpt lat="48.43175" lon="-3.57079">
        <ele>237</ele>
        <time>2015-03-22T11:16:02.1Z</time>
      </trkpt>
      <trkpt lat="48.43177" lon="-3.57074">
        <ele>237</ele>
        <time>2015-03-22T11:16:05.1Z</time>
      </trkpt>
      <trkpt lat="48.4318" lon="-3.57071">
        <ele>236</ele>
        <time>2015-03-22T11:16:08.1Z</time>
      </trkpt>
      <trkpt lat="48.43182" lon="-3.57068">
        <ele>236</ele>
        <time>2015-03-22T11:16:10.1Z</time>
      </trkpt>
      <trkpt lat="48.43184" lon="-3.57066">
        <ele>236</ele>
        <time>2015-03-22T11:16:12.1Z</time>
      </trkpt>
      <trkpt lat="48.43186" lon="-3.57062">
        <ele>236</ele>
        <time>2015-03-22T11:16:15.1Z</time>
      </trkpt>
      <trkpt lat="48.43188" lon="-3.57059">
        <ele>237</ele>
        <time>2015-03-22T11:16:17.1Z</time>
      </trkpt>
      <trkpt lat="48.4319" lon="-3.57055">
        <ele>236</ele>
        <time>2015-03-22T11:16:20.1Z</time>
      </trkpt>
      <trkpt lat="48.43192" lon="-3.57052">
        <ele>236</ele>
        <time>2015-03-22T11:16:22.1Z</time>
      </trkpt>
      <trkpt lat="48.43195" lon="-3.57047">
        <ele>236</ele>
        <time>2015-03-22T11:16:25.1Z</time>
      </trkpt>
      <trkpt lat="48.43196" lon="-3.57044">
        <ele>236</ele>
        <time>2015-03-22T11:16:27.1Z</time>
      </trkpt>
      <trkpt lat="48.43199" lon="-3.5704">
        <ele>236</ele>
        <time>2015-03-22T11:16:30.1Z</time>
      </trkpt>
      <trkpt lat="48.43201" lon="-3.57036">
        <ele>236</ele>
        <time>2015-03-22T11:16:33.1Z</time>
      </trkpt>
      <trkpt lat="48.43203" lon="-3.57034">
        <ele>236</ele>
        <time>2015-03-22T11:16:35.1Z</time>
      </trkpt>
      <trkpt lat="48.43204" lon="-3.57031">
        <ele>235</ele>
        <time>2015-03-22T11:16:37.1Z</time>
      </trkpt>
      <trkpt lat="48.43207" lon="-3.57028">
        <ele>235</ele>
        <time>2015-03-22T11:16:40.1Z</time>
      </trkpt>
      <trkpt lat="48.43208" lon="-3.57026">
        <ele>235</ele>
        <time>2015-03-22T11:16:42.1Z</time>
      </trkpt>
      <trkpt lat="48.4321" lon="-3.57024">
        <ele>235</ele>
        <time>2015-03-22T11:16:44.1Z</time>
      </trkpt>
      <trkpt lat="48.43212" lon="-3.5702">
        <ele>235</ele>
        <time>2015-03-22T11:16:47.1Z</time>
      </trkpt>
      <trkpt lat="48.43214" lon="-3.57018">
        <ele>235</ele>
        <time>2015-03-22T11:16:49.1Z</time>
      </trkpt>
      <trkpt lat="48.43217" lon="-3.57016">
        <ele>235</ele>
        <time>2015-03-22T11:16:52.1Z</time>
      </trkpt>
      <trkpt lat="48.4322" lon="-3.57013">
        <ele>234</ele>
        <time>2015-03-22T11:16:55.1Z</time>
      </trkpt>
      <trkpt lat="48.43223" lon="-3.5701">
        <ele>235</ele>
        <time>2015-03-22T11:16:58.1Z</time>
      </trkpt>
      <trkpt lat="48.43225" lon="-3.57007">
        <ele>234</ele>
        <time>2015-03-22T11:17:00.1Z</time>
      </trkpt>
      <trkpt lat="48.43227" lon="-3.57005">
        <ele>235</ele>
        <time>2015-03-22T11:17:02.1Z</time>
      </trkpt>
      <trkpt lat="48.4323" lon="-3.57003">
        <ele>234</ele>
        <time>2015-03-22T11:17:04.1Z</time>
      </trkpt>
      <trkpt lat="48.43232" lon="-3.57001">
        <ele>235</ele>
        <time>2015-03-22T11:17:06.1Z</time>
      </trkpt>
      <trkpt lat="48.43236" lon="-3.56998">
        <ele>235</ele>
        <time>2015-03-22T11:17:09.1Z</time>
      </trkpt>
      <trkpt lat="48.43238" lon="-3.56996">
        <ele>235</ele>
        <time>2015-03-22T11:17:11.1Z</time>
      </trkpt>
      <trkpt lat="48.43241" lon="-3.56993">
        <ele>235</ele>
        <time>2015-03-22T11:17:14.1Z</time>
      </trkpt>
      <trkpt lat="48.43243" lon="-3.56991">
        <ele>235</ele>
        <time>2015-03-22T11:17:16.1Z</time>
      </trkpt>
      <trkpt lat="48.43245" lon="-3.56988">
        <ele>235</ele>
        <time>2015-03-22T11:17:19.1Z</time>
      </trkpt>
      <trkpt lat="48.43247" lon="-3.56986">
        <ele>235</ele>
        <time>2015-03-22T11:17:21.1Z</time>
      </trkpt>
      <trkpt lat="48.43249" lon="-3.56984">
        <ele>235</ele>
        <time>2015-03-22T11:17:23.1Z</time>
      </trkpt>
      <trkpt lat="48.43253" lon="-3.56981">
        <ele>235</ele>
        <time>2015-03-22T11:17:26.1Z</time>
      </trkpt>
      <trkpt lat="48.43255" lon="-3.56979">
        <ele>235</ele>
        <time>2015-03-22T11:17:28.1Z</time>
      </trkpt>
      <trkpt lat="48.43258" lon="-3.56976">
        <ele>235</ele>
        <time>2015-03-22T11:17:31.1Z</time>
      </trkpt>
      <trkpt lat="48.4326" lon="-3.56974">
        <ele>235</ele>
        <time>2015-03-22T11:17:33.1Z</time>
      </trkpt>
      <trkpt lat="48.43262" lon="-3.56972">
        <ele>235</ele>
        <time>2015-03-22T11:17:35.1Z</time>
      </trkpt>
      <trkpt lat="48.43264" lon="-3.5697">
        <ele>235</ele>
        <time>2015-03-22T11:17:37.1Z</time>
      </trkpt>
      <trkpt lat="48.43266" lon="-3.56969">
        <ele>235</ele>
        <time>2015-03-22T11:17:40.1Z</time>
      </trkpt>
      <trkpt lat="48.43267" lon="-3.56969">
        <ele>234</ele>
        <time>2015-03-22T11:17:42.1Z</time>
      </trkpt>
      <trkpt lat="48.43269" lon="-3.56967">
        <ele>234</ele>
        <time>2015-03-22T11:17:44.1Z</time>
      </trkpt>
      <trkpt lat="48.43272" lon="-3.56964">
        <ele>235</ele>
        <time>2015-03-22T11:17:47.1Z</time>
      </trkpt>
      <trkpt lat="48.43275" lon="-3.56961">
        <ele>235</ele>
        <time>2015-03-22T11:17:50.1Z</time>
      </trkpt>
      <trkpt lat="48.43278" lon="-3.56958">
        <ele>235</ele>
        <time>2015-03-22T11:17:53.1Z</time>
      </trkpt>
      <trkpt lat="48.4328" lon="-3.56956">
        <ele>235</ele>
        <time>2015-03-22T11:17:55.1Z</time>
      </trkpt>
      <trkpt lat="48.43282" lon="-3.56954">
        <ele>235</ele>
        <time>2015-03-22T11:17:57.1Z</time>
      </trkpt>
      <trkpt lat="48.43284" lon="-3.56951">
        <ele>235</ele>
        <time>2015-03-22T11:17:59.1Z</time>
      </trkpt>
      <trkpt lat="48.43286" lon="-3.56949">
        <ele>235</ele>
        <time>2015-03-22T11:18:01.1Z</time>
      </trkpt>
      <trkpt lat="48.43288" lon="-3.56947">
        <ele>235</ele>
        <time>2015-03-22T11:18:03.1Z</time>
      </trkpt>
      <trkpt lat="48.43291" lon="-3.56944">
        <ele>234</ele>
        <time>2015-03-22T11:18:06.1Z</time>
      </trkpt>
      <trkpt lat="48.43295" lon="-3.56942">
        <ele>234</ele>
        <time>2015-03-22T11:18:09.1Z</time>
      </trkpt>
      <trkpt lat="48.43297" lon="-3.5694">
        <ele>235</ele>
        <time>2015-03-22T11:18:11.1Z</time>
      </trkpt>
      <trkpt lat="48.43299" lon="-3.56936">
        <ele>234</ele>
        <time>2015-03-22T11:18:14.1Z</time>
      </trkpt>
      <trkpt lat="48.43302" lon="-3.56932">
        <ele>234</ele>
        <time>2015-03-22T11:18:17.1Z</time>
      </trkpt>
      <trkpt lat="48.43304" lon="-3.5693">
        <ele>234</ele>
        <time>2015-03-22T11:18:19.1Z</time>
      </trkpt>
      <trkpt lat="48.43307" lon="-3.56927">
        <ele>234</ele>
        <time>2015-03-22T11:18:22.1Z</time>
      </trkpt>
      <trkpt lat="48.43309" lon="-3.56924">
        <ele>234</ele>
        <time>2015-03-22T11:18:24.1Z</time>
      </trkpt>
      <trkpt lat="48.43311" lon="-3.56921">
        <ele>233</ele>
        <time>2015-03-22T11:18:27.1Z</time>
      </trkpt>
      <trkpt lat="48.43314" lon="-3.56919">
        <ele>233</ele>
        <time>2015-03-22T11:18:29.1Z</time>
      </trkpt>
      <trkpt lat="48.43316" lon="-3.56916">
        <ele>232</ele>
        <time>2015-03-22T11:18:32.1Z</time>
      </trkpt>
      <trkpt lat="48.43318" lon="-3.56913">
        <ele>232</ele>
        <time>2015-03-22T11:18:34.1Z</time>
      </trkpt>
      <trkpt lat="48.43321" lon="-3.5691">
        <ele>232</ele>
        <time>2015-03-22T11:18:37.1Z</time>
      </trkpt>
      <trkpt lat="48.43323" lon="-3.56906">
        <ele>232</ele>
        <time>2015-03-22T11:18:40.1Z</time>
      </trkpt>
      <trkpt lat="48.43324" lon="-3.56903">
        <ele>232</ele>
        <time>2015-03-22T11:18:43.1Z</time>
      </trkpt>
      <trkpt lat="48.43325" lon="-3.56902">
        <ele>231</ele>
        <time>2015-03-22T11:18:46.1Z</time>
      </trkpt>
      <trkpt lat="48.43326" lon="-3.569">
        <ele>231</ele>
        <time>2015-03-22T11:18:48.1Z</time>
      </trkpt>
      <trkpt lat="48.43327" lon="-3.56898">
        <ele>231</ele>
        <time>2015-03-22T11:18:50.1Z</time>
      </trkpt>
      <trkpt lat="48.4333" lon="-3.56894">
        <ele>231</ele>
        <time>2015-03-22T11:18:53.1Z</time>
      </trkpt>
      <trkpt lat="48.43331" lon="-3.56892">
        <ele>232</ele>
        <time>2015-03-22T11:18:56.1Z</time>
      </trkpt>
      <trkpt lat="48.43332" lon="-3.56891">
        <ele>231</ele>
        <time>2015-03-22T11:18:59.1Z</time>
      </trkpt>
      <trkpt lat="48.43334" lon="-3.56887">
        <ele>232</ele>
        <time>2015-03-22T11:19:02.1Z</time>
      </trkpt>
      <trkpt lat="48.43336" lon="-3.56885">
        <ele>231</ele>
        <time>2015-03-22T11:19:04.1Z</time>
      </trkpt>
      <trkpt lat="48.43338" lon="-3.5688">
        <ele>231</ele>
        <time>2015-03-22T11:19:07.1Z</time>
      </trkpt>
      <trkpt lat="48.4334" lon="-3.56878">
        <ele>230</ele>
        <time>2015-03-22T11:19:09.1Z</time>
      </trkpt>
      <trkpt lat="48.43342" lon="-3.56874">
        <ele>230</ele>
        <time>2015-03-22T11:19:12.1Z</time>
      </trkpt>
      <trkpt lat="48.43345" lon="-3.56871">
        <ele>230</ele>
        <time>2015-03-22T11:19:14.1Z</time>
      </trkpt>
      <trkpt lat="48.43347" lon="-3.56867">
        <ele>229</ele>
        <time>2015-03-22T11:19:17.1Z</time>
      </trkpt>
      <trkpt lat="48.43349" lon="-3.56865">
        <ele>229</ele>
        <time>2015-03-22T11:19:19.1Z</time>
      </trkpt>
      <trkpt lat="48.43351" lon="-3.5686">
        <ele>229</ele>
        <time>2015-03-22T11:19:22.1Z</time>
      </trkpt>
      <trkpt lat="48.43353" lon="-3.56858">
        <ele>228</ele>
        <time>2015-03-22T11:19:24.1Z</time>
      </trkpt>
      <trkpt lat="48.43356" lon="-3.56854">
        <ele>228</ele>
        <time>2015-03-22T11:19:27.1Z</time>
      </trkpt>
      <trkpt lat="48.43357" lon="-3.56851">
        <ele>228</ele>
        <time>2015-03-22T11:19:29.1Z</time>
      </trkpt>
      <trkpt lat="48.43359" lon="-3.56847">
        <ele>228</ele>
        <time>2015-03-22T11:19:32.1Z</time>
      </trkpt>
      <trkpt lat="48.4336" lon="-3.56843">
        <ele>228</ele>
        <time>2015-03-22T11:19:35.1Z</time>
      </trkpt>
      <trkpt lat="48.43362" lon="-3.56839">
        <ele>228</ele>
        <time>2015-03-22T11:19:38.1Z</time>
      </trkpt>
      <trkpt lat="48.43364" lon="-3.56837">
        <ele>228</ele>
        <time>2015-03-22T11:19:40.1Z</time>
      </trkpt>
      <trkpt lat="48.43366" lon="-3.56833">
        <ele>228</ele>
        <time>2015-03-22T11:19:43.1Z</time>
      </trkpt>
      <trkpt lat="48.43368" lon="-3.56829">
        <ele>227</ele>
        <time>2015-03-22T11:19:46.1Z</time>
      </trkpt>
      <trkpt lat="48.43369" lon="-3.56826">
        <ele>227</ele>
        <time>2015-03-22T11:19:48.1Z</time>
      </trkpt>
      <trkpt lat="48.43371" lon="-3.56823">
        <ele>227</ele>
        <time>2015-03-22T11:19:51.1Z</time>
      </trkpt>
      <trkpt lat="48.43372" lon="-3.5682">
        <ele>226</ele>
        <time>2015-03-22T11:19:53.1Z</time>
      </trkpt>
      <trkpt lat="48.43375" lon="-3.56816">
        <ele>227</ele>
        <time>2015-03-22T11:19:56.1Z</time>
      </trkpt>
      <trkpt lat="48.43376" lon="-3.56812">
        <ele>227</ele>
        <time>2015-03-22T11:19:59.1Z</time>
      </trkpt>
      <trkpt lat="48.43377" lon="-3.56809">
        <ele>227</ele>
        <time>2015-03-22T11:20:01.1Z</time>
      </trkpt>
      <trkpt lat="48.43379" lon="-3.56807">
        <ele>227</ele>
        <time>2015-03-22T11:20:03.1Z</time>
      </trkpt>
      <trkpt lat="48.4338" lon="-3.56804">
        <ele>227</ele>
        <time>2015-03-22T11:20:05.1Z</time>
      </trkpt>
      <trkpt lat="48.43382" lon="-3.568">
        <ele>227</ele>
        <time>2015-03-22T11:20:08.1Z</time>
      </trkpt>
      <trkpt lat="48.43383" lon="-3.56799">
        <ele>227</ele>
        <time>2015-03-22T11:20:10.1Z</time>
      </trkpt>
      <trkpt lat="48.43383" lon="-3.56797">
        <ele>227</ele>
        <time>2015-03-22T11:20:13.1Z</time>
      </trkpt>
      <trkpt lat="48.43384" lon="-3.56792">
        <ele>227</ele>
        <time>2015-03-22T11:20:16.1Z</time>
      </trkpt>
      <trkpt lat="48.43386" lon="-3.56789">
        <ele>227</ele>
        <time>2015-03-22T11:20:18.1Z</time>
      </trkpt>
      <trkpt lat="48.43387" lon="-3.56787">
        <ele>227</ele>
        <time>2015-03-22T11:20:20.1Z</time>
      </trkpt>
      <trkpt lat="48.43388" lon="-3.56782">
        <ele>227</ele>
        <time>2015-03-22T11:20:23.1Z</time>
      </trkpt>
      <trkpt lat="48.43391" lon="-3.56778">
        <ele>227</ele>
        <time>2015-03-22T11:20:26.1Z</time>
      </trkpt>
      <trkpt lat="48.43392" lon="-3.56775">
        <ele>227</ele>
        <time>2015-03-22T11:20:28.1Z</time>
      </trkpt>
      <trkpt lat="48.43393" lon="-3.56772">
        <ele>226</ele>
        <time>2015-03-22T11:20:30.1Z</time>
      </trkpt>
      <trkpt lat="48.43394" lon="-3.56769">
        <ele>226</ele>
        <time>2015-03-22T11:20:32.1Z</time>
      </trkpt>
      <trkpt lat="48.43396" lon="-3.56767">
        <ele>226</ele>
        <time>2015-03-22T11:20:34.1Z</time>
      </trkpt>
      <trkpt lat="48.43398" lon="-3.56762">
        <ele>226</ele>
        <time>2015-03-22T11:20:37.1Z</time>
      </trkpt>
      <trkpt lat="48.43399" lon="-3.56758">
        <ele>226</ele>
        <time>2015-03-22T11:20:39.1Z</time>
      </trkpt>
      <trkpt lat="48.43401" lon="-3.56755">
        <ele>226</ele>
        <time>2015-03-22T11:20:41.1Z</time>
      </trkpt>
      <trkpt lat="48.43403" lon="-3.5675">
        <ele>226</ele>
        <time>2015-03-22T11:20:44.1Z</time>
      </trkpt>
      <trkpt lat="48.43405" lon="-3.56746">
        <ele>226</ele>
        <time>2015-03-22T11:20:47.1Z</time>
      </trkpt>
      <trkpt lat="48.43406" lon="-3.56739">
        <ele>226</ele>
        <time>2015-03-22T11:20:50.1Z</time>
      </trkpt>
      <trkpt lat="48.43408" lon="-3.56734">
        <ele>226</ele>
        <time>2015-03-22T11:20:53.1Z</time>
      </trkpt>
      <trkpt lat="48.43409" lon="-3.5673">
        <ele>226</ele>
        <time>2015-03-22T11:20:55.1Z</time>
      </trkpt>
      <trkpt lat="48.4341" lon="-3.56727">
        <ele>226</ele>
        <time>2015-03-22T11:20:57.1Z</time>
      </trkpt>
      <trkpt lat="48.43412" lon="-3.56722">
        <ele>226</ele>
        <time>2015-03-22T11:21:00.1Z</time>
      </trkpt>
      <trkpt lat="48.43414" lon="-3.56717">
        <ele>227</ele>
        <time>2015-03-22T11:21:03.1Z</time>
      </trkpt>
      <trkpt lat="48.43416" lon="-3.56714">
        <ele>226</ele>
        <time>2015-03-22T11:21:05.1Z</time>
      </trkpt>
      <trkpt lat="48.43417" lon="-3.56711">
        <ele>226</ele>
        <time>2015-03-22T11:21:07.1Z</time>
      </trkpt>
      <trkpt lat="48.43419" lon="-3.56707">
        <ele>226</ele>
        <time>2015-03-22T11:21:10.1Z</time>
      </trkpt>
      <trkpt lat="48.4342" lon="-3.56702">
        <ele>226</ele>
        <time>2015-03-22T11:21:13.1Z</time>
      </trkpt>
      <trkpt lat="48.43422" lon="-3.56697">
        <ele>226</ele>
        <time>2015-03-22T11:21:16.1Z</time>
      </trkpt>
      <trkpt lat="48.43422" lon="-3.56695">
        <ele>226</ele>
        <time>2015-03-22T11:21:18.1Z</time>
      </trkpt>
      <trkpt lat="48.43424" lon="-3.5669">
        <ele>226</ele>
        <time>2015-03-22T11:21:21.1Z</time>
      </trkpt>
      <trkpt lat="48.43425" lon="-3.56687">
        <ele>226</ele>
        <time>2015-03-22T11:21:23.1Z</time>
      </trkpt>
      <trkpt lat="48.43425" lon="-3.56685">
        <ele>226</ele>
        <time>2015-03-22T11:21:25.1Z</time>
      </trkpt>
      <trkpt lat="48.43427" lon="-3.5668">
        <ele>226</ele>
        <time>2015-03-22T11:21:28.1Z</time>
      </trkpt>
      <trkpt lat="48.43429" lon="-3.56676">
        <ele>226</ele>
        <time>2015-03-22T11:21:31.1Z</time>
      </trkpt>
      <trkpt lat="48.4343" lon="-3.56674">
        <ele>226</ele>
        <time>2015-03-22T11:21:33.1Z</time>
      </trkpt>
      <trkpt lat="48.43432" lon="-3.56671">
        <ele>226</ele>
        <time>2015-03-22T11:21:35.1Z</time>
      </trkpt>
      <trkpt lat="48.43433" lon="-3.56667">
        <ele>226</ele>
        <time>2015-03-22T11:21:37.1Z</time>
      </trkpt>
      <trkpt lat="48.43435" lon="-3.56664">
        <ele>226</ele>
        <time>2015-03-22T11:21:39.1Z</time>
      </trkpt>
      <trkpt lat="48.43436" lon="-3.56659">
        <ele>227</ele>
        <time>2015-03-22T11:21:42.1Z</time>
      </trkpt>
      <trkpt lat="48.43438" lon="-3.56655">
        <ele>227</ele>
        <time>2015-03-22T11:21:45.1Z</time>
      </trkpt>
      <trkpt lat="48.4344" lon="-3.5665">
        <ele>226</ele>
        <time>2015-03-22T11:21:48.1Z</time>
      </trkpt>
      <trkpt lat="48.43441" lon="-3.56647">
        <ele>226</ele>
        <time>2015-03-22T11:21:50.1Z</time>
      </trkpt>
      <trkpt lat="48.43443" lon="-3.56643">
        <ele>226</ele>
        <time>2015-03-22T11:21:53.1Z</time>
      </trkpt>
      <trkpt lat="48.43445" lon="-3.56638">
        <ele>227</ele>
        <time>2015-03-22T11:21:56.1Z</time>
      </trkpt>
      <trkpt lat="48.43447" lon="-3.56635">
        <ele>227</ele>
        <time>2015-03-22T11:21:58.1Z</time>
      </trkpt>
      <trkpt lat="48.43449" lon="-3.56631">
        <ele>227</ele>
        <time>2015-03-22T11:22:01.1Z</time>
      </trkpt>
      <trkpt lat="48.43452" lon="-3.56627">
        <ele>227</ele>
        <time>2015-03-22T11:22:04.1Z</time>
      </trkpt>
      <trkpt lat="48.43454" lon="-3.56624">
        <ele>226</ele>
        <time>2015-03-22T11:22:06.1Z</time>
      </trkpt>
      <trkpt lat="48.43455" lon="-3.56621">
        <ele>226</ele>
        <time>2015-03-22T11:22:08.1Z</time>
      </trkpt>
      <trkpt lat="48.43457" lon="-3.56616">
        <ele>226</ele>
        <time>2015-03-22T11:22:11.1Z</time>
      </trkpt>
      <trkpt lat="48.43459" lon="-3.56613">
        <ele>226</ele>
        <time>2015-03-22T11:22:13.1Z</time>
      </trkpt>
      <trkpt lat="48.43461" lon="-3.56609">
        <ele>226</ele>
        <time>2015-03-22T11:22:16.1Z</time>
      </trkpt>
      <trkpt lat="48.43463" lon="-3.56606">
        <ele>226</ele>
        <time>2015-03-22T11:22:18.1Z</time>
      </trkpt>
      <trkpt lat="48.43465" lon="-3.56602">
        <ele>226</ele>
        <time>2015-03-22T11:22:21.1Z</time>
      </trkpt>
      <trkpt lat="48.43467" lon="-3.56597">
        <ele>226</ele>
        <time>2015-03-22T11:22:24.1Z</time>
      </trkpt>
      <trkpt lat="48.4347" lon="-3.56593">
        <ele>227</ele>
        <time>2015-03-22T11:22:27.1Z</time>
      </trkpt>
      <trkpt lat="48.43472" lon="-3.56589">
        <ele>227</ele>
        <time>2015-03-22T11:22:30.1Z</time>
      </trkpt>
      <trkpt lat="48.43474" lon="-3.56586">
        <ele>227</ele>
        <time>2015-03-22T11:22:32.1Z</time>
      </trkpt>
      <trkpt lat="48.43475" lon="-3.56583">
        <ele>227</ele>
        <time>2015-03-22T11:22:34.1Z</time>
      </trkpt>
      <trkpt lat="48.43477" lon="-3.56578">
        <ele>227</ele>
        <time>2015-03-22T11:22:37.1Z</time>
      </trkpt>
      <trkpt lat="48.43478" lon="-3.56575">
        <ele>227</ele>
        <time>2015-03-22T11:22:39.1Z</time>
      </trkpt>
      <trkpt lat="48.4348" lon="-3.56572">
        <ele>227</ele>
        <time>2015-03-22T11:22:41.1Z</time>
      </trkpt>
      <trkpt lat="48.4348" lon="-3.56571">
        <ele>227</ele>
        <time>2015-03-22T11:22:43.1Z</time>
      </trkpt>
      <trkpt lat="48.43481" lon="-3.56569">
        <ele>227</ele>
        <time>2015-03-22T11:22:46.1Z</time>
      </trkpt>
      <trkpt lat="48.43481" lon="-3.56569">
        <ele>228</ele>
        <time>2015-03-22T11:22:49.1Z</time>
      </trkpt>
      <trkpt lat="48.43481" lon="-3.56568">
        <ele>227</ele>
        <time>2015-03-22T11:22:52.1Z</time>
      </trkpt>
      <trkpt lat="48.43482" lon="-3.56567">
        <ele>227</ele>
        <time>2015-03-22T11:22:54.1Z</time>
      </trkpt>
      <trkpt lat="48.43483" lon="-3.56563">
        <ele>227</ele>
        <time>2015-03-22T11:22:57.1Z</time>
      </trkpt>
      <trkpt lat="48.43484" lon="-3.5656">
        <ele>227</ele>
        <time>2015-03-22T11:22:59.1Z</time>
      </trkpt>
      <trkpt lat="48.43485" lon="-3.56557">
        <ele>227</ele>
        <time>2015-03-22T11:23:01.1Z</time>
      </trkpt>
      <trkpt lat="48.43487" lon="-3.56552">
        <ele>227</ele>
        <time>2015-03-22T11:23:04.1Z</time>
      </trkpt>
      <trkpt lat="48.43489" lon="-3.56547">
        <ele>227</ele>
        <time>2015-03-22T11:23:07.1Z</time>
      </trkpt>
      <trkpt lat="48.43491" lon="-3.56542">
        <ele>226</ele>
        <time>2015-03-22T11:23:10.1Z</time>
      </trkpt>
      <trkpt lat="48.43492" lon="-3.56539">
        <ele>227</ele>
        <time>2015-03-22T11:23:12.1Z</time>
      </trkpt>
      <trkpt lat="48.43492" lon="-3.56536">
        <ele>227</ele>
        <time>2015-03-22T11:23:14.1Z</time>
      </trkpt>
      <trkpt lat="48.43494" lon="-3.56531">
        <ele>227</ele>
        <time>2015-03-22T11:23:17.1Z</time>
      </trkpt>
      <trkpt lat="48.43494" lon="-3.56528">
        <ele>227</ele>
        <time>2015-03-22T11:23:19.1Z</time>
      </trkpt>
      <trkpt lat="48.43496" lon="-3.56523">
        <ele>227</ele>
        <time>2015-03-22T11:23:22.1Z</time>
      </trkpt>
      <trkpt lat="48.43498" lon="-3.56518">
        <ele>227</ele>
        <time>2015-03-22T11:23:25.1Z</time>
      </trkpt>
      <trkpt lat="48.43499" lon="-3.56514">
        <ele>228</ele>
        <time>2015-03-22T11:23:27.1Z</time>
      </trkpt>
      <trkpt lat="48.435" lon="-3.56509">
        <ele>227</ele>
        <time>2015-03-22T11:23:30.1Z</time>
      </trkpt>
      <trkpt lat="48.43501" lon="-3.56503">
        <ele>227</ele>
        <time>2015-03-22T11:23:33.1Z</time>
      </trkpt>
      <trkpt lat="48.43502" lon="-3.565">
        <ele>227</ele>
        <time>2015-03-22T11:23:35.1Z</time>
      </trkpt>
      <trkpt lat="48.43503" lon="-3.56496">
        <ele>227</ele>
        <time>2015-03-22T11:23:37.1Z</time>
      </trkpt>
      <trkpt lat="48.43505" lon="-3.5649">
        <ele>227</ele>
        <time>2015-03-22T11:23:40.1Z</time>
      </trkpt>
      <trkpt lat="48.43506" lon="-3.56485">
        <ele>228</ele>
        <time>2015-03-22T11:23:43.1Z</time>
      </trkpt>
      <trkpt lat="48.43506" lon="-3.56481">
        <ele>228</ele>
        <time>2015-03-22T11:23:45.1Z</time>
      </trkpt>
      <trkpt lat="48.43508" lon="-3.56476">
        <ele>228</ele>
        <time>2015-03-22T11:23:48.1Z</time>
      </trkpt>
      <trkpt lat="48.43508" lon="-3.56472">
        <ele>228</ele>
        <time>2015-03-22T11:23:50.1Z</time>
      </trkpt>
      <trkpt lat="48.4351" lon="-3.56467">
        <ele>228</ele>
        <time>2015-03-22T11:23:53.1Z</time>
      </trkpt>
      <trkpt lat="48.43511" lon="-3.56463">
        <ele>228</ele>
        <time>2015-03-22T11:23:55.1Z</time>
      </trkpt>
      <trkpt lat="48.43512" lon="-3.5646">
        <ele>228</ele>
        <time>2015-03-22T11:23:57.1Z</time>
      </trkpt>
      <trkpt lat="48.43512" lon="-3.56454">
        <ele>229</ele>
        <time>2015-03-22T11:24:00.1Z</time>
      </trkpt>
      <trkpt lat="48.43513" lon="-3.5645">
        <ele>229</ele>
        <time>2015-03-22T11:24:02.1Z</time>
      </trkpt>
      <trkpt lat="48.43513" lon="-3.56447">
        <ele>228</ele>
        <time>2015-03-22T11:24:04.1Z</time>
      </trkpt>
      <trkpt lat="48.43513" lon="-3.56443">
        <ele>228</ele>
        <time>2015-03-22T11:24:06.1Z</time>
      </trkpt>
      <trkpt lat="48.43514" lon="-3.56439">
        <ele>228</ele>
        <time>2015-03-22T11:24:08.1Z</time>
      </trkpt>
      <trkpt lat="48.43514" lon="-3.56435">
        <ele>228</ele>
        <time>2015-03-22T11:24:10.1Z</time>
      </trkpt>
      <trkpt lat="48.43513" lon="-3.5643">
        <ele>228</ele>
        <time>2015-03-22T11:24:13.1Z</time>
      </trkpt>
      <trkpt lat="48.43512" lon="-3.56427">
        <ele>228</ele>
        <time>2015-03-22T11:24:15.1Z</time>
      </trkpt>
      <trkpt lat="48.43511" lon="-3.56424">
        <ele>227</ele>
        <time>2015-03-22T11:24:17.1Z</time>
      </trkpt>
      <trkpt lat="48.43509" lon="-3.56421">
        <ele>227</ele>
        <time>2015-03-22T11:24:19.1Z</time>
      </trkpt>
      <trkpt lat="48.43507" lon="-3.56419">
        <ele>226</ele>
        <time>2015-03-22T11:24:21.1Z</time>
      </trkpt>
      <trkpt lat="48.43505" lon="-3.56415">
        <ele>226</ele>
        <time>2015-03-22T11:24:24.1Z</time>
      </trkpt>
      <trkpt lat="48.43503" lon="-3.56414">
        <ele>226</ele>
        <time>2015-03-22T11:24:26.1Z</time>
      </trkpt>
      <trkpt lat="48.43501" lon="-3.56412">
        <ele>227</ele>
        <time>2015-03-22T11:24:28.1Z</time>
      </trkpt>
      <trkpt lat="48.43498" lon="-3.56409">
        <ele>227</ele>
        <time>2015-03-22T11:24:31.1Z</time>
      </trkpt>
      <trkpt lat="48.43496" lon="-3.56407">
        <ele>227</ele>
        <time>2015-03-22T11:24:33.1Z</time>
      </trkpt>
      <trkpt lat="48.43494" lon="-3.56405">
        <ele>227</ele>
        <time>2015-03-22T11:24:35.1Z</time>
      </trkpt>
      <trkpt lat="48.43492" lon="-3.56403">
        <ele>227</ele>
        <time>2015-03-22T11:24:37.1Z</time>
      </trkpt>
      <trkpt lat="48.43489" lon="-3.56399">
        <ele>227</ele>
        <time>2015-03-22T11:24:40.1Z</time>
      </trkpt>
      <trkpt lat="48.43487" lon="-3.56398">
        <ele>227</ele>
        <time>2015-03-22T11:24:42.1Z</time>
      </trkpt>
      <trkpt lat="48.43484" lon="-3.56396">
        <ele>226</ele>
        <time>2015-03-22T11:24:44.1Z</time>
      </trkpt>
      <trkpt lat="48.43482" lon="-3.56393">
        <ele>226</ele>
        <time>2015-03-22T11:24:46.1Z</time>
      </trkpt>
      <trkpt lat="48.43479" lon="-3.5639">
        <ele>226</ele>
        <time>2015-03-22T11:24:49.1Z</time>
      </trkpt>
      <trkpt lat="48.43477" lon="-3.56388">
        <ele>226</ele>
        <time>2015-03-22T11:24:51.1Z</time>
      </trkpt>
      <trkpt lat="48.43475" lon="-3.56385">
        <ele>226</ele>
        <time>2015-03-22T11:24:53.1Z</time>
      </trkpt>
      <trkpt lat="48.43473" lon="-3.56383">
        <ele>226</ele>
        <time>2015-03-22T11:24:55.1Z</time>
      </trkpt>
      <trkpt lat="48.4347" lon="-3.5638">
        <ele>226</ele>
        <time>2015-03-22T11:24:58.1Z</time>
      </trkpt>
      <trkpt lat="48.43467" lon="-3.56379">
        <ele>225</ele>
        <time>2015-03-22T11:25:00.1Z</time>
      </trkpt>
      <trkpt lat="48.43465" lon="-3.56377">
        <ele>225</ele>
        <time>2015-03-22T11:25:02.1Z</time>
      </trkpt>
      <trkpt lat="48.43462" lon="-3.56374">
        <ele>225</ele>
        <time>2015-03-22T11:25:05.1Z</time>
      </trkpt>
      <trkpt lat="48.4346" lon="-3.56372">
        <ele>224</ele>
        <time>2015-03-22T11:25:07.1Z</time>
      </trkpt>
      <trkpt lat="48.43458" lon="-3.5637">
        <ele>224</ele>
        <time>2015-03-22T11:25:09.1Z</time>
      </trkpt>
      <trkpt lat="48.43454" lon="-3.56367">
        <ele>224</ele>
        <time>2015-03-22T11:25:12.1Z</time>
      </trkpt>
      <trkpt lat="48.43452" lon="-3.56365">
        <ele>224</ele>
        <time>2015-03-22T11:25:14.1Z</time>
      </trkpt>
      <trkpt lat="48.43449" lon="-3.56363">
        <ele>224</ele>
        <time>2015-03-22T11:25:17.1Z</time>
      </trkpt>
      <trkpt lat="48.43446" lon="-3.56361">
        <ele>224</ele>
        <time>2015-03-22T11:25:20.1Z</time>
      </trkpt>
      <trkpt lat="48.43444" lon="-3.56359">
        <ele>224</ele>
        <time>2015-03-22T11:25:22.1Z</time>
      </trkpt>
      <trkpt lat="48.43441" lon="-3.56358">
        <ele>224</ele>
        <time>2015-03-22T11:25:24.1Z</time>
      </trkpt>
      <trkpt lat="48.43438" lon="-3.56356">
        <ele>223</ele>
        <time>2015-03-22T11:25:27.1Z</time>
      </trkpt>
      <trkpt lat="48.43436" lon="-3.56355">
        <ele>223</ele>
        <time>2015-03-22T11:25:29.1Z</time>
      </trkpt>
      <trkpt lat="48.43432" lon="-3.56354">
        <ele>223</ele>
        <time>2015-03-22T11:25:32.1Z</time>
      </trkpt>
      <trkpt lat="48.43429" lon="-3.56351">
        <ele>223</ele>
        <time>2015-03-22T11:25:35.1Z</time>
      </trkpt>
      <trkpt lat="48.43425" lon="-3.56349">
        <ele>223</ele>
        <time>2015-03-22T11:25:38.1Z</time>
      </trkpt>
      <trkpt lat="48.43423" lon="-3.56348">
        <ele>223</ele>
        <time>2015-03-22T11:25:40.1Z</time>
      </trkpt>
      <trkpt lat="48.43422" lon="-3.56347">
        <ele>223</ele>
        <time>2015-03-22T11:25:43.1Z</time>
      </trkpt>
      <trkpt lat="48.43422" lon="-3.56347">
        <ele>222</ele>
        <time>2015-03-22T11:25:45.1Z</time>
      </trkpt>
      <trkpt lat="48.43422" lon="-3.56346">
        <ele>222</ele>
        <time>2015-03-22T11:25:48.1Z</time>
      </trkpt>
      <trkpt lat="48.43421" lon="-3.56343">
        <ele>223</ele>
        <time>2015-03-22T11:25:50.1Z</time>
      </trkpt>
      <trkpt lat="48.43419" lon="-3.5634">
        <ele>223</ele>
        <time>2015-03-22T11:25:52.1Z</time>
      </trkpt>
      <trkpt lat="48.43417" lon="-3.56337">
        <ele>222</ele>
        <time>2015-03-22T11:25:55.1Z</time>
      </trkpt>
      <trkpt lat="48.43414" lon="-3.56334">
        <ele>222</ele>
        <time>2015-03-22T11:25:58.1Z</time>
      </trkpt>
      <trkpt lat="48.43412" lon="-3.56332">
        <ele>222</ele>
        <time>2015-03-22T11:26:00.1Z</time>
      </trkpt>
      <trkpt lat="48.43411" lon="-3.56331">
        <ele>222</ele>
        <time>2015-03-22T11:26:03.1Z</time>
      </trkpt>
      <trkpt lat="48.43409" lon="-3.56329">
        <ele>222</ele>
        <time>2015-03-22T11:26:05.1Z</time>
      </trkpt>
      <trkpt lat="48.43406" lon="-3.56326">
        <ele>222</ele>
        <time>2015-03-22T11:26:08.1Z</time>
      </trkpt>
      <trkpt lat="48.43403" lon="-3.56322">
        <ele>222</ele>
        <time>2015-03-22T11:26:11.1Z</time>
      </trkpt>
      <trkpt lat="48.43401" lon="-3.56319">
        <ele>222</ele>
        <time>2015-03-22T11:26:13.1Z</time>
      </trkpt>
      <trkpt lat="48.43399" lon="-3.56316">
        <ele>222</ele>
        <time>2015-03-22T11:26:15.1Z</time>
      </trkpt>
      <trkpt lat="48.43398" lon="-3.56314">
        <ele>222</ele>
        <time>2015-03-22T11:26:17.1Z</time>
      </trkpt>
      <trkpt lat="48.43396" lon="-3.56311">
        <ele>221</ele>
        <time>2015-03-22T11:26:20.1Z</time>
      </trkpt>
      <trkpt lat="48.43395" lon="-3.56308">
        <ele>221</ele>
        <time>2015-03-22T11:26:22.1Z</time>
      </trkpt>
      <trkpt lat="48.43394" lon="-3.56304">
        <ele>220</ele>
        <time>2015-03-22T11:26:25.1Z</time>
      </trkpt>
      <trkpt lat="48.43394" lon="-3.56298">
        <ele>220</ele>
        <time>2015-03-22T11:26:28.1Z</time>
      </trkpt>
      <trkpt lat="48.43394" lon="-3.56294">
        <ele>220</ele>
        <time>2015-03-22T11:26:30.1Z</time>
      </trkpt>
      <trkpt lat="48.43394" lon="-3.56292">
        <ele>220</ele>
        <time>2015-03-22T11:26:33.1Z</time>
      </trkpt>
      <trkpt lat="48.43394" lon="-3.56289">
        <ele>220</ele>
        <time>2015-03-22T11:26:35.1Z</time>
      </trkpt>
      <trkpt lat="48.43395" lon="-3.56284">
        <ele>219</ele>
        <time>2015-03-22T11:26:38.1Z</time>
      </trkpt>
      <trkpt lat="48.43396" lon="-3.56279">
        <ele>220</ele>
        <time>2015-03-22T11:26:41.1Z</time>
      </trkpt>
      <trkpt lat="48.43396" lon="-3.56276">
        <ele>220</ele>
        <time>2015-03-22T11:26:43.1Z</time>
      </trkpt>
      <trkpt lat="48.43397" lon="-3.56273">
        <ele>220</ele>
        <time>2015-03-22T11:26:45.1Z</time>
      </trkpt>
      <trkpt lat="48.43399" lon="-3.5627">
        <ele>220</ele>
        <time>2015-03-22T11:26:47.1Z</time>
      </trkpt>
      <trkpt lat="48.434" lon="-3.56268">
        <ele>220</ele>
        <time>2015-03-22T11:26:49.1Z</time>
      </trkpt>
      <trkpt lat="48.43401" lon="-3.56263">
        <ele>220</ele>
        <time>2015-03-22T11:26:52.1Z</time>
      </trkpt>
      <trkpt lat="48.43402" lon="-3.56259">
        <ele>221</ele>
        <time>2015-03-22T11:26:55.1Z</time>
      </trkpt>
      <trkpt lat="48.43404" lon="-3.56255">
        <ele>221</ele>
        <time>2015-03-22T11:26:57.1Z</time>
      </trkpt>
      <trkpt lat="48.43404" lon="-3.56251">
        <ele>221</ele>
        <time>2015-03-22T11:27:00.1Z</time>
      </trkpt>
      <trkpt lat="48.43406" lon="-3.56247">
        <ele>221</ele>
        <time>2015-03-22T11:27:02.1Z</time>
      </trkpt>
      <trkpt lat="48.43407" lon="-3.56243">
        <ele>222</ele>
        <time>2015-03-22T11:27:04.1Z</time>
      </trkpt>
      <trkpt lat="48.43409" lon="-3.56239">
        <ele>222</ele>
        <time>2015-03-22T11:27:07.1Z</time>
      </trkpt>
      <trkpt lat="48.43409" lon="-3.56235">
        <ele>222</ele>
        <time>2015-03-22T11:27:09.1Z</time>
      </trkpt>
      <trkpt lat="48.43411" lon="-3.56232">
        <ele>223</ele>
        <time>2015-03-22T11:27:11.1Z</time>
      </trkpt>
      <trkpt lat="48.43412" lon="-3.56228">
        <ele>222</ele>
        <time>2015-03-22T11:27:13.1Z</time>
      </trkpt>
      <trkpt lat="48.43414" lon="-3.56224">
        <ele>222</ele>
        <time>2015-03-22T11:27:16.1Z</time>
      </trkpt>
      <trkpt lat="48.43414" lon="-3.56221">
        <ele>223</ele>
        <time>2015-03-22T11:27:18.1Z</time>
      </trkpt>
      <trkpt lat="48.43415" lon="-3.56216">
        <ele>223</ele>
        <time>2015-03-22T11:27:21.1Z</time>
      </trkpt>
      <trkpt lat="48.43416" lon="-3.56213">
        <ele>223</ele>
        <time>2015-03-22T11:27:23.1Z</time>
      </trkpt>
      <trkpt lat="48.43417" lon="-3.56207">
        <ele>223</ele>
        <time>2015-03-22T11:27:26.1Z</time>
      </trkpt>
      <trkpt lat="48.43417" lon="-3.56202">
        <ele>223</ele>
        <time>2015-03-22T11:27:29.1Z</time>
      </trkpt>
      <trkpt lat="48.43417" lon="-3.56196">
        <ele>223</ele>
        <time>2015-03-22T11:27:32.1Z</time>
      </trkpt>
      <trkpt lat="48.43417" lon="-3.56191">
        <ele>223</ele>
        <time>2015-03-22T11:27:35.1Z</time>
      </trkpt>
      <trkpt lat="48.43416" lon="-3.56188">
        <ele>223</ele>
        <time>2015-03-22T11:27:37.1Z</time>
      </trkpt>
      <trkpt lat="48.43415" lon="-3.56184">
        <ele>223</ele>
        <time>2015-03-22T11:27:39.1Z</time>
      </trkpt>
      <trkpt lat="48.43414" lon="-3.56181">
        <ele>223</ele>
        <time>2015-03-22T11:27:41.1Z</time>
      </trkpt>
      <trkpt lat="48.43412" lon="-3.56179">
        <ele>223</ele>
        <time>2015-03-22T11:27:43.1Z</time>
      </trkpt>
      <trkpt lat="48.43409" lon="-3.56175">
        <ele>223</ele>
        <time>2015-03-22T11:27:46.1Z</time>
      </trkpt>
      <trkpt lat="48.43407" lon="-3.56173">
        <ele>223</ele>
        <time>2015-03-22T11:27:48.1Z</time>
      </trkpt>
      <trkpt lat="48.43405" lon="-3.56171">
        <ele>222</ele>
        <time>2015-03-22T11:27:50.1Z</time>
      </trkpt>
      <trkpt lat="48.43403" lon="-3.56168">
        <ele>222</ele>
        <time>2015-03-22T11:27:52.1Z</time>
      </trkpt>
      <trkpt lat="48.43401" lon="-3.56164">
        <ele>222</ele>
        <time>2015-03-22T11:27:55.1Z</time>
      </trkpt>
      <trkpt lat="48.43398" lon="-3.56162">
        <ele>222</ele>
        <time>2015-03-22T11:27:57.1Z</time>
      </trkpt>
      <trkpt lat="48.43396" lon="-3.5616">
        <ele>222</ele>
        <time>2015-03-22T11:27:59.1Z</time>
      </trkpt>
      <trkpt lat="48.43394" lon="-3.56157">
        <ele>222</ele>
        <time>2015-03-22T11:28:01.1Z</time>
      </trkpt>
      <trkpt lat="48.43391" lon="-3.56154">
        <ele>221</ele>
        <time>2015-03-22T11:28:04.1Z</time>
      </trkpt>
      <trkpt lat="48.43389" lon="-3.56152">
        <ele>221</ele>
        <time>2015-03-22T11:28:06.1Z</time>
      </trkpt>
      <trkpt lat="48.43387" lon="-3.5615">
        <ele>221</ele>
        <time>2015-03-22T11:28:08.1Z</time>
      </trkpt>
      <trkpt lat="48.43385" lon="-3.56148">
        <ele>221</ele>
        <time>2015-03-22T11:28:10.1Z</time>
      </trkpt>
      <trkpt lat="48.43383" lon="-3.56146">
        <ele>221</ele>
        <time>2015-03-22T11:28:12.1Z</time>
      </trkpt>
      <trkpt lat="48.43381" lon="-3.56143">
        <ele>221</ele>
        <time>2015-03-22T11:28:15.1Z</time>
      </trkpt>
      <trkpt lat="48.43379" lon="-3.56141">
        <ele>221</ele>
        <time>2015-03-22T11:28:17.1Z</time>
      </trkpt>
      <trkpt lat="48.43377" lon="-3.56139">
        <ele>221</ele>
        <time>2015-03-22T11:28:19.1Z</time>
      </trkpt>
      <trkpt lat="48.43375" lon="-3.56137">
        <ele>221</ele>
        <time>2015-03-22T11:28:21.1Z</time>
      </trkpt>
      <trkpt lat="48.43372" lon="-3.56134">
        <ele>220</ele>
        <time>2015-03-22T11:28:24.1Z</time>
      </trkpt>
      <trkpt lat="48.4337" lon="-3.56132">
        <ele>220</ele>
        <time>2015-03-22T11:28:26.1Z</time>
      </trkpt>
      <trkpt lat="48.43368" lon="-3.56131">
        <ele>220</ele>
        <time>2015-03-22T11:28:28.1Z</time>
      </trkpt>
      <trkpt lat="48.43366" lon="-3.56129">
        <ele>220</ele>
        <time>2015-03-22T11:28:30.1Z</time>
      </trkpt>
      <trkpt lat="48.43362" lon="-3.56126">
        <ele>220</ele>
        <time>2015-03-22T11:28:33.1Z</time>
      </trkpt>
      <trkpt lat="48.43361" lon="-3.56125">
        <ele>220</ele>
        <time>2015-03-22T11:28:35.1Z</time>
      </trkpt>
      <trkpt lat="48.43358" lon="-3.56124">
        <ele>221</ele>
        <time>2015-03-22T11:28:37.1Z</time>
      </trkpt>
      <trkpt lat="48.43355" lon="-3.56123">
        <ele>221</ele>
        <time>2015-03-22T11:28:40.1Z</time>
      </trkpt>
      <trkpt lat="48.43353" lon="-3.56122">
        <ele>220</ele>
        <time>2015-03-22T11:28:42.1Z</time>
      </trkpt>
      <trkpt lat="48.43351" lon="-3.56122">
        <ele>220</ele>
        <time>2015-03-22T11:28:44.1Z</time>
      </trkpt>
      <trkpt lat="48.43349" lon="-3.56121">
        <ele>220</ele>
        <time>2015-03-22T11:28:46.1Z</time>
      </trkpt>
      <trkpt lat="48.43345" lon="-3.5612">
        <ele>221</ele>
        <time>2015-03-22T11:28:49.1Z</time>
      </trkpt>
      <trkpt lat="48.43343" lon="-3.5612">
        <ele>220</ele>
        <time>2015-03-22T11:28:51.1Z</time>
      </trkpt>
      <trkpt lat="48.43341" lon="-3.56119">
        <ele>220</ele>
        <time>2015-03-22T11:28:53.1Z</time>
      </trkpt>
      <trkpt lat="48.43338" lon="-3.56119">
        <ele>221</ele>
        <time>2015-03-22T11:28:55.1Z</time>
      </trkpt>
      <trkpt lat="48.43336" lon="-3.56118">
        <ele>220</ele>
        <time>2015-03-22T11:28:57.1Z</time>
      </trkpt>
      <trkpt lat="48.43333" lon="-3.56115">
        <ele>221</ele>
        <time>2015-03-22T11:29:00.1Z</time>
      </trkpt>
      <trkpt lat="48.4333" lon="-3.56115">
        <ele>220</ele>
        <time>2015-03-22T11:29:02.1Z</time>
      </trkpt>
      <trkpt lat="48.43328" lon="-3.56114">
        <ele>220</ele>
        <time>2015-03-22T11:29:04.1Z</time>
      </trkpt>
      <trkpt lat="48.43325" lon="-3.56113">
        <ele>220</ele>
        <time>2015-03-22T11:29:06.1Z</time>
      </trkpt>
      <trkpt lat="48.43321" lon="-3.56112">
        <ele>220</ele>
        <time>2015-03-22T11:29:09.1Z</time>
      </trkpt>
      <trkpt lat="48.43319" lon="-3.56111">
        <ele>220</ele>
        <time>2015-03-22T11:29:11.1Z</time>
      </trkpt>
      <trkpt lat="48.43316" lon="-3.5611">
        <ele>220</ele>
        <time>2015-03-22T11:29:13.1Z</time>
      </trkpt>
      <trkpt lat="48.43313" lon="-3.56109">
        <ele>220</ele>
        <time>2015-03-22T11:29:15.1Z</time>
      </trkpt>
      <trkpt lat="48.43309" lon="-3.56108">
        <ele>220</ele>
        <time>2015-03-22T11:29:18.1Z</time>
      </trkpt>
      <trkpt lat="48.43306" lon="-3.56107">
        <ele>220</ele>
        <time>2015-03-22T11:29:20.1Z</time>
      </trkpt>
      <trkpt lat="48.43304" lon="-3.56107">
        <ele>220</ele>
        <time>2015-03-22T11:29:22.1Z</time>
      </trkpt>
      <trkpt lat="48.433" lon="-3.56106">
        <ele>219</ele>
        <time>2015-03-22T11:29:25.1Z</time>
      </trkpt>
      <trkpt lat="48.43298" lon="-3.56106">
        <ele>219</ele>
        <time>2015-03-22T11:29:27.1Z</time>
      </trkpt>
      <trkpt lat="48.43296" lon="-3.56106">
        <ele>219</ele>
        <time>2015-03-22T11:29:29.1Z</time>
      </trkpt>
      <trkpt lat="48.43294" lon="-3.56105">
        <ele>219</ele>
        <time>2015-03-22T11:29:31.1Z</time>
      </trkpt>
      <trkpt lat="48.43291" lon="-3.56104">
        <ele>219</ele>
        <time>2015-03-22T11:29:34.1Z</time>
      </trkpt>
      <trkpt lat="48.43288" lon="-3.56103">
        <ele>219</ele>
        <time>2015-03-22T11:29:37.1Z</time>
      </trkpt>
      <trkpt lat="48.43285" lon="-3.56102">
        <ele>219</ele>
        <time>2015-03-22T11:29:39.1Z</time>
      </trkpt>
      <trkpt lat="48.43283" lon="-3.56102">
        <ele>219</ele>
        <time>2015-03-22T11:29:41.1Z</time>
      </trkpt>
      <trkpt lat="48.4328" lon="-3.56101">
        <ele>219</ele>
        <time>2015-03-22T11:29:43.1Z</time>
      </trkpt>
      <trkpt lat="48.43277" lon="-3.561">
        <ele>219</ele>
        <time>2015-03-22T11:29:46.1Z</time>
      </trkpt>
      <trkpt lat="48.43274" lon="-3.56099">
        <ele>218</ele>
        <time>2015-03-22T11:29:48.1Z</time>
      </trkpt>
      <trkpt lat="48.43272" lon="-3.56098">
        <ele>218</ele>
        <time>2015-03-22T11:29:50.1Z</time>
      </trkpt>
      <trkpt lat="48.43269" lon="-3.56097">
        <ele>218</ele>
        <time>2015-03-22T11:29:52.1Z</time>
      </trkpt>
      <trkpt lat="48.43267" lon="-3.56096">
        <ele>218</ele>
        <time>2015-03-22T11:29:54.1Z</time>
      </trkpt>
      <trkpt lat="48.43265" lon="-3.56096">
        <ele>218</ele>
        <time>2015-03-22T11:29:56.1Z</time>
      </trkpt>
      <trkpt lat="48.43261" lon="-3.56094">
        <ele>218</ele>
        <time>2015-03-22T11:29:59.1Z</time>
      </trkpt>
      <trkpt lat="48.43259" lon="-3.56093">
        <ele>218</ele>
        <time>2015-03-22T11:30:01.1Z</time>
      </trkpt>
      <trkpt lat="48.43255" lon="-3.56092">
        <ele>218</ele>
        <time>2015-03-22T11:30:04.1Z</time>
      </trkpt>
      <trkpt lat="48.43253" lon="-3.56091">
        <ele>218</ele>
        <time>2015-03-22T11:30:06.1Z</time>
      </trkpt>
      <trkpt lat="48.43249" lon="-3.56089">
        <ele>218</ele>
        <time>2015-03-22T11:30:09.1Z</time>
      </trkpt>
      <trkpt lat="48.43247" lon="-3.56088">
        <ele>217</ele>
        <time>2015-03-22T11:30:11.1Z</time>
      </trkpt>
      <trkpt lat="48.43245" lon="-3.56087">
        <ele>217</ele>
        <time>2015-03-22T11:30:13.1Z</time>
      </trkpt>
      <trkpt lat="48.43241" lon="-3.56087">
        <ele>217</ele>
        <time>2015-03-22T11:30:16.1Z</time>
      </trkpt>
      <trkpt lat="48.43238" lon="-3.56085">
        <ele>217</ele>
        <time>2015-03-22T11:30:19.1Z</time>
      </trkpt>
      <trkpt lat="48.43237" lon="-3.56085">
        <ele>217</ele>
        <time>2015-03-22T11:30:22.1Z</time>
      </trkpt>
      <trkpt lat="48.43236" lon="-3.56084">
        <ele>217</ele>
        <time>2015-03-22T11:30:24.1Z</time>
      </trkpt>
      <trkpt lat="48.43233" lon="-3.56083">
        <ele>217</ele>
        <time>2015-03-22T11:30:27.1Z</time>
      </trkpt>
      <trkpt lat="48.43229" lon="-3.56082">
        <ele>217</ele>
        <time>2015-03-22T11:30:30.1Z</time>
      </trkpt>
      <trkpt lat="48.43226" lon="-3.5608">
        <ele>217</ele>
        <time>2015-03-22T11:30:33.1Z</time>
      </trkpt>
      <trkpt lat="48.43224" lon="-3.56079">
        <ele>217</ele>
        <time>2015-03-22T11:30:35.1Z</time>
      </trkpt>
      <trkpt lat="48.43221" lon="-3.56078">
        <ele>216</ele>
        <time>2015-03-22T11:30:38.1Z</time>
      </trkpt>
      <trkpt lat="48.43218" lon="-3.56077">
        <ele>216</ele>
        <time>2015-03-22T11:30:40.1Z</time>
      </trkpt>
      <trkpt lat="48.43215" lon="-3.56076">
        <ele>216</ele>
        <time>2015-03-22T11:30:43.1Z</time>
      </trkpt>
      <trkpt lat="48.43213" lon="-3.56075">
        <ele>216</ele>
        <time>2015-03-22T11:30:45.1Z</time>
      </trkpt>
      <trkpt lat="48.43211" lon="-3.56074">
        <ele>216</ele>
        <time>2015-03-22T11:30:47.1Z</time>
      </trkpt>
      <trkpt lat="48.43209" lon="-3.56073">
        <ele>216</ele>
        <time>2015-03-22T11:30:49.1Z</time>
      </trkpt>
      <trkpt lat="48.43207" lon="-3.56071">
        <ele>215</ele>
        <time>2015-03-22T11:30:51.1Z</time>
      </trkpt>
      <trkpt lat="48.43203" lon="-3.56069">
        <ele>215</ele>
        <time>2015-03-22T11:30:54.1Z</time>
      </trkpt>
      <trkpt lat="48.43201" lon="-3.56068">
        <ele>215</ele>
        <time>2015-03-22T11:30:56.1Z</time>
      </trkpt>
      <trkpt lat="48.43198" lon="-3.56067">
        <ele>215</ele>
        <time>2015-03-22T11:30:59.1Z</time>
      </trkpt>
      <trkpt lat="48.43196" lon="-3.56066">
        <ele>215</ele>
        <time>2015-03-22T11:31:01.1Z</time>
      </trkpt>
      <trkpt lat="48.43193" lon="-3.56064">
        <ele>215</ele>
        <time>2015-03-22T11:31:04.1Z</time>
      </trkpt>
      <trkpt lat="48.4319" lon="-3.56062">
        <ele>214</ele>
        <time>2015-03-22T11:31:07.1Z</time>
      </trkpt>
      <trkpt lat="48.43188" lon="-3.56061">
        <ele>214</ele>
        <time>2015-03-22T11:31:09.1Z</time>
      </trkpt>
      <trkpt lat="48.43186" lon="-3.5606">
        <ele>214</ele>
        <time>2015-03-22T11:31:11.1Z</time>
      </trkpt>
      <trkpt lat="48.43182" lon="-3.56058">
        <ele>214</ele>
        <time>2015-03-22T11:31:14.1Z</time>
      </trkpt>
      <trkpt lat="48.43179" lon="-3.56056">
        <ele>214</ele>
        <time>2015-03-22T11:31:17.1Z</time>
      </trkpt>
      <trkpt lat="48.43176" lon="-3.56054">
        <ele>213</ele>
        <time>2015-03-22T11:31:20.1Z</time>
      </trkpt>
      <trkpt lat="48.43174" lon="-3.56053">
        <ele>213</ele>
        <time>2015-03-22T11:31:22.1Z</time>
      </trkpt>
      <trkpt lat="48.43172" lon="-3.56052">
        <ele>213</ele>
        <time>2015-03-22T11:31:24.1Z</time>
      </trkpt>
      <trkpt lat="48.4317" lon="-3.5605">
        <ele>213</ele>
        <time>2015-03-22T11:31:26.1Z</time>
      </trkpt>
      <trkpt lat="48.43168" lon="-3.56048">
        <ele>213</ele>
        <time>2015-03-22T11:31:29.1Z</time>
      </trkpt>
      <trkpt lat="48.43165" lon="-3.56046">
        <ele>212</ele>
        <time>2015-03-22T11:31:32.1Z</time>
      </trkpt>
      <trkpt lat="48.43164" lon="-3.56045">
        <ele>212</ele>
        <time>2015-03-22T11:31:34.1Z</time>
      </trkpt>
      <trkpt lat="48.43163" lon="-3.56044">
        <ele>211</ele>
        <time>2015-03-22T11:31:37.1Z</time>
      </trkpt>
      <trkpt lat="48.43162" lon="-3.56043">
        <ele>211</ele>
        <time>2015-03-22T11:31:39.1Z</time>
      </trkpt>
      <trkpt lat="48.43161" lon="-3.56042">
        <ele>211</ele>
        <time>2015-03-22T11:31:41.1Z</time>
      </trkpt>
      <trkpt lat="48.4316" lon="-3.56041">
        <ele>211</ele>
        <time>2015-03-22T11:31:44.1Z</time>
      </trkpt>
      <trkpt lat="48.43157" lon="-3.56038">
        <ele>211</ele>
        <time>2015-03-22T11:31:47.1Z</time>
      </trkpt>
      <trkpt lat="48.43155" lon="-3.56036">
        <ele>210</ele>
        <time>2015-03-22T11:31:49.1Z</time>
      </trkpt>
      <trkpt lat="48.43154" lon="-3.56034">
        <ele>210</ele>
        <time>2015-03-22T11:31:51.1Z</time>
      </trkpt>
      <trkpt lat="48.43151" lon="-3.56033">
        <ele>210</ele>
        <time>2015-03-22T11:31:54.1Z</time>
      </trkpt>
      <trkpt lat="48.4315" lon="-3.56031">
        <ele>210</ele>
        <time>2015-03-22T11:31:56.1Z</time>
      </trkpt>
      <trkpt lat="48.43148" lon="-3.56028">
        <ele>210</ele>
        <time>2015-03-22T11:31:59.1Z</time>
      </trkpt>
      <trkpt lat="48.43146" lon="-3.56025">
        <ele>209</ele>
        <time>2015-03-22T11:32:02.1Z</time>
      </trkpt>
      <trkpt lat="48.43145" lon="-3.56023">
        <ele>209</ele>
        <time>2015-03-22T11:32:04.1Z</time>
      </trkpt>
      <trkpt lat="48.43142" lon="-3.56019">
        <ele>208</ele>
        <time>2015-03-22T11:32:07.1Z</time>
      </trkpt>
      <trkpt lat="48.4314" lon="-3.56017">
        <ele>208</ele>
        <time>2015-03-22T11:32:10.1Z</time>
      </trkpt>
      <trkpt lat="48.43138" lon="-3.56014">
        <ele>208</ele>
        <time>2015-03-22T11:32:13.1Z</time>
      </trkpt>
      <trkpt lat="48.43136" lon="-3.56011">
        <ele>208</ele>
        <time>2015-03-22T11:32:16.1Z</time>
      </trkpt>
      <trkpt lat="48.43134" lon="-3.56008">
        <ele>208</ele>
        <time>2015-03-22T11:32:19.1Z</time>
      </trkpt>
      <trkpt lat="48.43132" lon="-3.56005">
        <ele>207</ele>
        <time>2015-03-22T11:32:22.1Z</time>
      </trkpt>
      <trkpt lat="48.43129" lon="-3.56003">
        <ele>207</ele>
        <time>2015-03-22T11:32:24.1Z</time>
      </trkpt>
      <trkpt lat="48.43127" lon="-3.56001">
        <ele>207</ele>
        <time>2015-03-22T11:32:26.1Z</time>
      </trkpt>
      <trkpt lat="48.43124" lon="-3.55998">
        <ele>207</ele>
        <time>2015-03-22T11:32:29.1Z</time>
      </trkpt>
      <trkpt lat="48.43122" lon="-3.55996">
        <ele>207</ele>
        <time>2015-03-22T11:32:31.1Z</time>
      </trkpt>
      <trkpt lat="48.43119" lon="-3.55993">
        <ele>207</ele>
        <time>2015-03-22T11:32:34.1Z</time>
      </trkpt>
      <trkpt lat="48.43116" lon="-3.55991">
        <ele>207</ele>
        <time>2015-03-22T11:32:36.1Z</time>
      </trkpt>
      <trkpt lat="48.43113" lon="-3.55988">
        <ele>207</ele>
        <time>2015-03-22T11:32:39.1Z</time>
      </trkpt>
      <trkpt lat="48.4311" lon="-3.55985">
        <ele>207</ele>
        <time>2015-03-22T11:32:42.1Z</time>
      </trkpt>
      <trkpt lat="48.43106" lon="-3.55982">
        <ele>207</ele>
        <time>2015-03-22T11:32:45.1Z</time>
      </trkpt>
      <trkpt lat="48.43104" lon="-3.5598">
        <ele>206</ele>
        <time>2015-03-22T11:32:48.1Z</time>
      </trkpt>
      <trkpt lat="48.43102" lon="-3.55979">
        <ele>206</ele>
        <time>2015-03-22T11:32:50.1Z</time>
      </trkpt>
      <trkpt lat="48.431" lon="-3.55977">
        <ele>206</ele>
        <time>2015-03-22T11:32:53.1Z</time>
      </trkpt>
      <trkpt lat="48.43098" lon="-3.55975">
        <ele>206</ele>
        <time>2015-03-22T11:32:56.1Z</time>
      </trkpt>
      <trkpt lat="48.43097" lon="-3.55973">
        <ele>206</ele>
        <time>2015-03-22T11:32:59.1Z</time>
      </trkpt>
      <trkpt lat="48.43096" lon="-3.55973">
        <ele>205</ele>
        <time>2015-03-22T11:33:01.1Z</time>
      </trkpt>
      <trkpt lat="48.43095" lon="-3.55971">
        <ele>205</ele>
        <time>2015-03-22T11:33:04.1Z</time>
      </trkpt>
      <trkpt lat="48.43093" lon="-3.55969">
        <ele>206</ele>
        <time>2015-03-22T11:33:06.1Z</time>
      </trkpt>
      <trkpt lat="48.43092" lon="-3.55968">
        <ele>206</ele>
        <time>2015-03-22T11:33:08.1Z</time>
      </trkpt>
      <trkpt lat="48.4309" lon="-3.55966">
        <ele>206</ele>
        <time>2015-03-22T11:33:11.1Z</time>
      </trkpt>
      <trkpt lat="48.43088" lon="-3.55965">
        <ele>206</ele>
        <time>2015-03-22T11:33:13.1Z</time>
      </trkpt>
      <trkpt lat="48.43085" lon="-3.55962">
        <ele>206</ele>
        <time>2015-03-22T11:33:16.1Z</time>
      </trkpt>
      <trkpt lat="48.43083" lon="-3.55961">
        <ele>206</ele>
        <time>2015-03-22T11:33:18.1Z</time>
      </trkpt>
      <trkpt lat="48.43082" lon="-3.5596">
        <ele>206</ele>
        <time>2015-03-22T11:33:20.1Z</time>
      </trkpt>
      <trkpt lat="48.4308" lon="-3.55959">
        <ele>206</ele>
        <time>2015-03-22T11:33:22.1Z</time>
      </trkpt>
      <trkpt lat="48.43079" lon="-3.55956">
        <ele>205</ele>
        <time>2015-03-22T11:33:25.1Z</time>
      </trkpt>
      <trkpt lat="48.43077" lon="-3.55952">
        <ele>205</ele>
        <time>2015-03-22T11:33:28.1Z</time>
      </trkpt>
      <trkpt lat="48.43076" lon="-3.55949">
        <ele>205</ele>
        <time>2015-03-22T11:33:30.1Z</time>
      </trkpt>
      <trkpt lat="48.43075" lon="-3.55946">
        <ele>205</ele>
        <time>2015-03-22T11:33:33.1Z</time>
      </trkpt>
      <trkpt lat="48.43074" lon="-3.55943">
        <ele>205</ele>
        <time>2015-03-22T11:33:36.1Z</time>
      </trkpt>
      <trkpt lat="48.43074" lon="-3.55941">
        <ele>205</ele>
        <time>2015-03-22T11:33:38.1Z</time>
      </trkpt>
      <trkpt lat="48.43073" lon="-3.5594">
        <ele>205</ele>
        <time>2015-03-22T11:33:41.1Z</time>
      </trkpt>
      <trkpt lat="48.43072" lon="-3.55937">
        <ele>205</ele>
        <time>2015-03-22T11:33:44.1Z</time>
      </trkpt>
      <trkpt lat="48.43069" lon="-3.55934">
        <ele>205</ele>
        <time>2015-03-22T11:33:47.1Z</time>
      </trkpt>
      <trkpt lat="48.43069" lon="-3.55931">
        <ele>204</ele>
        <time>2015-03-22T11:33:50.1Z</time>
      </trkpt>
      <trkpt lat="48.43068" lon="-3.55928">
        <ele>204</ele>
        <time>2015-03-22T11:33:53.1Z</time>
      </trkpt>
      <trkpt lat="48.43068" lon="-3.55926">
        <ele>204</ele>
        <time>2015-03-22T11:33:55.1Z</time>
      </trkpt>
      <trkpt lat="48.43068" lon="-3.55925">
        <ele>204</ele>
        <time>2015-03-22T11:33:58.1Z</time>
      </trkpt>
      <trkpt lat="48.43068" lon="-3.55924">
        <ele>204</ele>
        <time>2015-03-22T11:34:00.1Z</time>
      </trkpt>
      <trkpt lat="48.43068" lon="-3.55921">
        <ele>204</ele>
        <time>2015-03-22T11:34:03.1Z</time>
      </trkpt>
      <trkpt lat="48.43068" lon="-3.5592">
        <ele>204</ele>
        <time>2015-03-22T11:34:06.1Z</time>
      </trkpt>
      <trkpt lat="48.43068" lon="-3.55919">
        <ele>204</ele>
        <time>2015-03-22T11:34:08.1Z</time>
      </trkpt>
      <trkpt lat="48.43068" lon="-3.55917">
        <ele>204</ele>
        <time>2015-03-22T11:34:10.1Z</time>
      </trkpt>
      <trkpt lat="48.43068" lon="-3.55916">
        <ele>204</ele>
        <time>2015-03-22T11:34:12.1Z</time>
      </trkpt>
      <trkpt lat="48.43069" lon="-3.55913">
        <ele>204</ele>
        <time>2015-03-22T11:34:14.1Z</time>
      </trkpt>
      <trkpt lat="48.43068" lon="-3.55911">
        <ele>205</ele>
        <time>2015-03-22T11:34:17.1Z</time>
      </trkpt>
      <trkpt lat="48.43068" lon="-3.5591">
        <ele>204</ele>
        <time>2015-03-22T11:34:19.1Z</time>
      </trkpt>
      <trkpt lat="48.43067" lon="-3.55907">
        <ele>204</ele>
        <time>2015-03-22T11:34:22.1Z</time>
      </trkpt>
      <trkpt lat="48.43067" lon="-3.55904">
        <ele>204</ele>
        <time>2015-03-22T11:34:24.1Z</time>
      </trkpt>
      <trkpt lat="48.43066" lon="-3.55901">
        <ele>204</ele>
        <time>2015-03-22T11:34:26.1Z</time>
      </trkpt>
      <trkpt lat="48.43064" lon="-3.55898">
        <ele>204</ele>
        <time>2015-03-22T11:34:29.1Z</time>
      </trkpt>
      <trkpt lat="48.43063" lon="-3.55893">
        <ele>204</ele>
        <time>2015-03-22T11:34:32.1Z</time>
      </trkpt>
      <trkpt lat="48.43062" lon="-3.55889">
        <ele>203</ele>
        <time>2015-03-22T11:34:34.1Z</time>
      </trkpt>
      <trkpt lat="48.43061" lon="-3.55885">
        <ele>203</ele>
        <time>2015-03-22T11:34:36.1Z</time>
      </trkpt>
      <trkpt lat="48.43061" lon="-3.55881">
        <ele>203</ele>
        <time>2015-03-22T11:34:38.1Z</time>
      </trkpt>
      <trkpt lat="48.43061" lon="-3.55875">
        <ele>203</ele>
        <time>2015-03-22T11:34:41.1Z</time>
      </trkpt>
      <trkpt lat="48.43061" lon="-3.55872">
        <ele>203</ele>
        <time>2015-03-22T11:34:43.1Z</time>
      </trkpt>
      <trkpt lat="48.43061" lon="-3.55867">
        <ele>203</ele>
        <time>2015-03-22T11:34:45.1Z</time>
      </trkpt>
      <trkpt lat="48.43061" lon="-3.55863">
        <ele>203</ele>
        <time>2015-03-22T11:34:47.1Z</time>
      </trkpt>
      <trkpt lat="48.4306" lon="-3.55859">
        <ele>203</ele>
        <time>2015-03-22T11:34:50.1Z</time>
      </trkpt>
      <trkpt lat="48.4306" lon="-3.55853">
        <ele>203</ele>
        <time>2015-03-22T11:34:53.1Z</time>
      </trkpt>
      <trkpt lat="48.43059" lon="-3.55851">
        <ele>203</ele>
        <time>2015-03-22T11:34:55.1Z</time>
      </trkpt>
      <trkpt lat="48.43059" lon="-3.55847">
        <ele>203</ele>
        <time>2015-03-22T11:34:57.1Z</time>
      </trkpt>
      <trkpt lat="48.43058" lon="-3.55844">
        <ele>203</ele>
        <time>2015-03-22T11:34:59.1Z</time>
      </trkpt>
      <trkpt lat="48.43058" lon="-3.5584">
        <ele>204</ele>
        <time>2015-03-22T11:35:02.1Z</time>
      </trkpt>
      <trkpt lat="48.43057" lon="-3.55838">
        <ele>204</ele>
        <time>2015-03-22T11:35:04.1Z</time>
      </trkpt>
      <trkpt lat="48.43056" lon="-3.55834">
        <ele>204</ele>
        <time>2015-03-22T11:35:07.1Z</time>
      </trkpt>
      <trkpt lat="48.43054" lon="-3.5583">
        <ele>204</ele>
        <time>2015-03-22T11:35:09.1Z</time>
      </trkpt>
      <trkpt lat="48.43053" lon="-3.55826">
        <ele>204</ele>
        <time>2015-03-22T11:35:11.1Z</time>
      </trkpt>
      <trkpt lat="48.43053" lon="-3.55824">
        <ele>204</ele>
        <time>2015-03-22T11:35:13.1Z</time>
      </trkpt>
      <trkpt lat="48.43053" lon="-3.5582">
        <ele>204</ele>
        <time>2015-03-22T11:35:16.1Z</time>
      </trkpt>
      <trkpt lat="48.43053" lon="-3.55817">
        <ele>204</ele>
        <time>2015-03-22T11:35:18.1Z</time>
      </trkpt>
      <trkpt lat="48.43052" lon="-3.55813">
        <ele>204</ele>
        <time>2015-03-22T11:35:21.1Z</time>
      </trkpt>
      <trkpt lat="48.43052" lon="-3.55808">
        <ele>204</ele>
        <time>2015-03-22T11:35:24.1Z</time>
      </trkpt>
      <trkpt lat="48.43051" lon="-3.55806">
        <ele>204</ele>
        <time>2015-03-22T11:35:27.1Z</time>
      </trkpt>
      <trkpt lat="48.43052" lon="-3.55803">
        <ele>204</ele>
        <time>2015-03-22T11:35:29.1Z</time>
      </trkpt>
      <trkpt lat="48.43052" lon="-3.558">
        <ele>204</ele>
        <time>2015-03-22T11:35:31.1Z</time>
      </trkpt>
      <trkpt lat="48.43051" lon="-3.55797">
        <ele>204</ele>
        <time>2015-03-22T11:35:33.1Z</time>
      </trkpt>
      <trkpt lat="48.43051" lon="-3.55795">
        <ele>204</ele>
        <time>2015-03-22T11:35:35.1Z</time>
      </trkpt>
      <trkpt lat="48.4305" lon="-3.55791">
        <ele>204</ele>
        <time>2015-03-22T11:35:38.1Z</time>
      </trkpt>
      <trkpt lat="48.4305" lon="-3.55788">
        <ele>204</ele>
        <time>2015-03-22T11:35:41.1Z</time>
      </trkpt>
      <trkpt lat="48.4305" lon="-3.55786">
        <ele>204</ele>
        <time>2015-03-22T11:35:43.1Z</time>
      </trkpt>
      <trkpt lat="48.43049" lon="-3.55783">
        <ele>204</ele>
        <time>2015-03-22T11:35:46.1Z</time>
      </trkpt>
      <trkpt lat="48.43049" lon="-3.5578">
        <ele>204</ele>
        <time>2015-03-22T11:35:48.1Z</time>
      </trkpt>
      <trkpt lat="48.43048" lon="-3.55777">
        <ele>204</ele>
        <time>2015-03-22T11:35:51.1Z</time>
      </trkpt>
      <trkpt lat="48.43048" lon="-3.55774">
        <ele>205</ele>
        <time>2015-03-22T11:35:53.1Z</time>
      </trkpt>
      <trkpt lat="48.43047" lon="-3.55772">
        <ele>205</ele>
        <time>2015-03-22T11:35:56.1Z</time>
      </trkpt>
      <trkpt lat="48.43046" lon="-3.5577">
        <ele>205</ele>
        <time>2015-03-22T11:35:58.1Z</time>
      </trkpt>
      <trkpt lat="48.43045" lon="-3.55768">
        <ele>206</ele>
        <time>2015-03-22T11:36:00.1Z</time>
      </trkpt>
      <trkpt lat="48.43046" lon="-3.55765">
        <ele>206</ele>
        <time>2015-03-22T11:36:02.1Z</time>
      </trkpt>
      <trkpt lat="48.43046" lon="-3.55762">
        <ele>205</ele>
        <time>2015-03-22T11:36:05.1Z</time>
      </trkpt>
      <trkpt lat="48.43047" lon="-3.5576">
        <ele>205</ele>
        <time>2015-03-22T11:36:07.1Z</time>
      </trkpt>
      <trkpt lat="48.43047" lon="-3.55757">
        <ele>206</ele>
        <time>2015-03-22T11:36:09.1Z</time>
      </trkpt>
      <trkpt lat="48.43047" lon="-3.55756">
        <ele>206</ele>
        <time>2015-03-22T11:36:11.1Z</time>
      </trkpt>
      <trkpt lat="48.43047" lon="-3.55752">
        <ele>206</ele>
        <time>2015-03-22T11:36:14.1Z</time>
      </trkpt>
      <trkpt lat="48.43046" lon="-3.55748">
        <ele>206</ele>
        <time>2015-03-22T11:36:17.1Z</time>
      </trkpt>
      <trkpt lat="48.43047" lon="-3.55745">
        <ele>206</ele>
        <time>2015-03-22T11:36:20.1Z</time>
      </trkpt>
      <trkpt lat="48.43047" lon="-3.55742">
        <ele>206</ele>
        <time>2015-03-22T11:36:22.1Z</time>
      </trkpt>
      <trkpt lat="48.43046" lon="-3.55739">
        <ele>206</ele>
        <time>2015-03-22T11:36:24.1Z</time>
      </trkpt>
      <trkpt lat="48.43045" lon="-3.55735">
        <ele>206</ele>
        <time>2015-03-22T11:36:27.1Z</time>
      </trkpt>
      <trkpt lat="48.43044" lon="-3.5573">
        <ele>206</ele>
        <time>2015-03-22T11:36:30.1Z</time>
      </trkpt>
      <trkpt lat="48.43043" lon="-3.55725">
        <ele>206</ele>
        <time>2015-03-22T11:36:33.1Z</time>
      </trkpt>
      <trkpt lat="48.43043" lon="-3.55723">
        <ele>206</ele>
        <time>2015-03-22T11:36:35.1Z</time>
      </trkpt>
      <trkpt lat="48.43042" lon="-3.5572">
        <ele>206</ele>
        <time>2015-03-22T11:36:38.1Z</time>
      </trkpt>
      <trkpt lat="48.43041" lon="-3.55717">
        <ele>206</ele>
        <time>2015-03-22T11:36:40.1Z</time>
      </trkpt>
      <trkpt lat="48.43039" lon="-3.55715">
        <ele>206</ele>
        <time>2015-03-22T11:36:42.1Z</time>
      </trkpt>
      <trkpt lat="48.43037" lon="-3.55711">
        <ele>207</ele>
        <time>2015-03-22T11:36:45.1Z</time>
      </trkpt>
      <trkpt lat="48.43036" lon="-3.55707">
        <ele>207</ele>
        <time>2015-03-22T11:36:48.1Z</time>
      </trkpt>
      <trkpt lat="48.43034" lon="-3.55702">
        <ele>207</ele>
        <time>2015-03-22T11:36:51.1Z</time>
      </trkpt>
      <trkpt lat="48.43034" lon="-3.55698">
        <ele>207</ele>
        <time>2015-03-22T11:36:54.1Z</time>
      </trkpt>
      <trkpt lat="48.43032" lon="-3.55696">
        <ele>208</ele>
        <time>2015-03-22T11:36:57.1Z</time>
      </trkpt>
      <trkpt lat="48.43031" lon="-3.55694">
        <ele>207</ele>
        <time>2015-03-22T11:37:00.1Z</time>
      </trkpt>
      <trkpt lat="48.43031" lon="-3.55693">
        <ele>208</ele>
        <time>2015-03-22T11:37:02.1Z</time>
      </trkpt>
      <trkpt lat="48.4303" lon="-3.55691">
        <ele>207</ele>
        <time>2015-03-22T11:37:05.1Z</time>
      </trkpt>
      <trkpt lat="48.43029" lon="-3.5569">
        <ele>207</ele>
        <time>2015-03-22T11:37:07.1Z</time>
      </trkpt>
      <trkpt lat="48.43029" lon="-3.55689">
        <ele>207</ele>
        <time>2015-03-22T11:37:09.1Z</time>
      </trkpt>
      <trkpt lat="48.43028" lon="-3.55688">
        <ele>207</ele>
        <time>2015-03-22T11:37:12.1Z</time>
      </trkpt>
      <trkpt lat="48.43027" lon="-3.55687">
        <ele>208</ele>
        <time>2015-03-22T11:37:14.1Z</time>
      </trkpt>
      <trkpt lat="48.43026" lon="-3.55686">
        <ele>208</ele>
        <time>2015-03-22T11:37:16.1Z</time>
      </trkpt>
      <trkpt lat="48.43026" lon="-3.55686">
        <ele>208</ele>
        <time>2015-03-22T11:37:19.1Z</time>
      </trkpt>
      <trkpt lat="48.43026" lon="-3.55684">
        <ele>208</ele>
        <time>2015-03-22T11:37:22.1Z</time>
      </trkpt>
      <trkpt lat="48.43026" lon="-3.55682">
        <ele>208</ele>
        <time>2015-03-22T11:37:25.1Z</time>
      </trkpt>
      <trkpt lat="48.43026" lon="-3.55681">
        <ele>208</ele>
        <time>2015-03-22T11:37:28.1Z</time>
      </trkpt>
      <trkpt lat="48.43025" lon="-3.5568">
        <ele>208</ele>
        <time>2015-03-22T11:37:31.1Z</time>
      </trkpt>
      <trkpt lat="48.43023" lon="-3.5568">
        <ele>208</ele>
        <time>2015-03-22T11:37:34.1Z</time>
      </trkpt>
      <trkpt lat="48.43022" lon="-3.5568">
        <ele>208</ele>
        <time>2015-03-22T11:37:37.1Z</time>
      </trkpt>
      <trkpt lat="48.43022" lon="-3.55679">
        <ele>208</ele>
        <time>2015-03-22T11:37:39.1Z</time>
      </trkpt>
      <trkpt lat="48.43019" lon="-3.55676">
        <ele>209</ele>
        <time>2015-03-22T11:37:42.1Z</time>
      </trkpt>
      <trkpt lat="48.43018" lon="-3.55675">
        <ele>209</ele>
        <time>2015-03-22T11:37:45.1Z</time>
      </trkpt>
      <trkpt lat="48.43018" lon="-3.55674">
        <ele>209</ele>
        <time>2015-03-22T11:37:47.1Z</time>
      </trkpt>
      <trkpt lat="48.43017" lon="-3.55672">
        <ele>209</ele>
        <time>2015-03-22T11:37:49.1Z</time>
      </trkpt>
      <trkpt lat="48.43016" lon="-3.5567">
        <ele>209</ele>
        <time>2015-03-22T11:37:52.1Z</time>
      </trkpt>
      <trkpt lat="48.43016" lon="-3.55667">
        <ele>209</ele>
        <time>2015-03-22T11:37:55.1Z</time>
      </trkpt>
      <trkpt lat="48.43015" lon="-3.55665">
        <ele>210</ele>
        <time>2015-03-22T11:37:57.1Z</time>
      </trkpt>
      <trkpt lat="48.43014" lon="-3.55663">
        <ele>210</ele>
        <time>2015-03-22T11:37:59.1Z</time>
      </trkpt>
      <trkpt lat="48.43014" lon="-3.55661">
        <ele>210</ele>
        <time>2015-03-22T11:38:01.1Z</time>
      </trkpt>
      <trkpt lat="48.43014" lon="-3.55657">
        <ele>210</ele>
        <time>2015-03-22T11:38:03.1Z</time>
      </trkpt>
      <trkpt lat="48.43013" lon="-3.55654">
        <ele>210</ele>
        <time>2015-03-22T11:38:06.1Z</time>
      </trkpt>
      <trkpt lat="48.43013" lon="-3.5565">
        <ele>210</ele>
        <time>2015-03-22T11:38:09.1Z</time>
      </trkpt>
      <trkpt lat="48.43012" lon="-3.55646">
        <ele>210</ele>
        <time>2015-03-22T11:38:12.1Z</time>
      </trkpt>
      <trkpt lat="48.43011" lon="-3.55643">
        <ele>210</ele>
        <time>2015-03-22T11:38:14.1Z</time>
      </trkpt>
      <trkpt lat="48.43011" lon="-3.5564">
        <ele>211</ele>
        <time>2015-03-22T11:38:16.1Z</time>
      </trkpt>
      <trkpt lat="48.4301" lon="-3.55637">
        <ele>211</ele>
        <time>2015-03-22T11:38:19.1Z</time>
      </trkpt>
      <trkpt lat="48.43009" lon="-3.55636">
        <ele>211</ele>
        <time>2015-03-22T11:38:21.1Z</time>
      </trkpt>
      <trkpt lat="48.43008" lon="-3.55635">
        <ele>211</ele>
        <time>2015-03-22T11:38:24.1Z</time>
      </trkpt>
      <trkpt lat="48.43008" lon="-3.55633">
        <ele>211</ele>
        <time>2015-03-22T11:38:27.1Z</time>
      </trkpt>
      <trkpt lat="48.43008" lon="-3.5563">
        <ele>210</ele>
        <time>2015-03-22T11:38:29.1Z</time>
      </trkpt>
      <trkpt lat="48.43008" lon="-3.55626">
        <ele>211</ele>
        <time>2015-03-22T11:38:32.1Z</time>
      </trkpt>
      <trkpt lat="48.43006" lon="-3.55622">
        <ele>211</ele>
        <time>2015-03-22T11:38:35.1Z</time>
      </trkpt>
      <trkpt lat="48.43005" lon="-3.55621">
        <ele>212</ele>
        <time>2015-03-22T11:38:38.1Z</time>
      </trkpt>
      <trkpt lat="48.43003" lon="-3.55617">
        <ele>212</ele>
        <time>2015-03-22T11:38:41.1Z</time>
      </trkpt>
      <trkpt lat="48.43002" lon="-3.55614">
        <ele>212</ele>
        <time>2015-03-22T11:38:43.1Z</time>
      </trkpt>
      <trkpt lat="48.43002" lon="-3.55611">
        <ele>212</ele>
        <time>2015-03-22T11:38:46.1Z</time>
      </trkpt>
      <trkpt lat="48.43" lon="-3.55607">
        <ele>211</ele>
        <time>2015-03-22T11:38:49.1Z</time>
      </trkpt>
      <trkpt lat="48.43" lon="-3.55604">
        <ele>211</ele>
        <time>2015-03-22T11:38:51.1Z</time>
      </trkpt>
      <trkpt lat="48.42999" lon="-3.55599">
        <ele>211</ele>
        <time>2015-03-22T11:38:54.1Z</time>
      </trkpt>
      <trkpt lat="48.42998" lon="-3.55595">
        <ele>211</ele>
        <time>2015-03-22T11:38:57.1Z</time>
      </trkpt>
      <trkpt lat="48.42998" lon="-3.55592">
        <ele>212</ele>
        <time>2015-03-22T11:38:59.1Z</time>
      </trkpt>
      <trkpt lat="48.42998" lon="-3.55587">
        <ele>212</ele>
        <time>2015-03-22T11:39:02.1Z</time>
      </trkpt>
      <trkpt lat="48.42998" lon="-3.55585">
        <ele>212</ele>
        <time>2015-03-22T11:39:04.1Z</time>
      </trkpt>
      <trkpt lat="48.42997" lon="-3.55582">
        <ele>212</ele>
        <time>2015-03-22T11:39:07.1Z</time>
      </trkpt>
      <trkpt lat="48.42997" lon="-3.55579">
        <ele>212</ele>
        <time>2015-03-22T11:39:09.1Z</time>
      </trkpt>
      <trkpt lat="48.42997" lon="-3.55575">
        <ele>212</ele>
        <time>2015-03-22T11:39:12.1Z</time>
      </trkpt>
      <trkpt lat="48.42997" lon="-3.55572">
        <ele>212</ele>
        <time>2015-03-22T11:39:14.1Z</time>
      </trkpt>
      <trkpt lat="48.42996" lon="-3.55569">
        <ele>213</ele>
        <time>2015-03-22T11:39:17.1Z</time>
      </trkpt>
      <trkpt lat="48.42995" lon="-3.55567">
        <ele>213</ele>
        <time>2015-03-22T11:39:19.1Z</time>
      </trkpt>
      <trkpt lat="48.42994" lon="-3.55564">
        <ele>213</ele>
        <time>2015-03-22T11:39:22.1Z</time>
      </trkpt>
      <trkpt lat="48.42993" lon="-3.55561">
        <ele>214</ele>
        <time>2015-03-22T11:39:24.1Z</time>
      </trkpt>
      <trkpt lat="48.42992" lon="-3.55559">
        <ele>214</ele>
        <time>2015-03-22T11:39:26.1Z</time>
      </trkpt>
      <trkpt lat="48.42992" lon="-3.55556">
        <ele>214</ele>
        <time>2015-03-22T11:39:28.1Z</time>
      </trkpt>
      <trkpt lat="48.4299" lon="-3.55552">
        <ele>214</ele>
        <time>2015-03-22T11:39:31.1Z</time>
      </trkpt>
      <trkpt lat="48.42989" lon="-3.55548">
        <ele>214</ele>
        <time>2015-03-22T11:39:34.1Z</time>
      </trkpt>
      <trkpt lat="48.42989" lon="-3.55545">
        <ele>214</ele>
        <time>2015-03-22T11:39:36.1Z</time>
      </trkpt>
      <trkpt lat="48.42987" lon="-3.5554">
        <ele>215</ele>
        <time>2015-03-22T11:39:39.1Z</time>
      </trkpt>
      <trkpt lat="48.42987" lon="-3.55537">
        <ele>215</ele>
        <time>2015-03-22T11:39:41.1Z</time>
      </trkpt>
      <trkpt lat="48.42986" lon="-3.55534">
        <ele>215</ele>
        <time>2015-03-22T11:39:43.1Z</time>
      </trkpt>
      <trkpt lat="48.42986" lon="-3.5553">
        <ele>215</ele>
        <time>2015-03-22T11:39:46.1Z</time>
      </trkpt>
      <trkpt lat="48.42985" lon="-3.55527">
        <ele>214</ele>
        <time>2015-03-22T11:39:48.1Z</time>
      </trkpt>
      <trkpt lat="48.42984" lon="-3.55525">
        <ele>214</ele>
        <time>2015-03-22T11:39:50.1Z</time>
      </trkpt>
      <trkpt lat="48.42984" lon="-3.55522">
        <ele>214</ele>
        <time>2015-03-22T11:39:52.1Z</time>
      </trkpt>
      <trkpt lat="48.42983" lon="-3.55519">
        <ele>215</ele>
        <time>2015-03-22T11:39:54.1Z</time>
      </trkpt>
      <trkpt lat="48.42981" lon="-3.55515">
        <ele>215</ele>
        <time>2015-03-22T11:39:57.1Z</time>
      </trkpt>
      <trkpt lat="48.42979" lon="-3.55511">
        <ele>215</ele>
        <time>2015-03-22T11:40:00.1Z</time>
      </trkpt>
      <trkpt lat="48.42979" lon="-3.55508">
        <ele>215</ele>
        <time>2015-03-22T11:40:02.1Z</time>
      </trkpt>
      <trkpt lat="48.42978" lon="-3.55507">
        <ele>216</ele>
        <time>2015-03-22T11:40:04.1Z</time>
      </trkpt>
      <trkpt lat="48.42978" lon="-3.55506">
        <ele>216</ele>
        <time>2015-03-22T11:40:06.1Z</time>
      </trkpt>
      <trkpt lat="48.42977" lon="-3.55504">
        <ele>216</ele>
        <time>2015-03-22T11:40:09.1Z</time>
      </trkpt>
      <trkpt lat="48.42977" lon="-3.55503">
        <ele>216</ele>
        <time>2015-03-22T11:40:11.1Z</time>
      </trkpt>
      <trkpt lat="48.42977" lon="-3.55501">
        <ele>216</ele>
        <time>2015-03-22T11:40:13.1Z</time>
      </trkpt>
      <trkpt lat="48.42976" lon="-3.55499">
        <ele>216</ele>
        <time>2015-03-22T11:40:16.1Z</time>
      </trkpt>
      <trkpt lat="48.42975" lon="-3.55497">
        <ele>216</ele>
        <time>2015-03-22T11:40:19.1Z</time>
      </trkpt>
      <trkpt lat="48.42975" lon="-3.55496">
        <ele>216</ele>
        <time>2015-03-22T11:40:22.1Z</time>
      </trkpt>
      <trkpt lat="48.42974" lon="-3.55493">
        <ele>216</ele>
        <time>2015-03-22T11:40:25.1Z</time>
      </trkpt>
      <trkpt lat="48.42973" lon="-3.55491">
        <ele>216</ele>
        <time>2015-03-22T11:40:27.1Z</time>
      </trkpt>
      <trkpt lat="48.42971" lon="-3.55488">
        <ele>216</ele>
        <time>2015-03-22T11:40:30.1Z</time>
      </trkpt>
      <trkpt lat="48.4297" lon="-3.55488">
        <ele>216</ele>
        <time>2015-03-22T11:40:32.1Z</time>
      </trkpt>
      <trkpt lat="48.42968" lon="-3.55489">
        <ele>216</ele>
        <time>2015-03-22T11:40:34.1Z</time>
      </trkpt>
      <trkpt lat="48.42967" lon="-3.55489">
        <ele>217</ele>
        <time>2015-03-22T11:40:37.1Z</time>
      </trkpt>
      <trkpt lat="48.42966" lon="-3.55488">
        <ele>217</ele>
        <time>2015-03-22T11:40:40.1Z</time>
      </trkpt>
      <trkpt lat="48.42966" lon="-3.55487">
        <ele>217</ele>
        <time>2015-03-22T11:40:43.1Z</time>
      </trkpt>
      <trkpt lat="48.42965" lon="-3.55486">
        <ele>216</ele>
        <time>2015-03-22T11:40:46.1Z</time>
      </trkpt>
      <trkpt lat="48.42965" lon="-3.55486">
        <ele>217</ele>
        <time>2015-03-22T11:40:48.1Z</time>
      </trkpt>
      <trkpt lat="48.42965" lon="-3.55486">
        <ele>217</ele>
        <time>2015-03-22T11:40:50.1Z</time>
      </trkpt>
      <trkpt lat="48.42964" lon="-3.55486">
        <ele>217</ele>
        <time>2015-03-22T11:40:53.1Z</time>
      </trkpt>
      <trkpt lat="48.42963" lon="-3.55486">
        <ele>217</ele>
        <time>2015-03-22T11:40:55.1Z</time>
      </trkpt>
      <trkpt lat="48.42963" lon="-3.55486">
        <ele>217</ele>
        <time>2015-03-22T11:40:58.1Z</time>
      </trkpt>
      <trkpt lat="48.42962" lon="-3.55486">
        <ele>216</ele>
        <time>2015-03-22T11:41:00.1Z</time>
      </trkpt>
      <trkpt lat="48.42962" lon="-3.55486">
        <ele>216</ele>
        <time>2015-03-22T11:41:03.1Z</time>
      </trkpt>
      <trkpt lat="48.42963" lon="-3.55486">
        <ele>216</ele>
        <time>2015-03-22T11:41:05.1Z</time>
      </trkpt>
      <trkpt lat="48.42962" lon="-3.55485">
        <ele>217</ele>
        <time>2015-03-22T11:41:07.1Z</time>
      </trkpt>
      <trkpt lat="48.42963" lon="-3.55482">
        <ele>217</ele>
        <time>2015-03-22T11:41:09.1Z</time>
      </trkpt>
      <trkpt lat="48.42963" lon="-3.55481">
        <ele>217</ele>
        <time>2015-03-22T11:41:11.1Z</time>
      </trkpt>
      <trkpt lat="48.42963" lon="-3.5548">
        <ele>217</ele>
        <time>2015-03-22T11:41:13.1Z</time>
      </trkpt>
      <trkpt lat="48.42963" lon="-3.5548">
        <ele>216</ele>
        <time>2015-03-22T11:41:17.1Z</time>
      </trkpt>
      <trkpt lat="48.42964" lon="-3.55479">
        <ele>216</ele>
        <time>2015-03-22T11:41:19.1Z</time>
      </trkpt>
      <trkpt lat="48.42965" lon="-3.55478">
        <ele>217</ele>
        <time>2015-03-22T11:41:22.1Z</time>
      </trkpt>
      <trkpt lat="48.42965" lon="-3.55477">
        <ele>217</ele>
        <time>2015-03-22T11:41:25.1Z</time>
      </trkpt>
      <trkpt lat="48.42965" lon="-3.55474">
        <ele>217</ele>
        <time>2015-03-22T11:41:28.1Z</time>
      </trkpt>
      <trkpt lat="48.42964" lon="-3.55471">
        <ele>216</ele>
        <time>2015-03-22T11:41:30.1Z</time>
      </trkpt>
      <trkpt lat="48.42965" lon="-3.55471">
        <ele>216</ele>
        <time>2015-03-22T11:41:32.1Z</time>
      </trkpt>
      <trkpt lat="48.42965" lon="-3.5547">
        <ele>216</ele>
        <time>2015-03-22T11:41:34.1Z</time>
      </trkpt>
      <trkpt lat="48.42965" lon="-3.5547">
        <ele>216</ele>
        <time>2015-03-22T11:41:36.1Z</time>
      </trkpt>
      <trkpt lat="48.42965" lon="-3.5547">
        <ele>216</ele>
        <time>2015-03-22T11:41:38.1Z</time>
      </trkpt>
      <trkpt lat="48.42965" lon="-3.5547">
        <ele>216</ele>
        <time>2015-03-22T11:41:42.1Z</time>
      </trkpt>
      <trkpt lat="48.42966" lon="-3.5547">
        <ele>216</ele>
        <time>2015-03-22T11:41:45.1Z</time>
      </trkpt>
      <trkpt lat="48.42966" lon="-3.5547">
        <ele>216</ele>
        <time>2015-03-22T11:41:48.1Z</time>
      </trkpt>
      <trkpt lat="48.42966" lon="-3.55469">
        <ele>216</ele>
        <time>2015-03-22T11:41:50.1Z</time>
      </trkpt>
      <trkpt lat="48.42965" lon="-3.5547">
        <ele>217</ele>
        <time>2015-03-22T11:41:53.1Z</time>
      </trkpt>
      <trkpt lat="48.42965" lon="-3.55471">
        <ele>217</ele>
        <time>2015-03-22T11:41:55.1Z</time>
      </trkpt>
      <trkpt lat="48.42965" lon="-3.55471">
        <ele>217</ele>
        <time>2015-03-22T11:41:59.1Z</time>
      </trkpt>
      <trkpt lat="48.42965" lon="-3.55471">
        <ele>217</ele>
        <time>2015-03-22T11:42:03.1Z</time>
      </trkpt>
      <trkpt lat="48.42965" lon="-3.55472">
        <ele>217</ele>
        <time>2015-03-22T11:42:06.1Z</time>
      </trkpt>
      <trkpt lat="48.42965" lon="-3.55473">
        <ele>217</ele>
        <time>2015-03-22T11:42:08.1Z</time>
      </trkpt>
      <trkpt lat="48.42965" lon="-3.55473">
        <ele>217</ele>
        <time>2015-03-22T11:42:11.1Z</time>
      </trkpt>
      <trkpt lat="48.42965" lon="-3.55474">
        <ele>217</ele>
        <time>2015-03-22T11:42:13.1Z</time>
      </trkpt>
      <trkpt lat="48.42966" lon="-3.55475">
        <ele>216</ele>
        <time>2015-03-22T11:42:15.1Z</time>
      </trkpt>
      <trkpt lat="48.42966" lon="-3.55475">
        <ele>217</ele>
        <time>2015-03-22T11:42:18.1Z</time>
      </trkpt>
      <trkpt lat="48.42966" lon="-3.55475">
        <ele>217</ele>
        <time>2015-03-22T11:42:22.1Z</time>
      </trkpt>
      <trkpt lat="48.42965" lon="-3.55473">
        <ele>217</ele>
        <time>2015-03-22T11:42:25.1Z</time>
      </trkpt>
      <trkpt lat="48.42963" lon="-3.5547">
        <ele>216</ele>
        <time>2015-03-22T11:42:28.1Z</time>
      </trkpt>
      <trkpt lat="48.42962" lon="-3.55466">
        <ele>217</ele>
        <time>2015-03-22T11:42:30.1Z</time>
      </trkpt>
      <trkpt lat="48.42962" lon="-3.55464">
        <ele>216</ele>
        <time>2015-03-22T11:42:33.1Z</time>
      </trkpt>
      <trkpt lat="48.42959" lon="-3.55461">
        <ele>217</ele>
        <time>2015-03-22T11:42:36.1Z</time>
      </trkpt>
      <trkpt lat="48.42958" lon="-3.55459">
        <ele>217</ele>
        <time>2015-03-22T11:42:38.1Z</time>
      </trkpt>
      <trkpt lat="48.42957" lon="-3.55457">
        <ele>217</ele>
        <time>2015-03-22T11:42:40.1Z</time>
      </trkpt>
      <trkpt lat="48.42956" lon="-3.55456">
        <ele>217</ele>
        <time>2015-03-22T11:42:42.1Z</time>
      </trkpt>
      <trkpt lat="48.42955" lon="-3.55454">
        <ele>217</ele>
        <time>2015-03-22T11:42:45.1Z</time>
      </trkpt>
      <trkpt lat="48.42955" lon="-3.55452">
        <ele>218</ele>
        <time>2015-03-22T11:42:47.1Z</time>
      </trkpt>
      <trkpt lat="48.42955" lon="-3.55449">
        <ele>218</ele>
        <time>2015-03-22T11:42:49.1Z</time>
      </trkpt>
      <trkpt lat="48.42953" lon="-3.55446">
        <ele>218</ele>
        <time>2015-03-22T11:42:52.1Z</time>
      </trkpt>
      <trkpt lat="48.42952" lon="-3.55442">
        <ele>218</ele>
        <time>2015-03-22T11:42:55.1Z</time>
      </trkpt>
      <trkpt lat="48.4295" lon="-3.55437">
        <ele>218</ele>
        <time>2015-03-22T11:42:57.1Z</time>
      </trkpt>
      <trkpt lat="48.42947" lon="-3.55434">
        <ele>218</ele>
        <time>2015-03-22T11:42:59.1Z</time>
      </trkpt>
      <trkpt lat="48.42947" lon="-3.5543">
        <ele>218</ele>
        <time>2015-03-22T11:43:02.1Z</time>
      </trkpt>
      <trkpt lat="48.42946" lon="-3.55426">
        <ele>218</ele>
        <time>2015-03-22T11:43:04.1Z</time>
      </trkpt>
      <trkpt lat="48.42944" lon="-3.5542">
        <ele>218</ele>
        <time>2015-03-22T11:43:06.1Z</time>
      </trkpt>
      <trkpt lat="48.42943" lon="-3.55416">
        <ele>218</ele>
        <time>2015-03-22T11:43:08.1Z</time>
      </trkpt>
      <trkpt lat="48.42942" lon="-3.55413">
        <ele>218</ele>
        <time>2015-03-22T11:43:11.1Z</time>
      </trkpt>
      <trkpt lat="48.42942" lon="-3.55409">
        <ele>218</ele>
        <time>2015-03-22T11:43:13.1Z</time>
      </trkpt>
      <trkpt lat="48.42941" lon="-3.55402">
        <ele>218</ele>
        <time>2015-03-22T11:43:15.1Z</time>
      </trkpt>
      <trkpt lat="48.42941" lon="-3.55398">
        <ele>218</ele>
        <time>2015-03-22T11:43:18.1Z</time>
      </trkpt>
      <trkpt lat="48.4294" lon="-3.55393">
        <ele>218</ele>
        <time>2015-03-22T11:43:21.1Z</time>
      </trkpt>
      <trkpt lat="48.42939" lon="-3.55389">
        <ele>219</ele>
        <time>2015-03-22T11:43:23.1Z</time>
      </trkpt>
      <trkpt lat="48.42937" lon="-3.55384">
        <ele>219</ele>
        <time>2015-03-22T11:43:26.1Z</time>
      </trkpt>
      <trkpt lat="48.42935" lon="-3.5538">
        <ele>219</ele>
        <time>2015-03-22T11:43:28.1Z</time>
      </trkpt>
      <trkpt lat="48.42934" lon="-3.55377">
        <ele>219</ele>
        <time>2015-03-22T11:43:30.1Z</time>
      </trkpt>
      <trkpt lat="48.42933" lon="-3.55373">
        <ele>219</ele>
        <time>2015-03-22T11:43:32.1Z</time>
      </trkpt>
      <trkpt lat="48.42932" lon="-3.5537">
        <ele>219</ele>
        <time>2015-03-22T11:43:34.1Z</time>
      </trkpt>
      <trkpt lat="48.42931" lon="-3.55367">
        <ele>219</ele>
        <time>2015-03-22T11:43:37.1Z</time>
      </trkpt>
      <trkpt lat="48.42929" lon="-3.55363">
        <ele>219</ele>
        <time>2015-03-22T11:43:40.1Z</time>
      </trkpt>
      <trkpt lat="48.42929" lon="-3.55358">
        <ele>219</ele>
        <time>2015-03-22T11:43:42.1Z</time>
      </trkpt>
      <trkpt lat="48.42927" lon="-3.55353">
        <ele>219</ele>
        <time>2015-03-22T11:43:46.1Z</time>
      </trkpt>
      <trkpt lat="48.42926" lon="-3.5535">
        <ele>219</ele>
        <time>2015-03-22T11:43:49.1Z</time>
      </trkpt>
      <trkpt lat="48.42924" lon="-3.55346">
        <ele>219</ele>
        <time>2015-03-22T11:43:52.1Z</time>
      </trkpt>
      <trkpt lat="48.42923" lon="-3.55344">
        <ele>220</ele>
        <time>2015-03-22T11:43:54.1Z</time>
      </trkpt>
      <trkpt lat="48.42922" lon="-3.55341">
        <ele>220</ele>
        <time>2015-03-22T11:43:56.1Z</time>
      </trkpt>
      <trkpt lat="48.42921" lon="-3.55338">
        <ele>220</ele>
        <time>2015-03-22T11:43:59.1Z</time>
      </trkpt>
      <trkpt lat="48.42921" lon="-3.55334">
        <ele>220</ele>
        <time>2015-03-22T11:44:02.1Z</time>
      </trkpt>
      <trkpt lat="48.42921" lon="-3.55331">
        <ele>219</ele>
        <time>2015-03-22T11:44:04.1Z</time>
      </trkpt>
      <trkpt lat="48.42924" lon="-3.55329">
        <ele>219</ele>
        <time>2015-03-22T11:44:07.1Z</time>
      </trkpt>
      <trkpt lat="48.42925" lon="-3.55327">
        <ele>219</ele>
        <time>2015-03-22T11:44:09.1Z</time>
      </trkpt>
      <trkpt lat="48.42926" lon="-3.55325">
        <ele>219</ele>
        <time>2015-03-22T11:44:11.1Z</time>
      </trkpt>
      <trkpt lat="48.42928" lon="-3.55323">
        <ele>219</ele>
        <time>2015-03-22T11:44:13.1Z</time>
      </trkpt>
      <trkpt lat="48.42929" lon="-3.55321">
        <ele>219</ele>
        <time>2015-03-22T11:44:16.1Z</time>
      </trkpt>
      <trkpt lat="48.42931" lon="-3.55317">
        <ele>219</ele>
        <time>2015-03-22T11:44:19.1Z</time>
      </trkpt>
      <trkpt lat="48.42933" lon="-3.55316">
        <ele>219</ele>
        <time>2015-03-22T11:44:21.1Z</time>
      </trkpt>
      <trkpt lat="48.42936" lon="-3.55314">
        <ele>220</ele>
        <time>2015-03-22T11:44:24.1Z</time>
      </trkpt>
      <trkpt lat="48.42938" lon="-3.55313">
        <ele>220</ele>
        <time>2015-03-22T11:44:27.1Z</time>
      </trkpt>
      <trkpt lat="48.42941" lon="-3.55312">
        <ele>220</ele>
        <time>2015-03-22T11:44:29.1Z</time>
      </trkpt>
      <trkpt lat="48.42943" lon="-3.55311">
        <ele>220</ele>
        <time>2015-03-22T11:44:32.1Z</time>
      </trkpt>
      <trkpt lat="48.42944" lon="-3.55311">
        <ele>220</ele>
        <time>2015-03-22T11:44:34.1Z</time>
      </trkpt>
      <trkpt lat="48.42946" lon="-3.55308">
        <ele>220</ele>
        <time>2015-03-22T11:44:37.1Z</time>
      </trkpt>
      <trkpt lat="48.42945" lon="-3.55304">
        <ele>219</ele>
        <time>2015-03-22T11:44:40.1Z</time>
      </trkpt>
      <trkpt lat="48.42945" lon="-3.55301">
        <ele>219</ele>
        <time>2015-03-22T11:44:42.1Z</time>
      </trkpt>
      <trkpt lat="48.42944" lon="-3.55295">
        <ele>220</ele>
        <time>2015-03-22T11:44:45.1Z</time>
      </trkpt>
      <trkpt lat="48.42944" lon="-3.55292">
        <ele>220</ele>
        <time>2015-03-22T11:44:47.1Z</time>
      </trkpt>
      <trkpt lat="48.42944" lon="-3.55288">
        <ele>220</ele>
        <time>2015-03-22T11:44:49.1Z</time>
      </trkpt>
      <trkpt lat="48.42942" lon="-3.55281">
        <ele>220</ele>
        <time>2015-03-22T11:44:51.1Z</time>
      </trkpt>
      <trkpt lat="48.42942" lon="-3.55278">
        <ele>220</ele>
        <time>2015-03-22T11:44:54.1Z</time>
      </trkpt>
      <trkpt lat="48.4294" lon="-3.55272">
        <ele>220</ele>
        <time>2015-03-22T11:44:57.1Z</time>
      </trkpt>
      <trkpt lat="48.42938" lon="-3.55266">
        <ele>220</ele>
        <time>2015-03-22T11:44:59.1Z</time>
      </trkpt>
      <trkpt lat="48.42937" lon="-3.55262">
        <ele>220</ele>
        <time>2015-03-22T11:45:01.1Z</time>
      </trkpt>
      <trkpt lat="48.42936" lon="-3.55259">
        <ele>220</ele>
        <time>2015-03-22T11:45:04.1Z</time>
      </trkpt>
      <trkpt lat="48.42934" lon="-3.55254">
        <ele>221</ele>
        <time>2015-03-22T11:45:07.1Z</time>
      </trkpt>
      <trkpt lat="48.42932" lon="-3.5525">
        <ele>221</ele>
        <time>2015-03-22T11:45:10.1Z</time>
      </trkpt>
      <trkpt lat="48.42931" lon="-3.55245">
        <ele>221</ele>
        <time>2015-03-22T11:45:12.1Z</time>
      </trkpt>
      <trkpt lat="48.4293" lon="-3.55242">
        <ele>221</ele>
        <time>2015-03-22T11:45:15.1Z</time>
      </trkpt>
      <trkpt lat="48.42928" lon="-3.55238">
        <ele>221</ele>
        <time>2015-03-22T11:45:17.1Z</time>
      </trkpt>
      <trkpt lat="48.42926" lon="-3.55233">
        <ele>221</ele>
        <time>2015-03-22T11:45:21.1Z</time>
      </trkpt>
      <trkpt lat="48.42924" lon="-3.55228">
        <ele>220</ele>
        <time>2015-03-22T11:45:23.1Z</time>
      </trkpt>
      <trkpt lat="48.42923" lon="-3.55223">
        <ele>220</ele>
        <time>2015-03-22T11:45:27.1Z</time>
      </trkpt>
      <trkpt lat="48.42921" lon="-3.55218">
        <ele>221</ele>
        <time>2015-03-22T11:45:30.1Z</time>
      </trkpt>
      <trkpt lat="48.4292" lon="-3.55215">
        <ele>221</ele>
        <time>2015-03-22T11:45:32.1Z</time>
      </trkpt>
      <trkpt lat="48.42919" lon="-3.55209">
        <ele>222</ele>
        <time>2015-03-22T11:45:34.1Z</time>
      </trkpt>
      <trkpt lat="48.42917" lon="-3.55202">
        <ele>222</ele>
        <time>2015-03-22T11:45:37.1Z</time>
      </trkpt>
      <trkpt lat="48.42916" lon="-3.55198">
        <ele>222</ele>
        <time>2015-03-22T11:45:40.1Z</time>
      </trkpt>
      <trkpt lat="48.42915" lon="-3.55193">
        <ele>221</ele>
        <time>2015-03-22T11:45:43.1Z</time>
      </trkpt>
      <trkpt lat="48.42913" lon="-3.55187">
        <ele>221</ele>
        <time>2015-03-22T11:45:45.1Z</time>
      </trkpt>
      <trkpt lat="48.42913" lon="-3.55183">
        <ele>221</ele>
        <time>2015-03-22T11:45:47.1Z</time>
      </trkpt>
      <trkpt lat="48.42912" lon="-3.5518">
        <ele>222</ele>
        <time>2015-03-22T11:45:50.1Z</time>
      </trkpt>
      <trkpt lat="48.42911" lon="-3.55176">
        <ele>222</ele>
        <time>2015-03-22T11:45:52.1Z</time>
      </trkpt>
      <trkpt lat="48.42909" lon="-3.55174">
        <ele>223</ele>
        <time>2015-03-22T11:45:54.1Z</time>
      </trkpt>
      <trkpt lat="48.42907" lon="-3.55169">
        <ele>223</ele>
        <time>2015-03-22T11:45:57.1Z</time>
      </trkpt>
      <trkpt lat="48.42906" lon="-3.55164">
        <ele>223</ele>
        <time>2015-03-22T11:46:00.1Z</time>
      </trkpt>
      <trkpt lat="48.42905" lon="-3.55161">
        <ele>223</ele>
        <time>2015-03-22T11:46:02.1Z</time>
      </trkpt>
      <trkpt lat="48.42902" lon="-3.55158">
        <ele>223</ele>
        <time>2015-03-22T11:46:05.1Z</time>
      </trkpt>
      <trkpt lat="48.42901" lon="-3.55157">
        <ele>223</ele>
        <time>2015-03-22T11:46:07.1Z</time>
      </trkpt>
      <trkpt lat="48.429" lon="-3.55156">
        <ele>223</ele>
        <time>2015-03-22T11:46:09.1Z</time>
      </trkpt>
      <trkpt lat="48.42898" lon="-3.55157">
        <ele>223</ele>
        <time>2015-03-22T11:46:11.1Z</time>
      </trkpt>
      <trkpt lat="48.42899" lon="-3.55158">
        <ele>223</ele>
        <time>2015-03-22T11:46:14.1Z</time>
      </trkpt>
      <trkpt lat="48.42898" lon="-3.55158">
        <ele>223</ele>
        <time>2015-03-22T11:46:17.1Z</time>
      </trkpt>
      <trkpt lat="48.42898" lon="-3.55158">
        <ele>223</ele>
        <time>2015-03-22T11:46:19.1Z</time>
      </trkpt>
      <trkpt lat="48.42897" lon="-3.55157">
        <ele>223</ele>
        <time>2015-03-22T11:46:21.1Z</time>
      </trkpt>
      <trkpt lat="48.42896" lon="-3.55158">
        <ele>223</ele>
        <time>2015-03-22T11:46:23.1Z</time>
      </trkpt>
      <trkpt lat="48.42894" lon="-3.55159">
        <ele>223</ele>
        <time>2015-03-22T11:46:26.1Z</time>
      </trkpt>
      <trkpt lat="48.42891" lon="-3.55163">
        <ele>223</ele>
        <time>2015-03-22T11:46:29.1Z</time>
      </trkpt>
      <trkpt lat="48.42889" lon="-3.55166">
        <ele>223</ele>
        <time>2015-03-22T11:46:31.1Z</time>
      </trkpt>
      <trkpt lat="48.42889" lon="-3.55167">
        <ele>222</ele>
        <time>2015-03-22T11:46:33.1Z</time>
      </trkpt>
      <trkpt lat="48.42889" lon="-3.55168">
        <ele>222</ele>
        <time>2015-03-22T11:46:36.1Z</time>
      </trkpt>
      <trkpt lat="48.42889" lon="-3.55169">
        <ele>223</ele>
        <time>2015-03-22T11:46:40.1Z</time>
      </trkpt>
      <trkpt lat="48.42887" lon="-3.55171">
        <ele>223</ele>
        <time>2015-03-22T11:46:43.1Z</time>
      </trkpt>
      <trkpt lat="48.42886" lon="-3.55174">
        <ele>223</ele>
        <time>2015-03-22T11:46:45.1Z</time>
      </trkpt>
      <trkpt lat="48.42885" lon="-3.55176">
        <ele>223</ele>
        <time>2015-03-22T11:46:48.1Z</time>
      </trkpt>
      <trkpt lat="48.42883" lon="-3.55181">
        <ele>223</ele>
        <time>2015-03-22T11:46:50.1Z</time>
      </trkpt>
      <trkpt lat="48.42882" lon="-3.55183">
        <ele>223</ele>
        <time>2015-03-22T11:46:52.1Z</time>
      </trkpt>
      <trkpt lat="48.42881" lon="-3.55185">
        <ele>223</ele>
        <time>2015-03-22T11:46:55.1Z</time>
      </trkpt>
      <trkpt lat="48.42879" lon="-3.55187">
        <ele>223</ele>
        <time>2015-03-22T11:46:58.1Z</time>
      </trkpt>
      <trkpt lat="48.42878" lon="-3.55189">
        <ele>223</ele>
        <time>2015-03-22T11:47:00.1Z</time>
      </trkpt>
      <trkpt lat="48.42876" lon="-3.55192">
        <ele>223</ele>
        <time>2015-03-22T11:47:02.1Z</time>
      </trkpt>
      <trkpt lat="48.42874" lon="-3.55194">
        <ele>223</ele>
        <time>2015-03-22T11:47:04.1Z</time>
      </trkpt>
      <trkpt lat="48.42873" lon="-3.55197">
        <ele>223</ele>
        <time>2015-03-22T11:47:07.1Z</time>
      </trkpt>
      <trkpt lat="48.42872" lon="-3.55198">
        <ele>223</ele>
        <time>2015-03-22T11:47:09.1Z</time>
      </trkpt>
      <trkpt lat="48.42869" lon="-3.55201">
        <ele>223</ele>
        <time>2015-03-22T11:47:11.1Z</time>
      </trkpt>
      <trkpt lat="48.42868" lon="-3.55202">
        <ele>223</ele>
        <time>2015-03-22T11:47:13.1Z</time>
      </trkpt>
      <trkpt lat="48.42867" lon="-3.55204">
        <ele>223</ele>
        <time>2015-03-22T11:47:16.1Z</time>
      </trkpt>
      <trkpt lat="48.42863" lon="-3.55207">
        <ele>223</ele>
        <time>2015-03-22T11:47:18.1Z</time>
      </trkpt>
      <trkpt lat="48.42862" lon="-3.55208">
        <ele>223</ele>
        <time>2015-03-22T11:47:21.1Z</time>
      </trkpt>
      <trkpt lat="48.4286" lon="-3.5521">
        <ele>223</ele>
        <time>2015-03-22T11:47:23.1Z</time>
      </trkpt>
      <trkpt lat="48.42857" lon="-3.55212">
        <ele>223</ele>
        <time>2015-03-22T11:47:26.1Z</time>
      </trkpt>
      <trkpt lat="48.42854" lon="-3.55215">
        <ele>223</ele>
        <time>2015-03-22T11:47:28.1Z</time>
      </trkpt>
      <trkpt lat="48.42852" lon="-3.55217">
        <ele>223</ele>
        <time>2015-03-22T11:47:30.1Z</time>
      </trkpt>
      <trkpt lat="48.42849" lon="-3.55219">
        <ele>222</ele>
        <time>2015-03-22T11:47:33.1Z</time>
      </trkpt>
      <trkpt lat="48.42847" lon="-3.55222">
        <ele>222</ele>
        <time>2015-03-22T11:47:35.1Z</time>
      </trkpt>
      <trkpt lat="48.42844" lon="-3.55225">
        <ele>222</ele>
        <time>2015-03-22T11:47:39.1Z</time>
      </trkpt>
      <trkpt lat="48.42841" lon="-3.55227">
        <ele>222</ele>
        <time>2015-03-22T11:47:41.1Z</time>
      </trkpt>
      <trkpt lat="48.42838" lon="-3.5523">
        <ele>222</ele>
        <time>2015-03-22T11:47:44.1Z</time>
      </trkpt>
      <trkpt lat="48.42835" lon="-3.55233">
        <ele>222</ele>
        <time>2015-03-22T11:47:46.1Z</time>
      </trkpt>
      <trkpt lat="48.42833" lon="-3.55236">
        <ele>222</ele>
        <time>2015-03-22T11:47:48.1Z</time>
      </trkpt>
      <trkpt lat="48.42831" lon="-3.55237">
        <ele>222</ele>
        <time>2015-03-22T11:47:51.1Z</time>
      </trkpt>
      <trkpt lat="48.42828" lon="-3.5524">
        <ele>222</ele>
        <time>2015-03-22T11:47:54.1Z</time>
      </trkpt>
      <trkpt lat="48.42826" lon="-3.55242">
        <ele>222</ele>
        <time>2015-03-22T11:47:56.1Z</time>
      </trkpt>
      <trkpt lat="48.42822" lon="-3.55247">
        <ele>223</ele>
        <time>2015-03-22T11:47:58.1Z</time>
      </trkpt>
      <trkpt lat="48.4282" lon="-3.55249">
        <ele>223</ele>
        <time>2015-03-22T11:48:01.1Z</time>
      </trkpt>
      <trkpt lat="48.42818" lon="-3.55252">
        <ele>223</ele>
        <time>2015-03-22T11:48:04.1Z</time>
      </trkpt>
      <trkpt lat="48.42815" lon="-3.55256">
        <ele>223</ele>
        <time>2015-03-22T11:48:07.1Z</time>
      </trkpt>
      <trkpt lat="48.42812" lon="-3.55259">
        <ele>223</ele>
        <time>2015-03-22T11:48:09.1Z</time>
      </trkpt>
      <trkpt lat="48.4281" lon="-3.55261">
        <ele>223</ele>
        <time>2015-03-22T11:48:11.1Z</time>
      </trkpt>
      <trkpt lat="48.42806" lon="-3.55266">
        <ele>223</ele>
        <time>2015-03-22T11:48:15.1Z</time>
      </trkpt>
      <trkpt lat="48.42804" lon="-3.55268">
        <ele>223</ele>
        <time>2015-03-22T11:48:17.1Z</time>
      </trkpt>
      <trkpt lat="48.42801" lon="-3.55272">
        <ele>223</ele>
        <time>2015-03-22T11:48:19.1Z</time>
      </trkpt>
      <trkpt lat="48.42799" lon="-3.55274">
        <ele>223</ele>
        <time>2015-03-22T11:48:22.1Z</time>
      </trkpt>
      <trkpt lat="48.42797" lon="-3.55276">
        <ele>223</ele>
        <time>2015-03-22T11:48:24.1Z</time>
      </trkpt>
      <trkpt lat="48.42794" lon="-3.55278">
        <ele>223</ele>
        <time>2015-03-22T11:48:26.1Z</time>
      </trkpt>
      <trkpt lat="48.42793" lon="-3.55281">
        <ele>223</ele>
        <time>2015-03-22T11:48:29.1Z</time>
      </trkpt>
      <trkpt lat="48.42789" lon="-3.55284">
        <ele>224</ele>
        <time>2015-03-22T11:48:31.1Z</time>
      </trkpt>
      <trkpt lat="48.42787" lon="-3.55286">
        <ele>224</ele>
        <time>2015-03-22T11:48:33.1Z</time>
      </trkpt>
      <trkpt lat="48.42784" lon="-3.55289">
        <ele>224</ele>
        <time>2015-03-22T11:48:37.1Z</time>
      </trkpt>
      <trkpt lat="48.42781" lon="-3.55292">
        <ele>224</ele>
        <time>2015-03-22T11:48:39.1Z</time>
      </trkpt>
      <trkpt lat="48.42779" lon="-3.55294">
        <ele>224</ele>
        <time>2015-03-22T11:48:41.1Z</time>
      </trkpt>
      <trkpt lat="48.42777" lon="-3.55299">
        <ele>224</ele>
        <time>2015-03-22T11:48:45.1Z</time>
      </trkpt>
      <trkpt lat="48.42775" lon="-3.55301">
        <ele>224</ele>
        <time>2015-03-22T11:48:47.1Z</time>
      </trkpt>
      <trkpt lat="48.42772" lon="-3.55304">
        <ele>224</ele>
        <time>2015-03-22T11:48:49.1Z</time>
      </trkpt>
      <trkpt lat="48.4277" lon="-3.55307">
        <ele>224</ele>
        <time>2015-03-22T11:48:52.1Z</time>
      </trkpt>
      <trkpt lat="48.42768" lon="-3.55309">
        <ele>224</ele>
        <time>2015-03-22T11:48:54.1Z</time>
      </trkpt>
      <trkpt lat="48.42765" lon="-3.55312">
        <ele>224</ele>
        <time>2015-03-22T11:48:56.1Z</time>
      </trkpt>
      <trkpt lat="48.42763" lon="-3.55315">
        <ele>224</ele>
        <time>2015-03-22T11:48:59.1Z</time>
      </trkpt>
      <trkpt lat="48.42761" lon="-3.55318">
        <ele>224</ele>
        <time>2015-03-22T11:49:02.1Z</time>
      </trkpt>
      <trkpt lat="48.42757" lon="-3.55322">
        <ele>224</ele>
        <time>2015-03-22T11:49:04.1Z</time>
      </trkpt>
      <trkpt lat="48.42756" lon="-3.55324">
        <ele>224</ele>
        <time>2015-03-22T11:49:07.1Z</time>
      </trkpt>
      <trkpt lat="48.42752" lon="-3.55327">
        <ele>224</ele>
        <time>2015-03-22T11:49:10.1Z</time>
      </trkpt>
      <trkpt lat="48.4275" lon="-3.5533">
        <ele>224</ele>
        <time>2015-03-22T11:49:12.1Z</time>
      </trkpt>
      <trkpt lat="48.42748" lon="-3.55333">
        <ele>224</ele>
        <time>2015-03-22T11:49:15.1Z</time>
      </trkpt>
      <trkpt lat="48.42745" lon="-3.55336">
        <ele>224</ele>
        <time>2015-03-22T11:49:17.1Z</time>
      </trkpt>
      <trkpt lat="48.42743" lon="-3.55338">
        <ele>224</ele>
        <time>2015-03-22T11:49:20.1Z</time>
      </trkpt>
      <trkpt lat="48.42741" lon="-3.5534">
        <ele>224</ele>
        <time>2015-03-22T11:49:23.1Z</time>
      </trkpt>
      <trkpt lat="48.42738" lon="-3.55343">
        <ele>224</ele>
        <time>2015-03-22T11:49:25.1Z</time>
      </trkpt>
      <trkpt lat="48.42735" lon="-3.55347">
        <ele>224</ele>
        <time>2015-03-22T11:49:29.1Z</time>
      </trkpt>
      <trkpt lat="48.42732" lon="-3.55352">
        <ele>224</ele>
        <time>2015-03-22T11:49:31.1Z</time>
      </trkpt>
      <trkpt lat="48.42729" lon="-3.55355">
        <ele>224</ele>
        <time>2015-03-22T11:49:34.1Z</time>
      </trkpt>
      <trkpt lat="48.42728" lon="-3.55357">
        <ele>224</ele>
        <time>2015-03-22T11:49:37.1Z</time>
      </trkpt>
      <trkpt lat="48.42725" lon="-3.5536">
        <ele>224</ele>
        <time>2015-03-22T11:49:39.1Z</time>
      </trkpt>
      <trkpt lat="48.42723" lon="-3.55363">
        <ele>223</ele>
        <time>2015-03-22T11:49:42.1Z</time>
      </trkpt>
      <trkpt lat="48.4272" lon="-3.55367">
        <ele>223</ele>
        <time>2015-03-22T11:49:44.1Z</time>
      </trkpt>
      <trkpt lat="48.42719" lon="-3.55369">
        <ele>223</ele>
        <time>2015-03-22T11:49:47.1Z</time>
      </trkpt>
      <trkpt lat="48.42716" lon="-3.55373">
        <ele>223</ele>
        <time>2015-03-22T11:49:49.1Z</time>
      </trkpt>
      <trkpt lat="48.42712" lon="-3.55376">
        <ele>223</ele>
        <time>2015-03-22T11:49:52.1Z</time>
      </trkpt>
      <trkpt lat="48.42709" lon="-3.55378">
        <ele>223</ele>
        <time>2015-03-22T11:49:54.1Z</time>
      </trkpt>
      <trkpt lat="48.42706" lon="-3.5538">
        <ele>223</ele>
        <time>2015-03-22T11:49:57.1Z</time>
      </trkpt>
      <trkpt lat="48.42703" lon="-3.55383">
        <ele>223</ele>
        <time>2015-03-22T11:50:00.1Z</time>
      </trkpt>
      <trkpt lat="48.427" lon="-3.55386">
        <ele>223</ele>
        <time>2015-03-22T11:50:03.1Z</time>
      </trkpt>
      <trkpt lat="48.42698" lon="-3.55388">
        <ele>223</ele>
        <time>2015-03-22T11:50:05.1Z</time>
      </trkpt>
      <trkpt lat="48.42696" lon="-3.55391">
        <ele>223</ele>
        <time>2015-03-22T11:50:08.1Z</time>
      </trkpt>
      <trkpt lat="48.42693" lon="-3.55393">
        <ele>223</ele>
        <time>2015-03-22T11:50:10.1Z</time>
      </trkpt>
      <trkpt lat="48.42689" lon="-3.55395">
        <ele>223</ele>
        <time>2015-03-22T11:50:13.1Z</time>
      </trkpt>
      <trkpt lat="48.42688" lon="-3.55395">
        <ele>223</ele>
        <time>2015-03-22T11:50:16.1Z</time>
      </trkpt>
      <trkpt lat="48.42685" lon="-3.55398">
        <ele>223</ele>
        <time>2015-03-22T11:50:18.1Z</time>
      </trkpt>
      <trkpt lat="48.42682" lon="-3.55401">
        <ele>223</ele>
        <time>2015-03-22T11:50:21.1Z</time>
      </trkpt>
      <trkpt lat="48.42679" lon="-3.55404">
        <ele>223</ele>
        <time>2015-03-22T11:50:24.1Z</time>
      </trkpt>
      <trkpt lat="48.42677" lon="-3.55405">
        <ele>223</ele>
        <time>2015-03-22T11:50:26.1Z</time>
      </trkpt>
      <trkpt lat="48.42675" lon="-3.55407">
        <ele>223</ele>
        <time>2015-03-22T11:50:28.1Z</time>
      </trkpt>
      <trkpt lat="48.42672" lon="-3.55409">
        <ele>223</ele>
        <time>2015-03-22T11:50:31.1Z</time>
      </trkpt>
      <trkpt lat="48.42668" lon="-3.55412">
        <ele>223</ele>
        <time>2015-03-22T11:50:33.1Z</time>
      </trkpt>
      <trkpt lat="48.42666" lon="-3.55414">
        <ele>223</ele>
        <time>2015-03-22T11:50:35.1Z</time>
      </trkpt>
      <trkpt lat="48.42663" lon="-3.55416">
        <ele>223</ele>
        <time>2015-03-22T11:50:37.1Z</time>
      </trkpt>
      <trkpt lat="48.42661" lon="-3.55417">
        <ele>222</ele>
        <time>2015-03-22T11:50:39.1Z</time>
      </trkpt>
      <trkpt lat="48.42659" lon="-3.55418">
        <ele>222</ele>
        <time>2015-03-22T11:50:41.1Z</time>
      </trkpt>
      <trkpt lat="48.42656" lon="-3.5542">
        <ele>222</ele>
        <time>2015-03-22T11:50:43.1Z</time>
      </trkpt>
      <trkpt lat="48.42654" lon="-3.55421">
        <ele>223</ele>
        <time>2015-03-22T11:50:45.1Z</time>
      </trkpt>
      <trkpt lat="48.42651" lon="-3.55423">
        <ele>223</ele>
        <time>2015-03-22T11:50:48.1Z</time>
      </trkpt>
      <trkpt lat="48.42647" lon="-3.55424">
        <ele>223</ele>
        <time>2015-03-22T11:50:51.1Z</time>
      </trkpt>
      <trkpt lat="48.42645" lon="-3.55426">
        <ele>223</ele>
        <time>2015-03-22T11:50:53.1Z</time>
      </trkpt>
      <trkpt lat="48.42642" lon="-3.55428">
        <ele>222</ele>
        <time>2015-03-22T11:50:55.1Z</time>
      </trkpt>
      <trkpt lat="48.42639" lon="-3.55429">
        <ele>222</ele>
        <time>2015-03-22T11:50:57.1Z</time>
      </trkpt>
      <trkpt lat="48.42636" lon="-3.55432">
        <ele>222</ele>
        <time>2015-03-22T11:51:00.1Z</time>
      </trkpt>
      <trkpt lat="48.42633" lon="-3.55433">
        <ele>223</ele>
        <time>2015-03-22T11:51:02.1Z</time>
      </trkpt>
      <trkpt lat="48.42631" lon="-3.55434">
        <ele>223</ele>
        <time>2015-03-22T11:51:04.1Z</time>
      </trkpt>
      <trkpt lat="48.42628" lon="-3.55434">
        <ele>223</ele>
        <time>2015-03-22T11:51:06.1Z</time>
      </trkpt>
      <trkpt lat="48.42625" lon="-3.55436">
        <ele>223</ele>
        <time>2015-03-22T11:51:09.1Z</time>
      </trkpt>
      <trkpt lat="48.42621" lon="-3.55438">
        <ele>223</ele>
        <time>2015-03-22T11:51:12.1Z</time>
      </trkpt>
      <trkpt lat="48.42618" lon="-3.55438">
        <ele>223</ele>
        <time>2015-03-22T11:51:14.1Z</time>
      </trkpt>
      <trkpt lat="48.42615" lon="-3.5544">
        <ele>223</ele>
        <time>2015-03-22T11:51:17.1Z</time>
      </trkpt>
      <trkpt lat="48.4261" lon="-3.55442">
        <ele>223</ele>
        <time>2015-03-22T11:51:20.1Z</time>
      </trkpt>
      <trkpt lat="48.42608" lon="-3.55444">
        <ele>223</ele>
        <time>2015-03-22T11:51:22.1Z</time>
      </trkpt>
      <trkpt lat="48.42605" lon="-3.55446">
        <ele>223</ele>
        <time>2015-03-22T11:51:26.1Z</time>
      </trkpt>
      <trkpt lat="48.42601" lon="-3.55448">
        <ele>222</ele>
        <time>2015-03-22T11:51:28.1Z</time>
      </trkpt>
      <trkpt lat="48.42599" lon="-3.5545">
        <ele>222</ele>
        <time>2015-03-22T11:51:30.1Z</time>
      </trkpt>
      <trkpt lat="48.42595" lon="-3.55452">
        <ele>222</ele>
        <time>2015-03-22T11:51:33.1Z</time>
      </trkpt>
      <trkpt lat="48.42593" lon="-3.55453">
        <ele>223</ele>
        <time>2015-03-22T11:51:35.1Z</time>
      </trkpt>
      <trkpt lat="48.4259" lon="-3.55453">
        <ele>223</ele>
        <time>2015-03-22T11:51:37.1Z</time>
      </trkpt>
      <trkpt lat="48.42586" lon="-3.55455">
        <ele>223</ele>
        <time>2015-03-22T11:51:40.1Z</time>
      </trkpt>
      <trkpt lat="48.42584" lon="-3.55456">
        <ele>223</ele>
        <time>2015-03-22T11:51:43.1Z</time>
      </trkpt>
      <trkpt lat="48.4258" lon="-3.55458">
        <ele>223</ele>
        <time>2015-03-22T11:51:45.1Z</time>
      </trkpt>
      <trkpt lat="48.42578" lon="-3.5546">
        <ele>222</ele>
        <time>2015-03-22T11:51:47.1Z</time>
      </trkpt>
      <trkpt lat="48.42576" lon="-3.55461">
        <ele>222</ele>
        <time>2015-03-22T11:51:49.1Z</time>
      </trkpt>
      <trkpt lat="48.42574" lon="-3.55463">
        <ele>222</ele>
        <time>2015-03-22T11:51:51.1Z</time>
      </trkpt>
      <trkpt lat="48.4257" lon="-3.55466">
        <ele>222</ele>
        <time>2015-03-22T11:51:54.1Z</time>
      </trkpt>
      <trkpt lat="48.42568" lon="-3.55469">
        <ele>222</ele>
        <time>2015-03-22T11:51:57.1Z</time>
      </trkpt>
      <trkpt lat="48.42565" lon="-3.55472">
        <ele>222</ele>
        <time>2015-03-22T11:51:59.1Z</time>
      </trkpt>
      <trkpt lat="48.42563" lon="-3.55474">
        <ele>222</ele>
        <time>2015-03-22T11:52:01.1Z</time>
      </trkpt>
      <trkpt lat="48.42561" lon="-3.55477">
        <ele>222</ele>
        <time>2015-03-22T11:52:03.1Z</time>
      </trkpt>
      <trkpt lat="48.42557" lon="-3.55481">
        <ele>222</ele>
        <time>2015-03-22T11:52:06.1Z</time>
      </trkpt>
      <trkpt lat="48.42554" lon="-3.55485">
        <ele>222</ele>
        <time>2015-03-22T11:52:09.1Z</time>
      </trkpt>
      <trkpt lat="48.42553" lon="-3.55487">
        <ele>222</ele>
        <time>2015-03-22T11:52:12.1Z</time>
      </trkpt>
      <trkpt lat="48.4255" lon="-3.55491">
        <ele>222</ele>
        <time>2015-03-22T11:52:14.1Z</time>
      </trkpt>
      <trkpt lat="48.42548" lon="-3.55493">
        <ele>222</ele>
        <time>2015-03-22T11:52:16.1Z</time>
      </trkpt>
      <trkpt lat="48.42546" lon="-3.55497">
        <ele>222</ele>
        <time>2015-03-22T11:52:18.1Z</time>
      </trkpt>
      <trkpt lat="48.42543" lon="-3.55501">
        <ele>222</ele>
        <time>2015-03-22T11:52:21.1Z</time>
      </trkpt>
      <trkpt lat="48.42541" lon="-3.55502">
        <ele>222</ele>
        <time>2015-03-22T11:52:23.1Z</time>
      </trkpt>
      <trkpt lat="48.42538" lon="-3.55505">
        <ele>223</ele>
        <time>2015-03-22T11:52:26.1Z</time>
      </trkpt>
      <trkpt lat="48.42535" lon="-3.55507">
        <ele>223</ele>
        <time>2015-03-22T11:52:29.1Z</time>
      </trkpt>
      <trkpt lat="48.42532" lon="-3.5551">
        <ele>223</ele>
        <time>2015-03-22T11:52:31.1Z</time>
      </trkpt>
      <trkpt lat="48.42531" lon="-3.55512">
        <ele>223</ele>
        <time>2015-03-22T11:52:33.1Z</time>
      </trkpt>
      <trkpt lat="48.42528" lon="-3.55513">
        <ele>223</ele>
        <time>2015-03-22T11:52:35.1Z</time>
      </trkpt>
      <trkpt lat="48.42525" lon="-3.55515">
        <ele>223</ele>
        <time>2015-03-22T11:52:38.1Z</time>
      </trkpt>
      <trkpt lat="48.42523" lon="-3.55517">
        <ele>223</ele>
        <time>2015-03-22T11:52:40.1Z</time>
      </trkpt>
      <trkpt lat="48.42521" lon="-3.55517">
        <ele>223</ele>
        <time>2015-03-22T11:52:42.1Z</time>
      </trkpt>
      <trkpt lat="48.42518" lon="-3.55519">
        <ele>223</ele>
        <time>2015-03-22T11:52:44.1Z</time>
      </trkpt>
      <trkpt lat="48.42515" lon="-3.5552">
        <ele>222</ele>
        <time>2015-03-22T11:52:47.1Z</time>
      </trkpt>
      <trkpt lat="48.42513" lon="-3.55521">
        <ele>222</ele>
        <time>2015-03-22T11:52:49.1Z</time>
      </trkpt>
      <trkpt lat="48.42509" lon="-3.55523">
        <ele>221</ele>
        <time>2015-03-22T11:52:52.1Z</time>
      </trkpt>
      <trkpt lat="48.42507" lon="-3.55524">
        <ele>221</ele>
        <time>2015-03-22T11:52:54.1Z</time>
      </trkpt>
      <trkpt lat="48.42503" lon="-3.55525">
        <ele>221</ele>
        <time>2015-03-22T11:52:57.1Z</time>
      </trkpt>
      <trkpt lat="48.42501" lon="-3.55527">
        <ele>222</ele>
        <time>2015-03-22T11:52:59.1Z</time>
      </trkpt>
      <trkpt lat="48.42499" lon="-3.55528">
        <ele>222</ele>
        <time>2015-03-22T11:53:01.1Z</time>
      </trkpt>
      <trkpt lat="48.42496" lon="-3.5553">
        <ele>222</ele>
        <time>2015-03-22T11:53:03.1Z</time>
      </trkpt>
      <trkpt lat="48.42493" lon="-3.55532">
        <ele>221</ele>
        <time>2015-03-22T11:53:06.1Z</time>
      </trkpt>
      <trkpt lat="48.4249" lon="-3.55533">
        <ele>221</ele>
        <time>2015-03-22T11:53:08.1Z</time>
      </trkpt>
      <trkpt lat="48.42487" lon="-3.55535">
        <ele>221</ele>
        <time>2015-03-22T11:53:11.1Z</time>
      </trkpt>
      <trkpt lat="48.42485" lon="-3.55537">
        <ele>221</ele>
        <time>2015-03-22T11:53:13.1Z</time>
      </trkpt>
      <trkpt lat="48.42482" lon="-3.55539">
        <ele>221</ele>
        <time>2015-03-22T11:53:16.1Z</time>
      </trkpt>
      <trkpt lat="48.42478" lon="-3.55542">
        <ele>221</ele>
        <time>2015-03-22T11:53:19.1Z</time>
      </trkpt>
      <trkpt lat="48.42476" lon="-3.55543">
        <ele>221</ele>
        <time>2015-03-22T11:53:21.1Z</time>
      </trkpt>
      <trkpt lat="48.42473" lon="-3.55544">
        <ele>221</ele>
        <time>2015-03-22T11:53:23.1Z</time>
      </trkpt>
      <trkpt lat="48.42471" lon="-3.55546">
        <ele>221</ele>
        <time>2015-03-22T11:53:25.1Z</time>
      </trkpt>
      <trkpt lat="48.42468" lon="-3.55549">
        <ele>221</ele>
        <time>2015-03-22T11:53:28.1Z</time>
      </trkpt>
      <trkpt lat="48.42465" lon="-3.5555">
        <ele>221</ele>
        <time>2015-03-22T11:53:30.1Z</time>
      </trkpt>
      <trkpt lat="48.42462" lon="-3.55553">
        <ele>221</ele>
        <time>2015-03-22T11:53:33.1Z</time>
      </trkpt>
      <trkpt lat="48.42458" lon="-3.55556">
        <ele>220</ele>
        <time>2015-03-22T11:53:36.1Z</time>
      </trkpt>
      <trkpt lat="48.42456" lon="-3.55557">
        <ele>220</ele>
        <time>2015-03-22T11:53:38.1Z</time>
      </trkpt>
      <trkpt lat="48.42453" lon="-3.55558">
        <ele>220</ele>
        <time>2015-03-22T11:53:40.1Z</time>
      </trkpt>
      <trkpt lat="48.4245" lon="-3.55562">
        <ele>220</ele>
        <time>2015-03-22T11:53:44.1Z</time>
      </trkpt>
      <trkpt lat="48.42447" lon="-3.55565">
        <ele>220</ele>
        <time>2015-03-22T11:53:46.1Z</time>
      </trkpt>
      <trkpt lat="48.42443" lon="-3.55568">
        <ele>220</ele>
        <time>2015-03-22T11:53:49.1Z</time>
      </trkpt>
      <trkpt lat="48.42441" lon="-3.5557">
        <ele>220</ele>
        <time>2015-03-22T11:53:51.1Z</time>
      </trkpt>
      <trkpt lat="48.42437" lon="-3.55573">
        <ele>219</ele>
        <time>2015-03-22T11:53:54.1Z</time>
      </trkpt>
      <trkpt lat="48.42434" lon="-3.55575">
        <ele>219</ele>
        <time>2015-03-22T11:53:57.1Z</time>
      </trkpt>
      <trkpt lat="48.4243" lon="-3.55578">
        <ele>219</ele>
        <time>2015-03-22T11:53:59.1Z</time>
      </trkpt>
      <trkpt lat="48.42426" lon="-3.55581">
        <ele>219</ele>
        <time>2015-03-22T11:54:02.1Z</time>
      </trkpt>
      <trkpt lat="48.42424" lon="-3.55583">
        <ele>219</ele>
        <time>2015-03-22T11:54:04.1Z</time>
      </trkpt>
      <trkpt lat="48.42421" lon="-3.55586">
        <ele>218</ele>
        <time>2015-03-22T11:54:07.1Z</time>
      </trkpt>
      <trkpt lat="48.42418" lon="-3.55588">
        <ele>218</ele>
        <time>2015-03-22T11:54:09.1Z</time>
      </trkpt>
      <trkpt lat="48.42415" lon="-3.55591">
        <ele>218</ele>
        <time>2015-03-22T11:54:12.1Z</time>
      </trkpt>
      <trkpt lat="48.42412" lon="-3.55594">
        <ele>218</ele>
        <time>2015-03-22T11:54:15.1Z</time>
      </trkpt>
      <trkpt lat="48.42411" lon="-3.55595">
        <ele>218</ele>
        <time>2015-03-22T11:54:18.1Z</time>
      </trkpt>
      <trkpt lat="48.42411" lon="-3.55595">
        <ele>218</ele>
        <time>2015-03-22T11:54:20.1Z</time>
      </trkpt>
      <trkpt lat="48.42412" lon="-3.55596">
        <ele>218</ele>
        <time>2015-03-22T11:54:22.1Z</time>
      </trkpt>
      <trkpt lat="48.42416" lon="-3.55596">
        <ele>218</ele>
        <time>2015-03-22T11:54:25.1Z</time>
      </trkpt>
      <trkpt lat="48.42415" lon="-3.55596">
        <ele>218</ele>
        <time>2015-03-22T11:54:27.1Z</time>
      </trkpt>
      <trkpt lat="48.42414" lon="-3.55598">
        <ele>218</ele>
        <time>2015-03-22T11:54:29.1Z</time>
      </trkpt>
      <trkpt lat="48.42412" lon="-3.556">
        <ele>217</ele>
        <time>2015-03-22T11:54:31.1Z</time>
      </trkpt>
      <trkpt lat="48.42411" lon="-3.55601">
        <ele>217</ele>
        <time>2015-03-22T11:54:33.1Z</time>
      </trkpt>
      <trkpt lat="48.42409" lon="-3.55603">
        <ele>217</ele>
        <time>2015-03-22T11:54:35.1Z</time>
      </trkpt>
      <trkpt lat="48.42406" lon="-3.55606">
        <ele>217</ele>
        <time>2015-03-22T11:54:38.1Z</time>
      </trkpt>
      <trkpt lat="48.42403" lon="-3.5561">
        <ele>217</ele>
        <time>2015-03-22T11:54:41.1Z</time>
      </trkpt>
      <trkpt lat="48.42401" lon="-3.55612">
        <ele>217</ele>
        <time>2015-03-22T11:54:43.1Z</time>
      </trkpt>
      <trkpt lat="48.42399" lon="-3.55614">
        <ele>217</ele>
        <time>2015-03-22T11:54:45.1Z</time>
      </trkpt>
      <trkpt lat="48.42395" lon="-3.55618">
        <ele>217</ele>
        <time>2015-03-22T11:54:48.1Z</time>
      </trkpt>
      <trkpt lat="48.42393" lon="-3.5562">
        <ele>216</ele>
        <time>2015-03-22T11:54:50.1Z</time>
      </trkpt>
      <trkpt lat="48.42391" lon="-3.55622">
        <ele>216</ele>
        <time>2015-03-22T11:54:53.1Z</time>
      </trkpt>
      <trkpt lat="48.42388" lon="-3.55626">
        <ele>216</ele>
        <time>2015-03-22T11:54:55.1Z</time>
      </trkpt>
      <trkpt lat="48.42386" lon="-3.55627">
        <ele>216</ele>
        <time>2015-03-22T11:54:57.1Z</time>
      </trkpt>
      <trkpt lat="48.42384" lon="-3.55629">
        <ele>216</ele>
        <time>2015-03-22T11:54:59.1Z</time>
      </trkpt>
      <trkpt lat="48.42382" lon="-3.55631">
        <ele>216</ele>
        <time>2015-03-22T11:55:02.1Z</time>
      </trkpt>
      <trkpt lat="48.42378" lon="-3.55632">
        <ele>216</ele>
        <time>2015-03-22T11:55:05.1Z</time>
      </trkpt>
      <trkpt lat="48.42376" lon="-3.55634">
        <ele>216</ele>
        <time>2015-03-22T11:55:07.1Z</time>
      </trkpt>
      <trkpt lat="48.42373" lon="-3.55637">
        <ele>215</ele>
        <time>2015-03-22T11:55:10.1Z</time>
      </trkpt>
      <trkpt lat="48.42371" lon="-3.55639">
        <ele>215</ele>
        <time>2015-03-22T11:55:12.1Z</time>
      </trkpt>
      <trkpt lat="48.42367" lon="-3.55644">
        <ele>215</ele>
        <time>2015-03-22T11:55:15.1Z</time>
      </trkpt>
      <trkpt lat="48.42365" lon="-3.55648">
        <ele>215</ele>
        <time>2015-03-22T11:55:18.1Z</time>
      </trkpt>
      <trkpt lat="48.42363" lon="-3.55651">
        <ele>215</ele>
        <time>2015-03-22T11:55:20.1Z</time>
      </trkpt>
      <trkpt lat="48.42361" lon="-3.55654">
        <ele>215</ele>
        <time>2015-03-22T11:55:22.1Z</time>
      </trkpt>
      <trkpt lat="48.42359" lon="-3.55657">
        <ele>215</ele>
        <time>2015-03-22T11:55:24.1Z</time>
      </trkpt>
      <trkpt lat="48.42356" lon="-3.55661">
        <ele>215</ele>
        <time>2015-03-22T11:55:27.1Z</time>
      </trkpt>
      <trkpt lat="48.42353" lon="-3.55666">
        <ele>215</ele>
        <time>2015-03-22T11:55:30.1Z</time>
      </trkpt>
      <trkpt lat="48.42353" lon="-3.5567">
        <ele>215</ele>
        <time>2015-03-22T11:55:32.1Z</time>
      </trkpt>
      <trkpt lat="48.42353" lon="-3.55674">
        <ele>215</ele>
        <time>2015-03-22T11:55:34.1Z</time>
      </trkpt>
      <trkpt lat="48.42353" lon="-3.55678">
        <ele>215</ele>
        <time>2015-03-22T11:55:36.1Z</time>
      </trkpt>
      <trkpt lat="48.42355" lon="-3.55681">
        <ele>214</ele>
        <time>2015-03-22T11:55:38.1Z</time>
      </trkpt>
      <trkpt lat="48.42357" lon="-3.55685">
        <ele>215</ele>
        <time>2015-03-22T11:55:41.1Z</time>
      </trkpt>
      <trkpt lat="48.42359" lon="-3.55687">
        <ele>215</ele>
        <time>2015-03-22T11:55:43.1Z</time>
      </trkpt>
      <trkpt lat="48.42361" lon="-3.5569">
        <ele>215</ele>
        <time>2015-03-22T11:55:45.1Z</time>
      </trkpt>
      <trkpt lat="48.42363" lon="-3.55692">
        <ele>215</ele>
        <time>2015-03-22T11:55:47.1Z</time>
      </trkpt>
      <trkpt lat="48.42365" lon="-3.55697">
        <ele>215</ele>
        <time>2015-03-22T11:55:50.1Z</time>
      </trkpt>
      <trkpt lat="48.42366" lon="-3.55699">
        <ele>215</ele>
        <time>2015-03-22T11:55:52.1Z</time>
      </trkpt>
      <trkpt lat="48.42368" lon="-3.55702">
        <ele>215</ele>
        <time>2015-03-22T11:55:54.1Z</time>
      </trkpt>
      <trkpt lat="48.4237" lon="-3.55705">
        <ele>215</ele>
        <time>2015-03-22T11:55:56.1Z</time>
      </trkpt>
      <trkpt lat="48.42372" lon="-3.55708">
        <ele>215</ele>
        <time>2015-03-22T11:55:58.1Z</time>
      </trkpt>
      <trkpt lat="48.42375" lon="-3.55712">
        <ele>215</ele>
        <time>2015-03-22T11:56:01.1Z</time>
      </trkpt>
      <trkpt lat="48.42376" lon="-3.55715">
        <ele>215</ele>
        <time>2015-03-22T11:56:03.1Z</time>
      </trkpt>
      <trkpt lat="48.42379" lon="-3.55717">
        <ele>215</ele>
        <time>2015-03-22T11:56:06.1Z</time>
      </trkpt>
      <trkpt lat="48.42382" lon="-3.5572">
        <ele>215</ele>
        <time>2015-03-22T11:56:08.1Z</time>
      </trkpt>
      <trkpt lat="48.42384" lon="-3.55723">
        <ele>215</ele>
        <time>2015-03-22T11:56:10.1Z</time>
      </trkpt>
      <trkpt lat="48.42386" lon="-3.55726">
        <ele>215</ele>
        <time>2015-03-22T11:56:13.1Z</time>
      </trkpt>
      <trkpt lat="48.42389" lon="-3.55729">
        <ele>215</ele>
        <time>2015-03-22T11:56:16.1Z</time>
      </trkpt>
      <trkpt lat="48.4239" lon="-3.55731">
        <ele>215</ele>
        <time>2015-03-22T11:56:19.1Z</time>
      </trkpt>
    </trkseg>
  </trk>
</gpx>